<?xml version="1.0" encoding="UTF-8"?>
<gpx xmlns="http://www.topografix.com/GPX/1/1"
     creator="GpsDumpMac 0.27"
     version="1.1"
     xmlns:xsi="http://www.w3.org/2001/XMLSchema-instance"
     xsi:schemaLocation="http://www.topografix.com/GPX/1/1 http://www.topografix.com/GPX/1/1/gpx.xsd">
  <metadata>
    <link href="http://www.gethome.no/stein.sorensen/">
      <text>GPS dump for www.flightlog.org</text>
    </link>
    <time>2015-03-17T17:33:06Z</time>
    <bounds minlat="40.162900" minlon="-5.105200" maxlat="40.252367" maxlon="-4.882450"/>
  </metadata>
  <trk>
    <name>Track 001</name>
    <trkseg>
      <trkpt lat="40.251450" lon="-4.884317">
        <ele>999.0</ele>
        <time>2015-03-14T14:38:20Z</time>
      </trkpt>
      <trkpt lat="40.251400" lon="-4.884150">
        <ele>1002.0</ele>
        <time>2015-03-14T14:38:22Z</time>
      </trkpt>
      <trkpt lat="40.251383" lon="-4.883983">
        <ele>1003.0</ele>
        <time>2015-03-14T14:38:24Z</time>
      </trkpt>
      <trkpt lat="40.251350" lon="-4.883783">
        <ele>1005.0</ele>
        <time>2015-03-14T14:38:26Z</time>
      </trkpt>
      <trkpt lat="40.251350" lon="-4.883583">
        <ele>1008.0</ele>
        <time>2015-03-14T14:38:28Z</time>
      </trkpt>
      <trkpt lat="40.251400" lon="-4.883417">
        <ele>1012.0</ele>
        <time>2015-03-14T14:38:30Z</time>
      </trkpt>
      <trkpt lat="40.251400" lon="-4.883250">
        <ele>1014.0</ele>
        <time>2015-03-14T14:38:32Z</time>
      </trkpt>
      <trkpt lat="40.251333" lon="-4.883100">
        <ele>1017.0</ele>
        <time>2015-03-14T14:38:34Z</time>
      </trkpt>
      <trkpt lat="40.251283" lon="-4.882917">
        <ele>1020.0</ele>
        <time>2015-03-14T14:38:36Z</time>
      </trkpt>
      <trkpt lat="40.251250" lon="-4.882733">
        <ele>1026.0</ele>
        <time>2015-03-14T14:38:38Z</time>
      </trkpt>
      <trkpt lat="40.251167" lon="-4.882633">
        <ele>1030.0</ele>
        <time>2015-03-14T14:38:40Z</time>
      </trkpt>
      <trkpt lat="40.251050" lon="-4.882567">
        <ele>1031.0</ele>
        <time>2015-03-14T14:38:42Z</time>
      </trkpt>
      <trkpt lat="40.250867" lon="-4.882467">
        <ele>1031.0</ele>
        <time>2015-03-14T14:38:44Z</time>
      </trkpt>
      <trkpt lat="40.250683" lon="-4.882450">
        <ele>1034.0</ele>
        <time>2015-03-14T14:38:46Z</time>
      </trkpt>
      <trkpt lat="40.250517" lon="-4.882533">
        <ele>1034.0</ele>
        <time>2015-03-14T14:38:48Z</time>
      </trkpt>
      <trkpt lat="40.250333" lon="-4.882700">
        <ele>1037.0</ele>
        <time>2015-03-14T14:38:50Z</time>
      </trkpt>
      <trkpt lat="40.250233" lon="-4.882883">
        <ele>1045.0</ele>
        <time>2015-03-14T14:38:52Z</time>
      </trkpt>
      <trkpt lat="40.250200" lon="-4.883100">
        <ele>1051.0</ele>
        <time>2015-03-14T14:38:54Z</time>
      </trkpt>
      <trkpt lat="40.250217" lon="-4.883383">
        <ele>1051.0</ele>
        <time>2015-03-14T14:38:56Z</time>
      </trkpt>
      <trkpt lat="40.250283" lon="-4.883667">
        <ele>1055.0</ele>
        <time>2015-03-14T14:38:58Z</time>
      </trkpt>
      <trkpt lat="40.250383" lon="-4.883900">
        <ele>1060.0</ele>
        <time>2015-03-14T14:39:00Z</time>
      </trkpt>
      <trkpt lat="40.250533" lon="-4.884100">
        <ele>1060.0</ele>
        <time>2015-03-14T14:39:02Z</time>
      </trkpt>
      <trkpt lat="40.250750" lon="-4.884333">
        <ele>1061.0</ele>
        <time>2015-03-14T14:39:04Z</time>
      </trkpt>
      <trkpt lat="40.250933" lon="-4.884500">
        <ele>1067.0</ele>
        <time>2015-03-14T14:39:06Z</time>
      </trkpt>
      <trkpt lat="40.251083" lon="-4.884583">
        <ele>1071.0</ele>
        <time>2015-03-14T14:39:08Z</time>
      </trkpt>
      <trkpt lat="40.251300" lon="-4.884683">
        <ele>1072.0</ele>
        <time>2015-03-14T14:39:10Z</time>
      </trkpt>
      <trkpt lat="40.251483" lon="-4.884733">
        <ele>1077.0</ele>
        <time>2015-03-14T14:39:12Z</time>
      </trkpt>
      <trkpt lat="40.251633" lon="-4.884733">
        <ele>1081.0</ele>
        <time>2015-03-14T14:39:14Z</time>
      </trkpt>
      <trkpt lat="40.251817" lon="-4.884700">
        <ele>1084.0</ele>
        <time>2015-03-14T14:39:16Z</time>
      </trkpt>
      <trkpt lat="40.251967" lon="-4.884617">
        <ele>1090.0</ele>
        <time>2015-03-14T14:39:18Z</time>
      </trkpt>
      <trkpt lat="40.252017" lon="-4.884533">
        <ele>1092.0</ele>
        <time>2015-03-14T14:39:20Z</time>
      </trkpt>
      <trkpt lat="40.252050" lon="-4.884350">
        <ele>1089.0</ele>
        <time>2015-03-14T14:39:22Z</time>
      </trkpt>
      <trkpt lat="40.252017" lon="-4.884150">
        <ele>1091.0</ele>
        <time>2015-03-14T14:39:24Z</time>
      </trkpt>
      <trkpt lat="40.251983" lon="-4.884000">
        <ele>1096.0</ele>
        <time>2015-03-14T14:39:26Z</time>
      </trkpt>
      <trkpt lat="40.251933" lon="-4.883867">
        <ele>1098.0</ele>
        <time>2015-03-14T14:39:28Z</time>
      </trkpt>
      <trkpt lat="40.251850" lon="-4.883683">
        <ele>1101.0</ele>
        <time>2015-03-14T14:39:30Z</time>
      </trkpt>
      <trkpt lat="40.251750" lon="-4.883517">
        <ele>1104.0</ele>
        <time>2015-03-14T14:39:32Z</time>
      </trkpt>
      <trkpt lat="40.251633" lon="-4.883367">
        <ele>1107.0</ele>
        <time>2015-03-14T14:39:34Z</time>
      </trkpt>
      <trkpt lat="40.251467" lon="-4.883283">
        <ele>1109.0</ele>
        <time>2015-03-14T14:39:36Z</time>
      </trkpt>
      <trkpt lat="40.251283" lon="-4.883233">
        <ele>1111.0</ele>
        <time>2015-03-14T14:39:38Z</time>
      </trkpt>
      <trkpt lat="40.251083" lon="-4.883217">
        <ele>1112.0</ele>
        <time>2015-03-14T14:39:40Z</time>
      </trkpt>
      <trkpt lat="40.250883" lon="-4.883133">
        <ele>1114.0</ele>
        <time>2015-03-14T14:39:42Z</time>
      </trkpt>
      <trkpt lat="40.250700" lon="-4.883150">
        <ele>1116.0</ele>
        <time>2015-03-14T14:39:44Z</time>
      </trkpt>
      <trkpt lat="40.250500" lon="-4.883267">
        <ele>1114.0</ele>
        <time>2015-03-14T14:39:46Z</time>
      </trkpt>
      <trkpt lat="40.250333" lon="-4.883500">
        <ele>1114.0</ele>
        <time>2015-03-14T14:39:48Z</time>
      </trkpt>
      <trkpt lat="40.250233" lon="-4.883767">
        <ele>1114.0</ele>
        <time>2015-03-14T14:39:50Z</time>
      </trkpt>
      <trkpt lat="40.250200" lon="-4.884083">
        <ele>1117.0</ele>
        <time>2015-03-14T14:39:52Z</time>
      </trkpt>
      <trkpt lat="40.250217" lon="-4.884350">
        <ele>1124.0</ele>
        <time>2015-03-14T14:39:54Z</time>
      </trkpt>
      <trkpt lat="40.250300" lon="-4.884583">
        <ele>1128.0</ele>
        <time>2015-03-14T14:39:56Z</time>
      </trkpt>
      <trkpt lat="40.250450" lon="-4.884800">
        <ele>1129.0</ele>
        <time>2015-03-14T14:39:58Z</time>
      </trkpt>
      <trkpt lat="40.250633" lon="-4.884933">
        <ele>1132.0</ele>
        <time>2015-03-14T14:40:00Z</time>
      </trkpt>
      <trkpt lat="40.250833" lon="-4.885033">
        <ele>1136.0</ele>
        <time>2015-03-14T14:40:02Z</time>
      </trkpt>
      <trkpt lat="40.251033" lon="-4.885133">
        <ele>1137.0</ele>
        <time>2015-03-14T14:40:04Z</time>
      </trkpt>
      <trkpt lat="40.251267" lon="-4.885217">
        <ele>1142.0</ele>
        <time>2015-03-14T14:40:06Z</time>
      </trkpt>
      <trkpt lat="40.251467" lon="-4.885267">
        <ele>1149.0</ele>
        <time>2015-03-14T14:40:08Z</time>
      </trkpt>
      <trkpt lat="40.251633" lon="-4.885267">
        <ele>1153.0</ele>
        <time>2015-03-14T14:40:10Z</time>
      </trkpt>
      <trkpt lat="40.251867" lon="-4.885283">
        <ele>1157.0</ele>
        <time>2015-03-14T14:40:12Z</time>
      </trkpt>
      <trkpt lat="40.252050" lon="-4.885317">
        <ele>1163.0</ele>
        <time>2015-03-14T14:40:14Z</time>
      </trkpt>
      <trkpt lat="40.252200" lon="-4.885217">
        <ele>1164.0</ele>
        <time>2015-03-14T14:40:16Z</time>
      </trkpt>
      <trkpt lat="40.252300" lon="-4.885050">
        <ele>1166.0</ele>
        <time>2015-03-14T14:40:18Z</time>
      </trkpt>
      <trkpt lat="40.252350" lon="-4.884900">
        <ele>1169.0</ele>
        <time>2015-03-14T14:40:20Z</time>
      </trkpt>
      <trkpt lat="40.252367" lon="-4.884733">
        <ele>1169.0</ele>
        <time>2015-03-14T14:40:22Z</time>
      </trkpt>
      <trkpt lat="40.252350" lon="-4.884533">
        <ele>1168.0</ele>
        <time>2015-03-14T14:40:24Z</time>
      </trkpt>
      <trkpt lat="40.252283" lon="-4.884283">
        <ele>1169.0</ele>
        <time>2015-03-14T14:40:26Z</time>
      </trkpt>
      <trkpt lat="40.252150" lon="-4.884150">
        <ele>1173.0</ele>
        <time>2015-03-14T14:40:28Z</time>
      </trkpt>
      <trkpt lat="40.251967" lon="-4.884083">
        <ele>1171.0</ele>
        <time>2015-03-14T14:40:30Z</time>
      </trkpt>
      <trkpt lat="40.251750" lon="-4.883983">
        <ele>1170.0</ele>
        <time>2015-03-14T14:40:32Z</time>
      </trkpt>
      <trkpt lat="40.251533" lon="-4.883883">
        <ele>1170.0</ele>
        <time>2015-03-14T14:40:34Z</time>
      </trkpt>
      <trkpt lat="40.251333" lon="-4.883833">
        <ele>1171.0</ele>
        <time>2015-03-14T14:40:36Z</time>
      </trkpt>
      <trkpt lat="40.251133" lon="-4.883783">
        <ele>1174.0</ele>
        <time>2015-03-14T14:40:38Z</time>
      </trkpt>
      <trkpt lat="40.250950" lon="-4.883850">
        <ele>1177.0</ele>
        <time>2015-03-14T14:40:40Z</time>
      </trkpt>
      <trkpt lat="40.250817" lon="-4.884017">
        <ele>1180.0</ele>
        <time>2015-03-14T14:40:42Z</time>
      </trkpt>
      <trkpt lat="40.250733" lon="-4.884250">
        <ele>1179.0</ele>
        <time>2015-03-14T14:40:44Z</time>
      </trkpt>
      <trkpt lat="40.250700" lon="-4.884567">
        <ele>1181.0</ele>
        <time>2015-03-14T14:40:46Z</time>
      </trkpt>
      <trkpt lat="40.250750" lon="-4.884833">
        <ele>1188.0</ele>
        <time>2015-03-14T14:40:48Z</time>
      </trkpt>
      <trkpt lat="40.250867" lon="-4.885000">
        <ele>1196.0</ele>
        <time>2015-03-14T14:40:50Z</time>
      </trkpt>
      <trkpt lat="40.250967" lon="-4.885117">
        <ele>1206.0</ele>
        <time>2015-03-14T14:40:52Z</time>
      </trkpt>
      <trkpt lat="40.251083" lon="-4.885167">
        <ele>1212.0</ele>
        <time>2015-03-14T14:40:54Z</time>
      </trkpt>
      <trkpt lat="40.251217" lon="-4.885117">
        <ele>1216.0</ele>
        <time>2015-03-14T14:40:56Z</time>
      </trkpt>
      <trkpt lat="40.251367" lon="-4.884967">
        <ele>1220.0</ele>
        <time>2015-03-14T14:40:58Z</time>
      </trkpt>
      <trkpt lat="40.251467" lon="-4.884817">
        <ele>1227.0</ele>
        <time>2015-03-14T14:41:00Z</time>
      </trkpt>
      <trkpt lat="40.251517" lon="-4.884633">
        <ele>1231.0</ele>
        <time>2015-03-14T14:41:02Z</time>
      </trkpt>
      <trkpt lat="40.251517" lon="-4.884450">
        <ele>1232.0</ele>
        <time>2015-03-14T14:41:04Z</time>
      </trkpt>
      <trkpt lat="40.251467" lon="-4.884250">
        <ele>1233.0</ele>
        <time>2015-03-14T14:41:06Z</time>
      </trkpt>
      <trkpt lat="40.251333" lon="-4.884083">
        <ele>1234.0</ele>
        <time>2015-03-14T14:41:08Z</time>
      </trkpt>
      <trkpt lat="40.251200" lon="-4.883950">
        <ele>1236.0</ele>
        <time>2015-03-14T14:41:10Z</time>
      </trkpt>
      <trkpt lat="40.251033" lon="-4.883850">
        <ele>1237.0</ele>
        <time>2015-03-14T14:41:12Z</time>
      </trkpt>
      <trkpt lat="40.250817" lon="-4.883833">
        <ele>1238.0</ele>
        <time>2015-03-14T14:41:14Z</time>
      </trkpt>
      <trkpt lat="40.250617" lon="-4.883900">
        <ele>1240.0</ele>
        <time>2015-03-14T14:41:16Z</time>
      </trkpt>
      <trkpt lat="40.250433" lon="-4.884033">
        <ele>1242.0</ele>
        <time>2015-03-14T14:41:18Z</time>
      </trkpt>
      <trkpt lat="40.250283" lon="-4.884217">
        <ele>1244.0</ele>
        <time>2015-03-14T14:41:20Z</time>
      </trkpt>
      <trkpt lat="40.250183" lon="-4.884467">
        <ele>1248.0</ele>
        <time>2015-03-14T14:41:22Z</time>
      </trkpt>
      <trkpt lat="40.250167" lon="-4.884750">
        <ele>1251.0</ele>
        <time>2015-03-14T14:41:24Z</time>
      </trkpt>
      <trkpt lat="40.250217" lon="-4.885000">
        <ele>1253.0</ele>
        <time>2015-03-14T14:41:26Z</time>
      </trkpt>
      <trkpt lat="40.250300" lon="-4.885217">
        <ele>1253.0</ele>
        <time>2015-03-14T14:41:28Z</time>
      </trkpt>
      <trkpt lat="40.250450" lon="-4.885417">
        <ele>1253.0</ele>
        <time>2015-03-14T14:41:30Z</time>
      </trkpt>
      <trkpt lat="40.250633" lon="-4.885550">
        <ele>1257.0</ele>
        <time>2015-03-14T14:41:32Z</time>
      </trkpt>
      <trkpt lat="40.250783" lon="-4.885667">
        <ele>1262.0</ele>
        <time>2015-03-14T14:41:34Z</time>
      </trkpt>
      <trkpt lat="40.250950" lon="-4.885783">
        <ele>1264.0</ele>
        <time>2015-03-14T14:41:36Z</time>
      </trkpt>
      <trkpt lat="40.251117" lon="-4.885867">
        <ele>1269.0</ele>
        <time>2015-03-14T14:41:38Z</time>
      </trkpt>
      <trkpt lat="40.251233" lon="-4.885917">
        <ele>1273.0</ele>
        <time>2015-03-14T14:41:40Z</time>
      </trkpt>
      <trkpt lat="40.251367" lon="-4.885883">
        <ele>1274.0</ele>
        <time>2015-03-14T14:41:42Z</time>
      </trkpt>
      <trkpt lat="40.251450" lon="-4.885733">
        <ele>1277.0</ele>
        <time>2015-03-14T14:41:44Z</time>
      </trkpt>
      <trkpt lat="40.251467" lon="-4.885583">
        <ele>1282.0</ele>
        <time>2015-03-14T14:41:46Z</time>
      </trkpt>
      <trkpt lat="40.251417" lon="-4.885417">
        <ele>1282.0</ele>
        <time>2015-03-14T14:41:48Z</time>
      </trkpt>
      <trkpt lat="40.251283" lon="-4.885267">
        <ele>1282.0</ele>
        <time>2015-03-14T14:41:50Z</time>
      </trkpt>
      <trkpt lat="40.251067" lon="-4.885233">
        <ele>1285.0</ele>
        <time>2015-03-14T14:41:52Z</time>
      </trkpt>
      <trkpt lat="40.250867" lon="-4.885300">
        <ele>1288.0</ele>
        <time>2015-03-14T14:41:54Z</time>
      </trkpt>
      <trkpt lat="40.250700" lon="-4.885483">
        <ele>1291.0</ele>
        <time>2015-03-14T14:41:56Z</time>
      </trkpt>
      <trkpt lat="40.250583" lon="-4.885733">
        <ele>1293.0</ele>
        <time>2015-03-14T14:41:58Z</time>
      </trkpt>
      <trkpt lat="40.250500" lon="-4.885983">
        <ele>1296.0</ele>
        <time>2015-03-14T14:42:00Z</time>
      </trkpt>
      <trkpt lat="40.250500" lon="-4.886233">
        <ele>1298.0</ele>
        <time>2015-03-14T14:42:02Z</time>
      </trkpt>
      <trkpt lat="40.250583" lon="-4.886483">
        <ele>1299.0</ele>
        <time>2015-03-14T14:42:04Z</time>
      </trkpt>
      <trkpt lat="40.250700" lon="-4.886700">
        <ele>1300.0</ele>
        <time>2015-03-14T14:42:06Z</time>
      </trkpt>
      <trkpt lat="40.250833" lon="-4.886883">
        <ele>1301.0</ele>
        <time>2015-03-14T14:42:08Z</time>
      </trkpt>
      <trkpt lat="40.251017" lon="-4.887017">
        <ele>1306.0</ele>
        <time>2015-03-14T14:42:10Z</time>
      </trkpt>
      <trkpt lat="40.251167" lon="-4.887100">
        <ele>1311.0</ele>
        <time>2015-03-14T14:42:12Z</time>
      </trkpt>
      <trkpt lat="40.251317" lon="-4.887167">
        <ele>1311.0</ele>
        <time>2015-03-14T14:42:14Z</time>
      </trkpt>
      <trkpt lat="40.251533" lon="-4.887250">
        <ele>1314.0</ele>
        <time>2015-03-14T14:42:16Z</time>
      </trkpt>
      <trkpt lat="40.251700" lon="-4.887200">
        <ele>1318.0</ele>
        <time>2015-03-14T14:42:18Z</time>
      </trkpt>
      <trkpt lat="40.251850" lon="-4.887050">
        <ele>1318.0</ele>
        <time>2015-03-14T14:42:20Z</time>
      </trkpt>
      <trkpt lat="40.252000" lon="-4.886850">
        <ele>1321.0</ele>
        <time>2015-03-14T14:42:22Z</time>
      </trkpt>
      <trkpt lat="40.252083" lon="-4.886583">
        <ele>1325.0</ele>
        <time>2015-03-14T14:42:24Z</time>
      </trkpt>
      <trkpt lat="40.252100" lon="-4.886317">
        <ele>1328.0</ele>
        <time>2015-03-14T14:42:26Z</time>
      </trkpt>
      <trkpt lat="40.252083" lon="-4.886150">
        <ele>1330.0</ele>
        <time>2015-03-14T14:42:28Z</time>
      </trkpt>
      <trkpt lat="40.251983" lon="-4.885983">
        <ele>1327.0</ele>
        <time>2015-03-14T14:42:30Z</time>
      </trkpt>
      <trkpt lat="40.251800" lon="-4.885817">
        <ele>1326.0</ele>
        <time>2015-03-14T14:42:32Z</time>
      </trkpt>
      <trkpt lat="40.251617" lon="-4.885767">
        <ele>1330.0</ele>
        <time>2015-03-14T14:42:34Z</time>
      </trkpt>
      <trkpt lat="40.251450" lon="-4.885800">
        <ele>1331.0</ele>
        <time>2015-03-14T14:42:36Z</time>
      </trkpt>
      <trkpt lat="40.251233" lon="-4.885867">
        <ele>1332.0</ele>
        <time>2015-03-14T14:42:38Z</time>
      </trkpt>
      <trkpt lat="40.251083" lon="-4.886033">
        <ele>1336.0</ele>
        <time>2015-03-14T14:42:40Z</time>
      </trkpt>
      <trkpt lat="40.250983" lon="-4.886267">
        <ele>1337.0</ele>
        <time>2015-03-14T14:42:42Z</time>
      </trkpt>
      <trkpt lat="40.250917" lon="-4.886550">
        <ele>1337.0</ele>
        <time>2015-03-14T14:42:44Z</time>
      </trkpt>
      <trkpt lat="40.250883" lon="-4.886833">
        <ele>1340.0</ele>
        <time>2015-03-14T14:42:46Z</time>
      </trkpt>
      <trkpt lat="40.250917" lon="-4.887083">
        <ele>1343.0</ele>
        <time>2015-03-14T14:42:48Z</time>
      </trkpt>
      <trkpt lat="40.251000" lon="-4.887333">
        <ele>1344.0</ele>
        <time>2015-03-14T14:42:50Z</time>
      </trkpt>
      <trkpt lat="40.251117" lon="-4.887517">
        <ele>1346.0</ele>
        <time>2015-03-14T14:42:52Z</time>
      </trkpt>
      <trkpt lat="40.251217" lon="-4.887550">
        <ele>1345.0</ele>
        <time>2015-03-14T14:42:54Z</time>
      </trkpt>
      <trkpt lat="40.251317" lon="-4.887533">
        <ele>1339.0</ele>
        <time>2015-03-14T14:42:56Z</time>
      </trkpt>
      <trkpt lat="40.251483" lon="-4.887500">
        <ele>1337.0</ele>
        <time>2015-03-14T14:42:58Z</time>
      </trkpt>
      <trkpt lat="40.251633" lon="-4.887433">
        <ele>1342.0</ele>
        <time>2015-03-14T14:43:00Z</time>
      </trkpt>
      <trkpt lat="40.251717" lon="-4.887383">
        <ele>1346.0</ele>
        <time>2015-03-14T14:43:02Z</time>
      </trkpt>
      <trkpt lat="40.251800" lon="-4.887317">
        <ele>1345.0</ele>
        <time>2015-03-14T14:43:04Z</time>
      </trkpt>
      <trkpt lat="40.251900" lon="-4.887167">
        <ele>1342.0</ele>
        <time>2015-03-14T14:43:06Z</time>
      </trkpt>
      <trkpt lat="40.251933" lon="-4.886950">
        <ele>1340.0</ele>
        <time>2015-03-14T14:43:08Z</time>
      </trkpt>
      <trkpt lat="40.251917" lon="-4.886733">
        <ele>1337.0</ele>
        <time>2015-03-14T14:43:10Z</time>
      </trkpt>
      <trkpt lat="40.251900" lon="-4.886467">
        <ele>1334.0</ele>
        <time>2015-03-14T14:43:12Z</time>
      </trkpt>
      <trkpt lat="40.251817" lon="-4.886250">
        <ele>1333.0</ele>
        <time>2015-03-14T14:43:14Z</time>
      </trkpt>
      <trkpt lat="40.251717" lon="-4.886083">
        <ele>1331.0</ele>
        <time>2015-03-14T14:43:16Z</time>
      </trkpt>
      <trkpt lat="40.251533" lon="-4.885917">
        <ele>1328.0</ele>
        <time>2015-03-14T14:43:18Z</time>
      </trkpt>
      <trkpt lat="40.251300" lon="-4.885900">
        <ele>1326.0</ele>
        <time>2015-03-14T14:43:20Z</time>
      </trkpt>
      <trkpt lat="40.251083" lon="-4.885967">
        <ele>1328.0</ele>
        <time>2015-03-14T14:43:22Z</time>
      </trkpt>
      <trkpt lat="40.250883" lon="-4.886017">
        <ele>1327.0</ele>
        <time>2015-03-14T14:43:24Z</time>
      </trkpt>
      <trkpt lat="40.250633" lon="-4.886083">
        <ele>1326.0</ele>
        <time>2015-03-14T14:43:26Z</time>
      </trkpt>
      <trkpt lat="40.250433" lon="-4.886150">
        <ele>1332.0</ele>
        <time>2015-03-14T14:43:28Z</time>
      </trkpt>
      <trkpt lat="40.250267" lon="-4.886250">
        <ele>1336.0</ele>
        <time>2015-03-14T14:43:30Z</time>
      </trkpt>
      <trkpt lat="40.250117" lon="-4.886383">
        <ele>1336.0</ele>
        <time>2015-03-14T14:43:32Z</time>
      </trkpt>
      <trkpt lat="40.250033" lon="-4.886617">
        <ele>1336.0</ele>
        <time>2015-03-14T14:43:34Z</time>
      </trkpt>
      <trkpt lat="40.250017" lon="-4.886883">
        <ele>1336.0</ele>
        <time>2015-03-14T14:43:36Z</time>
      </trkpt>
      <trkpt lat="40.250033" lon="-4.887133">
        <ele>1338.0</ele>
        <time>2015-03-14T14:43:38Z</time>
      </trkpt>
      <trkpt lat="40.250067" lon="-4.887383">
        <ele>1342.0</ele>
        <time>2015-03-14T14:43:40Z</time>
      </trkpt>
      <trkpt lat="40.250117" lon="-4.887633">
        <ele>1347.0</ele>
        <time>2015-03-14T14:43:42Z</time>
      </trkpt>
      <trkpt lat="40.250167" lon="-4.887850">
        <ele>1353.0</ele>
        <time>2015-03-14T14:43:44Z</time>
      </trkpt>
      <trkpt lat="40.250233" lon="-4.888050">
        <ele>1356.0</ele>
        <time>2015-03-14T14:43:46Z</time>
      </trkpt>
      <trkpt lat="40.250350" lon="-4.888200">
        <ele>1358.0</ele>
        <time>2015-03-14T14:43:48Z</time>
      </trkpt>
      <trkpt lat="40.250467" lon="-4.888300">
        <ele>1361.0</ele>
        <time>2015-03-14T14:43:50Z</time>
      </trkpt>
      <trkpt lat="40.250617" lon="-4.888333">
        <ele>1363.0</ele>
        <time>2015-03-14T14:43:52Z</time>
      </trkpt>
      <trkpt lat="40.250783" lon="-4.888333">
        <ele>1369.0</ele>
        <time>2015-03-14T14:43:54Z</time>
      </trkpt>
      <trkpt lat="40.250850" lon="-4.888233">
        <ele>1376.0</ele>
        <time>2015-03-14T14:43:56Z</time>
      </trkpt>
      <trkpt lat="40.250883" lon="-4.888100">
        <ele>1377.0</ele>
        <time>2015-03-14T14:43:58Z</time>
      </trkpt>
      <trkpt lat="40.250883" lon="-4.887867">
        <ele>1377.0</ele>
        <time>2015-03-14T14:44:00Z</time>
      </trkpt>
      <trkpt lat="40.250850" lon="-4.887633">
        <ele>1379.0</ele>
        <time>2015-03-14T14:44:02Z</time>
      </trkpt>
      <trkpt lat="40.250733" lon="-4.887400">
        <ele>1379.0</ele>
        <time>2015-03-14T14:44:04Z</time>
      </trkpt>
      <trkpt lat="40.250567" lon="-4.887267">
        <ele>1382.0</ele>
        <time>2015-03-14T14:44:06Z</time>
      </trkpt>
      <trkpt lat="40.250417" lon="-4.887217">
        <ele>1384.0</ele>
        <time>2015-03-14T14:44:08Z</time>
      </trkpt>
      <trkpt lat="40.250217" lon="-4.887233">
        <ele>1384.0</ele>
        <time>2015-03-14T14:44:10Z</time>
      </trkpt>
      <trkpt lat="40.250017" lon="-4.887383">
        <ele>1388.0</ele>
        <time>2015-03-14T14:44:12Z</time>
      </trkpt>
      <trkpt lat="40.249900" lon="-4.887583">
        <ele>1395.0</ele>
        <time>2015-03-14T14:44:14Z</time>
      </trkpt>
      <trkpt lat="40.249817" lon="-4.887783">
        <ele>1399.0</ele>
        <time>2015-03-14T14:44:16Z</time>
      </trkpt>
      <trkpt lat="40.249767" lon="-4.888050">
        <ele>1400.0</ele>
        <time>2015-03-14T14:44:18Z</time>
      </trkpt>
      <trkpt lat="40.249800" lon="-4.888317">
        <ele>1403.0</ele>
        <time>2015-03-14T14:44:20Z</time>
      </trkpt>
      <trkpt lat="40.249850" lon="-4.888517">
        <ele>1407.0</ele>
        <time>2015-03-14T14:44:22Z</time>
      </trkpt>
      <trkpt lat="40.249950" lon="-4.888700">
        <ele>1407.0</ele>
        <time>2015-03-14T14:44:24Z</time>
      </trkpt>
      <trkpt lat="40.250100" lon="-4.888850">
        <ele>1409.0</ele>
        <time>2015-03-14T14:44:26Z</time>
      </trkpt>
      <trkpt lat="40.250233" lon="-4.888967">
        <ele>1416.0</ele>
        <time>2015-03-14T14:44:28Z</time>
      </trkpt>
      <trkpt lat="40.250333" lon="-4.889017">
        <ele>1423.0</ele>
        <time>2015-03-14T14:44:30Z</time>
      </trkpt>
      <trkpt lat="40.250417" lon="-4.889017">
        <ele>1425.0</ele>
        <time>2015-03-14T14:44:32Z</time>
      </trkpt>
      <trkpt lat="40.250533" lon="-4.888917">
        <ele>1425.0</ele>
        <time>2015-03-14T14:44:34Z</time>
      </trkpt>
      <trkpt lat="40.250633" lon="-4.888783">
        <ele>1426.0</ele>
        <time>2015-03-14T14:44:36Z</time>
      </trkpt>
      <trkpt lat="40.250717" lon="-4.888650">
        <ele>1430.0</ele>
        <time>2015-03-14T14:44:38Z</time>
      </trkpt>
      <trkpt lat="40.250783" lon="-4.888467">
        <ele>1430.0</ele>
        <time>2015-03-14T14:44:40Z</time>
      </trkpt>
      <trkpt lat="40.250817" lon="-4.888267">
        <ele>1428.0</ele>
        <time>2015-03-14T14:44:42Z</time>
      </trkpt>
      <trkpt lat="40.250817" lon="-4.888083">
        <ele>1430.0</ele>
        <time>2015-03-14T14:44:44Z</time>
      </trkpt>
      <trkpt lat="40.250850" lon="-4.887950">
        <ele>1428.0</ele>
        <time>2015-03-14T14:44:46Z</time>
      </trkpt>
      <trkpt lat="40.250850" lon="-4.887750">
        <ele>1423.0</ele>
        <time>2015-03-14T14:44:48Z</time>
      </trkpt>
      <trkpt lat="40.250733" lon="-4.887550">
        <ele>1420.0</ele>
        <time>2015-03-14T14:44:50Z</time>
      </trkpt>
      <trkpt lat="40.250600" lon="-4.887400">
        <ele>1418.0</ele>
        <time>2015-03-14T14:44:52Z</time>
      </trkpt>
      <trkpt lat="40.250433" lon="-4.887333">
        <ele>1414.0</ele>
        <time>2015-03-14T14:44:54Z</time>
      </trkpt>
      <trkpt lat="40.250233" lon="-4.887433">
        <ele>1409.0</ele>
        <time>2015-03-14T14:44:56Z</time>
      </trkpt>
      <trkpt lat="40.250117" lon="-4.887667">
        <ele>1409.0</ele>
        <time>2015-03-14T14:44:58Z</time>
      </trkpt>
      <trkpt lat="40.250050" lon="-4.887867">
        <ele>1412.0</ele>
        <time>2015-03-14T14:45:00Z</time>
      </trkpt>
      <trkpt lat="40.250000" lon="-4.888067">
        <ele>1412.0</ele>
        <time>2015-03-14T14:45:02Z</time>
      </trkpt>
      <trkpt lat="40.249967" lon="-4.888283">
        <ele>1412.0</ele>
        <time>2015-03-14T14:45:04Z</time>
      </trkpt>
      <trkpt lat="40.250000" lon="-4.888483">
        <ele>1414.0</ele>
        <time>2015-03-14T14:45:06Z</time>
      </trkpt>
      <trkpt lat="40.250033" lon="-4.888683">
        <ele>1415.0</ele>
        <time>2015-03-14T14:45:08Z</time>
      </trkpt>
      <trkpt lat="40.250050" lon="-4.888900">
        <ele>1417.0</ele>
        <time>2015-03-14T14:45:10Z</time>
      </trkpt>
      <trkpt lat="40.250100" lon="-4.889083">
        <ele>1418.0</ele>
        <time>2015-03-14T14:45:12Z</time>
      </trkpt>
      <trkpt lat="40.250200" lon="-4.889300">
        <ele>1416.0</ele>
        <time>2015-03-14T14:45:14Z</time>
      </trkpt>
      <trkpt lat="40.250233" lon="-4.889533">
        <ele>1417.0</ele>
        <time>2015-03-14T14:45:16Z</time>
      </trkpt>
      <trkpt lat="40.250250" lon="-4.889750">
        <ele>1420.0</ele>
        <time>2015-03-14T14:45:18Z</time>
      </trkpt>
      <trkpt lat="40.250200" lon="-4.889950">
        <ele>1424.0</ele>
        <time>2015-03-14T14:45:20Z</time>
      </trkpt>
      <trkpt lat="40.250167" lon="-4.890167">
        <ele>1428.0</ele>
        <time>2015-03-14T14:45:22Z</time>
      </trkpt>
      <trkpt lat="40.250133" lon="-4.890400">
        <ele>1432.0</ele>
        <time>2015-03-14T14:45:24Z</time>
      </trkpt>
      <trkpt lat="40.250133" lon="-4.890583">
        <ele>1434.0</ele>
        <time>2015-03-14T14:45:26Z</time>
      </trkpt>
      <trkpt lat="40.250200" lon="-4.890683">
        <ele>1432.0</ele>
        <time>2015-03-14T14:45:28Z</time>
      </trkpt>
      <trkpt lat="40.250283" lon="-4.890817">
        <ele>1431.0</ele>
        <time>2015-03-14T14:45:30Z</time>
      </trkpt>
      <trkpt lat="40.250383" lon="-4.890900">
        <ele>1429.0</ele>
        <time>2015-03-14T14:45:32Z</time>
      </trkpt>
      <trkpt lat="40.250567" lon="-4.890900">
        <ele>1426.0</ele>
        <time>2015-03-14T14:45:34Z</time>
      </trkpt>
      <trkpt lat="40.250717" lon="-4.890867">
        <ele>1426.0</ele>
        <time>2015-03-14T14:45:36Z</time>
      </trkpt>
      <trkpt lat="40.250883" lon="-4.890750">
        <ele>1425.0</ele>
        <time>2015-03-14T14:45:38Z</time>
      </trkpt>
      <trkpt lat="40.251033" lon="-4.890617">
        <ele>1428.0</ele>
        <time>2015-03-14T14:45:40Z</time>
      </trkpt>
      <trkpt lat="40.251150" lon="-4.890500">
        <ele>1435.0</ele>
        <time>2015-03-14T14:45:42Z</time>
      </trkpt>
      <trkpt lat="40.251233" lon="-4.890317">
        <ele>1439.0</ele>
        <time>2015-03-14T14:45:44Z</time>
      </trkpt>
      <trkpt lat="40.251233" lon="-4.890067">
        <ele>1442.0</ele>
        <time>2015-03-14T14:45:46Z</time>
      </trkpt>
      <trkpt lat="40.251183" lon="-4.889850">
        <ele>1447.0</ele>
        <time>2015-03-14T14:45:48Z</time>
      </trkpt>
      <trkpt lat="40.251083" lon="-4.889700">
        <ele>1450.0</ele>
        <time>2015-03-14T14:45:50Z</time>
      </trkpt>
      <trkpt lat="40.250917" lon="-4.889667">
        <ele>1450.0</ele>
        <time>2015-03-14T14:45:52Z</time>
      </trkpt>
      <trkpt lat="40.250733" lon="-4.889717">
        <ele>1451.0</ele>
        <time>2015-03-14T14:45:54Z</time>
      </trkpt>
      <trkpt lat="40.250583" lon="-4.889883">
        <ele>1448.0</ele>
        <time>2015-03-14T14:45:56Z</time>
      </trkpt>
      <trkpt lat="40.250533" lon="-4.890117">
        <ele>1449.0</ele>
        <time>2015-03-14T14:45:58Z</time>
      </trkpt>
      <trkpt lat="40.250550" lon="-4.890317">
        <ele>1452.0</ele>
        <time>2015-03-14T14:46:00Z</time>
      </trkpt>
      <trkpt lat="40.250550" lon="-4.890533">
        <ele>1456.0</ele>
        <time>2015-03-14T14:46:02Z</time>
      </trkpt>
      <trkpt lat="40.250600" lon="-4.890750">
        <ele>1459.0</ele>
        <time>2015-03-14T14:46:04Z</time>
      </trkpt>
      <trkpt lat="40.250700" lon="-4.890933">
        <ele>1462.0</ele>
        <time>2015-03-14T14:46:06Z</time>
      </trkpt>
      <trkpt lat="40.250833" lon="-4.891050">
        <ele>1469.0</ele>
        <time>2015-03-14T14:46:08Z</time>
      </trkpt>
      <trkpt lat="40.250983" lon="-4.891117">
        <ele>1473.0</ele>
        <time>2015-03-14T14:46:10Z</time>
      </trkpt>
      <trkpt lat="40.251150" lon="-4.891150">
        <ele>1476.0</ele>
        <time>2015-03-14T14:46:12Z</time>
      </trkpt>
      <trkpt lat="40.251283" lon="-4.891083">
        <ele>1479.0</ele>
        <time>2015-03-14T14:46:14Z</time>
      </trkpt>
      <trkpt lat="40.251367" lon="-4.890983">
        <ele>1479.0</ele>
        <time>2015-03-14T14:46:16Z</time>
      </trkpt>
      <trkpt lat="40.251483" lon="-4.890817">
        <ele>1477.0</ele>
        <time>2015-03-14T14:46:18Z</time>
      </trkpt>
      <trkpt lat="40.251600" lon="-4.890583">
        <ele>1481.0</ele>
        <time>2015-03-14T14:46:20Z</time>
      </trkpt>
      <trkpt lat="40.251617" lon="-4.890400">
        <ele>1488.0</ele>
        <time>2015-03-14T14:46:22Z</time>
      </trkpt>
      <trkpt lat="40.251583" lon="-4.890217">
        <ele>1488.0</ele>
        <time>2015-03-14T14:46:24Z</time>
      </trkpt>
      <trkpt lat="40.251517" lon="-4.889983">
        <ele>1484.0</ele>
        <time>2015-03-14T14:46:26Z</time>
      </trkpt>
      <trkpt lat="40.251383" lon="-4.889817">
        <ele>1480.0</ele>
        <time>2015-03-14T14:46:28Z</time>
      </trkpt>
      <trkpt lat="40.251167" lon="-4.889750">
        <ele>1476.0</ele>
        <time>2015-03-14T14:46:30Z</time>
      </trkpt>
      <trkpt lat="40.250967" lon="-4.889783">
        <ele>1478.0</ele>
        <time>2015-03-14T14:46:32Z</time>
      </trkpt>
      <trkpt lat="40.250800" lon="-4.889900">
        <ele>1480.0</ele>
        <time>2015-03-14T14:46:34Z</time>
      </trkpt>
      <trkpt lat="40.250600" lon="-4.890050">
        <ele>1482.0</ele>
        <time>2015-03-14T14:46:36Z</time>
      </trkpt>
      <trkpt lat="40.250400" lon="-4.890150">
        <ele>1487.0</ele>
        <time>2015-03-14T14:46:38Z</time>
      </trkpt>
      <trkpt lat="40.250217" lon="-4.890233">
        <ele>1489.0</ele>
        <time>2015-03-14T14:46:40Z</time>
      </trkpt>
      <trkpt lat="40.250033" lon="-4.890333">
        <ele>1490.0</ele>
        <time>2015-03-14T14:46:42Z</time>
      </trkpt>
      <trkpt lat="40.249867" lon="-4.890433">
        <ele>1492.0</ele>
        <time>2015-03-14T14:46:44Z</time>
      </trkpt>
      <trkpt lat="40.249767" lon="-4.890600">
        <ele>1491.0</ele>
        <time>2015-03-14T14:46:46Z</time>
      </trkpt>
      <trkpt lat="40.249683" lon="-4.890783">
        <ele>1490.0</ele>
        <time>2015-03-14T14:46:48Z</time>
      </trkpt>
      <trkpt lat="40.249583" lon="-4.890983">
        <ele>1489.0</ele>
        <time>2015-03-14T14:46:50Z</time>
      </trkpt>
      <trkpt lat="40.249533" lon="-4.891183">
        <ele>1487.0</ele>
        <time>2015-03-14T14:46:52Z</time>
      </trkpt>
      <trkpt lat="40.249483" lon="-4.891467">
        <ele>1485.0</ele>
        <time>2015-03-14T14:46:54Z</time>
      </trkpt>
      <trkpt lat="40.249417" lon="-4.891717">
        <ele>1489.0</ele>
        <time>2015-03-14T14:46:56Z</time>
      </trkpt>
      <trkpt lat="40.249367" lon="-4.891933">
        <ele>1491.0</ele>
        <time>2015-03-14T14:46:58Z</time>
      </trkpt>
      <trkpt lat="40.249300" lon="-4.892200">
        <ele>1491.0</ele>
        <time>2015-03-14T14:47:00Z</time>
      </trkpt>
      <trkpt lat="40.249300" lon="-4.892450">
        <ele>1494.0</ele>
        <time>2015-03-14T14:47:02Z</time>
      </trkpt>
      <trkpt lat="40.249333" lon="-4.892700">
        <ele>1495.0</ele>
        <time>2015-03-14T14:47:04Z</time>
      </trkpt>
      <trkpt lat="40.249417" lon="-4.892967">
        <ele>1498.0</ele>
        <time>2015-03-14T14:47:06Z</time>
      </trkpt>
      <trkpt lat="40.249533" lon="-4.893167">
        <ele>1501.0</ele>
        <time>2015-03-14T14:47:08Z</time>
      </trkpt>
      <trkpt lat="40.249650" lon="-4.893317">
        <ele>1501.0</ele>
        <time>2015-03-14T14:47:10Z</time>
      </trkpt>
      <trkpt lat="40.249800" lon="-4.893500">
        <ele>1500.0</ele>
        <time>2015-03-14T14:47:12Z</time>
      </trkpt>
      <trkpt lat="40.249983" lon="-4.893617">
        <ele>1501.0</ele>
        <time>2015-03-14T14:47:14Z</time>
      </trkpt>
      <trkpt lat="40.250150" lon="-4.893600">
        <ele>1503.0</ele>
        <time>2015-03-14T14:47:16Z</time>
      </trkpt>
      <trkpt lat="40.250283" lon="-4.893483">
        <ele>1504.0</ele>
        <time>2015-03-14T14:47:18Z</time>
      </trkpt>
      <trkpt lat="40.250367" lon="-4.893317">
        <ele>1504.0</ele>
        <time>2015-03-14T14:47:20Z</time>
      </trkpt>
      <trkpt lat="40.250400" lon="-4.893133">
        <ele>1507.0</ele>
        <time>2015-03-14T14:47:22Z</time>
      </trkpt>
      <trkpt lat="40.250383" lon="-4.892933">
        <ele>1510.0</ele>
        <time>2015-03-14T14:47:24Z</time>
      </trkpt>
      <trkpt lat="40.250283" lon="-4.892750">
        <ele>1514.0</ele>
        <time>2015-03-14T14:47:26Z</time>
      </trkpt>
      <trkpt lat="40.250133" lon="-4.892583">
        <ele>1522.0</ele>
        <time>2015-03-14T14:47:28Z</time>
      </trkpt>
      <trkpt lat="40.250033" lon="-4.892467">
        <ele>1531.0</ele>
        <time>2015-03-14T14:47:30Z</time>
      </trkpt>
      <trkpt lat="40.249933" lon="-4.892417">
        <ele>1533.0</ele>
        <time>2015-03-14T14:47:32Z</time>
      </trkpt>
      <trkpt lat="40.249750" lon="-4.892433">
        <ele>1532.0</ele>
        <time>2015-03-14T14:47:34Z</time>
      </trkpt>
      <trkpt lat="40.249583" lon="-4.892500">
        <ele>1536.0</ele>
        <time>2015-03-14T14:47:36Z</time>
      </trkpt>
      <trkpt lat="40.249483" lon="-4.892617">
        <ele>1541.0</ele>
        <time>2015-03-14T14:47:38Z</time>
      </trkpt>
      <trkpt lat="40.249400" lon="-4.892833">
        <ele>1543.0</ele>
        <time>2015-03-14T14:47:40Z</time>
      </trkpt>
      <trkpt lat="40.249367" lon="-4.893100">
        <ele>1546.0</ele>
        <time>2015-03-14T14:47:42Z</time>
      </trkpt>
      <trkpt lat="40.249400" lon="-4.893333">
        <ele>1551.0</ele>
        <time>2015-03-14T14:47:44Z</time>
      </trkpt>
      <trkpt lat="40.249483" lon="-4.893533">
        <ele>1556.0</ele>
        <time>2015-03-14T14:47:46Z</time>
      </trkpt>
      <trkpt lat="40.249600" lon="-4.893667">
        <ele>1560.0</ele>
        <time>2015-03-14T14:47:48Z</time>
      </trkpt>
      <trkpt lat="40.249767" lon="-4.893717">
        <ele>1561.0</ele>
        <time>2015-03-14T14:47:50Z</time>
      </trkpt>
      <trkpt lat="40.249950" lon="-4.893717">
        <ele>1562.0</ele>
        <time>2015-03-14T14:47:52Z</time>
      </trkpt>
      <trkpt lat="40.250083" lon="-4.893617">
        <ele>1567.0</ele>
        <time>2015-03-14T14:47:54Z</time>
      </trkpt>
      <trkpt lat="40.250117" lon="-4.893417">
        <ele>1569.0</ele>
        <time>2015-03-14T14:47:56Z</time>
      </trkpt>
      <trkpt lat="40.250133" lon="-4.893200">
        <ele>1577.0</ele>
        <time>2015-03-14T14:47:58Z</time>
      </trkpt>
      <trkpt lat="40.250117" lon="-4.893017">
        <ele>1584.0</ele>
        <time>2015-03-14T14:48:00Z</time>
      </trkpt>
      <trkpt lat="40.250050" lon="-4.892833">
        <ele>1587.0</ele>
        <time>2015-03-14T14:48:02Z</time>
      </trkpt>
      <trkpt lat="40.249900" lon="-4.892717">
        <ele>1587.0</ele>
        <time>2015-03-14T14:48:04Z</time>
      </trkpt>
      <trkpt lat="40.249683" lon="-4.892667">
        <ele>1593.0</ele>
        <time>2015-03-14T14:48:06Z</time>
      </trkpt>
      <trkpt lat="40.249517" lon="-4.892667">
        <ele>1603.0</ele>
        <time>2015-03-14T14:48:08Z</time>
      </trkpt>
      <trkpt lat="40.249383" lon="-4.892783">
        <ele>1605.0</ele>
        <time>2015-03-14T14:48:10Z</time>
      </trkpt>
      <trkpt lat="40.249200" lon="-4.892967">
        <ele>1606.0</ele>
        <time>2015-03-14T14:48:12Z</time>
      </trkpt>
      <trkpt lat="40.249100" lon="-4.893200">
        <ele>1612.0</ele>
        <time>2015-03-14T14:48:14Z</time>
      </trkpt>
      <trkpt lat="40.249083" lon="-4.893400">
        <ele>1616.0</ele>
        <time>2015-03-14T14:48:16Z</time>
      </trkpt>
      <trkpt lat="40.249083" lon="-4.893650">
        <ele>1615.0</ele>
        <time>2015-03-14T14:48:18Z</time>
      </trkpt>
      <trkpt lat="40.249133" lon="-4.893900">
        <ele>1617.0</ele>
        <time>2015-03-14T14:48:20Z</time>
      </trkpt>
      <trkpt lat="40.249233" lon="-4.894067">
        <ele>1621.0</ele>
        <time>2015-03-14T14:48:22Z</time>
      </trkpt>
      <trkpt lat="40.249350" lon="-4.894200">
        <ele>1624.0</ele>
        <time>2015-03-14T14:48:24Z</time>
      </trkpt>
      <trkpt lat="40.249533" lon="-4.894283">
        <ele>1629.0</ele>
        <time>2015-03-14T14:48:26Z</time>
      </trkpt>
      <trkpt lat="40.249650" lon="-4.894317">
        <ele>1638.0</ele>
        <time>2015-03-14T14:48:28Z</time>
      </trkpt>
      <trkpt lat="40.249733" lon="-4.894367">
        <ele>1643.0</ele>
        <time>2015-03-14T14:48:30Z</time>
      </trkpt>
      <trkpt lat="40.249850" lon="-4.894350">
        <ele>1645.0</ele>
        <time>2015-03-14T14:48:32Z</time>
      </trkpt>
      <trkpt lat="40.249917" lon="-4.894217">
        <ele>1648.0</ele>
        <time>2015-03-14T14:48:34Z</time>
      </trkpt>
      <trkpt lat="40.249933" lon="-4.894017">
        <ele>1652.0</ele>
        <time>2015-03-14T14:48:36Z</time>
      </trkpt>
      <trkpt lat="40.249933" lon="-4.893850">
        <ele>1653.0</ele>
        <time>2015-03-14T14:48:38Z</time>
      </trkpt>
      <trkpt lat="40.249950" lon="-4.893667">
        <ele>1653.0</ele>
        <time>2015-03-14T14:48:40Z</time>
      </trkpt>
      <trkpt lat="40.249883" lon="-4.893500">
        <ele>1649.0</ele>
        <time>2015-03-14T14:48:42Z</time>
      </trkpt>
      <trkpt lat="40.249750" lon="-4.893333">
        <ele>1645.0</ele>
        <time>2015-03-14T14:48:44Z</time>
      </trkpt>
      <trkpt lat="40.249550" lon="-4.893183">
        <ele>1645.0</ele>
        <time>2015-03-14T14:48:46Z</time>
      </trkpt>
      <trkpt lat="40.249383" lon="-4.893100">
        <ele>1651.0</ele>
        <time>2015-03-14T14:48:48Z</time>
      </trkpt>
      <trkpt lat="40.249267" lon="-4.893033">
        <ele>1651.0</ele>
        <time>2015-03-14T14:48:50Z</time>
      </trkpt>
      <trkpt lat="40.249050" lon="-4.892967">
        <ele>1648.0</ele>
        <time>2015-03-14T14:48:52Z</time>
      </trkpt>
      <trkpt lat="40.248783" lon="-4.892883">
        <ele>1655.0</ele>
        <time>2015-03-14T14:48:54Z</time>
      </trkpt>
      <trkpt lat="40.248650" lon="-4.892783">
        <ele>1662.0</ele>
        <time>2015-03-14T14:48:56Z</time>
      </trkpt>
      <trkpt lat="40.248550" lon="-4.892650">
        <ele>1663.0</ele>
        <time>2015-03-14T14:48:58Z</time>
      </trkpt>
      <trkpt lat="40.248417" lon="-4.892550">
        <ele>1662.0</ele>
        <time>2015-03-14T14:49:00Z</time>
      </trkpt>
      <trkpt lat="40.248250" lon="-4.892550">
        <ele>1662.0</ele>
        <time>2015-03-14T14:49:02Z</time>
      </trkpt>
      <trkpt lat="40.248117" lon="-4.892667">
        <ele>1661.0</ele>
        <time>2015-03-14T14:49:04Z</time>
      </trkpt>
      <trkpt lat="40.248000" lon="-4.892817">
        <ele>1661.0</ele>
        <time>2015-03-14T14:49:06Z</time>
      </trkpt>
      <trkpt lat="40.247883" lon="-4.892967">
        <ele>1661.0</ele>
        <time>2015-03-14T14:49:08Z</time>
      </trkpt>
      <trkpt lat="40.247717" lon="-4.893100">
        <ele>1664.0</ele>
        <time>2015-03-14T14:49:10Z</time>
      </trkpt>
      <trkpt lat="40.247567" lon="-4.893217">
        <ele>1666.0</ele>
        <time>2015-03-14T14:49:12Z</time>
      </trkpt>
      <trkpt lat="40.247400" lon="-4.893367">
        <ele>1668.0</ele>
        <time>2015-03-14T14:49:14Z</time>
      </trkpt>
      <trkpt lat="40.247250" lon="-4.893483">
        <ele>1673.0</ele>
        <time>2015-03-14T14:49:16Z</time>
      </trkpt>
      <trkpt lat="40.247117" lon="-4.893633">
        <ele>1675.0</ele>
        <time>2015-03-14T14:49:18Z</time>
      </trkpt>
      <trkpt lat="40.247017" lon="-4.893850">
        <ele>1675.0</ele>
        <time>2015-03-14T14:49:20Z</time>
      </trkpt>
      <trkpt lat="40.247000" lon="-4.894117">
        <ele>1677.0</ele>
        <time>2015-03-14T14:49:22Z</time>
      </trkpt>
      <trkpt lat="40.247033" lon="-4.894367">
        <ele>1679.0</ele>
        <time>2015-03-14T14:49:24Z</time>
      </trkpt>
      <trkpt lat="40.247133" lon="-4.894600">
        <ele>1683.0</ele>
        <time>2015-03-14T14:49:26Z</time>
      </trkpt>
      <trkpt lat="40.247267" lon="-4.894767">
        <ele>1687.0</ele>
        <time>2015-03-14T14:49:28Z</time>
      </trkpt>
      <trkpt lat="40.247433" lon="-4.894850">
        <ele>1691.0</ele>
        <time>2015-03-14T14:49:30Z</time>
      </trkpt>
      <trkpt lat="40.247567" lon="-4.894817">
        <ele>1693.0</ele>
        <time>2015-03-14T14:49:32Z</time>
      </trkpt>
      <trkpt lat="40.247617" lon="-4.894683">
        <ele>1693.0</ele>
        <time>2015-03-14T14:49:34Z</time>
      </trkpt>
      <trkpt lat="40.247633" lon="-4.894533">
        <ele>1695.0</ele>
        <time>2015-03-14T14:49:36Z</time>
      </trkpt>
      <trkpt lat="40.247617" lon="-4.894400">
        <ele>1698.0</ele>
        <time>2015-03-14T14:49:38Z</time>
      </trkpt>
      <trkpt lat="40.247533" lon="-4.894250">
        <ele>1697.0</ele>
        <time>2015-03-14T14:49:40Z</time>
      </trkpt>
      <trkpt lat="40.247367" lon="-4.894117">
        <ele>1699.0</ele>
        <time>2015-03-14T14:49:42Z</time>
      </trkpt>
      <trkpt lat="40.247183" lon="-4.894100">
        <ele>1703.0</ele>
        <time>2015-03-14T14:49:44Z</time>
      </trkpt>
      <trkpt lat="40.247017" lon="-4.894150">
        <ele>1705.0</ele>
        <time>2015-03-14T14:49:46Z</time>
      </trkpt>
      <trkpt lat="40.246833" lon="-4.894267">
        <ele>1703.0</ele>
        <time>2015-03-14T14:49:48Z</time>
      </trkpt>
      <trkpt lat="40.246650" lon="-4.894417">
        <ele>1704.0</ele>
        <time>2015-03-14T14:49:50Z</time>
      </trkpt>
      <trkpt lat="40.246533" lon="-4.894617">
        <ele>1703.0</ele>
        <time>2015-03-14T14:49:52Z</time>
      </trkpt>
      <trkpt lat="40.246450" lon="-4.894867">
        <ele>1701.0</ele>
        <time>2015-03-14T14:49:54Z</time>
      </trkpt>
      <trkpt lat="40.246383" lon="-4.895133">
        <ele>1702.0</ele>
        <time>2015-03-14T14:49:56Z</time>
      </trkpt>
      <trkpt lat="40.246350" lon="-4.895400">
        <ele>1707.0</ele>
        <time>2015-03-14T14:49:58Z</time>
      </trkpt>
      <trkpt lat="40.246333" lon="-4.895633">
        <ele>1710.0</ele>
        <time>2015-03-14T14:50:00Z</time>
      </trkpt>
      <trkpt lat="40.246367" lon="-4.895867">
        <ele>1709.0</ele>
        <time>2015-03-14T14:50:02Z</time>
      </trkpt>
      <trkpt lat="40.246450" lon="-4.896117">
        <ele>1709.0</ele>
        <time>2015-03-14T14:50:04Z</time>
      </trkpt>
      <trkpt lat="40.246583" lon="-4.896300">
        <ele>1709.0</ele>
        <time>2015-03-14T14:50:06Z</time>
      </trkpt>
      <trkpt lat="40.246750" lon="-4.896433">
        <ele>1709.0</ele>
        <time>2015-03-14T14:50:08Z</time>
      </trkpt>
      <trkpt lat="40.246917" lon="-4.896567">
        <ele>1712.0</ele>
        <time>2015-03-14T14:50:10Z</time>
      </trkpt>
      <trkpt lat="40.247067" lon="-4.896617">
        <ele>1716.0</ele>
        <time>2015-03-14T14:50:12Z</time>
      </trkpt>
      <trkpt lat="40.247183" lon="-4.896600">
        <ele>1718.0</ele>
        <time>2015-03-14T14:50:14Z</time>
      </trkpt>
      <trkpt lat="40.247283" lon="-4.896483">
        <ele>1719.0</ele>
        <time>2015-03-14T14:50:16Z</time>
      </trkpt>
      <trkpt lat="40.247333" lon="-4.896350">
        <ele>1720.0</ele>
        <time>2015-03-14T14:50:18Z</time>
      </trkpt>
      <trkpt lat="40.247333" lon="-4.896200">
        <ele>1723.0</ele>
        <time>2015-03-14T14:50:20Z</time>
      </trkpt>
      <trkpt lat="40.247267" lon="-4.896067">
        <ele>1725.0</ele>
        <time>2015-03-14T14:50:22Z</time>
      </trkpt>
      <trkpt lat="40.247167" lon="-4.895950">
        <ele>1728.0</ele>
        <time>2015-03-14T14:50:24Z</time>
      </trkpt>
      <trkpt lat="40.247033" lon="-4.895867">
        <ele>1728.0</ele>
        <time>2015-03-14T14:50:26Z</time>
      </trkpt>
      <trkpt lat="40.246833" lon="-4.895850">
        <ele>1729.0</ele>
        <time>2015-03-14T14:50:28Z</time>
      </trkpt>
      <trkpt lat="40.246650" lon="-4.895883">
        <ele>1733.0</ele>
        <time>2015-03-14T14:50:30Z</time>
      </trkpt>
      <trkpt lat="40.246483" lon="-4.896000">
        <ele>1734.0</ele>
        <time>2015-03-14T14:50:32Z</time>
      </trkpt>
      <trkpt lat="40.246317" lon="-4.896150">
        <ele>1733.0</ele>
        <time>2015-03-14T14:50:34Z</time>
      </trkpt>
      <trkpt lat="40.246150" lon="-4.896333">
        <ele>1730.0</ele>
        <time>2015-03-14T14:50:36Z</time>
      </trkpt>
      <trkpt lat="40.245983" lon="-4.896533">
        <ele>1729.0</ele>
        <time>2015-03-14T14:50:38Z</time>
      </trkpt>
      <trkpt lat="40.245817" lon="-4.896667">
        <ele>1729.0</ele>
        <time>2015-03-14T14:50:40Z</time>
      </trkpt>
      <trkpt lat="40.245667" lon="-4.896767">
        <ele>1725.0</ele>
        <time>2015-03-14T14:50:42Z</time>
      </trkpt>
      <trkpt lat="40.245450" lon="-4.896950">
        <ele>1723.0</ele>
        <time>2015-03-14T14:50:44Z</time>
      </trkpt>
      <trkpt lat="40.245250" lon="-4.897100">
        <ele>1726.0</ele>
        <time>2015-03-14T14:50:46Z</time>
      </trkpt>
      <trkpt lat="40.245050" lon="-4.897233">
        <ele>1727.0</ele>
        <time>2015-03-14T14:50:48Z</time>
      </trkpt>
      <trkpt lat="40.244833" lon="-4.897383">
        <ele>1726.0</ele>
        <time>2015-03-14T14:50:50Z</time>
      </trkpt>
      <trkpt lat="40.244600" lon="-4.897450">
        <ele>1726.0</ele>
        <time>2015-03-14T14:50:52Z</time>
      </trkpt>
      <trkpt lat="40.244383" lon="-4.897467">
        <ele>1726.0</ele>
        <time>2015-03-14T14:50:54Z</time>
      </trkpt>
      <trkpt lat="40.244283" lon="-4.897500">
        <ele>1726.0</ele>
        <time>2015-03-14T14:50:55Z</time>
      </trkpt>
      <trkpt lat="40.244067" lon="-4.897567">
        <ele>1724.0</ele>
        <time>2015-03-14T14:50:57Z</time>
      </trkpt>
      <trkpt lat="40.243833" lon="-4.897617">
        <ele>1721.0</ele>
        <time>2015-03-14T14:50:59Z</time>
      </trkpt>
      <trkpt lat="40.243617" lon="-4.897700">
        <ele>1719.0</ele>
        <time>2015-03-14T14:51:01Z</time>
      </trkpt>
      <trkpt lat="40.243400" lon="-4.897800">
        <ele>1715.0</ele>
        <time>2015-03-14T14:51:03Z</time>
      </trkpt>
      <trkpt lat="40.243217" lon="-4.897950">
        <ele>1711.0</ele>
        <time>2015-03-14T14:51:05Z</time>
      </trkpt>
      <trkpt lat="40.243033" lon="-4.898117">
        <ele>1707.0</ele>
        <time>2015-03-14T14:51:07Z</time>
      </trkpt>
      <trkpt lat="40.242867" lon="-4.898267">
        <ele>1702.0</ele>
        <time>2015-03-14T14:51:09Z</time>
      </trkpt>
      <trkpt lat="40.242700" lon="-4.898367">
        <ele>1696.0</ele>
        <time>2015-03-14T14:51:11Z</time>
      </trkpt>
      <trkpt lat="40.242517" lon="-4.898417">
        <ele>1690.0</ele>
        <time>2015-03-14T14:51:13Z</time>
      </trkpt>
      <trkpt lat="40.242333" lon="-4.898417">
        <ele>1684.0</ele>
        <time>2015-03-14T14:51:15Z</time>
      </trkpt>
      <trkpt lat="40.242150" lon="-4.898367">
        <ele>1680.0</ele>
        <time>2015-03-14T14:51:17Z</time>
      </trkpt>
      <trkpt lat="40.242000" lon="-4.898350">
        <ele>1676.0</ele>
        <time>2015-03-14T14:51:19Z</time>
      </trkpt>
      <trkpt lat="40.241833" lon="-4.898367">
        <ele>1668.0</ele>
        <time>2015-03-14T14:51:21Z</time>
      </trkpt>
      <trkpt lat="40.241650" lon="-4.898433">
        <ele>1660.0</ele>
        <time>2015-03-14T14:51:23Z</time>
      </trkpt>
      <trkpt lat="40.241467" lon="-4.898583">
        <ele>1653.0</ele>
        <time>2015-03-14T14:51:25Z</time>
      </trkpt>
      <trkpt lat="40.241333" lon="-4.898750">
        <ele>1647.0</ele>
        <time>2015-03-14T14:51:27Z</time>
      </trkpt>
      <trkpt lat="40.241183" lon="-4.898933">
        <ele>1638.0</ele>
        <time>2015-03-14T14:51:29Z</time>
      </trkpt>
      <trkpt lat="40.240983" lon="-4.899083">
        <ele>1628.0</ele>
        <time>2015-03-14T14:51:31Z</time>
      </trkpt>
      <trkpt lat="40.240800" lon="-4.899167">
        <ele>1620.0</ele>
        <time>2015-03-14T14:51:33Z</time>
      </trkpt>
      <trkpt lat="40.240650" lon="-4.899250">
        <ele>1612.0</ele>
        <time>2015-03-14T14:51:35Z</time>
      </trkpt>
      <trkpt lat="40.240500" lon="-4.899333">
        <ele>1601.0</ele>
        <time>2015-03-14T14:51:37Z</time>
      </trkpt>
      <trkpt lat="40.240283" lon="-4.899400">
        <ele>1594.0</ele>
        <time>2015-03-14T14:51:39Z</time>
      </trkpt>
      <trkpt lat="40.240117" lon="-4.899467">
        <ele>1589.0</ele>
        <time>2015-03-14T14:51:41Z</time>
      </trkpt>
      <trkpt lat="40.239933" lon="-4.899500">
        <ele>1581.0</ele>
        <time>2015-03-14T14:51:43Z</time>
      </trkpt>
      <trkpt lat="40.239767" lon="-4.899500">
        <ele>1575.0</ele>
        <time>2015-03-14T14:51:45Z</time>
      </trkpt>
      <trkpt lat="40.239650" lon="-4.899483">
        <ele>1569.0</ele>
        <time>2015-03-14T14:51:47Z</time>
      </trkpt>
      <trkpt lat="40.239500" lon="-4.899500">
        <ele>1560.0</ele>
        <time>2015-03-14T14:51:49Z</time>
      </trkpt>
      <trkpt lat="40.239333" lon="-4.899600">
        <ele>1551.0</ele>
        <time>2015-03-14T14:51:51Z</time>
      </trkpt>
      <trkpt lat="40.239250" lon="-4.899783">
        <ele>1542.0</ele>
        <time>2015-03-14T14:51:53Z</time>
      </trkpt>
      <trkpt lat="40.239267" lon="-4.900033">
        <ele>1532.0</ele>
        <time>2015-03-14T14:51:55Z</time>
      </trkpt>
      <trkpt lat="40.239383" lon="-4.900250">
        <ele>1525.0</ele>
        <time>2015-03-14T14:51:57Z</time>
      </trkpt>
      <trkpt lat="40.239500" lon="-4.900400">
        <ele>1519.0</ele>
        <time>2015-03-14T14:51:59Z</time>
      </trkpt>
      <trkpt lat="40.239667" lon="-4.900500">
        <ele>1509.0</ele>
        <time>2015-03-14T14:52:01Z</time>
      </trkpt>
      <trkpt lat="40.239867" lon="-4.900567">
        <ele>1501.0</ele>
        <time>2015-03-14T14:52:03Z</time>
      </trkpt>
      <trkpt lat="40.240050" lon="-4.900650">
        <ele>1492.0</ele>
        <time>2015-03-14T14:52:05Z</time>
      </trkpt>
      <trkpt lat="40.240250" lon="-4.900733">
        <ele>1483.0</ele>
        <time>2015-03-14T14:52:07Z</time>
      </trkpt>
      <trkpt lat="40.240450" lon="-4.900817">
        <ele>1474.0</ele>
        <time>2015-03-14T14:52:09Z</time>
      </trkpt>
      <trkpt lat="40.240633" lon="-4.900933">
        <ele>1464.0</ele>
        <time>2015-03-14T14:52:11Z</time>
      </trkpt>
      <trkpt lat="40.240800" lon="-4.901033">
        <ele>1458.0</ele>
        <time>2015-03-14T14:52:13Z</time>
      </trkpt>
      <trkpt lat="40.240950" lon="-4.901117">
        <ele>1455.0</ele>
        <time>2015-03-14T14:52:15Z</time>
      </trkpt>
      <trkpt lat="40.241117" lon="-4.901167">
        <ele>1449.0</ele>
        <time>2015-03-14T14:52:17Z</time>
      </trkpt>
      <trkpt lat="40.241300" lon="-4.901183">
        <ele>1442.0</ele>
        <time>2015-03-14T14:52:19Z</time>
      </trkpt>
      <trkpt lat="40.241450" lon="-4.901183">
        <ele>1435.0</ele>
        <time>2015-03-14T14:52:21Z</time>
      </trkpt>
      <trkpt lat="40.241633" lon="-4.901200">
        <ele>1427.0</ele>
        <time>2015-03-14T14:52:23Z</time>
      </trkpt>
      <trkpt lat="40.241800" lon="-4.901200">
        <ele>1418.0</ele>
        <time>2015-03-14T14:52:25Z</time>
      </trkpt>
      <trkpt lat="40.241983" lon="-4.901183">
        <ele>1410.0</ele>
        <time>2015-03-14T14:52:27Z</time>
      </trkpt>
      <trkpt lat="40.242167" lon="-4.901200">
        <ele>1403.0</ele>
        <time>2015-03-14T14:52:29Z</time>
      </trkpt>
      <trkpt lat="40.242350" lon="-4.901217">
        <ele>1396.0</ele>
        <time>2015-03-14T14:52:31Z</time>
      </trkpt>
      <trkpt lat="40.242517" lon="-4.901183">
        <ele>1388.0</ele>
        <time>2015-03-14T14:52:33Z</time>
      </trkpt>
      <trkpt lat="40.242683" lon="-4.901183">
        <ele>1378.0</ele>
        <time>2015-03-14T14:52:35Z</time>
      </trkpt>
      <trkpt lat="40.242900" lon="-4.901167">
        <ele>1368.0</ele>
        <time>2015-03-14T14:52:37Z</time>
      </trkpt>
      <trkpt lat="40.243117" lon="-4.901083">
        <ele>1362.0</ele>
        <time>2015-03-14T14:52:39Z</time>
      </trkpt>
      <trkpt lat="40.243300" lon="-4.901033">
        <ele>1363.0</ele>
        <time>2015-03-14T14:52:41Z</time>
      </trkpt>
      <trkpt lat="40.243433" lon="-4.901033">
        <ele>1362.0</ele>
        <time>2015-03-14T14:52:43Z</time>
      </trkpt>
      <trkpt lat="40.243600" lon="-4.901017">
        <ele>1357.0</ele>
        <time>2015-03-14T14:52:45Z</time>
      </trkpt>
      <trkpt lat="40.243767" lon="-4.901017">
        <ele>1356.0</ele>
        <time>2015-03-14T14:52:47Z</time>
      </trkpt>
      <trkpt lat="40.243917" lon="-4.901000">
        <ele>1357.0</ele>
        <time>2015-03-14T14:52:49Z</time>
      </trkpt>
      <trkpt lat="40.244067" lon="-4.900967">
        <ele>1359.0</ele>
        <time>2015-03-14T14:52:51Z</time>
      </trkpt>
      <trkpt lat="40.244233" lon="-4.900950">
        <ele>1362.0</ele>
        <time>2015-03-14T14:52:53Z</time>
      </trkpt>
      <trkpt lat="40.244367" lon="-4.900967">
        <ele>1365.0</ele>
        <time>2015-03-14T14:52:55Z</time>
      </trkpt>
      <trkpt lat="40.244517" lon="-4.900933">
        <ele>1367.0</ele>
        <time>2015-03-14T14:52:57Z</time>
      </trkpt>
      <trkpt lat="40.244667" lon="-4.900900">
        <ele>1368.0</ele>
        <time>2015-03-14T14:52:59Z</time>
      </trkpt>
      <trkpt lat="40.244817" lon="-4.900883">
        <ele>1370.0</ele>
        <time>2015-03-14T14:53:01Z</time>
      </trkpt>
      <trkpt lat="40.244950" lon="-4.900883">
        <ele>1370.0</ele>
        <time>2015-03-14T14:53:03Z</time>
      </trkpt>
      <trkpt lat="40.245100" lon="-4.900867">
        <ele>1367.0</ele>
        <time>2015-03-14T14:53:05Z</time>
      </trkpt>
      <trkpt lat="40.245283" lon="-4.900833">
        <ele>1366.0</ele>
        <time>2015-03-14T14:53:07Z</time>
      </trkpt>
      <trkpt lat="40.245450" lon="-4.900800">
        <ele>1369.0</ele>
        <time>2015-03-14T14:53:09Z</time>
      </trkpt>
      <trkpt lat="40.245600" lon="-4.900800">
        <ele>1370.0</ele>
        <time>2015-03-14T14:53:11Z</time>
      </trkpt>
      <trkpt lat="40.245767" lon="-4.900817">
        <ele>1371.0</ele>
        <time>2015-03-14T14:53:13Z</time>
      </trkpt>
      <trkpt lat="40.245950" lon="-4.900817">
        <ele>1374.0</ele>
        <time>2015-03-14T14:53:15Z</time>
      </trkpt>
      <trkpt lat="40.246117" lon="-4.900800">
        <ele>1378.0</ele>
        <time>2015-03-14T14:53:17Z</time>
      </trkpt>
      <trkpt lat="40.246283" lon="-4.900800">
        <ele>1379.0</ele>
        <time>2015-03-14T14:53:19Z</time>
      </trkpt>
      <trkpt lat="40.246450" lon="-4.900783">
        <ele>1379.0</ele>
        <time>2015-03-14T14:53:21Z</time>
      </trkpt>
      <trkpt lat="40.246617" lon="-4.900783">
        <ele>1379.0</ele>
        <time>2015-03-14T14:53:23Z</time>
      </trkpt>
      <trkpt lat="40.246800" lon="-4.900817">
        <ele>1375.0</ele>
        <time>2015-03-14T14:53:25Z</time>
      </trkpt>
      <trkpt lat="40.247000" lon="-4.900800">
        <ele>1369.0</ele>
        <time>2015-03-14T14:53:27Z</time>
      </trkpt>
      <trkpt lat="40.247133" lon="-4.900750">
        <ele>1364.0</ele>
        <time>2015-03-14T14:53:29Z</time>
      </trkpt>
      <trkpt lat="40.247267" lon="-4.900633">
        <ele>1360.0</ele>
        <time>2015-03-14T14:53:31Z</time>
      </trkpt>
      <trkpt lat="40.247433" lon="-4.900517">
        <ele>1359.0</ele>
        <time>2015-03-14T14:53:33Z</time>
      </trkpt>
      <trkpt lat="40.247567" lon="-4.900467">
        <ele>1362.0</ele>
        <time>2015-03-14T14:53:35Z</time>
      </trkpt>
      <trkpt lat="40.247700" lon="-4.900467">
        <ele>1362.0</ele>
        <time>2015-03-14T14:53:37Z</time>
      </trkpt>
      <trkpt lat="40.247883" lon="-4.900467">
        <ele>1359.0</ele>
        <time>2015-03-14T14:53:39Z</time>
      </trkpt>
      <trkpt lat="40.248017" lon="-4.900450">
        <ele>1361.0</ele>
        <time>2015-03-14T14:53:41Z</time>
      </trkpt>
      <trkpt lat="40.248133" lon="-4.900433">
        <ele>1363.0</ele>
        <time>2015-03-14T14:53:43Z</time>
      </trkpt>
      <trkpt lat="40.248217" lon="-4.900367">
        <ele>1361.0</ele>
        <time>2015-03-14T14:53:45Z</time>
      </trkpt>
      <trkpt lat="40.248317" lon="-4.900300">
        <ele>1361.0</ele>
        <time>2015-03-14T14:53:47Z</time>
      </trkpt>
      <trkpt lat="40.248417" lon="-4.900250">
        <ele>1362.0</ele>
        <time>2015-03-14T14:53:49Z</time>
      </trkpt>
      <trkpt lat="40.248550" lon="-4.900217">
        <ele>1365.0</ele>
        <time>2015-03-14T14:53:51Z</time>
      </trkpt>
      <trkpt lat="40.248683" lon="-4.900217">
        <ele>1367.0</ele>
        <time>2015-03-14T14:53:53Z</time>
      </trkpt>
      <trkpt lat="40.248850" lon="-4.900267">
        <ele>1369.0</ele>
        <time>2015-03-14T14:53:55Z</time>
      </trkpt>
      <trkpt lat="40.249000" lon="-4.900433">
        <ele>1370.0</ele>
        <time>2015-03-14T14:53:57Z</time>
      </trkpt>
      <trkpt lat="40.249133" lon="-4.900617">
        <ele>1371.0</ele>
        <time>2015-03-14T14:53:59Z</time>
      </trkpt>
      <trkpt lat="40.249300" lon="-4.900750">
        <ele>1371.0</ele>
        <time>2015-03-14T14:54:01Z</time>
      </trkpt>
      <trkpt lat="40.249450" lon="-4.900800">
        <ele>1372.0</ele>
        <time>2015-03-14T14:54:03Z</time>
      </trkpt>
      <trkpt lat="40.249583" lon="-4.900800">
        <ele>1370.0</ele>
        <time>2015-03-14T14:54:05Z</time>
      </trkpt>
      <trkpt lat="40.249717" lon="-4.900700">
        <ele>1367.0</ele>
        <time>2015-03-14T14:54:07Z</time>
      </trkpt>
      <trkpt lat="40.249800" lon="-4.900583">
        <ele>1369.0</ele>
        <time>2015-03-14T14:54:09Z</time>
      </trkpt>
      <trkpt lat="40.249850" lon="-4.900500">
        <ele>1369.0</ele>
        <time>2015-03-14T14:54:11Z</time>
      </trkpt>
      <trkpt lat="40.249900" lon="-4.900383">
        <ele>1369.0</ele>
        <time>2015-03-14T14:54:13Z</time>
      </trkpt>
      <trkpt lat="40.249950" lon="-4.900217">
        <ele>1371.0</ele>
        <time>2015-03-14T14:54:15Z</time>
      </trkpt>
      <trkpt lat="40.249983" lon="-4.900100">
        <ele>1374.0</ele>
        <time>2015-03-14T14:54:17Z</time>
      </trkpt>
      <trkpt lat="40.249983" lon="-4.900000">
        <ele>1374.0</ele>
        <time>2015-03-14T14:54:19Z</time>
      </trkpt>
      <trkpt lat="40.249950" lon="-4.899867">
        <ele>1372.0</ele>
        <time>2015-03-14T14:54:21Z</time>
      </trkpt>
      <trkpt lat="40.249900" lon="-4.899733">
        <ele>1373.0</ele>
        <time>2015-03-14T14:54:23Z</time>
      </trkpt>
      <trkpt lat="40.249833" lon="-4.899650">
        <ele>1374.0</ele>
        <time>2015-03-14T14:54:25Z</time>
      </trkpt>
      <trkpt lat="40.249733" lon="-4.899533">
        <ele>1373.0</ele>
        <time>2015-03-14T14:54:27Z</time>
      </trkpt>
      <trkpt lat="40.249600" lon="-4.899467">
        <ele>1374.0</ele>
        <time>2015-03-14T14:54:29Z</time>
      </trkpt>
      <trkpt lat="40.249467" lon="-4.899467">
        <ele>1373.0</ele>
        <time>2015-03-14T14:54:31Z</time>
      </trkpt>
      <trkpt lat="40.249333" lon="-4.899450">
        <ele>1371.0</ele>
        <time>2015-03-14T14:54:33Z</time>
      </trkpt>
      <trkpt lat="40.249267" lon="-4.899517">
        <ele>1351.0</ele>
        <time>2015-03-14T14:54:35Z</time>
      </trkpt>
      <trkpt lat="40.249100" lon="-4.899433">
        <ele>1360.0</ele>
        <time>2015-03-14T14:54:37Z</time>
      </trkpt>
      <trkpt lat="40.248933" lon="-4.899367">
        <ele>1367.0</ele>
        <time>2015-03-14T14:54:39Z</time>
      </trkpt>
      <trkpt lat="40.248800" lon="-4.899267">
        <ele>1362.0</ele>
        <time>2015-03-14T14:54:41Z</time>
      </trkpt>
      <trkpt lat="40.248650" lon="-4.899233">
        <ele>1365.0</ele>
        <time>2015-03-14T14:54:43Z</time>
      </trkpt>
      <trkpt lat="40.248500" lon="-4.899250">
        <ele>1366.0</ele>
        <time>2015-03-14T14:54:45Z</time>
      </trkpt>
      <trkpt lat="40.248350" lon="-4.899333">
        <ele>1366.0</ele>
        <time>2015-03-14T14:54:47Z</time>
      </trkpt>
      <trkpt lat="40.248167" lon="-4.899500">
        <ele>1366.0</ele>
        <time>2015-03-14T14:54:49Z</time>
      </trkpt>
      <trkpt lat="40.248033" lon="-4.899683">
        <ele>1369.0</ele>
        <time>2015-03-14T14:54:51Z</time>
      </trkpt>
      <trkpt lat="40.247950" lon="-4.899883">
        <ele>1369.0</ele>
        <time>2015-03-14T14:54:53Z</time>
      </trkpt>
      <trkpt lat="40.247900" lon="-4.900167">
        <ele>1367.0</ele>
        <time>2015-03-14T14:54:55Z</time>
      </trkpt>
      <trkpt lat="40.247900" lon="-4.900483">
        <ele>1370.0</ele>
        <time>2015-03-14T14:54:57Z</time>
      </trkpt>
      <trkpt lat="40.247950" lon="-4.900733">
        <ele>1372.0</ele>
        <time>2015-03-14T14:54:59Z</time>
      </trkpt>
      <trkpt lat="40.248067" lon="-4.901000">
        <ele>1370.0</ele>
        <time>2015-03-14T14:55:01Z</time>
      </trkpt>
      <trkpt lat="40.248250" lon="-4.901217">
        <ele>1370.0</ele>
        <time>2015-03-14T14:55:03Z</time>
      </trkpt>
      <trkpt lat="40.248450" lon="-4.901317">
        <ele>1372.0</ele>
        <time>2015-03-14T14:55:05Z</time>
      </trkpt>
      <trkpt lat="40.248650" lon="-4.901383">
        <ele>1373.0</ele>
        <time>2015-03-14T14:55:07Z</time>
      </trkpt>
      <trkpt lat="40.248850" lon="-4.901367">
        <ele>1372.0</ele>
        <time>2015-03-14T14:55:09Z</time>
      </trkpt>
      <trkpt lat="40.248983" lon="-4.901283">
        <ele>1373.0</ele>
        <time>2015-03-14T14:55:11Z</time>
      </trkpt>
      <trkpt lat="40.249067" lon="-4.901200">
        <ele>1375.0</ele>
        <time>2015-03-14T14:55:13Z</time>
      </trkpt>
      <trkpt lat="40.249133" lon="-4.901117">
        <ele>1373.0</ele>
        <time>2015-03-14T14:55:15Z</time>
      </trkpt>
      <trkpt lat="40.249167" lon="-4.900983">
        <ele>1371.0</ele>
        <time>2015-03-14T14:55:17Z</time>
      </trkpt>
      <trkpt lat="40.249183" lon="-4.900817">
        <ele>1371.0</ele>
        <time>2015-03-14T14:55:19Z</time>
      </trkpt>
      <trkpt lat="40.249217" lon="-4.900650">
        <ele>1372.0</ele>
        <time>2015-03-14T14:55:21Z</time>
      </trkpt>
      <trkpt lat="40.249267" lon="-4.900467">
        <ele>1374.0</ele>
        <time>2015-03-14T14:55:23Z</time>
      </trkpt>
      <trkpt lat="40.249300" lon="-4.900300">
        <ele>1378.0</ele>
        <time>2015-03-14T14:55:25Z</time>
      </trkpt>
      <trkpt lat="40.249300" lon="-4.900183">
        <ele>1383.0</ele>
        <time>2015-03-14T14:55:27Z</time>
      </trkpt>
      <trkpt lat="40.249283" lon="-4.900083">
        <ele>1383.0</ele>
        <time>2015-03-14T14:55:29Z</time>
      </trkpt>
      <trkpt lat="40.249233" lon="-4.899917">
        <ele>1379.0</ele>
        <time>2015-03-14T14:55:31Z</time>
      </trkpt>
      <trkpt lat="40.249167" lon="-4.899767">
        <ele>1378.0</ele>
        <time>2015-03-14T14:55:33Z</time>
      </trkpt>
      <trkpt lat="40.249067" lon="-4.899683">
        <ele>1375.0</ele>
        <time>2015-03-14T14:55:35Z</time>
      </trkpt>
      <trkpt lat="40.248917" lon="-4.899650">
        <ele>1370.0</ele>
        <time>2015-03-14T14:55:37Z</time>
      </trkpt>
      <trkpt lat="40.248750" lon="-4.899650">
        <ele>1367.0</ele>
        <time>2015-03-14T14:55:39Z</time>
      </trkpt>
      <trkpt lat="40.248617" lon="-4.899767">
        <ele>1361.0</ele>
        <time>2015-03-14T14:55:41Z</time>
      </trkpt>
      <trkpt lat="40.248450" lon="-4.899933">
        <ele>1355.0</ele>
        <time>2015-03-14T14:55:43Z</time>
      </trkpt>
      <trkpt lat="40.248267" lon="-4.900050">
        <ele>1352.0</ele>
        <time>2015-03-14T14:55:45Z</time>
      </trkpt>
      <trkpt lat="40.248083" lon="-4.900200">
        <ele>1354.0</ele>
        <time>2015-03-14T14:55:47Z</time>
      </trkpt>
      <trkpt lat="40.247950" lon="-4.900333">
        <ele>1355.0</ele>
        <time>2015-03-14T14:55:49Z</time>
      </trkpt>
      <trkpt lat="40.247817" lon="-4.900517">
        <ele>1351.0</ele>
        <time>2015-03-14T14:55:51Z</time>
      </trkpt>
      <trkpt lat="40.247700" lon="-4.900800">
        <ele>1346.0</ele>
        <time>2015-03-14T14:55:53Z</time>
      </trkpt>
      <trkpt lat="40.247600" lon="-4.901067">
        <ele>1343.0</ele>
        <time>2015-03-14T14:55:55Z</time>
      </trkpt>
      <trkpt lat="40.247450" lon="-4.901300">
        <ele>1342.0</ele>
        <time>2015-03-14T14:55:57Z</time>
      </trkpt>
      <trkpt lat="40.247300" lon="-4.901500">
        <ele>1343.0</ele>
        <time>2015-03-14T14:55:59Z</time>
      </trkpt>
      <trkpt lat="40.247150" lon="-4.901683">
        <ele>1343.0</ele>
        <time>2015-03-14T14:56:01Z</time>
      </trkpt>
      <trkpt lat="40.246967" lon="-4.901850">
        <ele>1343.0</ele>
        <time>2015-03-14T14:56:03Z</time>
      </trkpt>
      <trkpt lat="40.246800" lon="-4.901983">
        <ele>1342.0</ele>
        <time>2015-03-14T14:56:05Z</time>
      </trkpt>
      <trkpt lat="40.246633" lon="-4.902100">
        <ele>1342.0</ele>
        <time>2015-03-14T14:56:07Z</time>
      </trkpt>
      <trkpt lat="40.246450" lon="-4.902150">
        <ele>1343.0</ele>
        <time>2015-03-14T14:56:09Z</time>
      </trkpt>
      <trkpt lat="40.246300" lon="-4.902150">
        <ele>1345.0</ele>
        <time>2015-03-14T14:56:11Z</time>
      </trkpt>
      <trkpt lat="40.246167" lon="-4.902067">
        <ele>1346.0</ele>
        <time>2015-03-14T14:56:13Z</time>
      </trkpt>
      <trkpt lat="40.246067" lon="-4.901967">
        <ele>1349.0</ele>
        <time>2015-03-14T14:56:15Z</time>
      </trkpt>
      <trkpt lat="40.246033" lon="-4.901850">
        <ele>1353.0</ele>
        <time>2015-03-14T14:56:17Z</time>
      </trkpt>
      <trkpt lat="40.246017" lon="-4.901717">
        <ele>1356.0</ele>
        <time>2015-03-14T14:56:19Z</time>
      </trkpt>
      <trkpt lat="40.246033" lon="-4.901600">
        <ele>1364.0</ele>
        <time>2015-03-14T14:56:21Z</time>
      </trkpt>
      <trkpt lat="40.246100" lon="-4.901517">
        <ele>1369.0</ele>
        <time>2015-03-14T14:56:23Z</time>
      </trkpt>
      <trkpt lat="40.246233" lon="-4.901450">
        <ele>1372.0</ele>
        <time>2015-03-14T14:56:25Z</time>
      </trkpt>
      <trkpt lat="40.246400" lon="-4.901417">
        <ele>1377.0</ele>
        <time>2015-03-14T14:56:27Z</time>
      </trkpt>
      <trkpt lat="40.246567" lon="-4.901450">
        <ele>1381.0</ele>
        <time>2015-03-14T14:56:29Z</time>
      </trkpt>
      <trkpt lat="40.246783" lon="-4.901600">
        <ele>1379.0</ele>
        <time>2015-03-14T14:56:31Z</time>
      </trkpt>
      <trkpt lat="40.246983" lon="-4.901833">
        <ele>1380.0</ele>
        <time>2015-03-14T14:56:33Z</time>
      </trkpt>
      <trkpt lat="40.247117" lon="-4.902083">
        <ele>1379.0</ele>
        <time>2015-03-14T14:56:35Z</time>
      </trkpt>
      <trkpt lat="40.247200" lon="-4.902383">
        <ele>1375.0</ele>
        <time>2015-03-14T14:56:37Z</time>
      </trkpt>
      <trkpt lat="40.247217" lon="-4.902700">
        <ele>1370.0</ele>
        <time>2015-03-14T14:56:39Z</time>
      </trkpt>
      <trkpt lat="40.247150" lon="-4.903017">
        <ele>1362.0</ele>
        <time>2015-03-14T14:56:41Z</time>
      </trkpt>
      <trkpt lat="40.247033" lon="-4.903317">
        <ele>1361.0</ele>
        <time>2015-03-14T14:56:43Z</time>
      </trkpt>
      <trkpt lat="40.246883" lon="-4.903583">
        <ele>1364.0</ele>
        <time>2015-03-14T14:56:45Z</time>
      </trkpt>
      <trkpt lat="40.246750" lon="-4.903800">
        <ele>1370.0</ele>
        <time>2015-03-14T14:56:47Z</time>
      </trkpt>
      <trkpt lat="40.246633" lon="-4.903950">
        <ele>1376.0</ele>
        <time>2015-03-14T14:56:49Z</time>
      </trkpt>
      <trkpt lat="40.246483" lon="-4.904050">
        <ele>1379.0</ele>
        <time>2015-03-14T14:56:51Z</time>
      </trkpt>
      <trkpt lat="40.246333" lon="-4.904100">
        <ele>1386.0</ele>
        <time>2015-03-14T14:56:53Z</time>
      </trkpt>
      <trkpt lat="40.246250" lon="-4.904083">
        <ele>1392.0</ele>
        <time>2015-03-14T14:56:55Z</time>
      </trkpt>
      <trkpt lat="40.246200" lon="-4.904017">
        <ele>1394.0</ele>
        <time>2015-03-14T14:56:57Z</time>
      </trkpt>
      <trkpt lat="40.246117" lon="-4.903883">
        <ele>1397.0</ele>
        <time>2015-03-14T14:56:59Z</time>
      </trkpt>
      <trkpt lat="40.246133" lon="-4.903717">
        <ele>1402.0</ele>
        <time>2015-03-14T14:57:01Z</time>
      </trkpt>
      <trkpt lat="40.246233" lon="-4.903600">
        <ele>1406.0</ele>
        <time>2015-03-14T14:57:03Z</time>
      </trkpt>
      <trkpt lat="40.246383" lon="-4.903533">
        <ele>1409.0</ele>
        <time>2015-03-14T14:57:05Z</time>
      </trkpt>
      <trkpt lat="40.246600" lon="-4.903550">
        <ele>1414.0</ele>
        <time>2015-03-14T14:57:07Z</time>
      </trkpt>
      <trkpt lat="40.246783" lon="-4.903667">
        <ele>1422.0</ele>
        <time>2015-03-14T14:57:09Z</time>
      </trkpt>
      <trkpt lat="40.246900" lon="-4.903817">
        <ele>1424.0</ele>
        <time>2015-03-14T14:57:11Z</time>
      </trkpt>
      <trkpt lat="40.247033" lon="-4.904033">
        <ele>1420.0</ele>
        <time>2015-03-14T14:57:13Z</time>
      </trkpt>
      <trkpt lat="40.247167" lon="-4.904333">
        <ele>1417.0</ele>
        <time>2015-03-14T14:57:15Z</time>
      </trkpt>
      <trkpt lat="40.247217" lon="-4.904683">
        <ele>1416.0</ele>
        <time>2015-03-14T14:57:17Z</time>
      </trkpt>
      <trkpt lat="40.247167" lon="-4.905017">
        <ele>1415.0</ele>
        <time>2015-03-14T14:57:19Z</time>
      </trkpt>
      <trkpt lat="40.247050" lon="-4.905250">
        <ele>1412.0</ele>
        <time>2015-03-14T14:57:21Z</time>
      </trkpt>
      <trkpt lat="40.246867" lon="-4.905400">
        <ele>1412.0</ele>
        <time>2015-03-14T14:57:23Z</time>
      </trkpt>
      <trkpt lat="40.246700" lon="-4.905533">
        <ele>1417.0</ele>
        <time>2015-03-14T14:57:25Z</time>
      </trkpt>
      <trkpt lat="40.246567" lon="-4.905633">
        <ele>1420.0</ele>
        <time>2015-03-14T14:57:27Z</time>
      </trkpt>
      <trkpt lat="40.246383" lon="-4.905667">
        <ele>1421.0</ele>
        <time>2015-03-14T14:57:29Z</time>
      </trkpt>
      <trkpt lat="40.246183" lon="-4.905700">
        <ele>1428.0</ele>
        <time>2015-03-14T14:57:31Z</time>
      </trkpt>
      <trkpt lat="40.246050" lon="-4.905717">
        <ele>1434.0</ele>
        <time>2015-03-14T14:57:33Z</time>
      </trkpt>
      <trkpt lat="40.245933" lon="-4.905683">
        <ele>1435.0</ele>
        <time>2015-03-14T14:57:35Z</time>
      </trkpt>
      <trkpt lat="40.245767" lon="-4.905667">
        <ele>1439.0</ele>
        <time>2015-03-14T14:57:37Z</time>
      </trkpt>
      <trkpt lat="40.245633" lon="-4.905750">
        <ele>1442.0</ele>
        <time>2015-03-14T14:57:39Z</time>
      </trkpt>
      <trkpt lat="40.245483" lon="-4.905900">
        <ele>1441.0</ele>
        <time>2015-03-14T14:57:41Z</time>
      </trkpt>
      <trkpt lat="40.245333" lon="-4.906067">
        <ele>1445.0</ele>
        <time>2015-03-14T14:57:43Z</time>
      </trkpt>
      <trkpt lat="40.245250" lon="-4.906317">
        <ele>1448.0</ele>
        <time>2015-03-14T14:57:45Z</time>
      </trkpt>
      <trkpt lat="40.245250" lon="-4.906617">
        <ele>1448.0</ele>
        <time>2015-03-14T14:57:47Z</time>
      </trkpt>
      <trkpt lat="40.245283" lon="-4.906900">
        <ele>1449.0</ele>
        <time>2015-03-14T14:57:49Z</time>
      </trkpt>
      <trkpt lat="40.245417" lon="-4.907100">
        <ele>1449.0</ele>
        <time>2015-03-14T14:57:51Z</time>
      </trkpt>
      <trkpt lat="40.245583" lon="-4.907200">
        <ele>1447.0</ele>
        <time>2015-03-14T14:57:53Z</time>
      </trkpt>
      <trkpt lat="40.245733" lon="-4.907133">
        <ele>1446.0</ele>
        <time>2015-03-14T14:57:55Z</time>
      </trkpt>
      <trkpt lat="40.245817" lon="-4.907033">
        <ele>1449.0</ele>
        <time>2015-03-14T14:57:57Z</time>
      </trkpt>
      <trkpt lat="40.245867" lon="-4.906983">
        <ele>1451.0</ele>
        <time>2015-03-14T14:57:59Z</time>
      </trkpt>
      <trkpt lat="40.245883" lon="-4.906867">
        <ele>1448.0</ele>
        <time>2015-03-14T14:58:01Z</time>
      </trkpt>
      <trkpt lat="40.245850" lon="-4.906700">
        <ele>1453.0</ele>
        <time>2015-03-14T14:58:03Z</time>
      </trkpt>
      <trkpt lat="40.245850" lon="-4.906650">
        <ele>1460.0</ele>
        <time>2015-03-14T14:58:05Z</time>
      </trkpt>
      <trkpt lat="40.245817" lon="-4.906617">
        <ele>1461.0</ele>
        <time>2015-03-14T14:58:07Z</time>
      </trkpt>
      <trkpt lat="40.245750" lon="-4.906500">
        <ele>1462.0</ele>
        <time>2015-03-14T14:58:09Z</time>
      </trkpt>
      <trkpt lat="40.245650" lon="-4.906467">
        <ele>1469.0</ele>
        <time>2015-03-14T14:58:11Z</time>
      </trkpt>
      <trkpt lat="40.245533" lon="-4.906467">
        <ele>1472.0</ele>
        <time>2015-03-14T14:58:13Z</time>
      </trkpt>
      <trkpt lat="40.245350" lon="-4.906500">
        <ele>1472.0</ele>
        <time>2015-03-14T14:58:15Z</time>
      </trkpt>
      <trkpt lat="40.245150" lon="-4.906517">
        <ele>1475.0</ele>
        <time>2015-03-14T14:58:17Z</time>
      </trkpt>
      <trkpt lat="40.245033" lon="-4.906583">
        <ele>1482.0</ele>
        <time>2015-03-14T14:58:19Z</time>
      </trkpt>
      <trkpt lat="40.244917" lon="-4.906700">
        <ele>1484.0</ele>
        <time>2015-03-14T14:58:21Z</time>
      </trkpt>
      <trkpt lat="40.244783" lon="-4.906867">
        <ele>1484.0</ele>
        <time>2015-03-14T14:58:23Z</time>
      </trkpt>
      <trkpt lat="40.244667" lon="-4.907100">
        <ele>1488.0</ele>
        <time>2015-03-14T14:58:25Z</time>
      </trkpt>
      <trkpt lat="40.244617" lon="-4.907350">
        <ele>1489.0</ele>
        <time>2015-03-14T14:58:27Z</time>
      </trkpt>
      <trkpt lat="40.244600" lon="-4.907683">
        <ele>1489.0</ele>
        <time>2015-03-14T14:58:29Z</time>
      </trkpt>
      <trkpt lat="40.244650" lon="-4.908017">
        <ele>1490.0</ele>
        <time>2015-03-14T14:58:31Z</time>
      </trkpt>
      <trkpt lat="40.244733" lon="-4.908300">
        <ele>1493.0</ele>
        <time>2015-03-14T14:58:33Z</time>
      </trkpt>
      <trkpt lat="40.244867" lon="-4.908483">
        <ele>1494.0</ele>
        <time>2015-03-14T14:58:35Z</time>
      </trkpt>
      <trkpt lat="40.245033" lon="-4.908617">
        <ele>1494.0</ele>
        <time>2015-03-14T14:58:37Z</time>
      </trkpt>
      <trkpt lat="40.245167" lon="-4.908617">
        <ele>1495.0</ele>
        <time>2015-03-14T14:58:39Z</time>
      </trkpt>
      <trkpt lat="40.245283" lon="-4.908550">
        <ele>1496.0</ele>
        <time>2015-03-14T14:58:41Z</time>
      </trkpt>
      <trkpt lat="40.245333" lon="-4.908450">
        <ele>1499.0</ele>
        <time>2015-03-14T14:58:43Z</time>
      </trkpt>
      <trkpt lat="40.245317" lon="-4.908333">
        <ele>1502.0</ele>
        <time>2015-03-14T14:58:45Z</time>
      </trkpt>
      <trkpt lat="40.245250" lon="-4.908233">
        <ele>1504.0</ele>
        <time>2015-03-14T14:58:47Z</time>
      </trkpt>
      <trkpt lat="40.245183" lon="-4.908183">
        <ele>1506.0</ele>
        <time>2015-03-14T14:58:49Z</time>
      </trkpt>
      <trkpt lat="40.245067" lon="-4.908133">
        <ele>1508.0</ele>
        <time>2015-03-14T14:58:51Z</time>
      </trkpt>
      <trkpt lat="40.244933" lon="-4.908133">
        <ele>1512.0</ele>
        <time>2015-03-14T14:58:53Z</time>
      </trkpt>
      <trkpt lat="40.244833" lon="-4.908217">
        <ele>1516.0</ele>
        <time>2015-03-14T14:58:55Z</time>
      </trkpt>
      <trkpt lat="40.244667" lon="-4.908333">
        <ele>1515.0</ele>
        <time>2015-03-14T14:58:57Z</time>
      </trkpt>
      <trkpt lat="40.244517" lon="-4.908550">
        <ele>1518.0</ele>
        <time>2015-03-14T14:58:59Z</time>
      </trkpt>
      <trkpt lat="40.244400" lon="-4.908783">
        <ele>1524.0</ele>
        <time>2015-03-14T14:59:01Z</time>
      </trkpt>
      <trkpt lat="40.244333" lon="-4.909033">
        <ele>1526.0</ele>
        <time>2015-03-14T14:59:03Z</time>
      </trkpt>
      <trkpt lat="40.244283" lon="-4.909367">
        <ele>1525.0</ele>
        <time>2015-03-14T14:59:05Z</time>
      </trkpt>
      <trkpt lat="40.244267" lon="-4.909683">
        <ele>1526.0</ele>
        <time>2015-03-14T14:59:07Z</time>
      </trkpt>
      <trkpt lat="40.244317" lon="-4.909967">
        <ele>1525.0</ele>
        <time>2015-03-14T14:59:09Z</time>
      </trkpt>
      <trkpt lat="40.244450" lon="-4.910250">
        <ele>1521.0</ele>
        <time>2015-03-14T14:59:11Z</time>
      </trkpt>
      <trkpt lat="40.244600" lon="-4.910417">
        <ele>1519.0</ele>
        <time>2015-03-14T14:59:13Z</time>
      </trkpt>
      <trkpt lat="40.244733" lon="-4.910450">
        <ele>1518.0</ele>
        <time>2015-03-14T14:59:15Z</time>
      </trkpt>
      <trkpt lat="40.244833" lon="-4.910383">
        <ele>1514.0</ele>
        <time>2015-03-14T14:59:17Z</time>
      </trkpt>
      <trkpt lat="40.244817" lon="-4.910250">
        <ele>1511.0</ele>
        <time>2015-03-14T14:59:19Z</time>
      </trkpt>
      <trkpt lat="40.244767" lon="-4.910183">
        <ele>1514.0</ele>
        <time>2015-03-14T14:59:21Z</time>
      </trkpt>
      <trkpt lat="40.244733" lon="-4.910200">
        <ele>1514.0</ele>
        <time>2015-03-14T14:59:23Z</time>
      </trkpt>
      <trkpt lat="40.244667" lon="-4.910133">
        <ele>1511.0</ele>
        <time>2015-03-14T14:59:25Z</time>
      </trkpt>
      <trkpt lat="40.244550" lon="-4.910083">
        <ele>1509.0</ele>
        <time>2015-03-14T14:59:27Z</time>
      </trkpt>
      <trkpt lat="40.244433" lon="-4.910100">
        <ele>1511.0</ele>
        <time>2015-03-14T14:59:29Z</time>
      </trkpt>
      <trkpt lat="40.244300" lon="-4.910167">
        <ele>1509.0</ele>
        <time>2015-03-14T14:59:31Z</time>
      </trkpt>
      <trkpt lat="40.244150" lon="-4.910250">
        <ele>1507.0</ele>
        <time>2015-03-14T14:59:33Z</time>
      </trkpt>
      <trkpt lat="40.244000" lon="-4.910350">
        <ele>1505.0</ele>
        <time>2015-03-14T14:59:35Z</time>
      </trkpt>
      <trkpt lat="40.243833" lon="-4.910467">
        <ele>1502.0</ele>
        <time>2015-03-14T14:59:37Z</time>
      </trkpt>
      <trkpt lat="40.243633" lon="-4.910583">
        <ele>1498.0</ele>
        <time>2015-03-14T14:59:39Z</time>
      </trkpt>
      <trkpt lat="40.243417" lon="-4.910683">
        <ele>1497.0</ele>
        <time>2015-03-14T14:59:41Z</time>
      </trkpt>
      <trkpt lat="40.243250" lon="-4.910783">
        <ele>1499.0</ele>
        <time>2015-03-14T14:59:43Z</time>
      </trkpt>
      <trkpt lat="40.243083" lon="-4.910917">
        <ele>1498.0</ele>
        <time>2015-03-14T14:59:45Z</time>
      </trkpt>
      <trkpt lat="40.242883" lon="-4.911067">
        <ele>1492.0</ele>
        <time>2015-03-14T14:59:47Z</time>
      </trkpt>
      <trkpt lat="40.242683" lon="-4.911183">
        <ele>1490.0</ele>
        <time>2015-03-14T14:59:49Z</time>
      </trkpt>
      <trkpt lat="40.242517" lon="-4.911333">
        <ele>1489.0</ele>
        <time>2015-03-14T14:59:51Z</time>
      </trkpt>
      <trkpt lat="40.242350" lon="-4.911467">
        <ele>1487.0</ele>
        <time>2015-03-14T14:59:53Z</time>
      </trkpt>
      <trkpt lat="40.242150" lon="-4.911567">
        <ele>1484.0</ele>
        <time>2015-03-14T14:59:55Z</time>
      </trkpt>
      <trkpt lat="40.241950" lon="-4.911633">
        <ele>1481.0</ele>
        <time>2015-03-14T14:59:57Z</time>
      </trkpt>
      <trkpt lat="40.241750" lon="-4.911667">
        <ele>1476.0</ele>
        <time>2015-03-14T14:59:59Z</time>
      </trkpt>
      <trkpt lat="40.241517" lon="-4.911683">
        <ele>1468.0</ele>
        <time>2015-03-14T15:00:01Z</time>
      </trkpt>
      <trkpt lat="40.241317" lon="-4.911750">
        <ele>1463.0</ele>
        <time>2015-03-14T15:00:03Z</time>
      </trkpt>
      <trkpt lat="40.241100" lon="-4.911783">
        <ele>1456.0</ele>
        <time>2015-03-14T15:00:05Z</time>
      </trkpt>
      <trkpt lat="40.240867" lon="-4.911800">
        <ele>1449.0</ele>
        <time>2015-03-14T15:00:07Z</time>
      </trkpt>
      <trkpt lat="40.240650" lon="-4.911850">
        <ele>1444.0</ele>
        <time>2015-03-14T15:00:09Z</time>
      </trkpt>
      <trkpt lat="40.240433" lon="-4.911900">
        <ele>1437.0</ele>
        <time>2015-03-14T15:00:11Z</time>
      </trkpt>
      <trkpt lat="40.240200" lon="-4.912017">
        <ele>1430.0</ele>
        <time>2015-03-14T15:00:13Z</time>
      </trkpt>
      <trkpt lat="40.240000" lon="-4.912183">
        <ele>1423.0</ele>
        <time>2015-03-14T15:00:15Z</time>
      </trkpt>
      <trkpt lat="40.239800" lon="-4.912300">
        <ele>1413.0</ele>
        <time>2015-03-14T15:00:17Z</time>
      </trkpt>
      <trkpt lat="40.239567" lon="-4.912400">
        <ele>1402.0</ele>
        <time>2015-03-14T15:00:19Z</time>
      </trkpt>
      <trkpt lat="40.239317" lon="-4.912517">
        <ele>1390.0</ele>
        <time>2015-03-14T15:00:21Z</time>
      </trkpt>
      <trkpt lat="40.239100" lon="-4.912633">
        <ele>1378.0</ele>
        <time>2015-03-14T15:00:23Z</time>
      </trkpt>
      <trkpt lat="40.238850" lon="-4.912733">
        <ele>1365.0</ele>
        <time>2015-03-14T15:00:25Z</time>
      </trkpt>
      <trkpt lat="40.238600" lon="-4.912750">
        <ele>1354.0</ele>
        <time>2015-03-14T15:00:27Z</time>
      </trkpt>
      <trkpt lat="40.238383" lon="-4.912767">
        <ele>1344.0</ele>
        <time>2015-03-14T15:00:29Z</time>
      </trkpt>
      <trkpt lat="40.238150" lon="-4.912800">
        <ele>1331.0</ele>
        <time>2015-03-14T15:00:31Z</time>
      </trkpt>
      <trkpt lat="40.237917" lon="-4.912883">
        <ele>1320.0</ele>
        <time>2015-03-14T15:00:33Z</time>
      </trkpt>
      <trkpt lat="40.237700" lon="-4.912983">
        <ele>1311.0</ele>
        <time>2015-03-14T15:00:35Z</time>
      </trkpt>
      <trkpt lat="40.237483" lon="-4.913100">
        <ele>1299.0</ele>
        <time>2015-03-14T15:00:37Z</time>
      </trkpt>
      <trkpt lat="40.237283" lon="-4.913200">
        <ele>1289.0</ele>
        <time>2015-03-14T15:00:39Z</time>
      </trkpt>
      <trkpt lat="40.237067" lon="-4.913250">
        <ele>1282.0</ele>
        <time>2015-03-14T15:00:41Z</time>
      </trkpt>
      <trkpt lat="40.236850" lon="-4.913283">
        <ele>1276.0</ele>
        <time>2015-03-14T15:00:43Z</time>
      </trkpt>
      <trkpt lat="40.236617" lon="-4.913333">
        <ele>1268.0</ele>
        <time>2015-03-14T15:00:45Z</time>
      </trkpt>
      <trkpt lat="40.236383" lon="-4.913367">
        <ele>1261.0</ele>
        <time>2015-03-14T15:00:47Z</time>
      </trkpt>
      <trkpt lat="40.236183" lon="-4.913483">
        <ele>1255.0</ele>
        <time>2015-03-14T15:00:49Z</time>
      </trkpt>
      <trkpt lat="40.235983" lon="-4.913650">
        <ele>1245.0</ele>
        <time>2015-03-14T15:00:51Z</time>
      </trkpt>
      <trkpt lat="40.235750" lon="-4.913767">
        <ele>1234.0</ele>
        <time>2015-03-14T15:00:53Z</time>
      </trkpt>
      <trkpt lat="40.235550" lon="-4.913883">
        <ele>1229.0</ele>
        <time>2015-03-14T15:00:55Z</time>
      </trkpt>
      <trkpt lat="40.235383" lon="-4.913983">
        <ele>1227.0</ele>
        <time>2015-03-14T15:00:57Z</time>
      </trkpt>
      <trkpt lat="40.235217" lon="-4.914083">
        <ele>1221.0</ele>
        <time>2015-03-14T15:00:59Z</time>
      </trkpt>
      <trkpt lat="40.235033" lon="-4.914267">
        <ele>1213.0</ele>
        <time>2015-03-14T15:01:01Z</time>
      </trkpt>
      <trkpt lat="40.234833" lon="-4.914400">
        <ele>1212.0</ele>
        <time>2015-03-14T15:01:03Z</time>
      </trkpt>
      <trkpt lat="40.234683" lon="-4.914500">
        <ele>1212.0</ele>
        <time>2015-03-14T15:01:05Z</time>
      </trkpt>
      <trkpt lat="40.234533" lon="-4.914650">
        <ele>1209.0</ele>
        <time>2015-03-14T15:01:07Z</time>
      </trkpt>
      <trkpt lat="40.234367" lon="-4.914883">
        <ele>1205.0</ele>
        <time>2015-03-14T15:01:09Z</time>
      </trkpt>
      <trkpt lat="40.234150" lon="-4.915100">
        <ele>1199.0</ele>
        <time>2015-03-14T15:01:11Z</time>
      </trkpt>
      <trkpt lat="40.233950" lon="-4.915217">
        <ele>1192.0</ele>
        <time>2015-03-14T15:01:13Z</time>
      </trkpt>
      <trkpt lat="40.233783" lon="-4.915267">
        <ele>1195.0</ele>
        <time>2015-03-14T15:01:15Z</time>
      </trkpt>
      <trkpt lat="40.233617" lon="-4.915317">
        <ele>1195.0</ele>
        <time>2015-03-14T15:01:17Z</time>
      </trkpt>
      <trkpt lat="40.233417" lon="-4.915417">
        <ele>1191.0</ele>
        <time>2015-03-14T15:01:19Z</time>
      </trkpt>
      <trkpt lat="40.233250" lon="-4.915550">
        <ele>1189.0</ele>
        <time>2015-03-14T15:01:21Z</time>
      </trkpt>
      <trkpt lat="40.233083" lon="-4.915667">
        <ele>1186.0</ele>
        <time>2015-03-14T15:01:23Z</time>
      </trkpt>
      <trkpt lat="40.232883" lon="-4.915767">
        <ele>1178.0</ele>
        <time>2015-03-14T15:01:25Z</time>
      </trkpt>
      <trkpt lat="40.232683" lon="-4.915850">
        <ele>1171.0</ele>
        <time>2015-03-14T15:01:27Z</time>
      </trkpt>
      <trkpt lat="40.232483" lon="-4.915917">
        <ele>1165.0</ele>
        <time>2015-03-14T15:01:29Z</time>
      </trkpt>
      <trkpt lat="40.232267" lon="-4.916033">
        <ele>1158.0</ele>
        <time>2015-03-14T15:01:31Z</time>
      </trkpt>
      <trkpt lat="40.232017" lon="-4.916117">
        <ele>1152.0</ele>
        <time>2015-03-14T15:01:33Z</time>
      </trkpt>
      <trkpt lat="40.231817" lon="-4.916183">
        <ele>1151.0</ele>
        <time>2015-03-14T15:01:35Z</time>
      </trkpt>
      <trkpt lat="40.231650" lon="-4.916267">
        <ele>1153.0</ele>
        <time>2015-03-14T15:01:37Z</time>
      </trkpt>
      <trkpt lat="40.231467" lon="-4.916417">
        <ele>1148.0</ele>
        <time>2015-03-14T15:01:39Z</time>
      </trkpt>
      <trkpt lat="40.231267" lon="-4.916583">
        <ele>1144.0</ele>
        <time>2015-03-14T15:01:41Z</time>
      </trkpt>
      <trkpt lat="40.231100" lon="-4.916717">
        <ele>1145.0</ele>
        <time>2015-03-14T15:01:43Z</time>
      </trkpt>
      <trkpt lat="40.230950" lon="-4.916867">
        <ele>1141.0</ele>
        <time>2015-03-14T15:01:45Z</time>
      </trkpt>
      <trkpt lat="40.230783" lon="-4.917017">
        <ele>1135.0</ele>
        <time>2015-03-14T15:01:47Z</time>
      </trkpt>
      <trkpt lat="40.230600" lon="-4.917150">
        <ele>1130.0</ele>
        <time>2015-03-14T15:01:49Z</time>
      </trkpt>
      <trkpt lat="40.230433" lon="-4.917300">
        <ele>1125.0</ele>
        <time>2015-03-14T15:01:51Z</time>
      </trkpt>
      <trkpt lat="40.230250" lon="-4.917467">
        <ele>1122.0</ele>
        <time>2015-03-14T15:01:53Z</time>
      </trkpt>
      <trkpt lat="40.230067" lon="-4.917583">
        <ele>1121.0</ele>
        <time>2015-03-14T15:01:55Z</time>
      </trkpt>
      <trkpt lat="40.229900" lon="-4.917683">
        <ele>1119.0</ele>
        <time>2015-03-14T15:01:57Z</time>
      </trkpt>
      <trkpt lat="40.229733" lon="-4.917800">
        <ele>1116.0</ele>
        <time>2015-03-14T15:01:59Z</time>
      </trkpt>
      <trkpt lat="40.229567" lon="-4.917900">
        <ele>1114.0</ele>
        <time>2015-03-14T15:02:01Z</time>
      </trkpt>
      <trkpt lat="40.229400" lon="-4.917967">
        <ele>1112.0</ele>
        <time>2015-03-14T15:02:03Z</time>
      </trkpt>
      <trkpt lat="40.229217" lon="-4.918067">
        <ele>1109.0</ele>
        <time>2015-03-14T15:02:05Z</time>
      </trkpt>
      <trkpt lat="40.229033" lon="-4.918183">
        <ele>1107.0</ele>
        <time>2015-03-14T15:02:07Z</time>
      </trkpt>
      <trkpt lat="40.228867" lon="-4.918267">
        <ele>1107.0</ele>
        <time>2015-03-14T15:02:09Z</time>
      </trkpt>
      <trkpt lat="40.228733" lon="-4.918417">
        <ele>1106.0</ele>
        <time>2015-03-14T15:02:11Z</time>
      </trkpt>
      <trkpt lat="40.228600" lon="-4.918583">
        <ele>1105.0</ele>
        <time>2015-03-14T15:02:13Z</time>
      </trkpt>
      <trkpt lat="40.228450" lon="-4.918717">
        <ele>1102.0</ele>
        <time>2015-03-14T15:02:15Z</time>
      </trkpt>
      <trkpt lat="40.228300" lon="-4.918883">
        <ele>1099.0</ele>
        <time>2015-03-14T15:02:17Z</time>
      </trkpt>
      <trkpt lat="40.228150" lon="-4.919050">
        <ele>1099.0</ele>
        <time>2015-03-14T15:02:19Z</time>
      </trkpt>
      <trkpt lat="40.228033" lon="-4.919217">
        <ele>1097.0</ele>
        <time>2015-03-14T15:02:21Z</time>
      </trkpt>
      <trkpt lat="40.227933" lon="-4.919433">
        <ele>1094.0</ele>
        <time>2015-03-14T15:02:23Z</time>
      </trkpt>
      <trkpt lat="40.227833" lon="-4.919650">
        <ele>1091.0</ele>
        <time>2015-03-14T15:02:25Z</time>
      </trkpt>
      <trkpt lat="40.227717" lon="-4.919850">
        <ele>1090.0</ele>
        <time>2015-03-14T15:02:27Z</time>
      </trkpt>
      <trkpt lat="40.227617" lon="-4.920050">
        <ele>1089.0</ele>
        <time>2015-03-14T15:02:29Z</time>
      </trkpt>
      <trkpt lat="40.227467" lon="-4.920217">
        <ele>1087.0</ele>
        <time>2015-03-14T15:02:31Z</time>
      </trkpt>
      <trkpt lat="40.227317" lon="-4.920417">
        <ele>1084.0</ele>
        <time>2015-03-14T15:02:33Z</time>
      </trkpt>
      <trkpt lat="40.227167" lon="-4.920583">
        <ele>1083.0</ele>
        <time>2015-03-14T15:02:35Z</time>
      </trkpt>
      <trkpt lat="40.227033" lon="-4.920683">
        <ele>1081.0</ele>
        <time>2015-03-14T15:02:37Z</time>
      </trkpt>
      <trkpt lat="40.226883" lon="-4.920817">
        <ele>1078.0</ele>
        <time>2015-03-14T15:02:39Z</time>
      </trkpt>
      <trkpt lat="40.226733" lon="-4.920967">
        <ele>1075.0</ele>
        <time>2015-03-14T15:02:41Z</time>
      </trkpt>
      <trkpt lat="40.226583" lon="-4.921083">
        <ele>1073.0</ele>
        <time>2015-03-14T15:02:43Z</time>
      </trkpt>
      <trkpt lat="40.226450" lon="-4.921217">
        <ele>1071.0</ele>
        <time>2015-03-14T15:02:45Z</time>
      </trkpt>
      <trkpt lat="40.226317" lon="-4.921367">
        <ele>1067.0</ele>
        <time>2015-03-14T15:02:47Z</time>
      </trkpt>
      <trkpt lat="40.226167" lon="-4.921500">
        <ele>1063.0</ele>
        <time>2015-03-14T15:02:49Z</time>
      </trkpt>
      <trkpt lat="40.226033" lon="-4.921633">
        <ele>1060.0</ele>
        <time>2015-03-14T15:02:51Z</time>
      </trkpt>
      <trkpt lat="40.225900" lon="-4.921783">
        <ele>1056.0</ele>
        <time>2015-03-14T15:02:53Z</time>
      </trkpt>
      <trkpt lat="40.225750" lon="-4.921950">
        <ele>1053.0</ele>
        <time>2015-03-14T15:02:55Z</time>
      </trkpt>
      <trkpt lat="40.225633" lon="-4.922150">
        <ele>1051.0</ele>
        <time>2015-03-14T15:02:57Z</time>
      </trkpt>
      <trkpt lat="40.225533" lon="-4.922400">
        <ele>1047.0</ele>
        <time>2015-03-14T15:02:59Z</time>
      </trkpt>
      <trkpt lat="40.225417" lon="-4.922650">
        <ele>1044.0</ele>
        <time>2015-03-14T15:03:01Z</time>
      </trkpt>
      <trkpt lat="40.225333" lon="-4.922883">
        <ele>1044.0</ele>
        <time>2015-03-14T15:03:03Z</time>
      </trkpt>
      <trkpt lat="40.225300" lon="-4.923133">
        <ele>1045.0</ele>
        <time>2015-03-14T15:03:05Z</time>
      </trkpt>
      <trkpt lat="40.225283" lon="-4.923400">
        <ele>1043.0</ele>
        <time>2015-03-14T15:03:07Z</time>
      </trkpt>
      <trkpt lat="40.225283" lon="-4.923683">
        <ele>1043.0</ele>
        <time>2015-03-14T15:03:09Z</time>
      </trkpt>
      <trkpt lat="40.225317" lon="-4.923950">
        <ele>1043.0</ele>
        <time>2015-03-14T15:03:11Z</time>
      </trkpt>
      <trkpt lat="40.225400" lon="-4.924183">
        <ele>1043.0</ele>
        <time>2015-03-14T15:03:13Z</time>
      </trkpt>
      <trkpt lat="40.225533" lon="-4.924400">
        <ele>1040.0</ele>
        <time>2015-03-14T15:03:15Z</time>
      </trkpt>
      <trkpt lat="40.225700" lon="-4.924550">
        <ele>1038.0</ele>
        <time>2015-03-14T15:03:17Z</time>
      </trkpt>
      <trkpt lat="40.225850" lon="-4.924633">
        <ele>1038.0</ele>
        <time>2015-03-14T15:03:19Z</time>
      </trkpt>
      <trkpt lat="40.226017" lon="-4.924667">
        <ele>1035.0</ele>
        <time>2015-03-14T15:03:21Z</time>
      </trkpt>
      <trkpt lat="40.226200" lon="-4.924667">
        <ele>1032.0</ele>
        <time>2015-03-14T15:03:23Z</time>
      </trkpt>
      <trkpt lat="40.226333" lon="-4.924617">
        <ele>1029.0</ele>
        <time>2015-03-14T15:03:25Z</time>
      </trkpt>
      <trkpt lat="40.226467" lon="-4.924550">
        <ele>1025.0</ele>
        <time>2015-03-14T15:03:27Z</time>
      </trkpt>
      <trkpt lat="40.226533" lon="-4.924433">
        <ele>1021.0</ele>
        <time>2015-03-14T15:03:29Z</time>
      </trkpt>
      <trkpt lat="40.226567" lon="-4.924300">
        <ele>1018.0</ele>
        <time>2015-03-14T15:03:31Z</time>
      </trkpt>
      <trkpt lat="40.226500" lon="-4.924167">
        <ele>1014.0</ele>
        <time>2015-03-14T15:03:33Z</time>
      </trkpt>
      <trkpt lat="40.226367" lon="-4.924117">
        <ele>1010.0</ele>
        <time>2015-03-14T15:03:35Z</time>
      </trkpt>
      <trkpt lat="40.226233" lon="-4.924117">
        <ele>1010.0</ele>
        <time>2015-03-14T15:03:37Z</time>
      </trkpt>
      <trkpt lat="40.226083" lon="-4.924083">
        <ele>1008.0</ele>
        <time>2015-03-14T15:03:39Z</time>
      </trkpt>
      <trkpt lat="40.225917" lon="-4.924117">
        <ele>1006.0</ele>
        <time>2015-03-14T15:03:41Z</time>
      </trkpt>
      <trkpt lat="40.225767" lon="-4.924133">
        <ele>1006.0</ele>
        <time>2015-03-14T15:03:43Z</time>
      </trkpt>
      <trkpt lat="40.225633" lon="-4.924133">
        <ele>1004.0</ele>
        <time>2015-03-14T15:03:45Z</time>
      </trkpt>
      <trkpt lat="40.225467" lon="-4.924167">
        <ele>1000.0</ele>
        <time>2015-03-14T15:03:47Z</time>
      </trkpt>
      <trkpt lat="40.225283" lon="-4.924250">
        <ele>1002.0</ele>
        <time>2015-03-14T15:03:49Z</time>
      </trkpt>
      <trkpt lat="40.225133" lon="-4.924333">
        <ele>1002.0</ele>
        <time>2015-03-14T15:03:51Z</time>
      </trkpt>
      <trkpt lat="40.224933" lon="-4.924450">
        <ele>999.0</ele>
        <time>2015-03-14T15:03:53Z</time>
      </trkpt>
      <trkpt lat="40.224733" lon="-4.924517">
        <ele>999.0</ele>
        <time>2015-03-14T15:03:55Z</time>
      </trkpt>
      <trkpt lat="40.224567" lon="-4.924583">
        <ele>1002.0</ele>
        <time>2015-03-14T15:03:57Z</time>
      </trkpt>
      <trkpt lat="40.224450" lon="-4.924700">
        <ele>1002.0</ele>
        <time>2015-03-14T15:03:59Z</time>
      </trkpt>
      <trkpt lat="40.224267" lon="-4.924817">
        <ele>998.0</ele>
        <time>2015-03-14T15:04:01Z</time>
      </trkpt>
      <trkpt lat="40.224050" lon="-4.924950">
        <ele>994.0</ele>
        <time>2015-03-14T15:04:03Z</time>
      </trkpt>
      <trkpt lat="40.223883" lon="-4.925067">
        <ele>995.0</ele>
        <time>2015-03-14T15:04:05Z</time>
      </trkpt>
      <trkpt lat="40.223717" lon="-4.925217">
        <ele>995.0</ele>
        <time>2015-03-14T15:04:07Z</time>
      </trkpt>
      <trkpt lat="40.223567" lon="-4.925417">
        <ele>996.0</ele>
        <time>2015-03-14T15:04:09Z</time>
      </trkpt>
      <trkpt lat="40.223450" lon="-4.925650">
        <ele>1000.0</ele>
        <time>2015-03-14T15:04:11Z</time>
      </trkpt>
      <trkpt lat="40.223383" lon="-4.925917">
        <ele>1002.0</ele>
        <time>2015-03-14T15:04:13Z</time>
      </trkpt>
      <trkpt lat="40.223367" lon="-4.926217">
        <ele>1001.0</ele>
        <time>2015-03-14T15:04:15Z</time>
      </trkpt>
      <trkpt lat="40.223350" lon="-4.926550">
        <ele>1001.0</ele>
        <time>2015-03-14T15:04:17Z</time>
      </trkpt>
      <trkpt lat="40.223383" lon="-4.926833">
        <ele>1003.0</ele>
        <time>2015-03-14T15:04:19Z</time>
      </trkpt>
      <trkpt lat="40.223467" lon="-4.927100">
        <ele>1002.0</ele>
        <time>2015-03-14T15:04:21Z</time>
      </trkpt>
      <trkpt lat="40.223600" lon="-4.927367">
        <ele>1001.0</ele>
        <time>2015-03-14T15:04:23Z</time>
      </trkpt>
      <trkpt lat="40.223733" lon="-4.927567">
        <ele>1003.0</ele>
        <time>2015-03-14T15:04:25Z</time>
      </trkpt>
      <trkpt lat="40.223883" lon="-4.927667">
        <ele>1002.0</ele>
        <time>2015-03-14T15:04:27Z</time>
      </trkpt>
      <trkpt lat="40.224050" lon="-4.927683">
        <ele>1001.0</ele>
        <time>2015-03-14T15:04:29Z</time>
      </trkpt>
      <trkpt lat="40.224167" lon="-4.927667">
        <ele>1001.0</ele>
        <time>2015-03-14T15:04:31Z</time>
      </trkpt>
      <trkpt lat="40.224250" lon="-4.927583">
        <ele>1000.0</ele>
        <time>2015-03-14T15:04:33Z</time>
      </trkpt>
      <trkpt lat="40.224300" lon="-4.927467">
        <ele>998.0</ele>
        <time>2015-03-14T15:04:35Z</time>
      </trkpt>
      <trkpt lat="40.224300" lon="-4.927367">
        <ele>999.0</ele>
        <time>2015-03-14T15:04:37Z</time>
      </trkpt>
      <trkpt lat="40.224250" lon="-4.927300">
        <ele>1000.0</ele>
        <time>2015-03-14T15:04:39Z</time>
      </trkpt>
      <trkpt lat="40.224150" lon="-4.927233">
        <ele>998.0</ele>
        <time>2015-03-14T15:04:41Z</time>
      </trkpt>
      <trkpt lat="40.224033" lon="-4.927200">
        <ele>999.0</ele>
        <time>2015-03-14T15:04:43Z</time>
      </trkpt>
      <trkpt lat="40.223883" lon="-4.927250">
        <ele>1001.0</ele>
        <time>2015-03-14T15:04:45Z</time>
      </trkpt>
      <trkpt lat="40.223733" lon="-4.927317">
        <ele>1003.0</ele>
        <time>2015-03-14T15:04:47Z</time>
      </trkpt>
      <trkpt lat="40.223567" lon="-4.927450">
        <ele>1005.0</ele>
        <time>2015-03-14T15:04:49Z</time>
      </trkpt>
      <trkpt lat="40.223383" lon="-4.927650">
        <ele>1004.0</ele>
        <time>2015-03-14T15:04:51Z</time>
      </trkpt>
      <trkpt lat="40.223233" lon="-4.927900">
        <ele>1008.0</ele>
        <time>2015-03-14T15:04:53Z</time>
      </trkpt>
      <trkpt lat="40.223133" lon="-4.928133">
        <ele>1014.0</ele>
        <time>2015-03-14T15:04:55Z</time>
      </trkpt>
      <trkpt lat="40.223117" lon="-4.928417">
        <ele>1016.0</ele>
        <time>2015-03-14T15:04:57Z</time>
      </trkpt>
      <trkpt lat="40.223150" lon="-4.928683">
        <ele>1019.0</ele>
        <time>2015-03-14T15:04:59Z</time>
      </trkpt>
      <trkpt lat="40.223233" lon="-4.928900">
        <ele>1023.0</ele>
        <time>2015-03-14T15:05:01Z</time>
      </trkpt>
      <trkpt lat="40.223350" lon="-4.929050">
        <ele>1025.0</ele>
        <time>2015-03-14T15:05:03Z</time>
      </trkpt>
      <trkpt lat="40.223533" lon="-4.929150">
        <ele>1023.0</ele>
        <time>2015-03-14T15:05:05Z</time>
      </trkpt>
      <trkpt lat="40.223700" lon="-4.929183">
        <ele>1023.0</ele>
        <time>2015-03-14T15:05:07Z</time>
      </trkpt>
      <trkpt lat="40.223817" lon="-4.929167">
        <ele>1026.0</ele>
        <time>2015-03-14T15:05:09Z</time>
      </trkpt>
      <trkpt lat="40.223917" lon="-4.929100">
        <ele>1028.0</ele>
        <time>2015-03-14T15:05:11Z</time>
      </trkpt>
      <trkpt lat="40.223950" lon="-4.929033">
        <ele>1030.0</ele>
        <time>2015-03-14T15:05:13Z</time>
      </trkpt>
      <trkpt lat="40.223933" lon="-4.928933">
        <ele>1032.0</ele>
        <time>2015-03-14T15:05:15Z</time>
      </trkpt>
      <trkpt lat="40.223833" lon="-4.928867">
        <ele>1035.0</ele>
        <time>2015-03-14T15:05:17Z</time>
      </trkpt>
      <trkpt lat="40.223717" lon="-4.928850">
        <ele>1039.0</ele>
        <time>2015-03-14T15:05:19Z</time>
      </trkpt>
      <trkpt lat="40.223567" lon="-4.928867">
        <ele>1042.0</ele>
        <time>2015-03-14T15:05:21Z</time>
      </trkpt>
      <trkpt lat="40.223400" lon="-4.928917">
        <ele>1043.0</ele>
        <time>2015-03-14T15:05:23Z</time>
      </trkpt>
      <trkpt lat="40.223217" lon="-4.929033">
        <ele>1046.0</ele>
        <time>2015-03-14T15:05:25Z</time>
      </trkpt>
      <trkpt lat="40.223067" lon="-4.929233">
        <ele>1049.0</ele>
        <time>2015-03-14T15:05:27Z</time>
      </trkpt>
      <trkpt lat="40.222983" lon="-4.929450">
        <ele>1053.0</ele>
        <time>2015-03-14T15:05:29Z</time>
      </trkpt>
      <trkpt lat="40.222933" lon="-4.929733">
        <ele>1053.0</ele>
        <time>2015-03-14T15:05:31Z</time>
      </trkpt>
      <trkpt lat="40.222967" lon="-4.930033">
        <ele>1054.0</ele>
        <time>2015-03-14T15:05:33Z</time>
      </trkpt>
      <trkpt lat="40.223067" lon="-4.930250">
        <ele>1057.0</ele>
        <time>2015-03-14T15:05:35Z</time>
      </trkpt>
      <trkpt lat="40.223200" lon="-4.930417">
        <ele>1060.0</ele>
        <time>2015-03-14T15:05:37Z</time>
      </trkpt>
      <trkpt lat="40.223367" lon="-4.930500">
        <ele>1062.0</ele>
        <time>2015-03-14T15:05:39Z</time>
      </trkpt>
      <trkpt lat="40.223533" lon="-4.930483">
        <ele>1064.0</ele>
        <time>2015-03-14T15:05:41Z</time>
      </trkpt>
      <trkpt lat="40.223650" lon="-4.930417">
        <ele>1066.0</ele>
        <time>2015-03-14T15:05:43Z</time>
      </trkpt>
      <trkpt lat="40.223717" lon="-4.930300">
        <ele>1069.0</ele>
        <time>2015-03-14T15:05:45Z</time>
      </trkpt>
      <trkpt lat="40.223700" lon="-4.930167">
        <ele>1072.0</ele>
        <time>2015-03-14T15:05:47Z</time>
      </trkpt>
      <trkpt lat="40.223617" lon="-4.930083">
        <ele>1075.0</ele>
        <time>2015-03-14T15:05:49Z</time>
      </trkpt>
      <trkpt lat="40.223483" lon="-4.930033">
        <ele>1078.0</ele>
        <time>2015-03-14T15:05:51Z</time>
      </trkpt>
      <trkpt lat="40.223317" lon="-4.930083">
        <ele>1081.0</ele>
        <time>2015-03-14T15:05:53Z</time>
      </trkpt>
      <trkpt lat="40.223150" lon="-4.930233">
        <ele>1084.0</ele>
        <time>2015-03-14T15:05:55Z</time>
      </trkpt>
      <trkpt lat="40.223017" lon="-4.930433">
        <ele>1087.0</ele>
        <time>2015-03-14T15:05:57Z</time>
      </trkpt>
      <trkpt lat="40.222917" lon="-4.930700">
        <ele>1090.0</ele>
        <time>2015-03-14T15:05:59Z</time>
      </trkpt>
      <trkpt lat="40.222917" lon="-4.930950">
        <ele>1092.0</ele>
        <time>2015-03-14T15:06:01Z</time>
      </trkpt>
      <trkpt lat="40.222967" lon="-4.931217">
        <ele>1094.0</ele>
        <time>2015-03-14T15:06:03Z</time>
      </trkpt>
      <trkpt lat="40.223083" lon="-4.931417">
        <ele>1098.0</ele>
        <time>2015-03-14T15:06:05Z</time>
      </trkpt>
      <trkpt lat="40.223233" lon="-4.931517">
        <ele>1103.0</ele>
        <time>2015-03-14T15:06:07Z</time>
      </trkpt>
      <trkpt lat="40.223367" lon="-4.931550">
        <ele>1108.0</ele>
        <time>2015-03-14T15:06:09Z</time>
      </trkpt>
      <trkpt lat="40.223500" lon="-4.931550">
        <ele>1110.0</ele>
        <time>2015-03-14T15:06:11Z</time>
      </trkpt>
      <trkpt lat="40.223600" lon="-4.931433">
        <ele>1110.0</ele>
        <time>2015-03-14T15:06:13Z</time>
      </trkpt>
      <trkpt lat="40.223633" lon="-4.931317">
        <ele>1113.0</ele>
        <time>2015-03-14T15:06:15Z</time>
      </trkpt>
      <trkpt lat="40.223617" lon="-4.931200">
        <ele>1116.0</ele>
        <time>2015-03-14T15:06:17Z</time>
      </trkpt>
      <trkpt lat="40.223517" lon="-4.931083">
        <ele>1118.0</ele>
        <time>2015-03-14T15:06:19Z</time>
      </trkpt>
      <trkpt lat="40.223350" lon="-4.931050">
        <ele>1121.0</ele>
        <time>2015-03-14T15:06:21Z</time>
      </trkpt>
      <trkpt lat="40.223217" lon="-4.931083">
        <ele>1125.0</ele>
        <time>2015-03-14T15:06:23Z</time>
      </trkpt>
      <trkpt lat="40.223050" lon="-4.931133">
        <ele>1128.0</ele>
        <time>2015-03-14T15:06:25Z</time>
      </trkpt>
      <trkpt lat="40.222867" lon="-4.931250">
        <ele>1129.0</ele>
        <time>2015-03-14T15:06:27Z</time>
      </trkpt>
      <trkpt lat="40.222717" lon="-4.931433">
        <ele>1134.0</ele>
        <time>2015-03-14T15:06:29Z</time>
      </trkpt>
      <trkpt lat="40.222617" lon="-4.931683">
        <ele>1139.0</ele>
        <time>2015-03-14T15:06:31Z</time>
      </trkpt>
      <trkpt lat="40.222600" lon="-4.931950">
        <ele>1141.0</ele>
        <time>2015-03-14T15:06:33Z</time>
      </trkpt>
      <trkpt lat="40.222667" lon="-4.932233">
        <ele>1142.0</ele>
        <time>2015-03-14T15:06:35Z</time>
      </trkpt>
      <trkpt lat="40.222783" lon="-4.932417">
        <ele>1147.0</ele>
        <time>2015-03-14T15:06:37Z</time>
      </trkpt>
      <trkpt lat="40.222900" lon="-4.932500">
        <ele>1154.0</ele>
        <time>2015-03-14T15:06:39Z</time>
      </trkpt>
      <trkpt lat="40.223017" lon="-4.932483">
        <ele>1157.0</ele>
        <time>2015-03-14T15:06:41Z</time>
      </trkpt>
      <trkpt lat="40.223100" lon="-4.932350">
        <ele>1160.0</ele>
        <time>2015-03-14T15:06:43Z</time>
      </trkpt>
      <trkpt lat="40.223083" lon="-4.932217">
        <ele>1164.0</ele>
        <time>2015-03-14T15:06:45Z</time>
      </trkpt>
      <trkpt lat="40.223017" lon="-4.932117">
        <ele>1170.0</ele>
        <time>2015-03-14T15:06:47Z</time>
      </trkpt>
      <trkpt lat="40.222883" lon="-4.932017">
        <ele>1172.0</ele>
        <time>2015-03-14T15:06:49Z</time>
      </trkpt>
      <trkpt lat="40.222700" lon="-4.932017">
        <ele>1176.0</ele>
        <time>2015-03-14T15:06:51Z</time>
      </trkpt>
      <trkpt lat="40.222533" lon="-4.932083">
        <ele>1182.0</ele>
        <time>2015-03-14T15:06:53Z</time>
      </trkpt>
      <trkpt lat="40.222383" lon="-4.932233">
        <ele>1187.0</ele>
        <time>2015-03-14T15:06:55Z</time>
      </trkpt>
      <trkpt lat="40.222250" lon="-4.932467">
        <ele>1188.0</ele>
        <time>2015-03-14T15:06:57Z</time>
      </trkpt>
      <trkpt lat="40.222167" lon="-4.932750">
        <ele>1192.0</ele>
        <time>2015-03-14T15:06:59Z</time>
      </trkpt>
      <trkpt lat="40.222167" lon="-4.933017">
        <ele>1197.0</ele>
        <time>2015-03-14T15:07:01Z</time>
      </trkpt>
      <trkpt lat="40.222250" lon="-4.933250">
        <ele>1199.0</ele>
        <time>2015-03-14T15:07:03Z</time>
      </trkpt>
      <trkpt lat="40.222367" lon="-4.933433">
        <ele>1202.0</ele>
        <time>2015-03-14T15:07:05Z</time>
      </trkpt>
      <trkpt lat="40.222517" lon="-4.933467">
        <ele>1207.0</ele>
        <time>2015-03-14T15:07:07Z</time>
      </trkpt>
      <trkpt lat="40.222650" lon="-4.933350">
        <ele>1211.0</ele>
        <time>2015-03-14T15:07:09Z</time>
      </trkpt>
      <trkpt lat="40.222700" lon="-4.933183">
        <ele>1217.0</ele>
        <time>2015-03-14T15:07:11Z</time>
      </trkpt>
      <trkpt lat="40.222667" lon="-4.933033">
        <ele>1220.0</ele>
        <time>2015-03-14T15:07:13Z</time>
      </trkpt>
      <trkpt lat="40.222550" lon="-4.932883">
        <ele>1223.0</ele>
        <time>2015-03-14T15:07:15Z</time>
      </trkpt>
      <trkpt lat="40.222400" lon="-4.932817">
        <ele>1228.0</ele>
        <time>2015-03-14T15:07:17Z</time>
      </trkpt>
      <trkpt lat="40.222233" lon="-4.932883">
        <ele>1232.0</ele>
        <time>2015-03-14T15:07:19Z</time>
      </trkpt>
      <trkpt lat="40.222067" lon="-4.933033">
        <ele>1236.0</ele>
        <time>2015-03-14T15:07:21Z</time>
      </trkpt>
      <trkpt lat="40.221950" lon="-4.933283">
        <ele>1240.0</ele>
        <time>2015-03-14T15:07:23Z</time>
      </trkpt>
      <trkpt lat="40.221900" lon="-4.933550">
        <ele>1243.0</ele>
        <time>2015-03-14T15:07:25Z</time>
      </trkpt>
      <trkpt lat="40.221917" lon="-4.933817">
        <ele>1245.0</ele>
        <time>2015-03-14T15:07:27Z</time>
      </trkpt>
      <trkpt lat="40.222017" lon="-4.934050">
        <ele>1247.0</ele>
        <time>2015-03-14T15:07:29Z</time>
      </trkpt>
      <trkpt lat="40.222150" lon="-4.934167">
        <ele>1253.0</ele>
        <time>2015-03-14T15:07:31Z</time>
      </trkpt>
      <trkpt lat="40.222267" lon="-4.934217">
        <ele>1258.0</ele>
        <time>2015-03-14T15:07:33Z</time>
      </trkpt>
      <trkpt lat="40.222400" lon="-4.934183">
        <ele>1261.0</ele>
        <time>2015-03-14T15:07:35Z</time>
      </trkpt>
      <trkpt lat="40.222483" lon="-4.934083">
        <ele>1266.0</ele>
        <time>2015-03-14T15:07:37Z</time>
      </trkpt>
      <trkpt lat="40.222483" lon="-4.933983">
        <ele>1272.0</ele>
        <time>2015-03-14T15:07:39Z</time>
      </trkpt>
      <trkpt lat="40.222433" lon="-4.933850">
        <ele>1275.0</ele>
        <time>2015-03-14T15:07:41Z</time>
      </trkpt>
      <trkpt lat="40.222317" lon="-4.933750">
        <ele>1278.0</ele>
        <time>2015-03-14T15:07:43Z</time>
      </trkpt>
      <trkpt lat="40.222133" lon="-4.933767">
        <ele>1281.0</ele>
        <time>2015-03-14T15:07:45Z</time>
      </trkpt>
      <trkpt lat="40.221950" lon="-4.933850">
        <ele>1285.0</ele>
        <time>2015-03-14T15:07:47Z</time>
      </trkpt>
      <trkpt lat="40.221767" lon="-4.934000">
        <ele>1289.0</ele>
        <time>2015-03-14T15:07:49Z</time>
      </trkpt>
      <trkpt lat="40.221650" lon="-4.934217">
        <ele>1293.0</ele>
        <time>2015-03-14T15:07:51Z</time>
      </trkpt>
      <trkpt lat="40.221567" lon="-4.934467">
        <ele>1296.0</ele>
        <time>2015-03-14T15:07:53Z</time>
      </trkpt>
      <trkpt lat="40.221550" lon="-4.934767">
        <ele>1296.0</ele>
        <time>2015-03-14T15:07:55Z</time>
      </trkpt>
      <trkpt lat="40.221667" lon="-4.935000">
        <ele>1297.0</ele>
        <time>2015-03-14T15:07:57Z</time>
      </trkpt>
      <trkpt lat="40.221800" lon="-4.935150">
        <ele>1302.0</ele>
        <time>2015-03-14T15:07:59Z</time>
      </trkpt>
      <trkpt lat="40.221933" lon="-4.935233">
        <ele>1309.0</ele>
        <time>2015-03-14T15:08:01Z</time>
      </trkpt>
      <trkpt lat="40.222050" lon="-4.935233">
        <ele>1315.0</ele>
        <time>2015-03-14T15:08:03Z</time>
      </trkpt>
      <trkpt lat="40.222133" lon="-4.935117">
        <ele>1319.0</ele>
        <time>2015-03-14T15:08:05Z</time>
      </trkpt>
      <trkpt lat="40.222133" lon="-4.934983">
        <ele>1324.0</ele>
        <time>2015-03-14T15:08:07Z</time>
      </trkpt>
      <trkpt lat="40.222050" lon="-4.934883">
        <ele>1331.0</ele>
        <time>2015-03-14T15:08:09Z</time>
      </trkpt>
      <trkpt lat="40.221883" lon="-4.934850">
        <ele>1336.0</ele>
        <time>2015-03-14T15:08:11Z</time>
      </trkpt>
      <trkpt lat="40.221700" lon="-4.934900">
        <ele>1340.0</ele>
        <time>2015-03-14T15:08:13Z</time>
      </trkpt>
      <trkpt lat="40.221550" lon="-4.935083">
        <ele>1346.0</ele>
        <time>2015-03-14T15:08:15Z</time>
      </trkpt>
      <trkpt lat="40.221433" lon="-4.935317">
        <ele>1349.0</ele>
        <time>2015-03-14T15:08:17Z</time>
      </trkpt>
      <trkpt lat="40.221400" lon="-4.935583">
        <ele>1351.0</ele>
        <time>2015-03-14T15:08:19Z</time>
      </trkpt>
      <trkpt lat="40.221500" lon="-4.935833">
        <ele>1354.0</ele>
        <time>2015-03-14T15:08:21Z</time>
      </trkpt>
      <trkpt lat="40.221617" lon="-4.935967">
        <ele>1360.0</ele>
        <time>2015-03-14T15:08:23Z</time>
      </trkpt>
      <trkpt lat="40.221733" lon="-4.936067">
        <ele>1366.0</ele>
        <time>2015-03-14T15:08:25Z</time>
      </trkpt>
      <trkpt lat="40.221883" lon="-4.936117">
        <ele>1369.0</ele>
        <time>2015-03-14T15:08:27Z</time>
      </trkpt>
      <trkpt lat="40.222033" lon="-4.936083">
        <ele>1373.0</ele>
        <time>2015-03-14T15:08:29Z</time>
      </trkpt>
      <trkpt lat="40.222083" lon="-4.935983">
        <ele>1378.0</ele>
        <time>2015-03-14T15:08:31Z</time>
      </trkpt>
      <trkpt lat="40.222033" lon="-4.935833">
        <ele>1382.0</ele>
        <time>2015-03-14T15:08:33Z</time>
      </trkpt>
      <trkpt lat="40.221900" lon="-4.935733">
        <ele>1388.0</ele>
        <time>2015-03-14T15:08:35Z</time>
      </trkpt>
      <trkpt lat="40.221733" lon="-4.935733">
        <ele>1395.0</ele>
        <time>2015-03-14T15:08:37Z</time>
      </trkpt>
      <trkpt lat="40.221567" lon="-4.935817">
        <ele>1401.0</ele>
        <time>2015-03-14T15:08:39Z</time>
      </trkpt>
      <trkpt lat="40.221400" lon="-4.936000">
        <ele>1404.0</ele>
        <time>2015-03-14T15:08:41Z</time>
      </trkpt>
      <trkpt lat="40.221300" lon="-4.936250">
        <ele>1406.0</ele>
        <time>2015-03-14T15:08:43Z</time>
      </trkpt>
      <trkpt lat="40.221250" lon="-4.936500">
        <ele>1410.0</ele>
        <time>2015-03-14T15:08:45Z</time>
      </trkpt>
      <trkpt lat="40.221250" lon="-4.936733">
        <ele>1414.0</ele>
        <time>2015-03-14T15:08:47Z</time>
      </trkpt>
      <trkpt lat="40.221300" lon="-4.936967">
        <ele>1416.0</ele>
        <time>2015-03-14T15:08:49Z</time>
      </trkpt>
      <trkpt lat="40.221417" lon="-4.937133">
        <ele>1417.0</ele>
        <time>2015-03-14T15:08:51Z</time>
      </trkpt>
      <trkpt lat="40.221550" lon="-4.937183">
        <ele>1420.0</ele>
        <time>2015-03-14T15:08:53Z</time>
      </trkpt>
      <trkpt lat="40.221633" lon="-4.937133">
        <ele>1423.0</ele>
        <time>2015-03-14T15:08:55Z</time>
      </trkpt>
      <trkpt lat="40.221683" lon="-4.937000">
        <ele>1424.0</ele>
        <time>2015-03-14T15:08:57Z</time>
      </trkpt>
      <trkpt lat="40.221633" lon="-4.936867">
        <ele>1429.0</ele>
        <time>2015-03-14T15:08:59Z</time>
      </trkpt>
      <trkpt lat="40.221567" lon="-4.936750">
        <ele>1436.0</ele>
        <time>2015-03-14T15:09:01Z</time>
      </trkpt>
      <trkpt lat="40.221467" lon="-4.936683">
        <ele>1441.0</ele>
        <time>2015-03-14T15:09:03Z</time>
      </trkpt>
      <trkpt lat="40.221300" lon="-4.936650">
        <ele>1442.0</ele>
        <time>2015-03-14T15:09:05Z</time>
      </trkpt>
      <trkpt lat="40.221117" lon="-4.936683">
        <ele>1444.0</ele>
        <time>2015-03-14T15:09:07Z</time>
      </trkpt>
      <trkpt lat="40.220967" lon="-4.936783">
        <ele>1448.0</ele>
        <time>2015-03-14T15:09:09Z</time>
      </trkpt>
      <trkpt lat="40.220817" lon="-4.936950">
        <ele>1449.0</ele>
        <time>2015-03-14T15:09:11Z</time>
      </trkpt>
      <trkpt lat="40.220717" lon="-4.937183">
        <ele>1451.0</ele>
        <time>2015-03-14T15:09:13Z</time>
      </trkpt>
      <trkpt lat="40.220683" lon="-4.937433">
        <ele>1453.0</ele>
        <time>2015-03-14T15:09:15Z</time>
      </trkpt>
      <trkpt lat="40.220733" lon="-4.937650">
        <ele>1455.0</ele>
        <time>2015-03-14T15:09:17Z</time>
      </trkpt>
      <trkpt lat="40.220817" lon="-4.937833">
        <ele>1455.0</ele>
        <time>2015-03-14T15:09:19Z</time>
      </trkpt>
      <trkpt lat="40.220967" lon="-4.937950">
        <ele>1455.0</ele>
        <time>2015-03-14T15:09:21Z</time>
      </trkpt>
      <trkpt lat="40.221133" lon="-4.938000">
        <ele>1457.0</ele>
        <time>2015-03-14T15:09:23Z</time>
      </trkpt>
      <trkpt lat="40.221233" lon="-4.938000">
        <ele>1463.0</ele>
        <time>2015-03-14T15:09:25Z</time>
      </trkpt>
      <trkpt lat="40.221300" lon="-4.937967">
        <ele>1467.0</ele>
        <time>2015-03-14T15:09:27Z</time>
      </trkpt>
      <trkpt lat="40.221350" lon="-4.937850">
        <ele>1468.0</ele>
        <time>2015-03-14T15:09:29Z</time>
      </trkpt>
      <trkpt lat="40.221333" lon="-4.937683">
        <ele>1470.0</ele>
        <time>2015-03-14T15:09:31Z</time>
      </trkpt>
      <trkpt lat="40.221317" lon="-4.937567">
        <ele>1473.0</ele>
        <time>2015-03-14T15:09:33Z</time>
      </trkpt>
      <trkpt lat="40.221250" lon="-4.937417">
        <ele>1474.0</ele>
        <time>2015-03-14T15:09:35Z</time>
      </trkpt>
      <trkpt lat="40.221167" lon="-4.937267">
        <ele>1475.0</ele>
        <time>2015-03-14T15:09:37Z</time>
      </trkpt>
      <trkpt lat="40.221083" lon="-4.937150">
        <ele>1478.0</ele>
        <time>2015-03-14T15:09:39Z</time>
      </trkpt>
      <trkpt lat="40.220933" lon="-4.937083">
        <ele>1479.0</ele>
        <time>2015-03-14T15:09:41Z</time>
      </trkpt>
      <trkpt lat="40.220783" lon="-4.937033">
        <ele>1482.0</ele>
        <time>2015-03-14T15:09:43Z</time>
      </trkpt>
      <trkpt lat="40.220650" lon="-4.937050">
        <ele>1485.0</ele>
        <time>2015-03-14T15:09:45Z</time>
      </trkpt>
      <trkpt lat="40.220483" lon="-4.937150">
        <ele>1484.0</ele>
        <time>2015-03-14T15:09:47Z</time>
      </trkpt>
      <trkpt lat="40.220333" lon="-4.937317">
        <ele>1484.0</ele>
        <time>2015-03-14T15:09:49Z</time>
      </trkpt>
      <trkpt lat="40.220233" lon="-4.937483">
        <ele>1486.0</ele>
        <time>2015-03-14T15:09:51Z</time>
      </trkpt>
      <trkpt lat="40.220133" lon="-4.937717">
        <ele>1486.0</ele>
        <time>2015-03-14T15:09:53Z</time>
      </trkpt>
      <trkpt lat="40.220083" lon="-4.938000">
        <ele>1485.0</ele>
        <time>2015-03-14T15:09:55Z</time>
      </trkpt>
      <trkpt lat="40.220083" lon="-4.938267">
        <ele>1487.0</ele>
        <time>2015-03-14T15:09:57Z</time>
      </trkpt>
      <trkpt lat="40.220133" lon="-4.938517">
        <ele>1488.0</ele>
        <time>2015-03-14T15:09:59Z</time>
      </trkpt>
      <trkpt lat="40.220200" lon="-4.938700">
        <ele>1489.0</ele>
        <time>2015-03-14T15:10:01Z</time>
      </trkpt>
      <trkpt lat="40.220300" lon="-4.938883">
        <ele>1486.0</ele>
        <time>2015-03-14T15:10:03Z</time>
      </trkpt>
      <trkpt lat="40.220450" lon="-4.939100">
        <ele>1483.0</ele>
        <time>2015-03-14T15:10:05Z</time>
      </trkpt>
      <trkpt lat="40.220600" lon="-4.939250">
        <ele>1485.0</ele>
        <time>2015-03-14T15:10:07Z</time>
      </trkpt>
      <trkpt lat="40.220733" lon="-4.939350">
        <ele>1488.0</ele>
        <time>2015-03-14T15:10:09Z</time>
      </trkpt>
      <trkpt lat="40.220867" lon="-4.939383">
        <ele>1490.0</ele>
        <time>2015-03-14T15:10:11Z</time>
      </trkpt>
      <trkpt lat="40.221000" lon="-4.939350">
        <ele>1490.0</ele>
        <time>2015-03-14T15:10:13Z</time>
      </trkpt>
      <trkpt lat="40.221100" lon="-4.939267">
        <ele>1490.0</ele>
        <time>2015-03-14T15:10:15Z</time>
      </trkpt>
      <trkpt lat="40.221150" lon="-4.939183">
        <ele>1493.0</ele>
        <time>2015-03-14T15:10:17Z</time>
      </trkpt>
      <trkpt lat="40.221150" lon="-4.939067">
        <ele>1493.0</ele>
        <time>2015-03-14T15:10:19Z</time>
      </trkpt>
      <trkpt lat="40.221083" lon="-4.938917">
        <ele>1492.0</ele>
        <time>2015-03-14T15:10:21Z</time>
      </trkpt>
      <trkpt lat="40.221000" lon="-4.938800">
        <ele>1493.0</ele>
        <time>2015-03-14T15:10:23Z</time>
      </trkpt>
      <trkpt lat="40.220883" lon="-4.938700">
        <ele>1494.0</ele>
        <time>2015-03-14T15:10:25Z</time>
      </trkpt>
      <trkpt lat="40.220717" lon="-4.938683">
        <ele>1494.0</ele>
        <time>2015-03-14T15:10:27Z</time>
      </trkpt>
      <trkpt lat="40.220567" lon="-4.938767">
        <ele>1497.0</ele>
        <time>2015-03-14T15:10:29Z</time>
      </trkpt>
      <trkpt lat="40.220433" lon="-4.938900">
        <ele>1499.0</ele>
        <time>2015-03-14T15:10:31Z</time>
      </trkpt>
      <trkpt lat="40.220317" lon="-4.939133">
        <ele>1499.0</ele>
        <time>2015-03-14T15:10:33Z</time>
      </trkpt>
      <trkpt lat="40.220217" lon="-4.939400">
        <ele>1499.0</ele>
        <time>2015-03-14T15:10:35Z</time>
      </trkpt>
      <trkpt lat="40.220100" lon="-4.939650">
        <ele>1501.0</ele>
        <time>2015-03-14T15:10:37Z</time>
      </trkpt>
      <trkpt lat="40.219983" lon="-4.939933">
        <ele>1502.0</ele>
        <time>2015-03-14T15:10:39Z</time>
      </trkpt>
      <trkpt lat="40.219867" lon="-4.940167">
        <ele>1502.0</ele>
        <time>2015-03-14T15:10:41Z</time>
      </trkpt>
      <trkpt lat="40.219817" lon="-4.940417">
        <ele>1502.0</ele>
        <time>2015-03-14T15:10:43Z</time>
      </trkpt>
      <trkpt lat="40.219817" lon="-4.940700">
        <ele>1498.0</ele>
        <time>2015-03-14T15:10:45Z</time>
      </trkpt>
      <trkpt lat="40.219750" lon="-4.940967">
        <ele>1495.0</ele>
        <time>2015-03-14T15:10:47Z</time>
      </trkpt>
      <trkpt lat="40.219667" lon="-4.941233">
        <ele>1493.0</ele>
        <time>2015-03-14T15:10:49Z</time>
      </trkpt>
      <trkpt lat="40.219600" lon="-4.941483">
        <ele>1491.0</ele>
        <time>2015-03-14T15:10:51Z</time>
      </trkpt>
      <trkpt lat="40.219600" lon="-4.941733">
        <ele>1489.0</ele>
        <time>2015-03-14T15:10:53Z</time>
      </trkpt>
      <trkpt lat="40.219633" lon="-4.941967">
        <ele>1486.0</ele>
        <time>2015-03-14T15:10:55Z</time>
      </trkpt>
      <trkpt lat="40.219650" lon="-4.942250">
        <ele>1483.0</ele>
        <time>2015-03-14T15:10:57Z</time>
      </trkpt>
      <trkpt lat="40.219650" lon="-4.942517">
        <ele>1480.0</ele>
        <time>2015-03-14T15:10:59Z</time>
      </trkpt>
      <trkpt lat="40.219633" lon="-4.942783">
        <ele>1478.0</ele>
        <time>2015-03-14T15:11:01Z</time>
      </trkpt>
      <trkpt lat="40.219617" lon="-4.943067">
        <ele>1474.0</ele>
        <time>2015-03-14T15:11:03Z</time>
      </trkpt>
      <trkpt lat="40.219617" lon="-4.943333">
        <ele>1470.0</ele>
        <time>2015-03-14T15:11:05Z</time>
      </trkpt>
      <trkpt lat="40.219550" lon="-4.943633">
        <ele>1467.0</ele>
        <time>2015-03-14T15:11:07Z</time>
      </trkpt>
      <trkpt lat="40.219467" lon="-4.943900">
        <ele>1466.0</ele>
        <time>2015-03-14T15:11:09Z</time>
      </trkpt>
      <trkpt lat="40.219400" lon="-4.944133">
        <ele>1464.0</ele>
        <time>2015-03-14T15:11:11Z</time>
      </trkpt>
      <trkpt lat="40.219317" lon="-4.944417">
        <ele>1456.0</ele>
        <time>2015-03-14T15:11:13Z</time>
      </trkpt>
      <trkpt lat="40.219250" lon="-4.944683">
        <ele>1454.0</ele>
        <time>2015-03-14T15:11:15Z</time>
      </trkpt>
      <trkpt lat="40.219200" lon="-4.944950">
        <ele>1452.0</ele>
        <time>2015-03-14T15:11:17Z</time>
      </trkpt>
      <trkpt lat="40.219133" lon="-4.945250">
        <ele>1448.0</ele>
        <time>2015-03-14T15:11:19Z</time>
      </trkpt>
      <trkpt lat="40.219067" lon="-4.945517">
        <ele>1446.0</ele>
        <time>2015-03-14T15:11:21Z</time>
      </trkpt>
      <trkpt lat="40.218967" lon="-4.945750">
        <ele>1445.0</ele>
        <time>2015-03-14T15:11:23Z</time>
      </trkpt>
      <trkpt lat="40.218833" lon="-4.946017">
        <ele>1441.0</ele>
        <time>2015-03-14T15:11:25Z</time>
      </trkpt>
      <trkpt lat="40.218750" lon="-4.946283">
        <ele>1438.0</ele>
        <time>2015-03-14T15:11:27Z</time>
      </trkpt>
      <trkpt lat="40.218650" lon="-4.946500">
        <ele>1439.0</ele>
        <time>2015-03-14T15:11:29Z</time>
      </trkpt>
      <trkpt lat="40.218567" lon="-4.946767">
        <ele>1436.0</ele>
        <time>2015-03-14T15:11:31Z</time>
      </trkpt>
      <trkpt lat="40.218467" lon="-4.947033">
        <ele>1433.0</ele>
        <time>2015-03-14T15:11:33Z</time>
      </trkpt>
      <trkpt lat="40.218383" lon="-4.947267">
        <ele>1433.0</ele>
        <time>2015-03-14T15:11:35Z</time>
      </trkpt>
      <trkpt lat="40.218300" lon="-4.947517">
        <ele>1431.0</ele>
        <time>2015-03-14T15:11:37Z</time>
      </trkpt>
      <trkpt lat="40.218233" lon="-4.947767">
        <ele>1429.0</ele>
        <time>2015-03-14T15:11:39Z</time>
      </trkpt>
      <trkpt lat="40.218133" lon="-4.948000">
        <ele>1428.0</ele>
        <time>2015-03-14T15:11:41Z</time>
      </trkpt>
      <trkpt lat="40.218050" lon="-4.948233">
        <ele>1426.0</ele>
        <time>2015-03-14T15:11:43Z</time>
      </trkpt>
      <trkpt lat="40.217933" lon="-4.948500">
        <ele>1423.0</ele>
        <time>2015-03-14T15:11:45Z</time>
      </trkpt>
      <trkpt lat="40.217833" lon="-4.948767">
        <ele>1420.0</ele>
        <time>2015-03-14T15:11:47Z</time>
      </trkpt>
      <trkpt lat="40.217783" lon="-4.949017">
        <ele>1419.0</ele>
        <time>2015-03-14T15:11:49Z</time>
      </trkpt>
      <trkpt lat="40.217733" lon="-4.949283">
        <ele>1415.0</ele>
        <time>2015-03-14T15:11:51Z</time>
      </trkpt>
      <trkpt lat="40.217683" lon="-4.949567">
        <ele>1409.0</ele>
        <time>2015-03-14T15:11:53Z</time>
      </trkpt>
      <trkpt lat="40.217617" lon="-4.949850">
        <ele>1405.0</ele>
        <time>2015-03-14T15:11:55Z</time>
      </trkpt>
      <trkpt lat="40.217550" lon="-4.950117">
        <ele>1402.0</ele>
        <time>2015-03-14T15:11:57Z</time>
      </trkpt>
      <trkpt lat="40.217433" lon="-4.950417">
        <ele>1398.0</ele>
        <time>2015-03-14T15:11:59Z</time>
      </trkpt>
      <trkpt lat="40.217267" lon="-4.950650">
        <ele>1396.0</ele>
        <time>2015-03-14T15:12:01Z</time>
      </trkpt>
      <trkpt lat="40.217067" lon="-4.950817">
        <ele>1394.0</ele>
        <time>2015-03-14T15:12:03Z</time>
      </trkpt>
      <trkpt lat="40.216867" lon="-4.951000">
        <ele>1392.0</ele>
        <time>2015-03-14T15:12:05Z</time>
      </trkpt>
      <trkpt lat="40.216633" lon="-4.951167">
        <ele>1389.0</ele>
        <time>2015-03-14T15:12:07Z</time>
      </trkpt>
      <trkpt lat="40.216400" lon="-4.951317">
        <ele>1388.0</ele>
        <time>2015-03-14T15:12:09Z</time>
      </trkpt>
      <trkpt lat="40.216167" lon="-4.951483">
        <ele>1387.0</ele>
        <time>2015-03-14T15:12:11Z</time>
      </trkpt>
      <trkpt lat="40.215983" lon="-4.951700">
        <ele>1384.0</ele>
        <time>2015-03-14T15:12:13Z</time>
      </trkpt>
      <trkpt lat="40.215833" lon="-4.951917">
        <ele>1380.0</ele>
        <time>2015-03-14T15:12:15Z</time>
      </trkpt>
      <trkpt lat="40.215683" lon="-4.952150">
        <ele>1377.0</ele>
        <time>2015-03-14T15:12:17Z</time>
      </trkpt>
      <trkpt lat="40.215567" lon="-4.952433">
        <ele>1372.0</ele>
        <time>2015-03-14T15:12:19Z</time>
      </trkpt>
      <trkpt lat="40.215467" lon="-4.952750">
        <ele>1366.0</ele>
        <time>2015-03-14T15:12:21Z</time>
      </trkpt>
      <trkpt lat="40.215350" lon="-4.953050">
        <ele>1360.0</ele>
        <time>2015-03-14T15:12:23Z</time>
      </trkpt>
      <trkpt lat="40.215233" lon="-4.953367">
        <ele>1356.0</ele>
        <time>2015-03-14T15:12:25Z</time>
      </trkpt>
      <trkpt lat="40.215150" lon="-4.953667">
        <ele>1352.0</ele>
        <time>2015-03-14T15:12:27Z</time>
      </trkpt>
      <trkpt lat="40.215067" lon="-4.953967">
        <ele>1348.0</ele>
        <time>2015-03-14T15:12:29Z</time>
      </trkpt>
      <trkpt lat="40.214967" lon="-4.954250">
        <ele>1343.0</ele>
        <time>2015-03-14T15:12:31Z</time>
      </trkpt>
      <trkpt lat="40.214867" lon="-4.954550">
        <ele>1338.0</ele>
        <time>2015-03-14T15:12:33Z</time>
      </trkpt>
      <trkpt lat="40.214733" lon="-4.954850">
        <ele>1333.0</ele>
        <time>2015-03-14T15:12:35Z</time>
      </trkpt>
      <trkpt lat="40.214633" lon="-4.955133">
        <ele>1332.0</ele>
        <time>2015-03-14T15:12:37Z</time>
      </trkpt>
      <trkpt lat="40.214567" lon="-4.955433">
        <ele>1333.0</ele>
        <time>2015-03-14T15:12:39Z</time>
      </trkpt>
      <trkpt lat="40.214533" lon="-4.955717">
        <ele>1334.0</ele>
        <time>2015-03-14T15:12:41Z</time>
      </trkpt>
      <trkpt lat="40.214517" lon="-4.956000">
        <ele>1334.0</ele>
        <time>2015-03-14T15:12:43Z</time>
      </trkpt>
      <trkpt lat="40.214550" lon="-4.956283">
        <ele>1334.0</ele>
        <time>2015-03-14T15:12:45Z</time>
      </trkpt>
      <trkpt lat="40.214583" lon="-4.956583">
        <ele>1335.0</ele>
        <time>2015-03-14T15:12:47Z</time>
      </trkpt>
      <trkpt lat="40.214650" lon="-4.956833">
        <ele>1337.0</ele>
        <time>2015-03-14T15:12:49Z</time>
      </trkpt>
      <trkpt lat="40.214767" lon="-4.957050">
        <ele>1339.0</ele>
        <time>2015-03-14T15:12:51Z</time>
      </trkpt>
      <trkpt lat="40.214917" lon="-4.957233">
        <ele>1341.0</ele>
        <time>2015-03-14T15:12:53Z</time>
      </trkpt>
      <trkpt lat="40.215083" lon="-4.957367">
        <ele>1344.0</ele>
        <time>2015-03-14T15:12:55Z</time>
      </trkpt>
      <trkpt lat="40.215250" lon="-4.957417">
        <ele>1348.0</ele>
        <time>2015-03-14T15:12:57Z</time>
      </trkpt>
      <trkpt lat="40.215400" lon="-4.957433">
        <ele>1351.0</ele>
        <time>2015-03-14T15:12:59Z</time>
      </trkpt>
      <trkpt lat="40.215517" lon="-4.957317">
        <ele>1353.0</ele>
        <time>2015-03-14T15:13:01Z</time>
      </trkpt>
      <trkpt lat="40.215583" lon="-4.957183">
        <ele>1357.0</ele>
        <time>2015-03-14T15:13:03Z</time>
      </trkpt>
      <trkpt lat="40.215617" lon="-4.957067">
        <ele>1361.0</ele>
        <time>2015-03-14T15:13:05Z</time>
      </trkpt>
      <trkpt lat="40.215600" lon="-4.956917">
        <ele>1361.0</ele>
        <time>2015-03-14T15:13:07Z</time>
      </trkpt>
      <trkpt lat="40.215517" lon="-4.956767">
        <ele>1362.0</ele>
        <time>2015-03-14T15:13:09Z</time>
      </trkpt>
      <trkpt lat="40.215417" lon="-4.956717">
        <ele>1367.0</ele>
        <time>2015-03-14T15:13:11Z</time>
      </trkpt>
      <trkpt lat="40.215300" lon="-4.956683">
        <ele>1369.0</ele>
        <time>2015-03-14T15:13:13Z</time>
      </trkpt>
      <trkpt lat="40.215117" lon="-4.956683">
        <ele>1367.0</ele>
        <time>2015-03-14T15:13:15Z</time>
      </trkpt>
      <trkpt lat="40.214933" lon="-4.956750">
        <ele>1366.0</ele>
        <time>2015-03-14T15:13:17Z</time>
      </trkpt>
      <trkpt lat="40.214767" lon="-4.956883">
        <ele>1366.0</ele>
        <time>2015-03-14T15:13:19Z</time>
      </trkpt>
      <trkpt lat="40.214583" lon="-4.957050">
        <ele>1364.0</ele>
        <time>2015-03-14T15:13:21Z</time>
      </trkpt>
      <trkpt lat="40.214400" lon="-4.957250">
        <ele>1363.0</ele>
        <time>2015-03-14T15:13:23Z</time>
      </trkpt>
      <trkpt lat="40.214233" lon="-4.957450">
        <ele>1363.0</ele>
        <time>2015-03-14T15:13:25Z</time>
      </trkpt>
      <trkpt lat="40.214117" lon="-4.957667">
        <ele>1364.0</ele>
        <time>2015-03-14T15:13:27Z</time>
      </trkpt>
      <trkpt lat="40.213983" lon="-4.957933">
        <ele>1364.0</ele>
        <time>2015-03-14T15:13:29Z</time>
      </trkpt>
      <trkpt lat="40.213900" lon="-4.958217">
        <ele>1365.0</ele>
        <time>2015-03-14T15:13:31Z</time>
      </trkpt>
      <trkpt lat="40.213817" lon="-4.958467">
        <ele>1369.0</ele>
        <time>2015-03-14T15:13:33Z</time>
      </trkpt>
      <trkpt lat="40.213800" lon="-4.958750">
        <ele>1372.0</ele>
        <time>2015-03-14T15:13:35Z</time>
      </trkpt>
      <trkpt lat="40.213850" lon="-4.959067">
        <ele>1374.0</ele>
        <time>2015-03-14T15:13:37Z</time>
      </trkpt>
      <trkpt lat="40.213950" lon="-4.959267">
        <ele>1378.0</ele>
        <time>2015-03-14T15:13:39Z</time>
      </trkpt>
      <trkpt lat="40.214117" lon="-4.959417">
        <ele>1379.0</ele>
        <time>2015-03-14T15:13:41Z</time>
      </trkpt>
      <trkpt lat="40.214283" lon="-4.959467">
        <ele>1382.0</ele>
        <time>2015-03-14T15:13:43Z</time>
      </trkpt>
      <trkpt lat="40.214417" lon="-4.959400">
        <ele>1382.0</ele>
        <time>2015-03-14T15:13:45Z</time>
      </trkpt>
      <trkpt lat="40.214483" lon="-4.959267">
        <ele>1383.0</ele>
        <time>2015-03-14T15:13:47Z</time>
      </trkpt>
      <trkpt lat="40.214467" lon="-4.959133">
        <ele>1388.0</ele>
        <time>2015-03-14T15:13:49Z</time>
      </trkpt>
      <trkpt lat="40.214417" lon="-4.959050">
        <ele>1393.0</ele>
        <time>2015-03-14T15:13:51Z</time>
      </trkpt>
      <trkpt lat="40.214300" lon="-4.958967">
        <ele>1393.0</ele>
        <time>2015-03-14T15:13:53Z</time>
      </trkpt>
      <trkpt lat="40.214133" lon="-4.958983">
        <ele>1391.0</ele>
        <time>2015-03-14T15:13:55Z</time>
      </trkpt>
      <trkpt lat="40.213967" lon="-4.959133">
        <ele>1392.0</ele>
        <time>2015-03-14T15:13:57Z</time>
      </trkpt>
      <trkpt lat="40.213833" lon="-4.959317">
        <ele>1393.0</ele>
        <time>2015-03-14T15:13:59Z</time>
      </trkpt>
      <trkpt lat="40.213700" lon="-4.959550">
        <ele>1398.0</ele>
        <time>2015-03-14T15:14:01Z</time>
      </trkpt>
      <trkpt lat="40.213633" lon="-4.959783">
        <ele>1403.0</ele>
        <time>2015-03-14T15:14:03Z</time>
      </trkpt>
      <trkpt lat="40.213600" lon="-4.960000">
        <ele>1405.0</ele>
        <time>2015-03-14T15:14:05Z</time>
      </trkpt>
      <trkpt lat="40.213617" lon="-4.960283">
        <ele>1404.0</ele>
        <time>2015-03-14T15:14:07Z</time>
      </trkpt>
      <trkpt lat="40.213717" lon="-4.960567">
        <ele>1403.0</ele>
        <time>2015-03-14T15:14:09Z</time>
      </trkpt>
      <trkpt lat="40.213833" lon="-4.960767">
        <ele>1404.0</ele>
        <time>2015-03-14T15:14:11Z</time>
      </trkpt>
      <trkpt lat="40.214000" lon="-4.960917">
        <ele>1403.0</ele>
        <time>2015-03-14T15:14:13Z</time>
      </trkpt>
      <trkpt lat="40.214217" lon="-4.961017">
        <ele>1401.0</ele>
        <time>2015-03-14T15:14:15Z</time>
      </trkpt>
      <trkpt lat="40.214400" lon="-4.961050">
        <ele>1401.0</ele>
        <time>2015-03-14T15:14:17Z</time>
      </trkpt>
      <trkpt lat="40.214567" lon="-4.961017">
        <ele>1403.0</ele>
        <time>2015-03-14T15:14:19Z</time>
      </trkpt>
      <trkpt lat="40.214717" lon="-4.960933">
        <ele>1403.0</ele>
        <time>2015-03-14T15:14:21Z</time>
      </trkpt>
      <trkpt lat="40.214800" lon="-4.960750">
        <ele>1402.0</ele>
        <time>2015-03-14T15:14:23Z</time>
      </trkpt>
      <trkpt lat="40.214817" lon="-4.960583">
        <ele>1407.0</ele>
        <time>2015-03-14T15:14:25Z</time>
      </trkpt>
      <trkpt lat="40.214800" lon="-4.960450">
        <ele>1414.0</ele>
        <time>2015-03-14T15:14:27Z</time>
      </trkpt>
      <trkpt lat="40.214767" lon="-4.960333">
        <ele>1420.0</ele>
        <time>2015-03-14T15:14:29Z</time>
      </trkpt>
      <trkpt lat="40.214667" lon="-4.960250">
        <ele>1423.0</ele>
        <time>2015-03-14T15:14:31Z</time>
      </trkpt>
      <trkpt lat="40.214517" lon="-4.960267">
        <ele>1425.0</ele>
        <time>2015-03-14T15:14:33Z</time>
      </trkpt>
      <trkpt lat="40.214383" lon="-4.960317">
        <ele>1427.0</ele>
        <time>2015-03-14T15:14:35Z</time>
      </trkpt>
      <trkpt lat="40.214250" lon="-4.960433">
        <ele>1428.0</ele>
        <time>2015-03-14T15:14:37Z</time>
      </trkpt>
      <trkpt lat="40.214133" lon="-4.960667">
        <ele>1427.0</ele>
        <time>2015-03-14T15:14:39Z</time>
      </trkpt>
      <trkpt lat="40.214050" lon="-4.960950">
        <ele>1429.0</ele>
        <time>2015-03-14T15:14:41Z</time>
      </trkpt>
      <trkpt lat="40.214000" lon="-4.961217">
        <ele>1433.0</ele>
        <time>2015-03-14T15:14:43Z</time>
      </trkpt>
      <trkpt lat="40.214000" lon="-4.961500">
        <ele>1433.0</ele>
        <time>2015-03-14T15:14:45Z</time>
      </trkpt>
      <trkpt lat="40.214050" lon="-4.961783">
        <ele>1433.0</ele>
        <time>2015-03-14T15:14:47Z</time>
      </trkpt>
      <trkpt lat="40.214167" lon="-4.961983">
        <ele>1434.0</ele>
        <time>2015-03-14T15:14:49Z</time>
      </trkpt>
      <trkpt lat="40.214350" lon="-4.962117">
        <ele>1431.0</ele>
        <time>2015-03-14T15:14:51Z</time>
      </trkpt>
      <trkpt lat="40.214550" lon="-4.962150">
        <ele>1428.0</ele>
        <time>2015-03-14T15:14:53Z</time>
      </trkpt>
      <trkpt lat="40.214717" lon="-4.962050">
        <ele>1424.0</ele>
        <time>2015-03-14T15:14:55Z</time>
      </trkpt>
      <trkpt lat="40.214817" lon="-4.961867">
        <ele>1421.0</ele>
        <time>2015-03-14T15:14:57Z</time>
      </trkpt>
      <trkpt lat="40.214867" lon="-4.961750">
        <ele>1427.0</ele>
        <time>2015-03-14T15:14:59Z</time>
      </trkpt>
      <trkpt lat="40.214933" lon="-4.961667">
        <ele>1431.0</ele>
        <time>2015-03-14T15:15:01Z</time>
      </trkpt>
      <trkpt lat="40.214983" lon="-4.961517">
        <ele>1432.0</ele>
        <time>2015-03-14T15:15:03Z</time>
      </trkpt>
      <trkpt lat="40.214983" lon="-4.961400">
        <ele>1437.0</ele>
        <time>2015-03-14T15:15:05Z</time>
      </trkpt>
      <trkpt lat="40.214933" lon="-4.961317">
        <ele>1440.0</ele>
        <time>2015-03-14T15:15:07Z</time>
      </trkpt>
      <trkpt lat="40.214833" lon="-4.961267">
        <ele>1440.0</ele>
        <time>2015-03-14T15:15:09Z</time>
      </trkpt>
      <trkpt lat="40.214667" lon="-4.961283">
        <ele>1439.0</ele>
        <time>2015-03-14T15:15:11Z</time>
      </trkpt>
      <trkpt lat="40.214517" lon="-4.961367">
        <ele>1440.0</ele>
        <time>2015-03-14T15:15:13Z</time>
      </trkpt>
      <trkpt lat="40.214367" lon="-4.961500">
        <ele>1440.0</ele>
        <time>2015-03-14T15:15:15Z</time>
      </trkpt>
      <trkpt lat="40.214183" lon="-4.961650">
        <ele>1439.0</ele>
        <time>2015-03-14T15:15:17Z</time>
      </trkpt>
      <trkpt lat="40.214017" lon="-4.961833">
        <ele>1440.0</ele>
        <time>2015-03-14T15:15:19Z</time>
      </trkpt>
      <trkpt lat="40.213883" lon="-4.962050">
        <ele>1443.0</ele>
        <time>2015-03-14T15:15:21Z</time>
      </trkpt>
      <trkpt lat="40.213783" lon="-4.962317">
        <ele>1442.0</ele>
        <time>2015-03-14T15:15:23Z</time>
      </trkpt>
      <trkpt lat="40.213717" lon="-4.962600">
        <ele>1443.0</ele>
        <time>2015-03-14T15:15:25Z</time>
      </trkpt>
      <trkpt lat="40.213717" lon="-4.962833">
        <ele>1444.0</ele>
        <time>2015-03-14T15:15:27Z</time>
      </trkpt>
      <trkpt lat="40.213750" lon="-4.963067">
        <ele>1440.0</ele>
        <time>2015-03-14T15:15:29Z</time>
      </trkpt>
      <trkpt lat="40.213800" lon="-4.963333">
        <ele>1436.0</ele>
        <time>2015-03-14T15:15:31Z</time>
      </trkpt>
      <trkpt lat="40.213900" lon="-4.963533">
        <ele>1435.0</ele>
        <time>2015-03-14T15:15:33Z</time>
      </trkpt>
      <trkpt lat="40.214033" lon="-4.963733">
        <ele>1432.0</ele>
        <time>2015-03-14T15:15:35Z</time>
      </trkpt>
      <trkpt lat="40.214200" lon="-4.963867">
        <ele>1429.0</ele>
        <time>2015-03-14T15:15:37Z</time>
      </trkpt>
      <trkpt lat="40.214383" lon="-4.963950">
        <ele>1428.0</ele>
        <time>2015-03-14T15:15:39Z</time>
      </trkpt>
      <trkpt lat="40.214583" lon="-4.963933">
        <ele>1425.0</ele>
        <time>2015-03-14T15:15:41Z</time>
      </trkpt>
      <trkpt lat="40.214750" lon="-4.963800">
        <ele>1421.0</ele>
        <time>2015-03-14T15:15:43Z</time>
      </trkpt>
      <trkpt lat="40.214850" lon="-4.963617">
        <ele>1420.0</ele>
        <time>2015-03-14T15:15:45Z</time>
      </trkpt>
      <trkpt lat="40.214867" lon="-4.963433">
        <ele>1418.0</ele>
        <time>2015-03-14T15:15:47Z</time>
      </trkpt>
      <trkpt lat="40.214817" lon="-4.963283">
        <ele>1414.0</ele>
        <time>2015-03-14T15:15:49Z</time>
      </trkpt>
      <trkpt lat="40.214717" lon="-4.963183">
        <ele>1410.0</ele>
        <time>2015-03-14T15:15:51Z</time>
      </trkpt>
      <trkpt lat="40.214600" lon="-4.963117">
        <ele>1407.0</ele>
        <time>2015-03-14T15:15:53Z</time>
      </trkpt>
      <trkpt lat="40.214467" lon="-4.963050">
        <ele>1405.0</ele>
        <time>2015-03-14T15:15:55Z</time>
      </trkpt>
      <trkpt lat="40.214350" lon="-4.962950">
        <ele>1403.0</ele>
        <time>2015-03-14T15:15:57Z</time>
      </trkpt>
      <trkpt lat="40.214250" lon="-4.962933">
        <ele>1400.0</ele>
        <time>2015-03-14T15:15:59Z</time>
      </trkpt>
      <trkpt lat="40.214117" lon="-4.962800">
        <ele>1396.0</ele>
        <time>2015-03-14T15:16:01Z</time>
      </trkpt>
      <trkpt lat="40.214000" lon="-4.962733">
        <ele>1404.0</ele>
        <time>2015-03-14T15:16:03Z</time>
      </trkpt>
      <trkpt lat="40.213867" lon="-4.962683">
        <ele>1405.0</ele>
        <time>2015-03-14T15:16:05Z</time>
      </trkpt>
      <trkpt lat="40.213717" lon="-4.962617">
        <ele>1405.0</ele>
        <time>2015-03-14T15:16:07Z</time>
      </trkpt>
      <trkpt lat="40.213567" lon="-4.962617">
        <ele>1406.0</ele>
        <time>2015-03-14T15:16:09Z</time>
      </trkpt>
      <trkpt lat="40.213383" lon="-4.962717">
        <ele>1405.0</ele>
        <time>2015-03-14T15:16:11Z</time>
      </trkpt>
      <trkpt lat="40.213200" lon="-4.962867">
        <ele>1406.0</ele>
        <time>2015-03-14T15:16:13Z</time>
      </trkpt>
      <trkpt lat="40.213050" lon="-4.963000">
        <ele>1409.0</ele>
        <time>2015-03-14T15:16:15Z</time>
      </trkpt>
      <trkpt lat="40.212933" lon="-4.963200">
        <ele>1409.0</ele>
        <time>2015-03-14T15:16:17Z</time>
      </trkpt>
      <trkpt lat="40.212833" lon="-4.963450">
        <ele>1405.0</ele>
        <time>2015-03-14T15:16:19Z</time>
      </trkpt>
      <trkpt lat="40.212700" lon="-4.963650">
        <ele>1403.0</ele>
        <time>2015-03-14T15:16:21Z</time>
      </trkpt>
      <trkpt lat="40.212550" lon="-4.963817">
        <ele>1399.0</ele>
        <time>2015-03-14T15:16:23Z</time>
      </trkpt>
      <trkpt lat="40.212417" lon="-4.963983">
        <ele>1395.0</ele>
        <time>2015-03-14T15:16:25Z</time>
      </trkpt>
      <trkpt lat="40.212283" lon="-4.964167">
        <ele>1392.0</ele>
        <time>2015-03-14T15:16:27Z</time>
      </trkpt>
      <trkpt lat="40.212150" lon="-4.964367">
        <ele>1388.0</ele>
        <time>2015-03-14T15:16:29Z</time>
      </trkpt>
      <trkpt lat="40.212033" lon="-4.964600">
        <ele>1384.0</ele>
        <time>2015-03-14T15:16:31Z</time>
      </trkpt>
      <trkpt lat="40.211900" lon="-4.964800">
        <ele>1379.0</ele>
        <time>2015-03-14T15:16:33Z</time>
      </trkpt>
      <trkpt lat="40.211767" lon="-4.965000">
        <ele>1376.0</ele>
        <time>2015-03-14T15:16:35Z</time>
      </trkpt>
      <trkpt lat="40.211667" lon="-4.965233">
        <ele>1377.0</ele>
        <time>2015-03-14T15:16:37Z</time>
      </trkpt>
      <trkpt lat="40.211650" lon="-4.965417">
        <ele>1380.0</ele>
        <time>2015-03-14T15:16:39Z</time>
      </trkpt>
      <trkpt lat="40.211633" lon="-4.965667">
        <ele>1378.0</ele>
        <time>2015-03-14T15:16:41Z</time>
      </trkpt>
      <trkpt lat="40.211617" lon="-4.966000">
        <ele>1373.0</ele>
        <time>2015-03-14T15:16:43Z</time>
      </trkpt>
      <trkpt lat="40.211533" lon="-4.966267">
        <ele>1380.0</ele>
        <time>2015-03-14T15:16:45Z</time>
      </trkpt>
      <trkpt lat="40.211467" lon="-4.966400">
        <ele>1389.0</ele>
        <time>2015-03-14T15:16:47Z</time>
      </trkpt>
      <trkpt lat="40.211417" lon="-4.966617">
        <ele>1390.0</ele>
        <time>2015-03-14T15:16:49Z</time>
      </trkpt>
      <trkpt lat="40.211417" lon="-4.966933">
        <ele>1391.0</ele>
        <time>2015-03-14T15:16:51Z</time>
      </trkpt>
      <trkpt lat="40.211550" lon="-4.967167">
        <ele>1398.0</ele>
        <time>2015-03-14T15:16:53Z</time>
      </trkpt>
      <trkpt lat="40.211717" lon="-4.967267">
        <ele>1406.0</ele>
        <time>2015-03-14T15:16:55Z</time>
      </trkpt>
      <trkpt lat="40.211867" lon="-4.967250">
        <ele>1413.0</ele>
        <time>2015-03-14T15:16:57Z</time>
      </trkpt>
      <trkpt lat="40.211950" lon="-4.967133">
        <ele>1417.0</ele>
        <time>2015-03-14T15:16:59Z</time>
      </trkpt>
      <trkpt lat="40.211933" lon="-4.967000">
        <ele>1419.0</ele>
        <time>2015-03-14T15:17:01Z</time>
      </trkpt>
      <trkpt lat="40.211850" lon="-4.966917">
        <ele>1423.0</ele>
        <time>2015-03-14T15:17:03Z</time>
      </trkpt>
      <trkpt lat="40.211750" lon="-4.966850">
        <ele>1427.0</ele>
        <time>2015-03-14T15:17:05Z</time>
      </trkpt>
      <trkpt lat="40.211600" lon="-4.966833">
        <ele>1430.0</ele>
        <time>2015-03-14T15:17:07Z</time>
      </trkpt>
      <trkpt lat="40.211433" lon="-4.966933">
        <ele>1432.0</ele>
        <time>2015-03-14T15:17:09Z</time>
      </trkpt>
      <trkpt lat="40.211283" lon="-4.967100">
        <ele>1438.0</ele>
        <time>2015-03-14T15:17:11Z</time>
      </trkpt>
      <trkpt lat="40.211183" lon="-4.967300">
        <ele>1444.0</ele>
        <time>2015-03-14T15:17:13Z</time>
      </trkpt>
      <trkpt lat="40.211133" lon="-4.967567">
        <ele>1448.0</ele>
        <time>2015-03-14T15:17:15Z</time>
      </trkpt>
      <trkpt lat="40.211133" lon="-4.967833">
        <ele>1454.0</ele>
        <time>2015-03-14T15:17:17Z</time>
      </trkpt>
      <trkpt lat="40.211217" lon="-4.968067">
        <ele>1460.0</ele>
        <time>2015-03-14T15:17:19Z</time>
      </trkpt>
      <trkpt lat="40.211367" lon="-4.968267">
        <ele>1465.0</ele>
        <time>2015-03-14T15:17:21Z</time>
      </trkpt>
      <trkpt lat="40.211550" lon="-4.968350">
        <ele>1470.0</ele>
        <time>2015-03-14T15:17:23Z</time>
      </trkpt>
      <trkpt lat="40.211733" lon="-4.968350">
        <ele>1477.0</ele>
        <time>2015-03-14T15:17:25Z</time>
      </trkpt>
      <trkpt lat="40.211867" lon="-4.968233">
        <ele>1484.0</ele>
        <time>2015-03-14T15:17:27Z</time>
      </trkpt>
      <trkpt lat="40.211933" lon="-4.968083">
        <ele>1491.0</ele>
        <time>2015-03-14T15:17:29Z</time>
      </trkpt>
      <trkpt lat="40.211933" lon="-4.967967">
        <ele>1499.0</ele>
        <time>2015-03-14T15:17:31Z</time>
      </trkpt>
      <trkpt lat="40.211883" lon="-4.967883">
        <ele>1507.0</ele>
        <time>2015-03-14T15:17:33Z</time>
      </trkpt>
      <trkpt lat="40.211783" lon="-4.967833">
        <ele>1513.0</ele>
        <time>2015-03-14T15:17:35Z</time>
      </trkpt>
      <trkpt lat="40.211600" lon="-4.967917">
        <ele>1517.0</ele>
        <time>2015-03-14T15:17:37Z</time>
      </trkpt>
      <trkpt lat="40.211483" lon="-4.968117">
        <ele>1523.0</ele>
        <time>2015-03-14T15:17:39Z</time>
      </trkpt>
      <trkpt lat="40.211450" lon="-4.968350">
        <ele>1530.0</ele>
        <time>2015-03-14T15:17:41Z</time>
      </trkpt>
      <trkpt lat="40.211467" lon="-4.968633">
        <ele>1534.0</ele>
        <time>2015-03-14T15:17:43Z</time>
      </trkpt>
      <trkpt lat="40.211550" lon="-4.968900">
        <ele>1538.0</ele>
        <time>2015-03-14T15:17:45Z</time>
      </trkpt>
      <trkpt lat="40.211717" lon="-4.969083">
        <ele>1544.0</ele>
        <time>2015-03-14T15:17:47Z</time>
      </trkpt>
      <trkpt lat="40.211900" lon="-4.969200">
        <ele>1550.0</ele>
        <time>2015-03-14T15:17:49Z</time>
      </trkpt>
      <trkpt lat="40.212117" lon="-4.969233">
        <ele>1555.0</ele>
        <time>2015-03-14T15:17:51Z</time>
      </trkpt>
      <trkpt lat="40.212300" lon="-4.969183">
        <ele>1562.0</ele>
        <time>2015-03-14T15:17:53Z</time>
      </trkpt>
      <trkpt lat="40.212417" lon="-4.969083">
        <ele>1570.0</ele>
        <time>2015-03-14T15:17:55Z</time>
      </trkpt>
      <trkpt lat="40.212483" lon="-4.968900">
        <ele>1572.0</ele>
        <time>2015-03-14T15:17:57Z</time>
      </trkpt>
      <trkpt lat="40.212467" lon="-4.968733">
        <ele>1577.0</ele>
        <time>2015-03-14T15:17:59Z</time>
      </trkpt>
      <trkpt lat="40.212400" lon="-4.968667">
        <ele>1585.0</ele>
        <time>2015-03-14T15:18:01Z</time>
      </trkpt>
      <trkpt lat="40.212317" lon="-4.968633">
        <ele>1592.0</ele>
        <time>2015-03-14T15:18:03Z</time>
      </trkpt>
      <trkpt lat="40.212167" lon="-4.968700">
        <ele>1595.0</ele>
        <time>2015-03-14T15:18:05Z</time>
      </trkpt>
      <trkpt lat="40.212033" lon="-4.968883">
        <ele>1600.0</ele>
        <time>2015-03-14T15:18:07Z</time>
      </trkpt>
      <trkpt lat="40.211983" lon="-4.969050">
        <ele>1609.0</ele>
        <time>2015-03-14T15:18:09Z</time>
      </trkpt>
      <trkpt lat="40.211967" lon="-4.969300">
        <ele>1614.0</ele>
        <time>2015-03-14T15:18:11Z</time>
      </trkpt>
      <trkpt lat="40.212017" lon="-4.969617">
        <ele>1614.0</ele>
        <time>2015-03-14T15:18:13Z</time>
      </trkpt>
      <trkpt lat="40.212150" lon="-4.969850">
        <ele>1622.0</ele>
        <time>2015-03-14T15:18:15Z</time>
      </trkpt>
      <trkpt lat="40.212333" lon="-4.969983">
        <ele>1630.0</ele>
        <time>2015-03-14T15:18:17Z</time>
      </trkpt>
      <trkpt lat="40.212533" lon="-4.970033">
        <ele>1636.0</ele>
        <time>2015-03-14T15:18:19Z</time>
      </trkpt>
      <trkpt lat="40.212717" lon="-4.969967">
        <ele>1640.0</ele>
        <time>2015-03-14T15:18:21Z</time>
      </trkpt>
      <trkpt lat="40.212850" lon="-4.969817">
        <ele>1644.0</ele>
        <time>2015-03-14T15:18:23Z</time>
      </trkpt>
      <trkpt lat="40.212950" lon="-4.969667">
        <ele>1648.0</ele>
        <time>2015-03-14T15:18:25Z</time>
      </trkpt>
      <trkpt lat="40.212933" lon="-4.969483">
        <ele>1649.0</ele>
        <time>2015-03-14T15:18:27Z</time>
      </trkpt>
      <trkpt lat="40.212833" lon="-4.969367">
        <ele>1652.0</ele>
        <time>2015-03-14T15:18:29Z</time>
      </trkpt>
      <trkpt lat="40.212750" lon="-4.969333">
        <ele>1660.0</ele>
        <time>2015-03-14T15:18:31Z</time>
      </trkpt>
      <trkpt lat="40.212667" lon="-4.969333">
        <ele>1666.0</ele>
        <time>2015-03-14T15:18:33Z</time>
      </trkpt>
      <trkpt lat="40.212533" lon="-4.969417">
        <ele>1667.0</ele>
        <time>2015-03-14T15:18:35Z</time>
      </trkpt>
      <trkpt lat="40.212433" lon="-4.969600">
        <ele>1673.0</ele>
        <time>2015-03-14T15:18:37Z</time>
      </trkpt>
      <trkpt lat="40.212400" lon="-4.969767">
        <ele>1681.0</ele>
        <time>2015-03-14T15:18:39Z</time>
      </trkpt>
      <trkpt lat="40.212400" lon="-4.970033">
        <ele>1684.0</ele>
        <time>2015-03-14T15:18:41Z</time>
      </trkpt>
      <trkpt lat="40.212517" lon="-4.970333">
        <ele>1687.0</ele>
        <time>2015-03-14T15:18:43Z</time>
      </trkpt>
      <trkpt lat="40.212683" lon="-4.970517">
        <ele>1693.0</ele>
        <time>2015-03-14T15:18:45Z</time>
      </trkpt>
      <trkpt lat="40.212850" lon="-4.970683">
        <ele>1698.0</ele>
        <time>2015-03-14T15:18:47Z</time>
      </trkpt>
      <trkpt lat="40.213067" lon="-4.970767">
        <ele>1702.0</ele>
        <time>2015-03-14T15:18:49Z</time>
      </trkpt>
      <trkpt lat="40.213283" lon="-4.970733">
        <ele>1704.0</ele>
        <time>2015-03-14T15:18:51Z</time>
      </trkpt>
      <trkpt lat="40.213433" lon="-4.970617">
        <ele>1709.0</ele>
        <time>2015-03-14T15:18:53Z</time>
      </trkpt>
      <trkpt lat="40.213517" lon="-4.970450">
        <ele>1710.0</ele>
        <time>2015-03-14T15:18:55Z</time>
      </trkpt>
      <trkpt lat="40.213500" lon="-4.970250">
        <ele>1710.0</ele>
        <time>2015-03-14T15:18:57Z</time>
      </trkpt>
      <trkpt lat="40.213417" lon="-4.970100">
        <ele>1713.0</ele>
        <time>2015-03-14T15:18:59Z</time>
      </trkpt>
      <trkpt lat="40.213300" lon="-4.970033">
        <ele>1713.0</ele>
        <time>2015-03-14T15:19:01Z</time>
      </trkpt>
      <trkpt lat="40.213167" lon="-4.970000">
        <ele>1714.0</ele>
        <time>2015-03-14T15:19:03Z</time>
      </trkpt>
      <trkpt lat="40.213050" lon="-4.970050">
        <ele>1716.0</ele>
        <time>2015-03-14T15:19:05Z</time>
      </trkpt>
      <trkpt lat="40.212917" lon="-4.970167">
        <ele>1718.0</ele>
        <time>2015-03-14T15:19:07Z</time>
      </trkpt>
      <trkpt lat="40.212800" lon="-4.970300">
        <ele>1723.0</ele>
        <time>2015-03-14T15:19:09Z</time>
      </trkpt>
      <trkpt lat="40.212750" lon="-4.970483">
        <ele>1729.0</ele>
        <time>2015-03-14T15:19:11Z</time>
      </trkpt>
      <trkpt lat="40.212767" lon="-4.970733">
        <ele>1730.0</ele>
        <time>2015-03-14T15:19:13Z</time>
      </trkpt>
      <trkpt lat="40.212850" lon="-4.971017">
        <ele>1734.0</ele>
        <time>2015-03-14T15:19:15Z</time>
      </trkpt>
      <trkpt lat="40.213033" lon="-4.971167">
        <ele>1739.0</ele>
        <time>2015-03-14T15:19:17Z</time>
      </trkpt>
      <trkpt lat="40.213233" lon="-4.971250">
        <ele>1744.0</ele>
        <time>2015-03-14T15:19:19Z</time>
      </trkpt>
      <trkpt lat="40.213400" lon="-4.971283">
        <ele>1748.0</ele>
        <time>2015-03-14T15:19:21Z</time>
      </trkpt>
      <trkpt lat="40.213583" lon="-4.971183">
        <ele>1746.0</ele>
        <time>2015-03-14T15:19:23Z</time>
      </trkpt>
      <trkpt lat="40.213750" lon="-4.971000">
        <ele>1743.0</ele>
        <time>2015-03-14T15:19:25Z</time>
      </trkpt>
      <trkpt lat="40.213833" lon="-4.970800">
        <ele>1746.0</ele>
        <time>2015-03-14T15:19:27Z</time>
      </trkpt>
      <trkpt lat="40.213850" lon="-4.970633">
        <ele>1747.0</ele>
        <time>2015-03-14T15:19:29Z</time>
      </trkpt>
      <trkpt lat="40.213800" lon="-4.970417">
        <ele>1745.0</ele>
        <time>2015-03-14T15:19:31Z</time>
      </trkpt>
      <trkpt lat="40.213700" lon="-4.970233">
        <ele>1745.0</ele>
        <time>2015-03-14T15:19:33Z</time>
      </trkpt>
      <trkpt lat="40.213617" lon="-4.970133">
        <ele>1748.0</ele>
        <time>2015-03-14T15:19:35Z</time>
      </trkpt>
      <trkpt lat="40.213483" lon="-4.970100">
        <ele>1749.0</ele>
        <time>2015-03-14T15:19:37Z</time>
      </trkpt>
      <trkpt lat="40.213300" lon="-4.970133">
        <ele>1747.0</ele>
        <time>2015-03-14T15:19:39Z</time>
      </trkpt>
      <trkpt lat="40.213117" lon="-4.970217">
        <ele>1748.0</ele>
        <time>2015-03-14T15:19:41Z</time>
      </trkpt>
      <trkpt lat="40.212967" lon="-4.970317">
        <ele>1753.0</ele>
        <time>2015-03-14T15:19:43Z</time>
      </trkpt>
      <trkpt lat="40.212850" lon="-4.970483">
        <ele>1755.0</ele>
        <time>2015-03-14T15:19:45Z</time>
      </trkpt>
      <trkpt lat="40.212783" lon="-4.970733">
        <ele>1756.0</ele>
        <time>2015-03-14T15:19:47Z</time>
      </trkpt>
      <trkpt lat="40.212750" lon="-4.970983">
        <ele>1758.0</ele>
        <time>2015-03-14T15:19:49Z</time>
      </trkpt>
      <trkpt lat="40.212767" lon="-4.971183">
        <ele>1764.0</ele>
        <time>2015-03-14T15:19:51Z</time>
      </trkpt>
      <trkpt lat="40.212833" lon="-4.971383">
        <ele>1768.0</ele>
        <time>2015-03-14T15:19:53Z</time>
      </trkpt>
      <trkpt lat="40.212983" lon="-4.971550">
        <ele>1771.0</ele>
        <time>2015-03-14T15:19:55Z</time>
      </trkpt>
      <trkpt lat="40.213150" lon="-4.971633">
        <ele>1775.0</ele>
        <time>2015-03-14T15:19:57Z</time>
      </trkpt>
      <trkpt lat="40.213333" lon="-4.971567">
        <ele>1779.0</ele>
        <time>2015-03-14T15:19:59Z</time>
      </trkpt>
      <trkpt lat="40.213483" lon="-4.971400">
        <ele>1779.0</ele>
        <time>2015-03-14T15:20:01Z</time>
      </trkpt>
      <trkpt lat="40.213533" lon="-4.971183">
        <ele>1777.0</ele>
        <time>2015-03-14T15:20:03Z</time>
      </trkpt>
      <trkpt lat="40.213483" lon="-4.970967">
        <ele>1775.0</ele>
        <time>2015-03-14T15:20:05Z</time>
      </trkpt>
      <trkpt lat="40.213400" lon="-4.970800">
        <ele>1775.0</ele>
        <time>2015-03-14T15:20:07Z</time>
      </trkpt>
      <trkpt lat="40.213283" lon="-4.970717">
        <ele>1777.0</ele>
        <time>2015-03-14T15:20:09Z</time>
      </trkpt>
      <trkpt lat="40.213117" lon="-4.970667">
        <ele>1776.0</ele>
        <time>2015-03-14T15:20:11Z</time>
      </trkpt>
      <trkpt lat="40.212950" lon="-4.970633">
        <ele>1777.0</ele>
        <time>2015-03-14T15:20:13Z</time>
      </trkpt>
      <trkpt lat="40.212783" lon="-4.970700">
        <ele>1781.0</ele>
        <time>2015-03-14T15:20:15Z</time>
      </trkpt>
      <trkpt lat="40.212650" lon="-4.970850">
        <ele>1783.0</ele>
        <time>2015-03-14T15:20:17Z</time>
      </trkpt>
      <trkpt lat="40.212533" lon="-4.970983">
        <ele>1786.0</ele>
        <time>2015-03-14T15:20:19Z</time>
      </trkpt>
      <trkpt lat="40.212450" lon="-4.971183">
        <ele>1789.0</ele>
        <time>2015-03-14T15:20:21Z</time>
      </trkpt>
      <trkpt lat="40.212433" lon="-4.971400">
        <ele>1792.0</ele>
        <time>2015-03-14T15:20:23Z</time>
      </trkpt>
      <trkpt lat="40.212500" lon="-4.971567">
        <ele>1794.0</ele>
        <time>2015-03-14T15:20:25Z</time>
      </trkpt>
      <trkpt lat="40.212633" lon="-4.971733">
        <ele>1795.0</ele>
        <time>2015-03-14T15:20:27Z</time>
      </trkpt>
      <trkpt lat="40.212817" lon="-4.971783">
        <ele>1798.0</ele>
        <time>2015-03-14T15:20:29Z</time>
      </trkpt>
      <trkpt lat="40.212983" lon="-4.971667">
        <ele>1799.0</ele>
        <time>2015-03-14T15:20:31Z</time>
      </trkpt>
      <trkpt lat="40.213067" lon="-4.971483">
        <ele>1803.0</ele>
        <time>2015-03-14T15:20:33Z</time>
      </trkpt>
      <trkpt lat="40.213100" lon="-4.971283">
        <ele>1806.0</ele>
        <time>2015-03-14T15:20:35Z</time>
      </trkpt>
      <trkpt lat="40.213067" lon="-4.971100">
        <ele>1807.0</ele>
        <time>2015-03-14T15:20:37Z</time>
      </trkpt>
      <trkpt lat="40.212950" lon="-4.970883">
        <ele>1805.0</ele>
        <time>2015-03-14T15:20:39Z</time>
      </trkpt>
      <trkpt lat="40.212817" lon="-4.970733">
        <ele>1807.0</ele>
        <time>2015-03-14T15:20:41Z</time>
      </trkpt>
      <trkpt lat="40.212700" lon="-4.970667">
        <ele>1811.0</ele>
        <time>2015-03-14T15:20:43Z</time>
      </trkpt>
      <trkpt lat="40.212533" lon="-4.970650">
        <ele>1812.0</ele>
        <time>2015-03-14T15:20:45Z</time>
      </trkpt>
      <trkpt lat="40.212400" lon="-4.970767">
        <ele>1812.0</ele>
        <time>2015-03-14T15:20:47Z</time>
      </trkpt>
      <trkpt lat="40.212317" lon="-4.970933">
        <ele>1814.0</ele>
        <time>2015-03-14T15:20:49Z</time>
      </trkpt>
      <trkpt lat="40.212250" lon="-4.971083">
        <ele>1816.0</ele>
        <time>2015-03-14T15:20:51Z</time>
      </trkpt>
      <trkpt lat="40.212250" lon="-4.971333">
        <ele>1815.0</ele>
        <time>2015-03-14T15:20:53Z</time>
      </trkpt>
      <trkpt lat="40.212350" lon="-4.971583">
        <ele>1815.0</ele>
        <time>2015-03-14T15:20:55Z</time>
      </trkpt>
      <trkpt lat="40.212500" lon="-4.971733">
        <ele>1818.0</ele>
        <time>2015-03-14T15:20:57Z</time>
      </trkpt>
      <trkpt lat="40.212667" lon="-4.971783">
        <ele>1819.0</ele>
        <time>2015-03-14T15:20:59Z</time>
      </trkpt>
      <trkpt lat="40.212833" lon="-4.971750">
        <ele>1819.0</ele>
        <time>2015-03-14T15:21:01Z</time>
      </trkpt>
      <trkpt lat="40.212967" lon="-4.971600">
        <ele>1818.0</ele>
        <time>2015-03-14T15:21:03Z</time>
      </trkpt>
      <trkpt lat="40.213017" lon="-4.971383">
        <ele>1817.0</ele>
        <time>2015-03-14T15:21:05Z</time>
      </trkpt>
      <trkpt lat="40.212983" lon="-4.971183">
        <ele>1817.0</ele>
        <time>2015-03-14T15:21:07Z</time>
      </trkpt>
      <trkpt lat="40.212883" lon="-4.971000">
        <ele>1816.0</ele>
        <time>2015-03-14T15:21:09Z</time>
      </trkpt>
      <trkpt lat="40.212750" lon="-4.970867">
        <ele>1816.0</ele>
        <time>2015-03-14T15:21:11Z</time>
      </trkpt>
      <trkpt lat="40.212600" lon="-4.970817">
        <ele>1816.0</ele>
        <time>2015-03-14T15:21:13Z</time>
      </trkpt>
      <trkpt lat="40.212467" lon="-4.970800">
        <ele>1816.0</ele>
        <time>2015-03-14T15:21:15Z</time>
      </trkpt>
      <trkpt lat="40.212317" lon="-4.970783">
        <ele>1815.0</ele>
        <time>2015-03-14T15:21:17Z</time>
      </trkpt>
      <trkpt lat="40.212167" lon="-4.970783">
        <ele>1815.0</ele>
        <time>2015-03-14T15:21:19Z</time>
      </trkpt>
      <trkpt lat="40.212033" lon="-4.970850">
        <ele>1815.0</ele>
        <time>2015-03-14T15:21:21Z</time>
      </trkpt>
      <trkpt lat="40.211917" lon="-4.971017">
        <ele>1813.0</ele>
        <time>2015-03-14T15:21:23Z</time>
      </trkpt>
      <trkpt lat="40.211817" lon="-4.971183">
        <ele>1813.0</ele>
        <time>2015-03-14T15:21:25Z</time>
      </trkpt>
      <trkpt lat="40.211700" lon="-4.971350">
        <ele>1814.0</ele>
        <time>2015-03-14T15:21:27Z</time>
      </trkpt>
      <trkpt lat="40.211583" lon="-4.971533">
        <ele>1813.0</ele>
        <time>2015-03-14T15:21:29Z</time>
      </trkpt>
      <trkpt lat="40.211483" lon="-4.971717">
        <ele>1815.0</ele>
        <time>2015-03-14T15:21:31Z</time>
      </trkpt>
      <trkpt lat="40.211400" lon="-4.971917">
        <ele>1816.0</ele>
        <time>2015-03-14T15:21:33Z</time>
      </trkpt>
      <trkpt lat="40.211350" lon="-4.972150">
        <ele>1816.0</ele>
        <time>2015-03-14T15:21:35Z</time>
      </trkpt>
      <trkpt lat="40.211317" lon="-4.972450">
        <ele>1815.0</ele>
        <time>2015-03-14T15:21:37Z</time>
      </trkpt>
      <trkpt lat="40.211183" lon="-4.972600">
        <ele>1816.0</ele>
        <time>2015-03-14T15:21:39Z</time>
      </trkpt>
      <trkpt lat="40.211100" lon="-4.972767">
        <ele>1818.0</ele>
        <time>2015-03-14T15:21:41Z</time>
      </trkpt>
      <trkpt lat="40.211017" lon="-4.972950">
        <ele>1821.0</ele>
        <time>2015-03-14T15:21:43Z</time>
      </trkpt>
      <trkpt lat="40.210983" lon="-4.973167">
        <ele>1824.0</ele>
        <time>2015-03-14T15:21:45Z</time>
      </trkpt>
      <trkpt lat="40.211000" lon="-4.973417">
        <ele>1826.0</ele>
        <time>2015-03-14T15:21:47Z</time>
      </trkpt>
      <trkpt lat="40.211083" lon="-4.973617">
        <ele>1831.0</ele>
        <time>2015-03-14T15:21:49Z</time>
      </trkpt>
      <trkpt lat="40.211233" lon="-4.973717">
        <ele>1833.0</ele>
        <time>2015-03-14T15:21:51Z</time>
      </trkpt>
      <trkpt lat="40.211417" lon="-4.973733">
        <ele>1832.0</ele>
        <time>2015-03-14T15:21:53Z</time>
      </trkpt>
      <trkpt lat="40.211583" lon="-4.973583">
        <ele>1832.0</ele>
        <time>2015-03-14T15:21:55Z</time>
      </trkpt>
      <trkpt lat="40.211667" lon="-4.973367">
        <ele>1831.0</ele>
        <time>2015-03-14T15:21:57Z</time>
      </trkpt>
      <trkpt lat="40.211683" lon="-4.973167">
        <ele>1835.0</ele>
        <time>2015-03-14T15:21:59Z</time>
      </trkpt>
      <trkpt lat="40.211667" lon="-4.972983">
        <ele>1838.0</ele>
        <time>2015-03-14T15:22:01Z</time>
      </trkpt>
      <trkpt lat="40.211550" lon="-4.972817">
        <ele>1838.0</ele>
        <time>2015-03-14T15:22:03Z</time>
      </trkpt>
      <trkpt lat="40.211383" lon="-4.972800">
        <ele>1838.0</ele>
        <time>2015-03-14T15:22:05Z</time>
      </trkpt>
      <trkpt lat="40.211233" lon="-4.972883">
        <ele>1842.0</ele>
        <time>2015-03-14T15:22:07Z</time>
      </trkpt>
      <trkpt lat="40.211117" lon="-4.972950">
        <ele>1846.0</ele>
        <time>2015-03-14T15:22:09Z</time>
      </trkpt>
      <trkpt lat="40.211000" lon="-4.973083">
        <ele>1847.0</ele>
        <time>2015-03-14T15:22:11Z</time>
      </trkpt>
      <trkpt lat="40.210917" lon="-4.973283">
        <ele>1850.0</ele>
        <time>2015-03-14T15:22:13Z</time>
      </trkpt>
      <trkpt lat="40.210900" lon="-4.973450">
        <ele>1855.0</ele>
        <time>2015-03-14T15:22:15Z</time>
      </trkpt>
      <trkpt lat="40.210900" lon="-4.973667">
        <ele>1856.0</ele>
        <time>2015-03-14T15:22:17Z</time>
      </trkpt>
      <trkpt lat="40.210983" lon="-4.973950">
        <ele>1853.0</ele>
        <time>2015-03-14T15:22:19Z</time>
      </trkpt>
      <trkpt lat="40.211133" lon="-4.974133">
        <ele>1854.0</ele>
        <time>2015-03-14T15:22:21Z</time>
      </trkpt>
      <trkpt lat="40.211317" lon="-4.974250">
        <ele>1856.0</ele>
        <time>2015-03-14T15:22:23Z</time>
      </trkpt>
      <trkpt lat="40.211517" lon="-4.974283">
        <ele>1856.0</ele>
        <time>2015-03-14T15:22:25Z</time>
      </trkpt>
      <trkpt lat="40.211700" lon="-4.974200">
        <ele>1857.0</ele>
        <time>2015-03-14T15:22:27Z</time>
      </trkpt>
      <trkpt lat="40.211833" lon="-4.974050">
        <ele>1857.0</ele>
        <time>2015-03-14T15:22:29Z</time>
      </trkpt>
      <trkpt lat="40.211917" lon="-4.973883">
        <ele>1860.0</ele>
        <time>2015-03-14T15:22:31Z</time>
      </trkpt>
      <trkpt lat="40.211933" lon="-4.973683">
        <ele>1861.0</ele>
        <time>2015-03-14T15:22:33Z</time>
      </trkpt>
      <trkpt lat="40.211917" lon="-4.973500">
        <ele>1861.0</ele>
        <time>2015-03-14T15:22:35Z</time>
      </trkpt>
      <trkpt lat="40.211833" lon="-4.973350">
        <ele>1862.0</ele>
        <time>2015-03-14T15:22:37Z</time>
      </trkpt>
      <trkpt lat="40.211667" lon="-4.973317">
        <ele>1862.0</ele>
        <time>2015-03-14T15:22:39Z</time>
      </trkpt>
      <trkpt lat="40.211517" lon="-4.973400">
        <ele>1864.0</ele>
        <time>2015-03-14T15:22:41Z</time>
      </trkpt>
      <trkpt lat="40.211400" lon="-4.973517">
        <ele>1867.0</ele>
        <time>2015-03-14T15:22:43Z</time>
      </trkpt>
      <trkpt lat="40.211283" lon="-4.973683">
        <ele>1867.0</ele>
        <time>2015-03-14T15:22:45Z</time>
      </trkpt>
      <trkpt lat="40.211183" lon="-4.973900">
        <ele>1868.0</ele>
        <time>2015-03-14T15:22:47Z</time>
      </trkpt>
      <trkpt lat="40.211083" lon="-4.974083">
        <ele>1872.0</ele>
        <time>2015-03-14T15:22:49Z</time>
      </trkpt>
      <trkpt lat="40.210983" lon="-4.974217">
        <ele>1874.0</ele>
        <time>2015-03-14T15:22:51Z</time>
      </trkpt>
      <trkpt lat="40.210883" lon="-4.974383">
        <ele>1871.0</ele>
        <time>2015-03-14T15:22:53Z</time>
      </trkpt>
      <trkpt lat="40.210750" lon="-4.974600">
        <ele>1869.0</ele>
        <time>2015-03-14T15:22:55Z</time>
      </trkpt>
      <trkpt lat="40.210633" lon="-4.974783">
        <ele>1870.0</ele>
        <time>2015-03-14T15:22:57Z</time>
      </trkpt>
      <trkpt lat="40.210567" lon="-4.974983">
        <ele>1869.0</ele>
        <time>2015-03-14T15:22:59Z</time>
      </trkpt>
      <trkpt lat="40.210433" lon="-4.975183">
        <ele>1868.0</ele>
        <time>2015-03-14T15:23:01Z</time>
      </trkpt>
      <trkpt lat="40.210300" lon="-4.975333">
        <ele>1867.0</ele>
        <time>2015-03-14T15:23:03Z</time>
      </trkpt>
      <trkpt lat="40.210133" lon="-4.975467">
        <ele>1864.0</ele>
        <time>2015-03-14T15:23:05Z</time>
      </trkpt>
      <trkpt lat="40.209983" lon="-4.975633">
        <ele>1859.0</ele>
        <time>2015-03-14T15:23:07Z</time>
      </trkpt>
      <trkpt lat="40.209867" lon="-4.975833">
        <ele>1857.0</ele>
        <time>2015-03-14T15:23:09Z</time>
      </trkpt>
      <trkpt lat="40.209767" lon="-4.976017">
        <ele>1855.0</ele>
        <time>2015-03-14T15:23:11Z</time>
      </trkpt>
      <trkpt lat="40.209650" lon="-4.976183">
        <ele>1852.0</ele>
        <time>2015-03-14T15:23:13Z</time>
      </trkpt>
      <trkpt lat="40.209550" lon="-4.976367">
        <ele>1848.0</ele>
        <time>2015-03-14T15:23:15Z</time>
      </trkpt>
      <trkpt lat="40.209433" lon="-4.976600">
        <ele>1843.0</ele>
        <time>2015-03-14T15:23:17Z</time>
      </trkpt>
      <trkpt lat="40.209317" lon="-4.976833">
        <ele>1840.0</ele>
        <time>2015-03-14T15:23:19Z</time>
      </trkpt>
      <trkpt lat="40.209217" lon="-4.977067">
        <ele>1837.0</ele>
        <time>2015-03-14T15:23:21Z</time>
      </trkpt>
      <trkpt lat="40.209083" lon="-4.977317">
        <ele>1832.0</ele>
        <time>2015-03-14T15:23:23Z</time>
      </trkpt>
      <trkpt lat="40.208967" lon="-4.977533">
        <ele>1828.0</ele>
        <time>2015-03-14T15:23:25Z</time>
      </trkpt>
      <trkpt lat="40.208850" lon="-4.977750">
        <ele>1825.0</ele>
        <time>2015-03-14T15:23:27Z</time>
      </trkpt>
      <trkpt lat="40.208717" lon="-4.978017">
        <ele>1819.0</ele>
        <time>2015-03-14T15:23:29Z</time>
      </trkpt>
      <trkpt lat="40.208583" lon="-4.978267">
        <ele>1816.0</ele>
        <time>2015-03-14T15:23:31Z</time>
      </trkpt>
      <trkpt lat="40.208467" lon="-4.978500">
        <ele>1815.0</ele>
        <time>2015-03-14T15:23:33Z</time>
      </trkpt>
      <trkpt lat="40.208350" lon="-4.978767">
        <ele>1812.0</ele>
        <time>2015-03-14T15:23:35Z</time>
      </trkpt>
      <trkpt lat="40.208200" lon="-4.979033">
        <ele>1808.0</ele>
        <time>2015-03-14T15:23:37Z</time>
      </trkpt>
      <trkpt lat="40.208083" lon="-4.979300">
        <ele>1804.0</ele>
        <time>2015-03-14T15:23:39Z</time>
      </trkpt>
      <trkpt lat="40.207967" lon="-4.979567">
        <ele>1800.0</ele>
        <time>2015-03-14T15:23:41Z</time>
      </trkpt>
      <trkpt lat="40.207817" lon="-4.979833">
        <ele>1796.0</ele>
        <time>2015-03-14T15:23:43Z</time>
      </trkpt>
      <trkpt lat="40.207683" lon="-4.980100">
        <ele>1795.0</ele>
        <time>2015-03-14T15:23:45Z</time>
      </trkpt>
      <trkpt lat="40.207567" lon="-4.980300">
        <ele>1796.0</ele>
        <time>2015-03-14T15:23:47Z</time>
      </trkpt>
      <trkpt lat="40.207417" lon="-4.980517">
        <ele>1795.0</ele>
        <time>2015-03-14T15:23:49Z</time>
      </trkpt>
      <trkpt lat="40.207267" lon="-4.980733">
        <ele>1794.0</ele>
        <time>2015-03-14T15:23:51Z</time>
      </trkpt>
      <trkpt lat="40.207133" lon="-4.980967">
        <ele>1794.0</ele>
        <time>2015-03-14T15:23:53Z</time>
      </trkpt>
      <trkpt lat="40.207017" lon="-4.981217">
        <ele>1791.0</ele>
        <time>2015-03-14T15:23:55Z</time>
      </trkpt>
      <trkpt lat="40.206900" lon="-4.981450">
        <ele>1790.0</ele>
        <time>2015-03-14T15:23:57Z</time>
      </trkpt>
      <trkpt lat="40.206783" lon="-4.981717">
        <ele>1788.0</ele>
        <time>2015-03-14T15:23:59Z</time>
      </trkpt>
      <trkpt lat="40.206667" lon="-4.981983">
        <ele>1786.0</ele>
        <time>2015-03-14T15:24:01Z</time>
      </trkpt>
      <trkpt lat="40.206533" lon="-4.982233">
        <ele>1786.0</ele>
        <time>2015-03-14T15:24:03Z</time>
      </trkpt>
      <trkpt lat="40.206433" lon="-4.982500">
        <ele>1785.0</ele>
        <time>2015-03-14T15:24:05Z</time>
      </trkpt>
      <trkpt lat="40.206333" lon="-4.982750">
        <ele>1786.0</ele>
        <time>2015-03-14T15:24:07Z</time>
      </trkpt>
      <trkpt lat="40.206250" lon="-4.983000">
        <ele>1785.0</ele>
        <time>2015-03-14T15:24:09Z</time>
      </trkpt>
      <trkpt lat="40.206133" lon="-4.983283">
        <ele>1781.0</ele>
        <time>2015-03-14T15:24:11Z</time>
      </trkpt>
      <trkpt lat="40.206050" lon="-4.983533">
        <ele>1781.0</ele>
        <time>2015-03-14T15:24:13Z</time>
      </trkpt>
      <trkpt lat="40.205983" lon="-4.983783">
        <ele>1781.0</ele>
        <time>2015-03-14T15:24:15Z</time>
      </trkpt>
      <trkpt lat="40.205900" lon="-4.984067">
        <ele>1778.0</ele>
        <time>2015-03-14T15:24:17Z</time>
      </trkpt>
      <trkpt lat="40.205800" lon="-4.984350">
        <ele>1776.0</ele>
        <time>2015-03-14T15:24:19Z</time>
      </trkpt>
      <trkpt lat="40.205750" lon="-4.984583">
        <ele>1777.0</ele>
        <time>2015-03-14T15:24:21Z</time>
      </trkpt>
      <trkpt lat="40.205733" lon="-4.984817">
        <ele>1776.0</ele>
        <time>2015-03-14T15:24:23Z</time>
      </trkpt>
      <trkpt lat="40.205717" lon="-4.985050">
        <ele>1775.0</ele>
        <time>2015-03-14T15:24:25Z</time>
      </trkpt>
      <trkpt lat="40.205733" lon="-4.985300">
        <ele>1772.0</ele>
        <time>2015-03-14T15:24:27Z</time>
      </trkpt>
      <trkpt lat="40.205717" lon="-4.985567">
        <ele>1768.0</ele>
        <time>2015-03-14T15:24:29Z</time>
      </trkpt>
      <trkpt lat="40.205683" lon="-4.985817">
        <ele>1767.0</ele>
        <time>2015-03-14T15:24:31Z</time>
      </trkpt>
      <trkpt lat="40.205633" lon="-4.986033">
        <ele>1764.0</ele>
        <time>2015-03-14T15:24:33Z</time>
      </trkpt>
      <trkpt lat="40.205567" lon="-4.986283">
        <ele>1761.0</ele>
        <time>2015-03-14T15:24:35Z</time>
      </trkpt>
      <trkpt lat="40.205517" lon="-4.986533">
        <ele>1759.0</ele>
        <time>2015-03-14T15:24:37Z</time>
      </trkpt>
      <trkpt lat="40.205433" lon="-4.986767">
        <ele>1758.0</ele>
        <time>2015-03-14T15:24:39Z</time>
      </trkpt>
      <trkpt lat="40.205367" lon="-4.987017">
        <ele>1754.0</ele>
        <time>2015-03-14T15:24:41Z</time>
      </trkpt>
      <trkpt lat="40.205300" lon="-4.987267">
        <ele>1751.0</ele>
        <time>2015-03-14T15:24:43Z</time>
      </trkpt>
      <trkpt lat="40.205217" lon="-4.987500">
        <ele>1750.0</ele>
        <time>2015-03-14T15:24:45Z</time>
      </trkpt>
      <trkpt lat="40.205133" lon="-4.987733">
        <ele>1747.0</ele>
        <time>2015-03-14T15:24:47Z</time>
      </trkpt>
      <trkpt lat="40.205050" lon="-4.987983">
        <ele>1744.0</ele>
        <time>2015-03-14T15:24:49Z</time>
      </trkpt>
      <trkpt lat="40.204983" lon="-4.988233">
        <ele>1743.0</ele>
        <time>2015-03-14T15:24:51Z</time>
      </trkpt>
      <trkpt lat="40.204900" lon="-4.988467">
        <ele>1742.0</ele>
        <time>2015-03-14T15:24:53Z</time>
      </trkpt>
      <trkpt lat="40.204800" lon="-4.988717">
        <ele>1739.0</ele>
        <time>2015-03-14T15:24:55Z</time>
      </trkpt>
      <trkpt lat="40.204667" lon="-4.988950">
        <ele>1736.0</ele>
        <time>2015-03-14T15:24:57Z</time>
      </trkpt>
      <trkpt lat="40.204533" lon="-4.989150">
        <ele>1733.0</ele>
        <time>2015-03-14T15:24:59Z</time>
      </trkpt>
      <trkpt lat="40.204367" lon="-4.989367">
        <ele>1729.0</ele>
        <time>2015-03-14T15:25:01Z</time>
      </trkpt>
      <trkpt lat="40.204233" lon="-4.989567">
        <ele>1726.0</ele>
        <time>2015-03-14T15:25:03Z</time>
      </trkpt>
      <trkpt lat="40.204083" lon="-4.989750">
        <ele>1724.0</ele>
        <time>2015-03-14T15:25:05Z</time>
      </trkpt>
      <trkpt lat="40.203967" lon="-4.989950">
        <ele>1721.0</ele>
        <time>2015-03-14T15:25:07Z</time>
      </trkpt>
      <trkpt lat="40.203833" lon="-4.990150">
        <ele>1717.0</ele>
        <time>2015-03-14T15:25:09Z</time>
      </trkpt>
      <trkpt lat="40.203700" lon="-4.990333">
        <ele>1714.0</ele>
        <time>2015-03-14T15:25:11Z</time>
      </trkpt>
      <trkpt lat="40.203583" lon="-4.990550">
        <ele>1712.0</ele>
        <time>2015-03-14T15:25:13Z</time>
      </trkpt>
      <trkpt lat="40.203483" lon="-4.990750">
        <ele>1709.0</ele>
        <time>2015-03-14T15:25:15Z</time>
      </trkpt>
      <trkpt lat="40.203400" lon="-4.990933">
        <ele>1708.0</ele>
        <time>2015-03-14T15:25:17Z</time>
      </trkpt>
      <trkpt lat="40.203333" lon="-4.991117">
        <ele>1705.0</ele>
        <time>2015-03-14T15:25:19Z</time>
      </trkpt>
      <trkpt lat="40.203233" lon="-4.991317">
        <ele>1701.0</ele>
        <time>2015-03-14T15:25:21Z</time>
      </trkpt>
      <trkpt lat="40.203167" lon="-4.991517">
        <ele>1698.0</ele>
        <time>2015-03-14T15:25:23Z</time>
      </trkpt>
      <trkpt lat="40.203133" lon="-4.991717">
        <ele>1695.0</ele>
        <time>2015-03-14T15:25:25Z</time>
      </trkpt>
      <trkpt lat="40.203083" lon="-4.991933">
        <ele>1691.0</ele>
        <time>2015-03-14T15:25:27Z</time>
      </trkpt>
      <trkpt lat="40.203050" lon="-4.992150">
        <ele>1686.0</ele>
        <time>2015-03-14T15:25:29Z</time>
      </trkpt>
      <trkpt lat="40.203000" lon="-4.992367">
        <ele>1682.0</ele>
        <time>2015-03-14T15:25:31Z</time>
      </trkpt>
      <trkpt lat="40.202933" lon="-4.992567">
        <ele>1679.0</ele>
        <time>2015-03-14T15:25:33Z</time>
      </trkpt>
      <trkpt lat="40.202867" lon="-4.992767">
        <ele>1674.0</ele>
        <time>2015-03-14T15:25:35Z</time>
      </trkpt>
      <trkpt lat="40.202783" lon="-4.992983">
        <ele>1669.0</ele>
        <time>2015-03-14T15:25:37Z</time>
      </trkpt>
      <trkpt lat="40.202733" lon="-4.993200">
        <ele>1665.0</ele>
        <time>2015-03-14T15:25:39Z</time>
      </trkpt>
      <trkpt lat="40.202683" lon="-4.993367">
        <ele>1662.0</ele>
        <time>2015-03-14T15:25:41Z</time>
      </trkpt>
      <trkpt lat="40.202600" lon="-4.993533">
        <ele>1659.0</ele>
        <time>2015-03-14T15:25:43Z</time>
      </trkpt>
      <trkpt lat="40.202500" lon="-4.993733">
        <ele>1653.0</ele>
        <time>2015-03-14T15:25:45Z</time>
      </trkpt>
      <trkpt lat="40.202417" lon="-4.993933">
        <ele>1652.0</ele>
        <time>2015-03-14T15:25:47Z</time>
      </trkpt>
      <trkpt lat="40.202333" lon="-4.994083">
        <ele>1651.0</ele>
        <time>2015-03-14T15:25:49Z</time>
      </trkpt>
      <trkpt lat="40.202233" lon="-4.994250">
        <ele>1648.0</ele>
        <time>2015-03-14T15:25:51Z</time>
      </trkpt>
      <trkpt lat="40.202133" lon="-4.994467">
        <ele>1644.0</ele>
        <time>2015-03-14T15:25:53Z</time>
      </trkpt>
      <trkpt lat="40.202033" lon="-4.994633">
        <ele>1644.0</ele>
        <time>2015-03-14T15:25:55Z</time>
      </trkpt>
      <trkpt lat="40.201950" lon="-4.994800">
        <ele>1642.0</ele>
        <time>2015-03-14T15:25:57Z</time>
      </trkpt>
      <trkpt lat="40.201850" lon="-4.995000">
        <ele>1638.0</ele>
        <time>2015-03-14T15:25:59Z</time>
      </trkpt>
      <trkpt lat="40.201717" lon="-4.995200">
        <ele>1636.0</ele>
        <time>2015-03-14T15:26:01Z</time>
      </trkpt>
      <trkpt lat="40.201600" lon="-4.995367">
        <ele>1637.0</ele>
        <time>2015-03-14T15:26:03Z</time>
      </trkpt>
      <trkpt lat="40.201483" lon="-4.995550">
        <ele>1635.0</ele>
        <time>2015-03-14T15:26:05Z</time>
      </trkpt>
      <trkpt lat="40.201333" lon="-4.995767">
        <ele>1634.0</ele>
        <time>2015-03-14T15:26:07Z</time>
      </trkpt>
      <trkpt lat="40.201233" lon="-4.995967">
        <ele>1637.0</ele>
        <time>2015-03-14T15:26:09Z</time>
      </trkpt>
      <trkpt lat="40.201133" lon="-4.996167">
        <ele>1639.0</ele>
        <time>2015-03-14T15:26:11Z</time>
      </trkpt>
      <trkpt lat="40.201100" lon="-4.996400">
        <ele>1639.0</ele>
        <time>2015-03-14T15:26:13Z</time>
      </trkpt>
      <trkpt lat="40.201100" lon="-4.996617">
        <ele>1640.0</ele>
        <time>2015-03-14T15:26:15Z</time>
      </trkpt>
      <trkpt lat="40.201100" lon="-4.996817">
        <ele>1642.0</ele>
        <time>2015-03-14T15:26:17Z</time>
      </trkpt>
      <trkpt lat="40.201167" lon="-4.997000">
        <ele>1642.0</ele>
        <time>2015-03-14T15:26:19Z</time>
      </trkpt>
      <trkpt lat="40.201267" lon="-4.997167">
        <ele>1638.0</ele>
        <time>2015-03-14T15:26:21Z</time>
      </trkpt>
      <trkpt lat="40.201350" lon="-4.997350">
        <ele>1636.0</ele>
        <time>2015-03-14T15:26:23Z</time>
      </trkpt>
      <trkpt lat="40.201367" lon="-4.997533">
        <ele>1634.0</ele>
        <time>2015-03-14T15:26:25Z</time>
      </trkpt>
      <trkpt lat="40.201350" lon="-4.997733">
        <ele>1631.0</ele>
        <time>2015-03-14T15:26:27Z</time>
      </trkpt>
      <trkpt lat="40.201283" lon="-4.997883">
        <ele>1630.0</ele>
        <time>2015-03-14T15:26:29Z</time>
      </trkpt>
      <trkpt lat="40.201217" lon="-4.998033">
        <ele>1628.0</ele>
        <time>2015-03-14T15:26:31Z</time>
      </trkpt>
      <trkpt lat="40.201150" lon="-4.998217">
        <ele>1626.0</ele>
        <time>2015-03-14T15:26:33Z</time>
      </trkpt>
      <trkpt lat="40.201050" lon="-4.998383">
        <ele>1623.0</ele>
        <time>2015-03-14T15:26:35Z</time>
      </trkpt>
      <trkpt lat="40.200933" lon="-4.998500">
        <ele>1622.0</ele>
        <time>2015-03-14T15:26:37Z</time>
      </trkpt>
      <trkpt lat="40.200817" lon="-4.998600">
        <ele>1620.0</ele>
        <time>2015-03-14T15:26:39Z</time>
      </trkpt>
      <trkpt lat="40.200700" lon="-4.998750">
        <ele>1617.0</ele>
        <time>2015-03-14T15:26:41Z</time>
      </trkpt>
      <trkpt lat="40.200617" lon="-4.998883">
        <ele>1617.0</ele>
        <time>2015-03-14T15:26:43Z</time>
      </trkpt>
      <trkpt lat="40.200533" lon="-4.999017">
        <ele>1617.0</ele>
        <time>2015-03-14T15:26:45Z</time>
      </trkpt>
      <trkpt lat="40.200450" lon="-4.999183">
        <ele>1613.0</ele>
        <time>2015-03-14T15:26:47Z</time>
      </trkpt>
      <trkpt lat="40.200350" lon="-4.999350">
        <ele>1609.0</ele>
        <time>2015-03-14T15:26:49Z</time>
      </trkpt>
      <trkpt lat="40.200267" lon="-4.999500">
        <ele>1607.0</ele>
        <time>2015-03-14T15:26:51Z</time>
      </trkpt>
      <trkpt lat="40.200200" lon="-4.999650">
        <ele>1603.0</ele>
        <time>2015-03-14T15:26:53Z</time>
      </trkpt>
      <trkpt lat="40.200050" lon="-4.999617">
        <ele>1600.0</ele>
        <time>2015-03-14T15:26:55Z</time>
      </trkpt>
      <trkpt lat="40.199917" lon="-4.999717">
        <ele>1594.0</ele>
        <time>2015-03-14T15:26:57Z</time>
      </trkpt>
      <trkpt lat="40.199800" lon="-4.999883">
        <ele>1591.0</ele>
        <time>2015-03-14T15:26:59Z</time>
      </trkpt>
      <trkpt lat="40.199700" lon="-5.000067">
        <ele>1588.0</ele>
        <time>2015-03-14T15:27:01Z</time>
      </trkpt>
      <trkpt lat="40.199617" lon="-5.000283">
        <ele>1582.0</ele>
        <time>2015-03-14T15:27:03Z</time>
      </trkpt>
      <trkpt lat="40.199533" lon="-5.000517">
        <ele>1577.0</ele>
        <time>2015-03-14T15:27:05Z</time>
      </trkpt>
      <trkpt lat="40.199467" lon="-5.000750">
        <ele>1576.0</ele>
        <time>2015-03-14T15:27:07Z</time>
      </trkpt>
      <trkpt lat="40.199417" lon="-5.000983">
        <ele>1574.0</ele>
        <time>2015-03-14T15:27:09Z</time>
      </trkpt>
      <trkpt lat="40.199333" lon="-5.001183">
        <ele>1571.0</ele>
        <time>2015-03-14T15:27:11Z</time>
      </trkpt>
      <trkpt lat="40.199250" lon="-5.001417">
        <ele>1566.0</ele>
        <time>2015-03-14T15:27:13Z</time>
      </trkpt>
      <trkpt lat="40.199150" lon="-5.001650">
        <ele>1562.0</ele>
        <time>2015-03-14T15:27:15Z</time>
      </trkpt>
      <trkpt lat="40.199033" lon="-5.001817">
        <ele>1562.0</ele>
        <time>2015-03-14T15:27:17Z</time>
      </trkpt>
      <trkpt lat="40.199000" lon="-5.002000">
        <ele>1560.0</ele>
        <time>2015-03-14T15:27:19Z</time>
      </trkpt>
      <trkpt lat="40.198950" lon="-5.002217">
        <ele>1554.0</ele>
        <time>2015-03-14T15:27:21Z</time>
      </trkpt>
      <trkpt lat="40.198883" lon="-5.002433">
        <ele>1551.0</ele>
        <time>2015-03-14T15:27:23Z</time>
      </trkpt>
      <trkpt lat="40.198867" lon="-5.002633">
        <ele>1549.0</ele>
        <time>2015-03-14T15:27:25Z</time>
      </trkpt>
      <trkpt lat="40.198833" lon="-5.002883">
        <ele>1544.0</ele>
        <time>2015-03-14T15:27:27Z</time>
      </trkpt>
      <trkpt lat="40.198800" lon="-5.003117">
        <ele>1540.0</ele>
        <time>2015-03-14T15:27:29Z</time>
      </trkpt>
      <trkpt lat="40.198783" lon="-5.003317">
        <ele>1538.0</ele>
        <time>2015-03-14T15:27:31Z</time>
      </trkpt>
      <trkpt lat="40.198767" lon="-5.003550">
        <ele>1533.0</ele>
        <time>2015-03-14T15:27:33Z</time>
      </trkpt>
      <trkpt lat="40.198750" lon="-5.003767">
        <ele>1529.0</ele>
        <time>2015-03-14T15:27:35Z</time>
      </trkpt>
      <trkpt lat="40.198767" lon="-5.003967">
        <ele>1528.0</ele>
        <time>2015-03-14T15:27:37Z</time>
      </trkpt>
      <trkpt lat="40.198750" lon="-5.004167">
        <ele>1525.0</ele>
        <time>2015-03-14T15:27:39Z</time>
      </trkpt>
      <trkpt lat="40.198717" lon="-5.004367">
        <ele>1522.0</ele>
        <time>2015-03-14T15:27:41Z</time>
      </trkpt>
      <trkpt lat="40.198683" lon="-5.004567">
        <ele>1518.0</ele>
        <time>2015-03-14T15:27:43Z</time>
      </trkpt>
      <trkpt lat="40.198650" lon="-5.004800">
        <ele>1513.0</ele>
        <time>2015-03-14T15:27:45Z</time>
      </trkpt>
      <trkpt lat="40.198583" lon="-5.005017">
        <ele>1508.0</ele>
        <time>2015-03-14T15:27:47Z</time>
      </trkpt>
      <trkpt lat="40.198483" lon="-5.005200">
        <ele>1504.0</ele>
        <time>2015-03-14T15:27:49Z</time>
      </trkpt>
      <trkpt lat="40.198400" lon="-5.005433">
        <ele>1499.0</ele>
        <time>2015-03-14T15:27:51Z</time>
      </trkpt>
      <trkpt lat="40.198333" lon="-5.005633">
        <ele>1498.0</ele>
        <time>2015-03-14T15:27:53Z</time>
      </trkpt>
      <trkpt lat="40.198283" lon="-5.005817">
        <ele>1495.0</ele>
        <time>2015-03-14T15:27:55Z</time>
      </trkpt>
      <trkpt lat="40.198250" lon="-5.006050">
        <ele>1490.0</ele>
        <time>2015-03-14T15:27:57Z</time>
      </trkpt>
      <trkpt lat="40.198200" lon="-5.006300">
        <ele>1486.0</ele>
        <time>2015-03-14T15:27:59Z</time>
      </trkpt>
      <trkpt lat="40.198167" lon="-5.006500">
        <ele>1485.0</ele>
        <time>2015-03-14T15:28:01Z</time>
      </trkpt>
      <trkpt lat="40.198117" lon="-5.006683">
        <ele>1481.0</ele>
        <time>2015-03-14T15:28:03Z</time>
      </trkpt>
      <trkpt lat="40.198050" lon="-5.006900">
        <ele>1477.0</ele>
        <time>2015-03-14T15:28:05Z</time>
      </trkpt>
      <trkpt lat="40.197983" lon="-5.007133">
        <ele>1472.0</ele>
        <time>2015-03-14T15:28:07Z</time>
      </trkpt>
      <trkpt lat="40.197917" lon="-5.007333">
        <ele>1471.0</ele>
        <time>2015-03-14T15:28:09Z</time>
      </trkpt>
      <trkpt lat="40.197867" lon="-5.007533">
        <ele>1469.0</ele>
        <time>2015-03-14T15:28:11Z</time>
      </trkpt>
      <trkpt lat="40.197817" lon="-5.007733">
        <ele>1464.0</ele>
        <time>2015-03-14T15:28:13Z</time>
      </trkpt>
      <trkpt lat="40.197750" lon="-5.007950">
        <ele>1460.0</ele>
        <time>2015-03-14T15:28:15Z</time>
      </trkpt>
      <trkpt lat="40.197700" lon="-5.008150">
        <ele>1458.0</ele>
        <time>2015-03-14T15:28:17Z</time>
      </trkpt>
      <trkpt lat="40.197650" lon="-5.008367">
        <ele>1454.0</ele>
        <time>2015-03-14T15:28:19Z</time>
      </trkpt>
      <trkpt lat="40.197600" lon="-5.008600">
        <ele>1452.0</ele>
        <time>2015-03-14T15:28:21Z</time>
      </trkpt>
      <trkpt lat="40.197583" lon="-5.008817">
        <ele>1450.0</ele>
        <time>2015-03-14T15:28:23Z</time>
      </trkpt>
      <trkpt lat="40.197567" lon="-5.009050">
        <ele>1447.0</ele>
        <time>2015-03-14T15:28:25Z</time>
      </trkpt>
      <trkpt lat="40.197517" lon="-5.009267">
        <ele>1445.0</ele>
        <time>2015-03-14T15:28:27Z</time>
      </trkpt>
      <trkpt lat="40.197450" lon="-5.009483">
        <ele>1442.0</ele>
        <time>2015-03-14T15:28:29Z</time>
      </trkpt>
      <trkpt lat="40.197383" lon="-5.009683">
        <ele>1440.0</ele>
        <time>2015-03-14T15:28:31Z</time>
      </trkpt>
      <trkpt lat="40.197283" lon="-5.009917">
        <ele>1438.0</ele>
        <time>2015-03-14T15:28:33Z</time>
      </trkpt>
      <trkpt lat="40.197233" lon="-5.010083">
        <ele>1444.0</ele>
        <time>2015-03-14T15:28:35Z</time>
      </trkpt>
      <trkpt lat="40.197233" lon="-5.010250">
        <ele>1448.0</ele>
        <time>2015-03-14T15:28:37Z</time>
      </trkpt>
      <trkpt lat="40.197283" lon="-5.010483">
        <ele>1447.0</ele>
        <time>2015-03-14T15:28:39Z</time>
      </trkpt>
      <trkpt lat="40.197333" lon="-5.010717">
        <ele>1449.0</ele>
        <time>2015-03-14T15:28:41Z</time>
      </trkpt>
      <trkpt lat="40.197400" lon="-5.010883">
        <ele>1452.0</ele>
        <time>2015-03-14T15:28:43Z</time>
      </trkpt>
      <trkpt lat="40.197517" lon="-5.011033">
        <ele>1452.0</ele>
        <time>2015-03-14T15:28:45Z</time>
      </trkpt>
      <trkpt lat="40.197650" lon="-5.011167">
        <ele>1451.0</ele>
        <time>2015-03-14T15:28:47Z</time>
      </trkpt>
      <trkpt lat="40.197800" lon="-5.011233">
        <ele>1451.0</ele>
        <time>2015-03-14T15:28:49Z</time>
      </trkpt>
      <trkpt lat="40.197983" lon="-5.011233">
        <ele>1448.0</ele>
        <time>2015-03-14T15:28:51Z</time>
      </trkpt>
      <trkpt lat="40.198200" lon="-5.011183">
        <ele>1444.0</ele>
        <time>2015-03-14T15:28:53Z</time>
      </trkpt>
      <trkpt lat="40.198350" lon="-5.011033">
        <ele>1444.0</ele>
        <time>2015-03-14T15:28:55Z</time>
      </trkpt>
      <trkpt lat="40.198467" lon="-5.010833">
        <ele>1442.0</ele>
        <time>2015-03-14T15:28:57Z</time>
      </trkpt>
      <trkpt lat="40.198500" lon="-5.010600">
        <ele>1440.0</ele>
        <time>2015-03-14T15:28:59Z</time>
      </trkpt>
      <trkpt lat="40.198400" lon="-5.010400">
        <ele>1439.0</ele>
        <time>2015-03-14T15:29:01Z</time>
      </trkpt>
      <trkpt lat="40.198333" lon="-5.010250">
        <ele>1439.0</ele>
        <time>2015-03-14T15:29:03Z</time>
      </trkpt>
      <trkpt lat="40.198217" lon="-5.010133">
        <ele>1436.0</ele>
        <time>2015-03-14T15:29:05Z</time>
      </trkpt>
      <trkpt lat="40.198033" lon="-5.010050">
        <ele>1430.0</ele>
        <time>2015-03-14T15:29:07Z</time>
      </trkpt>
      <trkpt lat="40.197867" lon="-5.009917">
        <ele>1430.0</ele>
        <time>2015-03-14T15:29:09Z</time>
      </trkpt>
      <trkpt lat="40.197750" lon="-5.009733">
        <ele>1432.0</ele>
        <time>2015-03-14T15:29:11Z</time>
      </trkpt>
      <trkpt lat="40.197633" lon="-5.009583">
        <ele>1434.0</ele>
        <time>2015-03-14T15:29:13Z</time>
      </trkpt>
      <trkpt lat="40.197483" lon="-5.009500">
        <ele>1435.0</ele>
        <time>2015-03-14T15:29:15Z</time>
      </trkpt>
      <trkpt lat="40.197333" lon="-5.009500">
        <ele>1435.0</ele>
        <time>2015-03-14T15:29:17Z</time>
      </trkpt>
      <trkpt lat="40.197183" lon="-5.009550">
        <ele>1436.0</ele>
        <time>2015-03-14T15:29:19Z</time>
      </trkpt>
      <trkpt lat="40.197083" lon="-5.009650">
        <ele>1436.0</ele>
        <time>2015-03-14T15:29:21Z</time>
      </trkpt>
      <trkpt lat="40.197000" lon="-5.009800">
        <ele>1434.0</ele>
        <time>2015-03-14T15:29:23Z</time>
      </trkpt>
      <trkpt lat="40.196950" lon="-5.009983">
        <ele>1431.0</ele>
        <time>2015-03-14T15:29:25Z</time>
      </trkpt>
      <trkpt lat="40.196933" lon="-5.010167">
        <ele>1429.0</ele>
        <time>2015-03-14T15:29:27Z</time>
      </trkpt>
      <trkpt lat="40.196950" lon="-5.010350">
        <ele>1425.0</ele>
        <time>2015-03-14T15:29:29Z</time>
      </trkpt>
      <trkpt lat="40.197000" lon="-5.010583">
        <ele>1422.0</ele>
        <time>2015-03-14T15:29:31Z</time>
      </trkpt>
      <trkpt lat="40.197083" lon="-5.010783">
        <ele>1421.0</ele>
        <time>2015-03-14T15:29:33Z</time>
      </trkpt>
      <trkpt lat="40.197100" lon="-5.010983">
        <ele>1419.0</ele>
        <time>2015-03-14T15:29:35Z</time>
      </trkpt>
      <trkpt lat="40.197117" lon="-5.011217">
        <ele>1415.0</ele>
        <time>2015-03-14T15:29:37Z</time>
      </trkpt>
      <trkpt lat="40.197133" lon="-5.011467">
        <ele>1415.0</ele>
        <time>2015-03-14T15:29:39Z</time>
      </trkpt>
      <trkpt lat="40.197167" lon="-5.011650">
        <ele>1418.0</ele>
        <time>2015-03-14T15:29:41Z</time>
      </trkpt>
      <trkpt lat="40.197217" lon="-5.011817">
        <ele>1418.0</ele>
        <time>2015-03-14T15:29:43Z</time>
      </trkpt>
      <trkpt lat="40.197283" lon="-5.012033">
        <ele>1416.0</ele>
        <time>2015-03-14T15:29:45Z</time>
      </trkpt>
      <trkpt lat="40.197367" lon="-5.012183">
        <ele>1417.0</ele>
        <time>2015-03-14T15:29:47Z</time>
      </trkpt>
      <trkpt lat="40.197483" lon="-5.012300">
        <ele>1416.0</ele>
        <time>2015-03-14T15:29:49Z</time>
      </trkpt>
      <trkpt lat="40.197650" lon="-5.012400">
        <ele>1412.0</ele>
        <time>2015-03-14T15:29:51Z</time>
      </trkpt>
      <trkpt lat="40.197800" lon="-5.012500">
        <ele>1410.0</ele>
        <time>2015-03-14T15:29:53Z</time>
      </trkpt>
      <trkpt lat="40.197883" lon="-5.012650">
        <ele>1409.0</ele>
        <time>2015-03-14T15:29:55Z</time>
      </trkpt>
      <trkpt lat="40.197950" lon="-5.012850">
        <ele>1404.0</ele>
        <time>2015-03-14T15:29:57Z</time>
      </trkpt>
      <trkpt lat="40.197983" lon="-5.013050">
        <ele>1400.0</ele>
        <time>2015-03-14T15:29:59Z</time>
      </trkpt>
      <trkpt lat="40.198000" lon="-5.013250">
        <ele>1399.0</ele>
        <time>2015-03-14T15:30:01Z</time>
      </trkpt>
      <trkpt lat="40.198017" lon="-5.013467">
        <ele>1397.0</ele>
        <time>2015-03-14T15:30:03Z</time>
      </trkpt>
      <trkpt lat="40.198017" lon="-5.013650">
        <ele>1397.0</ele>
        <time>2015-03-14T15:30:05Z</time>
      </trkpt>
      <trkpt lat="40.198000" lon="-5.013850">
        <ele>1395.0</ele>
        <time>2015-03-14T15:30:07Z</time>
      </trkpt>
      <trkpt lat="40.197950" lon="-5.014050">
        <ele>1393.0</ele>
        <time>2015-03-14T15:30:09Z</time>
      </trkpt>
      <trkpt lat="40.197900" lon="-5.014233">
        <ele>1392.0</ele>
        <time>2015-03-14T15:30:11Z</time>
      </trkpt>
      <trkpt lat="40.197817" lon="-5.014417">
        <ele>1390.0</ele>
        <time>2015-03-14T15:30:13Z</time>
      </trkpt>
      <trkpt lat="40.197733" lon="-5.014600">
        <ele>1388.0</ele>
        <time>2015-03-14T15:30:15Z</time>
      </trkpt>
      <trkpt lat="40.197650" lon="-5.014750">
        <ele>1387.0</ele>
        <time>2015-03-14T15:30:17Z</time>
      </trkpt>
      <trkpt lat="40.197567" lon="-5.014917">
        <ele>1385.0</ele>
        <time>2015-03-14T15:30:19Z</time>
      </trkpt>
      <trkpt lat="40.197500" lon="-5.015167">
        <ele>1382.0</ele>
        <time>2015-03-14T15:30:21Z</time>
      </trkpt>
      <trkpt lat="40.197517" lon="-5.015283">
        <ele>1378.0</ele>
        <time>2015-03-14T15:30:23Z</time>
      </trkpt>
      <trkpt lat="40.197433" lon="-5.015383">
        <ele>1368.0</ele>
        <time>2015-03-14T15:30:25Z</time>
      </trkpt>
      <trkpt lat="40.197267" lon="-5.015517">
        <ele>1366.0</ele>
        <time>2015-03-14T15:30:27Z</time>
      </trkpt>
      <trkpt lat="40.197133" lon="-5.015667">
        <ele>1364.0</ele>
        <time>2015-03-14T15:30:29Z</time>
      </trkpt>
      <trkpt lat="40.197000" lon="-5.015800">
        <ele>1362.0</ele>
        <time>2015-03-14T15:30:31Z</time>
      </trkpt>
      <trkpt lat="40.196850" lon="-5.015950">
        <ele>1360.0</ele>
        <time>2015-03-14T15:30:33Z</time>
      </trkpt>
      <trkpt lat="40.196733" lon="-5.016133">
        <ele>1359.0</ele>
        <time>2015-03-14T15:30:35Z</time>
      </trkpt>
      <trkpt lat="40.196600" lon="-5.016317">
        <ele>1357.0</ele>
        <time>2015-03-14T15:30:37Z</time>
      </trkpt>
      <trkpt lat="40.196483" lon="-5.016483">
        <ele>1357.0</ele>
        <time>2015-03-14T15:30:39Z</time>
      </trkpt>
      <trkpt lat="40.196367" lon="-5.016667">
        <ele>1356.0</ele>
        <time>2015-03-14T15:30:41Z</time>
      </trkpt>
      <trkpt lat="40.196217" lon="-5.016833">
        <ele>1354.0</ele>
        <time>2015-03-14T15:30:43Z</time>
      </trkpt>
      <trkpt lat="40.196083" lon="-5.017017">
        <ele>1355.0</ele>
        <time>2015-03-14T15:30:45Z</time>
      </trkpt>
      <trkpt lat="40.195967" lon="-5.017167">
        <ele>1355.0</ele>
        <time>2015-03-14T15:30:47Z</time>
      </trkpt>
      <trkpt lat="40.195867" lon="-5.017333">
        <ele>1355.0</ele>
        <time>2015-03-14T15:30:49Z</time>
      </trkpt>
      <trkpt lat="40.195767" lon="-5.017500">
        <ele>1357.0</ele>
        <time>2015-03-14T15:30:51Z</time>
      </trkpt>
      <trkpt lat="40.195700" lon="-5.017650">
        <ele>1360.0</ele>
        <time>2015-03-14T15:30:53Z</time>
      </trkpt>
      <trkpt lat="40.195650" lon="-5.017817">
        <ele>1360.0</ele>
        <time>2015-03-14T15:30:55Z</time>
      </trkpt>
      <trkpt lat="40.195617" lon="-5.018033">
        <ele>1358.0</ele>
        <time>2015-03-14T15:30:57Z</time>
      </trkpt>
      <trkpt lat="40.195567" lon="-5.018217">
        <ele>1356.0</ele>
        <time>2015-03-14T15:30:59Z</time>
      </trkpt>
      <trkpt lat="40.195483" lon="-5.018400">
        <ele>1353.0</ele>
        <time>2015-03-14T15:31:01Z</time>
      </trkpt>
      <trkpt lat="40.195383" lon="-5.018617">
        <ele>1348.0</ele>
        <time>2015-03-14T15:31:03Z</time>
      </trkpt>
      <trkpt lat="40.195283" lon="-5.018800">
        <ele>1345.0</ele>
        <time>2015-03-14T15:31:05Z</time>
      </trkpt>
      <trkpt lat="40.195167" lon="-5.018983">
        <ele>1345.0</ele>
        <time>2015-03-14T15:31:07Z</time>
      </trkpt>
      <trkpt lat="40.195067" lon="-5.019183">
        <ele>1343.0</ele>
        <time>2015-03-14T15:31:09Z</time>
      </trkpt>
      <trkpt lat="40.194967" lon="-5.019400">
        <ele>1341.0</ele>
        <time>2015-03-14T15:31:11Z</time>
      </trkpt>
      <trkpt lat="40.194883" lon="-5.019600">
        <ele>1339.0</ele>
        <time>2015-03-14T15:31:13Z</time>
      </trkpt>
      <trkpt lat="40.194800" lon="-5.019817">
        <ele>1338.0</ele>
        <time>2015-03-14T15:31:15Z</time>
      </trkpt>
      <trkpt lat="40.194717" lon="-5.020050">
        <ele>1335.0</ele>
        <time>2015-03-14T15:31:17Z</time>
      </trkpt>
      <trkpt lat="40.194617" lon="-5.020267">
        <ele>1333.0</ele>
        <time>2015-03-14T15:31:19Z</time>
      </trkpt>
      <trkpt lat="40.194550" lon="-5.020467">
        <ele>1332.0</ele>
        <time>2015-03-14T15:31:21Z</time>
      </trkpt>
      <trkpt lat="40.194467" lon="-5.020683">
        <ele>1329.0</ele>
        <time>2015-03-14T15:31:23Z</time>
      </trkpt>
      <trkpt lat="40.194400" lon="-5.020883">
        <ele>1328.0</ele>
        <time>2015-03-14T15:31:25Z</time>
      </trkpt>
      <trkpt lat="40.194333" lon="-5.021100">
        <ele>1326.0</ele>
        <time>2015-03-14T15:31:27Z</time>
      </trkpt>
      <trkpt lat="40.194300" lon="-5.021350">
        <ele>1324.0</ele>
        <time>2015-03-14T15:31:29Z</time>
      </trkpt>
      <trkpt lat="40.194283" lon="-5.021583">
        <ele>1324.0</ele>
        <time>2015-03-14T15:31:31Z</time>
      </trkpt>
      <trkpt lat="40.194267" lon="-5.021783">
        <ele>1322.0</ele>
        <time>2015-03-14T15:31:33Z</time>
      </trkpt>
      <trkpt lat="40.194217" lon="-5.022017">
        <ele>1319.0</ele>
        <time>2015-03-14T15:31:35Z</time>
      </trkpt>
      <trkpt lat="40.194167" lon="-5.022267">
        <ele>1316.0</ele>
        <time>2015-03-14T15:31:37Z</time>
      </trkpt>
      <trkpt lat="40.194133" lon="-5.022483">
        <ele>1316.0</ele>
        <time>2015-03-14T15:31:39Z</time>
      </trkpt>
      <trkpt lat="40.194050" lon="-5.022650">
        <ele>1317.0</ele>
        <time>2015-03-14T15:31:41Z</time>
      </trkpt>
      <trkpt lat="40.193950" lon="-5.022833">
        <ele>1314.0</ele>
        <time>2015-03-14T15:31:43Z</time>
      </trkpt>
      <trkpt lat="40.193850" lon="-5.023033">
        <ele>1312.0</ele>
        <time>2015-03-14T15:31:45Z</time>
      </trkpt>
      <trkpt lat="40.193750" lon="-5.023250">
        <ele>1311.0</ele>
        <time>2015-03-14T15:31:47Z</time>
      </trkpt>
      <trkpt lat="40.193667" lon="-5.023433">
        <ele>1310.0</ele>
        <time>2015-03-14T15:31:49Z</time>
      </trkpt>
      <trkpt lat="40.193583" lon="-5.023650">
        <ele>1308.0</ele>
        <time>2015-03-14T15:31:51Z</time>
      </trkpt>
      <trkpt lat="40.193500" lon="-5.023833">
        <ele>1305.0</ele>
        <time>2015-03-14T15:31:53Z</time>
      </trkpt>
      <trkpt lat="40.193400" lon="-5.024017">
        <ele>1304.0</ele>
        <time>2015-03-14T15:31:55Z</time>
      </trkpt>
      <trkpt lat="40.193350" lon="-5.024200">
        <ele>1304.0</ele>
        <time>2015-03-14T15:31:57Z</time>
      </trkpt>
      <trkpt lat="40.193300" lon="-5.024350">
        <ele>1304.0</ele>
        <time>2015-03-14T15:31:59Z</time>
      </trkpt>
      <trkpt lat="40.193217" lon="-5.024533">
        <ele>1299.0</ele>
        <time>2015-03-14T15:32:01Z</time>
      </trkpt>
      <trkpt lat="40.193117" lon="-5.024750">
        <ele>1293.0</ele>
        <time>2015-03-14T15:32:03Z</time>
      </trkpt>
      <trkpt lat="40.193033" lon="-5.024900">
        <ele>1291.0</ele>
        <time>2015-03-14T15:32:05Z</time>
      </trkpt>
      <trkpt lat="40.192950" lon="-5.025067">
        <ele>1287.0</ele>
        <time>2015-03-14T15:32:07Z</time>
      </trkpt>
      <trkpt lat="40.192850" lon="-5.025250">
        <ele>1280.0</ele>
        <time>2015-03-14T15:32:09Z</time>
      </trkpt>
      <trkpt lat="40.192767" lon="-5.025450">
        <ele>1277.0</ele>
        <time>2015-03-14T15:32:11Z</time>
      </trkpt>
      <trkpt lat="40.192683" lon="-5.025600">
        <ele>1276.0</ele>
        <time>2015-03-14T15:32:13Z</time>
      </trkpt>
      <trkpt lat="40.192600" lon="-5.025783">
        <ele>1271.0</ele>
        <time>2015-03-14T15:32:15Z</time>
      </trkpt>
      <trkpt lat="40.192533" lon="-5.025983">
        <ele>1267.0</ele>
        <time>2015-03-14T15:32:17Z</time>
      </trkpt>
      <trkpt lat="40.192450" lon="-5.026167">
        <ele>1264.0</ele>
        <time>2015-03-14T15:32:19Z</time>
      </trkpt>
      <trkpt lat="40.192383" lon="-5.026383">
        <ele>1260.0</ele>
        <time>2015-03-14T15:32:21Z</time>
      </trkpt>
      <trkpt lat="40.192267" lon="-5.026583">
        <ele>1255.0</ele>
        <time>2015-03-14T15:32:23Z</time>
      </trkpt>
      <trkpt lat="40.192183" lon="-5.026750">
        <ele>1251.0</ele>
        <time>2015-03-14T15:32:25Z</time>
      </trkpt>
      <trkpt lat="40.192100" lon="-5.026933">
        <ele>1246.0</ele>
        <time>2015-03-14T15:32:27Z</time>
      </trkpt>
      <trkpt lat="40.192017" lon="-5.027133">
        <ele>1239.0</ele>
        <time>2015-03-14T15:32:29Z</time>
      </trkpt>
      <trkpt lat="40.191950" lon="-5.027317">
        <ele>1233.0</ele>
        <time>2015-03-14T15:32:31Z</time>
      </trkpt>
      <trkpt lat="40.191867" lon="-5.027483">
        <ele>1227.0</ele>
        <time>2015-03-14T15:32:33Z</time>
      </trkpt>
      <trkpt lat="40.191783" lon="-5.027700">
        <ele>1220.0</ele>
        <time>2015-03-14T15:32:35Z</time>
      </trkpt>
      <trkpt lat="40.191717" lon="-5.027867">
        <ele>1215.0</ele>
        <time>2015-03-14T15:32:37Z</time>
      </trkpt>
      <trkpt lat="40.191650" lon="-5.028083">
        <ele>1208.0</ele>
        <time>2015-03-14T15:32:39Z</time>
      </trkpt>
      <trkpt lat="40.191583" lon="-5.028317">
        <ele>1200.0</ele>
        <time>2015-03-14T15:32:41Z</time>
      </trkpt>
      <trkpt lat="40.191533" lon="-5.028533">
        <ele>1194.0</ele>
        <time>2015-03-14T15:32:43Z</time>
      </trkpt>
      <trkpt lat="40.191483" lon="-5.028767">
        <ele>1188.0</ele>
        <time>2015-03-14T15:32:45Z</time>
      </trkpt>
      <trkpt lat="40.191400" lon="-5.029017">
        <ele>1185.0</ele>
        <time>2015-03-14T15:32:47Z</time>
      </trkpt>
      <trkpt lat="40.191300" lon="-5.029183">
        <ele>1184.0</ele>
        <time>2015-03-14T15:32:49Z</time>
      </trkpt>
      <trkpt lat="40.191217" lon="-5.029417">
        <ele>1181.0</ele>
        <time>2015-03-14T15:32:51Z</time>
      </trkpt>
      <trkpt lat="40.191100" lon="-5.029633">
        <ele>1177.0</ele>
        <time>2015-03-14T15:32:53Z</time>
      </trkpt>
      <trkpt lat="40.191017" lon="-5.029850">
        <ele>1176.0</ele>
        <time>2015-03-14T15:32:55Z</time>
      </trkpt>
      <trkpt lat="40.190933" lon="-5.030083">
        <ele>1174.0</ele>
        <time>2015-03-14T15:32:57Z</time>
      </trkpt>
      <trkpt lat="40.190850" lon="-5.030317">
        <ele>1172.0</ele>
        <time>2015-03-14T15:32:59Z</time>
      </trkpt>
      <trkpt lat="40.190767" lon="-5.030533">
        <ele>1172.0</ele>
        <time>2015-03-14T15:33:01Z</time>
      </trkpt>
      <trkpt lat="40.190683" lon="-5.030717">
        <ele>1173.0</ele>
        <time>2015-03-14T15:33:03Z</time>
      </trkpt>
      <trkpt lat="40.190600" lon="-5.030867">
        <ele>1173.0</ele>
        <time>2015-03-14T15:33:05Z</time>
      </trkpt>
      <trkpt lat="40.190517" lon="-5.031033">
        <ele>1172.0</ele>
        <time>2015-03-14T15:33:07Z</time>
      </trkpt>
      <trkpt lat="40.190467" lon="-5.031200">
        <ele>1170.0</ele>
        <time>2015-03-14T15:33:09Z</time>
      </trkpt>
      <trkpt lat="40.190383" lon="-5.031367">
        <ele>1169.0</ele>
        <time>2015-03-14T15:33:11Z</time>
      </trkpt>
      <trkpt lat="40.190317" lon="-5.031533">
        <ele>1166.0</ele>
        <time>2015-03-14T15:33:13Z</time>
      </trkpt>
      <trkpt lat="40.190250" lon="-5.031717">
        <ele>1163.0</ele>
        <time>2015-03-14T15:33:15Z</time>
      </trkpt>
      <trkpt lat="40.190200" lon="-5.031900">
        <ele>1160.0</ele>
        <time>2015-03-14T15:33:17Z</time>
      </trkpt>
      <trkpt lat="40.190150" lon="-5.032100">
        <ele>1157.0</ele>
        <time>2015-03-14T15:33:19Z</time>
      </trkpt>
      <trkpt lat="40.190100" lon="-5.032300">
        <ele>1155.0</ele>
        <time>2015-03-14T15:33:21Z</time>
      </trkpt>
      <trkpt lat="40.190033" lon="-5.032500">
        <ele>1151.0</ele>
        <time>2015-03-14T15:33:23Z</time>
      </trkpt>
      <trkpt lat="40.189967" lon="-5.032683">
        <ele>1148.0</ele>
        <time>2015-03-14T15:33:25Z</time>
      </trkpt>
      <trkpt lat="40.189917" lon="-5.032850">
        <ele>1145.0</ele>
        <time>2015-03-14T15:33:27Z</time>
      </trkpt>
      <trkpt lat="40.189867" lon="-5.033050">
        <ele>1140.0</ele>
        <time>2015-03-14T15:33:29Z</time>
      </trkpt>
      <trkpt lat="40.189800" lon="-5.033267">
        <ele>1134.0</ele>
        <time>2015-03-14T15:33:31Z</time>
      </trkpt>
      <trkpt lat="40.189750" lon="-5.033483">
        <ele>1131.0</ele>
        <time>2015-03-14T15:33:33Z</time>
      </trkpt>
      <trkpt lat="40.189683" lon="-5.033667">
        <ele>1131.0</ele>
        <time>2015-03-14T15:33:35Z</time>
      </trkpt>
      <trkpt lat="40.189650" lon="-5.033833">
        <ele>1131.0</ele>
        <time>2015-03-14T15:33:37Z</time>
      </trkpt>
      <trkpt lat="40.189650" lon="-5.034033">
        <ele>1129.0</ele>
        <time>2015-03-14T15:33:39Z</time>
      </trkpt>
      <trkpt lat="40.189667" lon="-5.034267">
        <ele>1127.0</ele>
        <time>2015-03-14T15:33:41Z</time>
      </trkpt>
      <trkpt lat="40.189683" lon="-5.034483">
        <ele>1127.0</ele>
        <time>2015-03-14T15:33:43Z</time>
      </trkpt>
      <trkpt lat="40.189683" lon="-5.034683">
        <ele>1127.0</ele>
        <time>2015-03-14T15:33:45Z</time>
      </trkpt>
      <trkpt lat="40.189683" lon="-5.034883">
        <ele>1129.0</ele>
        <time>2015-03-14T15:33:47Z</time>
      </trkpt>
      <trkpt lat="40.189667" lon="-5.035067">
        <ele>1130.0</ele>
        <time>2015-03-14T15:33:49Z</time>
      </trkpt>
      <trkpt lat="40.189617" lon="-5.035233">
        <ele>1129.0</ele>
        <time>2015-03-14T15:33:51Z</time>
      </trkpt>
      <trkpt lat="40.189533" lon="-5.035400">
        <ele>1128.0</ele>
        <time>2015-03-14T15:33:53Z</time>
      </trkpt>
      <trkpt lat="40.189450" lon="-5.035550">
        <ele>1129.0</ele>
        <time>2015-03-14T15:33:55Z</time>
      </trkpt>
      <trkpt lat="40.189317" lon="-5.035650">
        <ele>1130.0</ele>
        <time>2015-03-14T15:33:57Z</time>
      </trkpt>
      <trkpt lat="40.189200" lon="-5.035767">
        <ele>1130.0</ele>
        <time>2015-03-14T15:33:59Z</time>
      </trkpt>
      <trkpt lat="40.189133" lon="-5.035867">
        <ele>1132.0</ele>
        <time>2015-03-14T15:34:01Z</time>
      </trkpt>
      <trkpt lat="40.189083" lon="-5.036000">
        <ele>1132.0</ele>
        <time>2015-03-14T15:34:03Z</time>
      </trkpt>
      <trkpt lat="40.189033" lon="-5.036167">
        <ele>1131.0</ele>
        <time>2015-03-14T15:34:05Z</time>
      </trkpt>
      <trkpt lat="40.189033" lon="-5.036367">
        <ele>1131.0</ele>
        <time>2015-03-14T15:34:07Z</time>
      </trkpt>
      <trkpt lat="40.189017" lon="-5.036550">
        <ele>1133.0</ele>
        <time>2015-03-14T15:34:09Z</time>
      </trkpt>
      <trkpt lat="40.188967" lon="-5.036700">
        <ele>1134.0</ele>
        <time>2015-03-14T15:34:11Z</time>
      </trkpt>
      <trkpt lat="40.188900" lon="-5.036817">
        <ele>1135.0</ele>
        <time>2015-03-14T15:34:13Z</time>
      </trkpt>
      <trkpt lat="40.188800" lon="-5.036883">
        <ele>1136.0</ele>
        <time>2015-03-14T15:34:15Z</time>
      </trkpt>
      <trkpt lat="40.188683" lon="-5.036900">
        <ele>1137.0</ele>
        <time>2015-03-14T15:34:17Z</time>
      </trkpt>
      <trkpt lat="40.188600" lon="-5.036867">
        <ele>1138.0</ele>
        <time>2015-03-14T15:34:19Z</time>
      </trkpt>
      <trkpt lat="40.188533" lon="-5.036750">
        <ele>1138.0</ele>
        <time>2015-03-14T15:34:21Z</time>
      </trkpt>
      <trkpt lat="40.188467" lon="-5.036583">
        <ele>1135.0</ele>
        <time>2015-03-14T15:34:23Z</time>
      </trkpt>
      <trkpt lat="40.188483" lon="-5.036333">
        <ele>1131.0</ele>
        <time>2015-03-14T15:34:25Z</time>
      </trkpt>
      <trkpt lat="40.188583" lon="-5.036100">
        <ele>1129.0</ele>
        <time>2015-03-14T15:34:27Z</time>
      </trkpt>
      <trkpt lat="40.188767" lon="-5.035933">
        <ele>1127.0</ele>
        <time>2015-03-14T15:34:29Z</time>
      </trkpt>
      <trkpt lat="40.189000" lon="-5.035850">
        <ele>1127.0</ele>
        <time>2015-03-14T15:34:31Z</time>
      </trkpt>
      <trkpt lat="40.189200" lon="-5.035850">
        <ele>1128.0</ele>
        <time>2015-03-14T15:34:33Z</time>
      </trkpt>
      <trkpt lat="40.189400" lon="-5.035900">
        <ele>1128.0</ele>
        <time>2015-03-14T15:34:35Z</time>
      </trkpt>
      <trkpt lat="40.189583" lon="-5.036000">
        <ele>1127.0</ele>
        <time>2015-03-14T15:34:37Z</time>
      </trkpt>
      <trkpt lat="40.189733" lon="-5.036150">
        <ele>1127.0</ele>
        <time>2015-03-14T15:34:39Z</time>
      </trkpt>
      <trkpt lat="40.189850" lon="-5.036283">
        <ele>1128.0</ele>
        <time>2015-03-14T15:34:41Z</time>
      </trkpt>
      <trkpt lat="40.189950" lon="-5.036450">
        <ele>1127.0</ele>
        <time>2015-03-14T15:34:43Z</time>
      </trkpt>
      <trkpt lat="40.190050" lon="-5.036667">
        <ele>1126.0</ele>
        <time>2015-03-14T15:34:45Z</time>
      </trkpt>
      <trkpt lat="40.190117" lon="-5.036850">
        <ele>1129.0</ele>
        <time>2015-03-14T15:34:47Z</time>
      </trkpt>
      <trkpt lat="40.190233" lon="-5.036967">
        <ele>1133.0</ele>
        <time>2015-03-14T15:34:49Z</time>
      </trkpt>
      <trkpt lat="40.190400" lon="-5.037067">
        <ele>1132.0</ele>
        <time>2015-03-14T15:34:51Z</time>
      </trkpt>
      <trkpt lat="40.190600" lon="-5.037083">
        <ele>1132.0</ele>
        <time>2015-03-14T15:34:53Z</time>
      </trkpt>
      <trkpt lat="40.190800" lon="-5.037017">
        <ele>1134.0</ele>
        <time>2015-03-14T15:34:55Z</time>
      </trkpt>
      <trkpt lat="40.190950" lon="-5.036900">
        <ele>1137.0</ele>
        <time>2015-03-14T15:34:57Z</time>
      </trkpt>
      <trkpt lat="40.191067" lon="-5.036683">
        <ele>1137.0</ele>
        <time>2015-03-14T15:34:59Z</time>
      </trkpt>
      <trkpt lat="40.191100" lon="-5.036450">
        <ele>1136.0</ele>
        <time>2015-03-14T15:35:01Z</time>
      </trkpt>
      <trkpt lat="40.191050" lon="-5.036283">
        <ele>1138.0</ele>
        <time>2015-03-14T15:35:03Z</time>
      </trkpt>
      <trkpt lat="40.190983" lon="-5.036150">
        <ele>1138.0</ele>
        <time>2015-03-14T15:35:05Z</time>
      </trkpt>
      <trkpt lat="40.190867" lon="-5.036033">
        <ele>1135.0</ele>
        <time>2015-03-14T15:35:07Z</time>
      </trkpt>
      <trkpt lat="40.190733" lon="-5.036033">
        <ele>1134.0</ele>
        <time>2015-03-14T15:35:09Z</time>
      </trkpt>
      <trkpt lat="40.190633" lon="-5.036083">
        <ele>1135.0</ele>
        <time>2015-03-14T15:35:11Z</time>
      </trkpt>
      <trkpt lat="40.190550" lon="-5.036200">
        <ele>1134.0</ele>
        <time>2015-03-14T15:35:13Z</time>
      </trkpt>
      <trkpt lat="40.190500" lon="-5.036367">
        <ele>1133.0</ele>
        <time>2015-03-14T15:35:15Z</time>
      </trkpt>
      <trkpt lat="40.190500" lon="-5.036533">
        <ele>1135.0</ele>
        <time>2015-03-14T15:35:17Z</time>
      </trkpt>
      <trkpt lat="40.190533" lon="-5.036700">
        <ele>1136.0</ele>
        <time>2015-03-14T15:35:19Z</time>
      </trkpt>
      <trkpt lat="40.190617" lon="-5.036867">
        <ele>1135.0</ele>
        <time>2015-03-14T15:35:21Z</time>
      </trkpt>
      <trkpt lat="40.190717" lon="-5.037033">
        <ele>1135.0</ele>
        <time>2015-03-14T15:35:23Z</time>
      </trkpt>
      <trkpt lat="40.190850" lon="-5.037183">
        <ele>1135.0</ele>
        <time>2015-03-14T15:35:25Z</time>
      </trkpt>
      <trkpt lat="40.191017" lon="-5.037317">
        <ele>1134.0</ele>
        <time>2015-03-14T15:35:27Z</time>
      </trkpt>
      <trkpt lat="40.191217" lon="-5.037433">
        <ele>1134.0</ele>
        <time>2015-03-14T15:35:29Z</time>
      </trkpt>
      <trkpt lat="40.191433" lon="-5.037500">
        <ele>1136.0</ele>
        <time>2015-03-14T15:35:31Z</time>
      </trkpt>
      <trkpt lat="40.191633" lon="-5.037550">
        <ele>1140.0</ele>
        <time>2015-03-14T15:35:33Z</time>
      </trkpt>
      <trkpt lat="40.191833" lon="-5.037567">
        <ele>1142.0</ele>
        <time>2015-03-14T15:35:35Z</time>
      </trkpt>
      <trkpt lat="40.192067" lon="-5.037533">
        <ele>1143.0</ele>
        <time>2015-03-14T15:35:37Z</time>
      </trkpt>
      <trkpt lat="40.192233" lon="-5.037433">
        <ele>1146.0</ele>
        <time>2015-03-14T15:35:39Z</time>
      </trkpt>
      <trkpt lat="40.192350" lon="-5.037250">
        <ele>1148.0</ele>
        <time>2015-03-14T15:35:41Z</time>
      </trkpt>
      <trkpt lat="40.192400" lon="-5.037067">
        <ele>1150.0</ele>
        <time>2015-03-14T15:35:43Z</time>
      </trkpt>
      <trkpt lat="40.192417" lon="-5.036900">
        <ele>1154.0</ele>
        <time>2015-03-14T15:35:45Z</time>
      </trkpt>
      <trkpt lat="40.192383" lon="-5.036767">
        <ele>1154.0</ele>
        <time>2015-03-14T15:35:47Z</time>
      </trkpt>
      <trkpt lat="40.192300" lon="-5.036683">
        <ele>1152.0</ele>
        <time>2015-03-14T15:35:49Z</time>
      </trkpt>
      <trkpt lat="40.192183" lon="-5.036683">
        <ele>1151.0</ele>
        <time>2015-03-14T15:35:51Z</time>
      </trkpt>
      <trkpt lat="40.192117" lon="-5.036733">
        <ele>1152.0</ele>
        <time>2015-03-14T15:35:53Z</time>
      </trkpt>
      <trkpt lat="40.192033" lon="-5.036867">
        <ele>1151.0</ele>
        <time>2015-03-14T15:35:55Z</time>
      </trkpt>
      <trkpt lat="40.191983" lon="-5.037050">
        <ele>1151.0</ele>
        <time>2015-03-14T15:35:57Z</time>
      </trkpt>
      <trkpt lat="40.191983" lon="-5.037217">
        <ele>1154.0</ele>
        <time>2015-03-14T15:35:59Z</time>
      </trkpt>
      <trkpt lat="40.192000" lon="-5.037400">
        <ele>1154.0</ele>
        <time>2015-03-14T15:36:01Z</time>
      </trkpt>
      <trkpt lat="40.192050" lon="-5.037633">
        <ele>1154.0</ele>
        <time>2015-03-14T15:36:03Z</time>
      </trkpt>
      <trkpt lat="40.192133" lon="-5.037833">
        <ele>1156.0</ele>
        <time>2015-03-14T15:36:05Z</time>
      </trkpt>
      <trkpt lat="40.192233" lon="-5.038000">
        <ele>1158.0</ele>
        <time>2015-03-14T15:36:07Z</time>
      </trkpt>
      <trkpt lat="40.192400" lon="-5.038167">
        <ele>1156.0</ele>
        <time>2015-03-14T15:36:09Z</time>
      </trkpt>
      <trkpt lat="40.192617" lon="-5.038233">
        <ele>1157.0</ele>
        <time>2015-03-14T15:36:11Z</time>
      </trkpt>
      <trkpt lat="40.192800" lon="-5.038217">
        <ele>1158.0</ele>
        <time>2015-03-14T15:36:13Z</time>
      </trkpt>
      <trkpt lat="40.192967" lon="-5.038150">
        <ele>1159.0</ele>
        <time>2015-03-14T15:36:15Z</time>
      </trkpt>
      <trkpt lat="40.193117" lon="-5.038050">
        <ele>1160.0</ele>
        <time>2015-03-14T15:36:17Z</time>
      </trkpt>
      <trkpt lat="40.193217" lon="-5.037883">
        <ele>1160.0</ele>
        <time>2015-03-14T15:36:19Z</time>
      </trkpt>
      <trkpt lat="40.193250" lon="-5.037700">
        <ele>1161.0</ele>
        <time>2015-03-14T15:36:21Z</time>
      </trkpt>
      <trkpt lat="40.193250" lon="-5.037533">
        <ele>1164.0</ele>
        <time>2015-03-14T15:36:23Z</time>
      </trkpt>
      <trkpt lat="40.193150" lon="-5.037417">
        <ele>1165.0</ele>
        <time>2015-03-14T15:36:25Z</time>
      </trkpt>
      <trkpt lat="40.193017" lon="-5.037383">
        <ele>1166.0</ele>
        <time>2015-03-14T15:36:27Z</time>
      </trkpt>
      <trkpt lat="40.192917" lon="-5.037417">
        <ele>1169.0</ele>
        <time>2015-03-14T15:36:29Z</time>
      </trkpt>
      <trkpt lat="40.192800" lon="-5.037550">
        <ele>1171.0</ele>
        <time>2015-03-14T15:36:31Z</time>
      </trkpt>
      <trkpt lat="40.192733" lon="-5.037717">
        <ele>1172.0</ele>
        <time>2015-03-14T15:36:33Z</time>
      </trkpt>
      <trkpt lat="40.192700" lon="-5.037900">
        <ele>1174.0</ele>
        <time>2015-03-14T15:36:35Z</time>
      </trkpt>
      <trkpt lat="40.192683" lon="-5.038133">
        <ele>1175.0</ele>
        <time>2015-03-14T15:36:37Z</time>
      </trkpt>
      <trkpt lat="40.192750" lon="-5.038400">
        <ele>1177.0</ele>
        <time>2015-03-14T15:36:39Z</time>
      </trkpt>
      <trkpt lat="40.192867" lon="-5.038617">
        <ele>1179.0</ele>
        <time>2015-03-14T15:36:41Z</time>
      </trkpt>
      <trkpt lat="40.193033" lon="-5.038750">
        <ele>1182.0</ele>
        <time>2015-03-14T15:36:43Z</time>
      </trkpt>
      <trkpt lat="40.193233" lon="-5.038817">
        <ele>1182.0</ele>
        <time>2015-03-14T15:36:45Z</time>
      </trkpt>
      <trkpt lat="40.193433" lon="-5.038783">
        <ele>1181.0</ele>
        <time>2015-03-14T15:36:47Z</time>
      </trkpt>
      <trkpt lat="40.193583" lon="-5.038667">
        <ele>1181.0</ele>
        <time>2015-03-14T15:36:49Z</time>
      </trkpt>
      <trkpt lat="40.193667" lon="-5.038500">
        <ele>1182.0</ele>
        <time>2015-03-14T15:36:51Z</time>
      </trkpt>
      <trkpt lat="40.193683" lon="-5.038300">
        <ele>1184.0</ele>
        <time>2015-03-14T15:36:53Z</time>
      </trkpt>
      <trkpt lat="40.193633" lon="-5.038133">
        <ele>1184.0</ele>
        <time>2015-03-14T15:36:55Z</time>
      </trkpt>
      <trkpt lat="40.193533" lon="-5.038033">
        <ele>1185.0</ele>
        <time>2015-03-14T15:36:57Z</time>
      </trkpt>
      <trkpt lat="40.193400" lon="-5.037983">
        <ele>1187.0</ele>
        <time>2015-03-14T15:36:59Z</time>
      </trkpt>
      <trkpt lat="40.193267" lon="-5.038017">
        <ele>1189.0</ele>
        <time>2015-03-14T15:37:01Z</time>
      </trkpt>
      <trkpt lat="40.193133" lon="-5.038067">
        <ele>1192.0</ele>
        <time>2015-03-14T15:37:03Z</time>
      </trkpt>
      <trkpt lat="40.193017" lon="-5.038200">
        <ele>1193.0</ele>
        <time>2015-03-14T15:37:05Z</time>
      </trkpt>
      <trkpt lat="40.192900" lon="-5.038417">
        <ele>1194.0</ele>
        <time>2015-03-14T15:37:07Z</time>
      </trkpt>
      <trkpt lat="40.192850" lon="-5.038617">
        <ele>1198.0</ele>
        <time>2015-03-14T15:37:09Z</time>
      </trkpt>
      <trkpt lat="40.192850" lon="-5.038850">
        <ele>1200.0</ele>
        <time>2015-03-14T15:37:11Z</time>
      </trkpt>
      <trkpt lat="40.192917" lon="-5.039100">
        <ele>1200.0</ele>
        <time>2015-03-14T15:37:13Z</time>
      </trkpt>
      <trkpt lat="40.193050" lon="-5.039317">
        <ele>1202.0</ele>
        <time>2015-03-14T15:37:15Z</time>
      </trkpt>
      <trkpt lat="40.193233" lon="-5.039483">
        <ele>1204.0</ele>
        <time>2015-03-14T15:37:17Z</time>
      </trkpt>
      <trkpt lat="40.193417" lon="-5.039617">
        <ele>1207.0</ele>
        <time>2015-03-14T15:37:19Z</time>
      </trkpt>
      <trkpt lat="40.193633" lon="-5.039683">
        <ele>1208.0</ele>
        <time>2015-03-14T15:37:21Z</time>
      </trkpt>
      <trkpt lat="40.193850" lon="-5.039667">
        <ele>1212.0</ele>
        <time>2015-03-14T15:37:23Z</time>
      </trkpt>
      <trkpt lat="40.194050" lon="-5.039633">
        <ele>1218.0</ele>
        <time>2015-03-14T15:37:25Z</time>
      </trkpt>
      <trkpt lat="40.194217" lon="-5.039517">
        <ele>1220.0</ele>
        <time>2015-03-14T15:37:27Z</time>
      </trkpt>
      <trkpt lat="40.194333" lon="-5.039333">
        <ele>1222.0</ele>
        <time>2015-03-14T15:37:29Z</time>
      </trkpt>
      <trkpt lat="40.194383" lon="-5.039150">
        <ele>1225.0</ele>
        <time>2015-03-14T15:37:31Z</time>
      </trkpt>
      <trkpt lat="40.194350" lon="-5.039000">
        <ele>1227.0</ele>
        <time>2015-03-14T15:37:33Z</time>
      </trkpt>
      <trkpt lat="40.194250" lon="-5.038883">
        <ele>1226.0</ele>
        <time>2015-03-14T15:37:35Z</time>
      </trkpt>
      <trkpt lat="40.194100" lon="-5.038883">
        <ele>1228.0</ele>
        <time>2015-03-14T15:37:37Z</time>
      </trkpt>
      <trkpt lat="40.194017" lon="-5.038950">
        <ele>1233.0</ele>
        <time>2015-03-14T15:37:39Z</time>
      </trkpt>
      <trkpt lat="40.193933" lon="-5.039067">
        <ele>1236.0</ele>
        <time>2015-03-14T15:37:41Z</time>
      </trkpt>
      <trkpt lat="40.193900" lon="-5.039267">
        <ele>1238.0</ele>
        <time>2015-03-14T15:37:43Z</time>
      </trkpt>
      <trkpt lat="40.193950" lon="-5.039483">
        <ele>1241.0</ele>
        <time>2015-03-14T15:37:45Z</time>
      </trkpt>
      <trkpt lat="40.194017" lon="-5.039700">
        <ele>1243.0</ele>
        <time>2015-03-14T15:37:47Z</time>
      </trkpt>
      <trkpt lat="40.194167" lon="-5.039917">
        <ele>1243.0</ele>
        <time>2015-03-14T15:37:49Z</time>
      </trkpt>
      <trkpt lat="40.194367" lon="-5.040083">
        <ele>1245.0</ele>
        <time>2015-03-14T15:37:51Z</time>
      </trkpt>
      <trkpt lat="40.194567" lon="-5.040183">
        <ele>1249.0</ele>
        <time>2015-03-14T15:37:53Z</time>
      </trkpt>
      <trkpt lat="40.194750" lon="-5.040233">
        <ele>1254.0</ele>
        <time>2015-03-14T15:37:55Z</time>
      </trkpt>
      <trkpt lat="40.194967" lon="-5.040233">
        <ele>1254.0</ele>
        <time>2015-03-14T15:37:57Z</time>
      </trkpt>
      <trkpt lat="40.195167" lon="-5.040083">
        <ele>1254.0</ele>
        <time>2015-03-14T15:37:59Z</time>
      </trkpt>
      <trkpt lat="40.195283" lon="-5.039900">
        <ele>1257.0</ele>
        <time>2015-03-14T15:38:01Z</time>
      </trkpt>
      <trkpt lat="40.195317" lon="-5.039733">
        <ele>1260.0</ele>
        <time>2015-03-14T15:38:03Z</time>
      </trkpt>
      <trkpt lat="40.195317" lon="-5.039550">
        <ele>1260.0</ele>
        <time>2015-03-14T15:38:05Z</time>
      </trkpt>
      <trkpt lat="40.195250" lon="-5.039400">
        <ele>1261.0</ele>
        <time>2015-03-14T15:38:07Z</time>
      </trkpt>
      <trkpt lat="40.195167" lon="-5.039333">
        <ele>1264.0</ele>
        <time>2015-03-14T15:38:09Z</time>
      </trkpt>
      <trkpt lat="40.195067" lon="-5.039333">
        <ele>1265.0</ele>
        <time>2015-03-14T15:38:11Z</time>
      </trkpt>
      <trkpt lat="40.194933" lon="-5.039417">
        <ele>1265.0</ele>
        <time>2015-03-14T15:38:13Z</time>
      </trkpt>
      <trkpt lat="40.194850" lon="-5.039550">
        <ele>1268.0</ele>
        <time>2015-03-14T15:38:15Z</time>
      </trkpt>
      <trkpt lat="40.194833" lon="-5.039717">
        <ele>1270.0</ele>
        <time>2015-03-14T15:38:17Z</time>
      </trkpt>
      <trkpt lat="40.194833" lon="-5.039950">
        <ele>1270.0</ele>
        <time>2015-03-14T15:38:19Z</time>
      </trkpt>
      <trkpt lat="40.194883" lon="-5.040200">
        <ele>1273.0</ele>
        <time>2015-03-14T15:38:21Z</time>
      </trkpt>
      <trkpt lat="40.194933" lon="-5.040400">
        <ele>1277.0</ele>
        <time>2015-03-14T15:38:23Z</time>
      </trkpt>
      <trkpt lat="40.195033" lon="-5.040583">
        <ele>1279.0</ele>
        <time>2015-03-14T15:38:25Z</time>
      </trkpt>
      <trkpt lat="40.195200" lon="-5.040767">
        <ele>1281.0</ele>
        <time>2015-03-14T15:38:27Z</time>
      </trkpt>
      <trkpt lat="40.195400" lon="-5.040867">
        <ele>1285.0</ele>
        <time>2015-03-14T15:38:29Z</time>
      </trkpt>
      <trkpt lat="40.195600" lon="-5.040917">
        <ele>1290.0</ele>
        <time>2015-03-14T15:38:31Z</time>
      </trkpt>
      <trkpt lat="40.195800" lon="-5.040867">
        <ele>1294.0</ele>
        <time>2015-03-14T15:38:33Z</time>
      </trkpt>
      <trkpt lat="40.196000" lon="-5.040733">
        <ele>1297.0</ele>
        <time>2015-03-14T15:38:35Z</time>
      </trkpt>
      <trkpt lat="40.196117" lon="-5.040533">
        <ele>1300.0</ele>
        <time>2015-03-14T15:38:37Z</time>
      </trkpt>
      <trkpt lat="40.196150" lon="-5.040350">
        <ele>1302.0</ele>
        <time>2015-03-14T15:38:39Z</time>
      </trkpt>
      <trkpt lat="40.196083" lon="-5.040183">
        <ele>1302.0</ele>
        <time>2015-03-14T15:38:41Z</time>
      </trkpt>
      <trkpt lat="40.195983" lon="-5.040150">
        <ele>1302.0</ele>
        <time>2015-03-14T15:38:43Z</time>
      </trkpt>
      <trkpt lat="40.195867" lon="-5.040217">
        <ele>1302.0</ele>
        <time>2015-03-14T15:38:45Z</time>
      </trkpt>
      <trkpt lat="40.195750" lon="-5.040383">
        <ele>1301.0</ele>
        <time>2015-03-14T15:38:47Z</time>
      </trkpt>
      <trkpt lat="40.195733" lon="-5.040583">
        <ele>1303.0</ele>
        <time>2015-03-14T15:38:49Z</time>
      </trkpt>
      <trkpt lat="40.195767" lon="-5.040800">
        <ele>1305.0</ele>
        <time>2015-03-14T15:38:51Z</time>
      </trkpt>
      <trkpt lat="40.195833" lon="-5.041033">
        <ele>1308.0</ele>
        <time>2015-03-14T15:38:53Z</time>
      </trkpt>
      <trkpt lat="40.195917" lon="-5.041250">
        <ele>1312.0</ele>
        <time>2015-03-14T15:38:55Z</time>
      </trkpt>
      <trkpt lat="40.196033" lon="-5.041433">
        <ele>1316.0</ele>
        <time>2015-03-14T15:38:57Z</time>
      </trkpt>
      <trkpt lat="40.196183" lon="-5.041583">
        <ele>1321.0</ele>
        <time>2015-03-14T15:38:59Z</time>
      </trkpt>
      <trkpt lat="40.196367" lon="-5.041717">
        <ele>1325.0</ele>
        <time>2015-03-14T15:39:01Z</time>
      </trkpt>
      <trkpt lat="40.196583" lon="-5.041783">
        <ele>1329.0</ele>
        <time>2015-03-14T15:39:03Z</time>
      </trkpt>
      <trkpt lat="40.196783" lon="-5.041767">
        <ele>1333.0</ele>
        <time>2015-03-14T15:39:05Z</time>
      </trkpt>
      <trkpt lat="40.196967" lon="-5.041683">
        <ele>1337.0</ele>
        <time>2015-03-14T15:39:07Z</time>
      </trkpt>
      <trkpt lat="40.197133" lon="-5.041517">
        <ele>1339.0</ele>
        <time>2015-03-14T15:39:09Z</time>
      </trkpt>
      <trkpt lat="40.197200" lon="-5.041300">
        <ele>1340.0</ele>
        <time>2015-03-14T15:39:11Z</time>
      </trkpt>
      <trkpt lat="40.197200" lon="-5.041117">
        <ele>1344.0</ele>
        <time>2015-03-14T15:39:13Z</time>
      </trkpt>
      <trkpt lat="40.197150" lon="-5.041017">
        <ele>1347.0</ele>
        <time>2015-03-14T15:39:15Z</time>
      </trkpt>
      <trkpt lat="40.197067" lon="-5.040950">
        <ele>1348.0</ele>
        <time>2015-03-14T15:39:17Z</time>
      </trkpt>
      <trkpt lat="40.196950" lon="-5.040967">
        <ele>1350.0</ele>
        <time>2015-03-14T15:39:19Z</time>
      </trkpt>
      <trkpt lat="40.196850" lon="-5.041117">
        <ele>1351.0</ele>
        <time>2015-03-14T15:39:21Z</time>
      </trkpt>
      <trkpt lat="40.196817" lon="-5.041333">
        <ele>1354.0</ele>
        <time>2015-03-14T15:39:23Z</time>
      </trkpt>
      <trkpt lat="40.196833" lon="-5.041533">
        <ele>1359.0</ele>
        <time>2015-03-14T15:39:25Z</time>
      </trkpt>
      <trkpt lat="40.196933" lon="-5.041750">
        <ele>1362.0</ele>
        <time>2015-03-14T15:39:27Z</time>
      </trkpt>
      <trkpt lat="40.197083" lon="-5.041917">
        <ele>1365.0</ele>
        <time>2015-03-14T15:39:29Z</time>
      </trkpt>
      <trkpt lat="40.197283" lon="-5.042033">
        <ele>1368.0</ele>
        <time>2015-03-14T15:39:31Z</time>
      </trkpt>
      <trkpt lat="40.197500" lon="-5.042050">
        <ele>1372.0</ele>
        <time>2015-03-14T15:39:33Z</time>
      </trkpt>
      <trkpt lat="40.197700" lon="-5.041950">
        <ele>1375.0</ele>
        <time>2015-03-14T15:39:35Z</time>
      </trkpt>
      <trkpt lat="40.197867" lon="-5.041800">
        <ele>1378.0</ele>
        <time>2015-03-14T15:39:37Z</time>
      </trkpt>
      <trkpt lat="40.197950" lon="-5.041617">
        <ele>1380.0</ele>
        <time>2015-03-14T15:39:39Z</time>
      </trkpt>
      <trkpt lat="40.197983" lon="-5.041417">
        <ele>1379.0</ele>
        <time>2015-03-14T15:39:41Z</time>
      </trkpt>
      <trkpt lat="40.197933" lon="-5.041267">
        <ele>1380.0</ele>
        <time>2015-03-14T15:39:43Z</time>
      </trkpt>
      <trkpt lat="40.197833" lon="-5.041250">
        <ele>1381.0</ele>
        <time>2015-03-14T15:39:45Z</time>
      </trkpt>
      <trkpt lat="40.197733" lon="-5.041367">
        <ele>1382.0</ele>
        <time>2015-03-14T15:39:47Z</time>
      </trkpt>
      <trkpt lat="40.197700" lon="-5.041583">
        <ele>1383.0</ele>
        <time>2015-03-14T15:39:49Z</time>
      </trkpt>
      <trkpt lat="40.197717" lon="-5.041800">
        <ele>1387.0</ele>
        <time>2015-03-14T15:39:51Z</time>
      </trkpt>
      <trkpt lat="40.197800" lon="-5.042000">
        <ele>1390.0</ele>
        <time>2015-03-14T15:39:53Z</time>
      </trkpt>
      <trkpt lat="40.197950" lon="-5.042200">
        <ele>1391.0</ele>
        <time>2015-03-14T15:39:55Z</time>
      </trkpt>
      <trkpt lat="40.198117" lon="-5.042333">
        <ele>1394.0</ele>
        <time>2015-03-14T15:39:57Z</time>
      </trkpt>
      <trkpt lat="40.198300" lon="-5.042383">
        <ele>1398.0</ele>
        <time>2015-03-14T15:39:59Z</time>
      </trkpt>
      <trkpt lat="40.198500" lon="-5.042333">
        <ele>1399.0</ele>
        <time>2015-03-14T15:40:01Z</time>
      </trkpt>
      <trkpt lat="40.198650" lon="-5.042217">
        <ele>1400.0</ele>
        <time>2015-03-14T15:40:03Z</time>
      </trkpt>
      <trkpt lat="40.198750" lon="-5.042033">
        <ele>1400.0</ele>
        <time>2015-03-14T15:40:05Z</time>
      </trkpt>
      <trkpt lat="40.198783" lon="-5.041867">
        <ele>1400.0</ele>
        <time>2015-03-14T15:40:07Z</time>
      </trkpt>
      <trkpt lat="40.198750" lon="-5.041717">
        <ele>1399.0</ele>
        <time>2015-03-14T15:40:09Z</time>
      </trkpt>
      <trkpt lat="40.198633" lon="-5.041650">
        <ele>1398.0</ele>
        <time>2015-03-14T15:40:11Z</time>
      </trkpt>
      <trkpt lat="40.198517" lon="-5.041717">
        <ele>1397.0</ele>
        <time>2015-03-14T15:40:13Z</time>
      </trkpt>
      <trkpt lat="40.198417" lon="-5.041867">
        <ele>1398.0</ele>
        <time>2015-03-14T15:40:15Z</time>
      </trkpt>
      <trkpt lat="40.198400" lon="-5.042067">
        <ele>1400.0</ele>
        <time>2015-03-14T15:40:17Z</time>
      </trkpt>
      <trkpt lat="40.198417" lon="-5.042283">
        <ele>1400.0</ele>
        <time>2015-03-14T15:40:19Z</time>
      </trkpt>
      <trkpt lat="40.198450" lon="-5.042533">
        <ele>1400.0</ele>
        <time>2015-03-14T15:40:21Z</time>
      </trkpt>
      <trkpt lat="40.198533" lon="-5.042783">
        <ele>1402.0</ele>
        <time>2015-03-14T15:40:23Z</time>
      </trkpt>
      <trkpt lat="40.198650" lon="-5.042950">
        <ele>1407.0</ele>
        <time>2015-03-14T15:40:25Z</time>
      </trkpt>
      <trkpt lat="40.198817" lon="-5.043050">
        <ele>1411.0</ele>
        <time>2015-03-14T15:40:27Z</time>
      </trkpt>
      <trkpt lat="40.199000" lon="-5.043067">
        <ele>1415.0</ele>
        <time>2015-03-14T15:40:29Z</time>
      </trkpt>
      <trkpt lat="40.199167" lon="-5.043017">
        <ele>1419.0</ele>
        <time>2015-03-14T15:40:31Z</time>
      </trkpt>
      <trkpt lat="40.199300" lon="-5.042867">
        <ele>1420.0</ele>
        <time>2015-03-14T15:40:33Z</time>
      </trkpt>
      <trkpt lat="40.199383" lon="-5.042650">
        <ele>1422.0</ele>
        <time>2015-03-14T15:40:35Z</time>
      </trkpt>
      <trkpt lat="40.199400" lon="-5.042500">
        <ele>1425.0</ele>
        <time>2015-03-14T15:40:37Z</time>
      </trkpt>
      <trkpt lat="40.199367" lon="-5.042367">
        <ele>1425.0</ele>
        <time>2015-03-14T15:40:39Z</time>
      </trkpt>
      <trkpt lat="40.199250" lon="-5.042283">
        <ele>1423.0</ele>
        <time>2015-03-14T15:40:41Z</time>
      </trkpt>
      <trkpt lat="40.199117" lon="-5.042367">
        <ele>1422.0</ele>
        <time>2015-03-14T15:40:43Z</time>
      </trkpt>
      <trkpt lat="40.199067" lon="-5.042533">
        <ele>1424.0</ele>
        <time>2015-03-14T15:40:45Z</time>
      </trkpt>
      <trkpt lat="40.199050" lon="-5.042750">
        <ele>1423.0</ele>
        <time>2015-03-14T15:40:47Z</time>
      </trkpt>
      <trkpt lat="40.199050" lon="-5.043033">
        <ele>1422.0</ele>
        <time>2015-03-14T15:40:49Z</time>
      </trkpt>
      <trkpt lat="40.199133" lon="-5.043283">
        <ele>1423.0</ele>
        <time>2015-03-14T15:40:51Z</time>
      </trkpt>
      <trkpt lat="40.199267" lon="-5.043500">
        <ele>1426.0</ele>
        <time>2015-03-14T15:40:53Z</time>
      </trkpt>
      <trkpt lat="40.199417" lon="-5.043700">
        <ele>1431.0</ele>
        <time>2015-03-14T15:40:55Z</time>
      </trkpt>
      <trkpt lat="40.199567" lon="-5.043867">
        <ele>1438.0</ele>
        <time>2015-03-14T15:40:57Z</time>
      </trkpt>
      <trkpt lat="40.199750" lon="-5.043983">
        <ele>1445.0</ele>
        <time>2015-03-14T15:40:59Z</time>
      </trkpt>
      <trkpt lat="40.199983" lon="-5.044017">
        <ele>1449.0</ele>
        <time>2015-03-14T15:41:01Z</time>
      </trkpt>
      <trkpt lat="40.200200" lon="-5.043917">
        <ele>1454.0</ele>
        <time>2015-03-14T15:41:03Z</time>
      </trkpt>
      <trkpt lat="40.200317" lon="-5.043717">
        <ele>1462.0</ele>
        <time>2015-03-14T15:41:05Z</time>
      </trkpt>
      <trkpt lat="40.200367" lon="-5.043483">
        <ele>1468.0</ele>
        <time>2015-03-14T15:41:07Z</time>
      </trkpt>
      <trkpt lat="40.200317" lon="-5.043300">
        <ele>1474.0</ele>
        <time>2015-03-14T15:41:09Z</time>
      </trkpt>
      <trkpt lat="40.200183" lon="-5.043283">
        <ele>1475.0</ele>
        <time>2015-03-14T15:41:11Z</time>
      </trkpt>
      <trkpt lat="40.200067" lon="-5.043400">
        <ele>1477.0</ele>
        <time>2015-03-14T15:41:13Z</time>
      </trkpt>
      <trkpt lat="40.200033" lon="-5.043617">
        <ele>1479.0</ele>
        <time>2015-03-14T15:41:15Z</time>
      </trkpt>
      <trkpt lat="40.200050" lon="-5.043850">
        <ele>1483.0</ele>
        <time>2015-03-14T15:41:17Z</time>
      </trkpt>
      <trkpt lat="40.200167" lon="-5.044083">
        <ele>1488.0</ele>
        <time>2015-03-14T15:41:19Z</time>
      </trkpt>
      <trkpt lat="40.200317" lon="-5.044267">
        <ele>1495.0</ele>
        <time>2015-03-14T15:41:21Z</time>
      </trkpt>
      <trkpt lat="40.200517" lon="-5.044400">
        <ele>1502.0</ele>
        <time>2015-03-14T15:41:23Z</time>
      </trkpt>
      <trkpt lat="40.200767" lon="-5.044450">
        <ele>1507.0</ele>
        <time>2015-03-14T15:41:25Z</time>
      </trkpt>
      <trkpt lat="40.201000" lon="-5.044350">
        <ele>1511.0</ele>
        <time>2015-03-14T15:41:27Z</time>
      </trkpt>
      <trkpt lat="40.201167" lon="-5.044183">
        <ele>1518.0</ele>
        <time>2015-03-14T15:41:29Z</time>
      </trkpt>
      <trkpt lat="40.201250" lon="-5.043983">
        <ele>1522.0</ele>
        <time>2015-03-14T15:41:31Z</time>
      </trkpt>
      <trkpt lat="40.201217" lon="-5.043733">
        <ele>1522.0</ele>
        <time>2015-03-14T15:41:33Z</time>
      </trkpt>
      <trkpt lat="40.201100" lon="-5.043583">
        <ele>1526.0</ele>
        <time>2015-03-14T15:41:35Z</time>
      </trkpt>
      <trkpt lat="40.200950" lon="-5.043567">
        <ele>1531.0</ele>
        <time>2015-03-14T15:41:37Z</time>
      </trkpt>
      <trkpt lat="40.200817" lon="-5.043617">
        <ele>1536.0</ele>
        <time>2015-03-14T15:41:39Z</time>
      </trkpt>
      <trkpt lat="40.200717" lon="-5.043733">
        <ele>1540.0</ele>
        <time>2015-03-14T15:41:41Z</time>
      </trkpt>
      <trkpt lat="40.200667" lon="-5.043967">
        <ele>1542.0</ele>
        <time>2015-03-14T15:41:43Z</time>
      </trkpt>
      <trkpt lat="40.200717" lon="-5.044217">
        <ele>1546.0</ele>
        <time>2015-03-14T15:41:45Z</time>
      </trkpt>
      <trkpt lat="40.200800" lon="-5.044450">
        <ele>1552.0</ele>
        <time>2015-03-14T15:41:47Z</time>
      </trkpt>
      <trkpt lat="40.200933" lon="-5.044667">
        <ele>1556.0</ele>
        <time>2015-03-14T15:41:49Z</time>
      </trkpt>
      <trkpt lat="40.201167" lon="-5.044833">
        <ele>1560.0</ele>
        <time>2015-03-14T15:41:51Z</time>
      </trkpt>
      <trkpt lat="40.201350" lon="-5.044900">
        <ele>1568.0</ele>
        <time>2015-03-14T15:41:53Z</time>
      </trkpt>
      <trkpt lat="40.201550" lon="-5.044917">
        <ele>1575.0</ele>
        <time>2015-03-14T15:41:55Z</time>
      </trkpt>
      <trkpt lat="40.201733" lon="-5.044817">
        <ele>1577.0</ele>
        <time>2015-03-14T15:41:57Z</time>
      </trkpt>
      <trkpt lat="40.201867" lon="-5.044567">
        <ele>1577.0</ele>
        <time>2015-03-14T15:41:59Z</time>
      </trkpt>
      <trkpt lat="40.201833" lon="-5.044350">
        <ele>1581.0</ele>
        <time>2015-03-14T15:42:01Z</time>
      </trkpt>
      <trkpt lat="40.201750" lon="-5.044217">
        <ele>1589.0</ele>
        <time>2015-03-14T15:42:03Z</time>
      </trkpt>
      <trkpt lat="40.201667" lon="-5.044167">
        <ele>1596.0</ele>
        <time>2015-03-14T15:42:05Z</time>
      </trkpt>
      <trkpt lat="40.201533" lon="-5.044200">
        <ele>1599.0</ele>
        <time>2015-03-14T15:42:07Z</time>
      </trkpt>
      <trkpt lat="40.201417" lon="-5.044333">
        <ele>1603.0</ele>
        <time>2015-03-14T15:42:09Z</time>
      </trkpt>
      <trkpt lat="40.201367" lon="-5.044467">
        <ele>1610.0</ele>
        <time>2015-03-14T15:42:11Z</time>
      </trkpt>
      <trkpt lat="40.201367" lon="-5.044650">
        <ele>1613.0</ele>
        <time>2015-03-14T15:42:13Z</time>
      </trkpt>
      <trkpt lat="40.201383" lon="-5.044933">
        <ele>1612.0</ele>
        <time>2015-03-14T15:42:15Z</time>
      </trkpt>
      <trkpt lat="40.201433" lon="-5.045183">
        <ele>1619.0</ele>
        <time>2015-03-14T15:42:17Z</time>
      </trkpt>
      <trkpt lat="40.201500" lon="-5.045367">
        <ele>1628.0</ele>
        <time>2015-03-14T15:42:19Z</time>
      </trkpt>
      <trkpt lat="40.201633" lon="-5.045550">
        <ele>1630.0</ele>
        <time>2015-03-14T15:42:21Z</time>
      </trkpt>
      <trkpt lat="40.201850" lon="-5.045667">
        <ele>1630.0</ele>
        <time>2015-03-14T15:42:23Z</time>
      </trkpt>
      <trkpt lat="40.202017" lon="-5.045700">
        <ele>1635.0</ele>
        <time>2015-03-14T15:42:25Z</time>
      </trkpt>
      <trkpt lat="40.202167" lon="-5.045667">
        <ele>1634.0</ele>
        <time>2015-03-14T15:42:27Z</time>
      </trkpt>
      <trkpt lat="40.202333" lon="-5.045517">
        <ele>1631.0</ele>
        <time>2015-03-14T15:42:29Z</time>
      </trkpt>
      <trkpt lat="40.202417" lon="-5.045317">
        <ele>1630.0</ele>
        <time>2015-03-14T15:42:31Z</time>
      </trkpt>
      <trkpt lat="40.202417" lon="-5.045133">
        <ele>1630.0</ele>
        <time>2015-03-14T15:42:33Z</time>
      </trkpt>
      <trkpt lat="40.202333" lon="-5.044950">
        <ele>1629.0</ele>
        <time>2015-03-14T15:42:35Z</time>
      </trkpt>
      <trkpt lat="40.202183" lon="-5.044850">
        <ele>1630.0</ele>
        <time>2015-03-14T15:42:37Z</time>
      </trkpt>
      <trkpt lat="40.202067" lon="-5.044867">
        <ele>1634.0</ele>
        <time>2015-03-14T15:42:39Z</time>
      </trkpt>
      <trkpt lat="40.201967" lon="-5.044967">
        <ele>1638.0</ele>
        <time>2015-03-14T15:42:41Z</time>
      </trkpt>
      <trkpt lat="40.201883" lon="-5.045117">
        <ele>1640.0</ele>
        <time>2015-03-14T15:42:43Z</time>
      </trkpt>
      <trkpt lat="40.201833" lon="-5.045350">
        <ele>1641.0</ele>
        <time>2015-03-14T15:42:45Z</time>
      </trkpt>
      <trkpt lat="40.201817" lon="-5.045600">
        <ele>1643.0</ele>
        <time>2015-03-14T15:42:47Z</time>
      </trkpt>
      <trkpt lat="40.201850" lon="-5.045833">
        <ele>1647.0</ele>
        <time>2015-03-14T15:42:49Z</time>
      </trkpt>
      <trkpt lat="40.201933" lon="-5.046067">
        <ele>1649.0</ele>
        <time>2015-03-14T15:42:51Z</time>
      </trkpt>
      <trkpt lat="40.202050" lon="-5.046250">
        <ele>1651.0</ele>
        <time>2015-03-14T15:42:53Z</time>
      </trkpt>
      <trkpt lat="40.202200" lon="-5.046367">
        <ele>1651.0</ele>
        <time>2015-03-14T15:42:55Z</time>
      </trkpt>
      <trkpt lat="40.202400" lon="-5.046383">
        <ele>1648.0</ele>
        <time>2015-03-14T15:42:57Z</time>
      </trkpt>
      <trkpt lat="40.202583" lon="-5.046367">
        <ele>1648.0</ele>
        <time>2015-03-14T15:42:59Z</time>
      </trkpt>
      <trkpt lat="40.202733" lon="-5.046317">
        <ele>1650.0</ele>
        <time>2015-03-14T15:43:01Z</time>
      </trkpt>
      <trkpt lat="40.202867" lon="-5.046167">
        <ele>1649.0</ele>
        <time>2015-03-14T15:43:03Z</time>
      </trkpt>
      <trkpt lat="40.202917" lon="-5.045933">
        <ele>1648.0</ele>
        <time>2015-03-14T15:43:05Z</time>
      </trkpt>
      <trkpt lat="40.202900" lon="-5.045767">
        <ele>1652.0</ele>
        <time>2015-03-14T15:43:07Z</time>
      </trkpt>
      <trkpt lat="40.202817" lon="-5.045667">
        <ele>1652.0</ele>
        <time>2015-03-14T15:43:09Z</time>
      </trkpt>
      <trkpt lat="40.202667" lon="-5.045683">
        <ele>1649.0</ele>
        <time>2015-03-14T15:43:11Z</time>
      </trkpt>
      <trkpt lat="40.202567" lon="-5.045900">
        <ele>1649.0</ele>
        <time>2015-03-14T15:43:13Z</time>
      </trkpt>
      <trkpt lat="40.202550" lon="-5.046117">
        <ele>1653.0</ele>
        <time>2015-03-14T15:43:15Z</time>
      </trkpt>
      <trkpt lat="40.202550" lon="-5.046333">
        <ele>1654.0</ele>
        <time>2015-03-14T15:43:17Z</time>
      </trkpt>
      <trkpt lat="40.202567" lon="-5.046617">
        <ele>1651.0</ele>
        <time>2015-03-14T15:43:19Z</time>
      </trkpt>
      <trkpt lat="40.202583" lon="-5.046850">
        <ele>1652.0</ele>
        <time>2015-03-14T15:43:21Z</time>
      </trkpt>
      <trkpt lat="40.202583" lon="-5.047067">
        <ele>1652.0</ele>
        <time>2015-03-14T15:43:23Z</time>
      </trkpt>
      <trkpt lat="40.202633" lon="-5.047383">
        <ele>1648.0</ele>
        <time>2015-03-14T15:43:25Z</time>
      </trkpt>
      <trkpt lat="40.202650" lon="-5.047667">
        <ele>1649.0</ele>
        <time>2015-03-14T15:43:27Z</time>
      </trkpt>
      <trkpt lat="40.202650" lon="-5.047883">
        <ele>1653.0</ele>
        <time>2015-03-14T15:43:29Z</time>
      </trkpt>
      <trkpt lat="40.202683" lon="-5.048117">
        <ele>1652.0</ele>
        <time>2015-03-14T15:43:31Z</time>
      </trkpt>
      <trkpt lat="40.202700" lon="-5.048367">
        <ele>1649.0</ele>
        <time>2015-03-14T15:43:33Z</time>
      </trkpt>
      <trkpt lat="40.202700" lon="-5.048583">
        <ele>1649.0</ele>
        <time>2015-03-14T15:43:35Z</time>
      </trkpt>
      <trkpt lat="40.202717" lon="-5.048817">
        <ele>1647.0</ele>
        <time>2015-03-14T15:43:37Z</time>
      </trkpt>
      <trkpt lat="40.202717" lon="-5.049117">
        <ele>1642.0</ele>
        <time>2015-03-14T15:43:39Z</time>
      </trkpt>
      <trkpt lat="40.202717" lon="-5.049350">
        <ele>1642.0</ele>
        <time>2015-03-14T15:43:41Z</time>
      </trkpt>
      <trkpt lat="40.202717" lon="-5.049583">
        <ele>1642.0</ele>
        <time>2015-03-14T15:43:43Z</time>
      </trkpt>
      <trkpt lat="40.202733" lon="-5.049883">
        <ele>1637.0</ele>
        <time>2015-03-14T15:43:45Z</time>
      </trkpt>
      <trkpt lat="40.202700" lon="-5.050150">
        <ele>1636.0</ele>
        <time>2015-03-14T15:43:47Z</time>
      </trkpt>
      <trkpt lat="40.202650" lon="-5.050400">
        <ele>1634.0</ele>
        <time>2015-03-14T15:43:49Z</time>
      </trkpt>
      <trkpt lat="40.202617" lon="-5.050683">
        <ele>1631.0</ele>
        <time>2015-03-14T15:43:51Z</time>
      </trkpt>
      <trkpt lat="40.202517" lon="-5.050950">
        <ele>1627.0</ele>
        <time>2015-03-14T15:43:53Z</time>
      </trkpt>
      <trkpt lat="40.202417" lon="-5.051183">
        <ele>1624.0</ele>
        <time>2015-03-14T15:43:55Z</time>
      </trkpt>
      <trkpt lat="40.202367" lon="-5.051417">
        <ele>1620.0</ele>
        <time>2015-03-14T15:43:57Z</time>
      </trkpt>
      <trkpt lat="40.202350" lon="-5.051667">
        <ele>1613.0</ele>
        <time>2015-03-14T15:43:59Z</time>
      </trkpt>
      <trkpt lat="40.202317" lon="-5.051950">
        <ele>1605.0</ele>
        <time>2015-03-14T15:44:01Z</time>
      </trkpt>
      <trkpt lat="40.202283" lon="-5.052200">
        <ele>1600.0</ele>
        <time>2015-03-14T15:44:03Z</time>
      </trkpt>
      <trkpt lat="40.202233" lon="-5.052433">
        <ele>1595.0</ele>
        <time>2015-03-14T15:44:05Z</time>
      </trkpt>
      <trkpt lat="40.202183" lon="-5.052700">
        <ele>1588.0</ele>
        <time>2015-03-14T15:44:07Z</time>
      </trkpt>
      <trkpt lat="40.202117" lon="-5.052983">
        <ele>1580.0</ele>
        <time>2015-03-14T15:44:09Z</time>
      </trkpt>
      <trkpt lat="40.202100" lon="-5.053233">
        <ele>1576.0</ele>
        <time>2015-03-14T15:44:11Z</time>
      </trkpt>
      <trkpt lat="40.202050" lon="-5.053483">
        <ele>1570.0</ele>
        <time>2015-03-14T15:44:13Z</time>
      </trkpt>
      <trkpt lat="40.201967" lon="-5.053633">
        <ele>1565.0</ele>
        <time>2015-03-14T15:44:15Z</time>
      </trkpt>
      <trkpt lat="40.201933" lon="-5.053867">
        <ele>1562.0</ele>
        <time>2015-03-14T15:44:17Z</time>
      </trkpt>
      <trkpt lat="40.201850" lon="-5.054117">
        <ele>1559.0</ele>
        <time>2015-03-14T15:44:19Z</time>
      </trkpt>
      <trkpt lat="40.201750" lon="-5.054367">
        <ele>1556.0</ele>
        <time>2015-03-14T15:44:21Z</time>
      </trkpt>
      <trkpt lat="40.201700" lon="-5.054633">
        <ele>1553.0</ele>
        <time>2015-03-14T15:44:23Z</time>
      </trkpt>
      <trkpt lat="40.201633" lon="-5.054917">
        <ele>1548.0</ele>
        <time>2015-03-14T15:44:25Z</time>
      </trkpt>
      <trkpt lat="40.201567" lon="-5.055183">
        <ele>1545.0</ele>
        <time>2015-03-14T15:44:27Z</time>
      </trkpt>
      <trkpt lat="40.201483" lon="-5.055400">
        <ele>1542.0</ele>
        <time>2015-03-14T15:44:29Z</time>
      </trkpt>
      <trkpt lat="40.201417" lon="-5.055617">
        <ele>1538.0</ele>
        <time>2015-03-14T15:44:31Z</time>
      </trkpt>
      <trkpt lat="40.201317" lon="-5.055883">
        <ele>1531.0</ele>
        <time>2015-03-14T15:44:33Z</time>
      </trkpt>
      <trkpt lat="40.201200" lon="-5.056133">
        <ele>1525.0</ele>
        <time>2015-03-14T15:44:35Z</time>
      </trkpt>
      <trkpt lat="40.201117" lon="-5.056350">
        <ele>1521.0</ele>
        <time>2015-03-14T15:44:37Z</time>
      </trkpt>
      <trkpt lat="40.201067" lon="-5.056567">
        <ele>1518.0</ele>
        <time>2015-03-14T15:44:39Z</time>
      </trkpt>
      <trkpt lat="40.201017" lon="-5.056817">
        <ele>1512.0</ele>
        <time>2015-03-14T15:44:41Z</time>
      </trkpt>
      <trkpt lat="40.200967" lon="-5.057067">
        <ele>1508.0</ele>
        <time>2015-03-14T15:44:43Z</time>
      </trkpt>
      <trkpt lat="40.200917" lon="-5.057300">
        <ele>1505.0</ele>
        <time>2015-03-14T15:44:45Z</time>
      </trkpt>
      <trkpt lat="40.200883" lon="-5.057567">
        <ele>1501.0</ele>
        <time>2015-03-14T15:44:47Z</time>
      </trkpt>
      <trkpt lat="40.200833" lon="-5.057817">
        <ele>1498.0</ele>
        <time>2015-03-14T15:44:49Z</time>
      </trkpt>
      <trkpt lat="40.200767" lon="-5.058050">
        <ele>1495.0</ele>
        <time>2015-03-14T15:44:51Z</time>
      </trkpt>
      <trkpt lat="40.200717" lon="-5.058317">
        <ele>1491.0</ele>
        <time>2015-03-14T15:44:53Z</time>
      </trkpt>
      <trkpt lat="40.200650" lon="-5.058567">
        <ele>1489.0</ele>
        <time>2015-03-14T15:44:55Z</time>
      </trkpt>
      <trkpt lat="40.200550" lon="-5.058783">
        <ele>1488.0</ele>
        <time>2015-03-14T15:44:57Z</time>
      </trkpt>
      <trkpt lat="40.200517" lon="-5.059033">
        <ele>1487.0</ele>
        <time>2015-03-14T15:44:59Z</time>
      </trkpt>
      <trkpt lat="40.200483" lon="-5.059317">
        <ele>1484.0</ele>
        <time>2015-03-14T15:45:01Z</time>
      </trkpt>
      <trkpt lat="40.200433" lon="-5.059567">
        <ele>1484.0</ele>
        <time>2015-03-14T15:45:03Z</time>
      </trkpt>
      <trkpt lat="40.200433" lon="-5.059783">
        <ele>1485.0</ele>
        <time>2015-03-14T15:45:05Z</time>
      </trkpt>
      <trkpt lat="40.200467" lon="-5.060033">
        <ele>1481.0</ele>
        <time>2015-03-14T15:45:07Z</time>
      </trkpt>
      <trkpt lat="40.200500" lon="-5.060300">
        <ele>1477.0</ele>
        <time>2015-03-14T15:45:09Z</time>
      </trkpt>
      <trkpt lat="40.200517" lon="-5.060517">
        <ele>1477.0</ele>
        <time>2015-03-14T15:45:11Z</time>
      </trkpt>
      <trkpt lat="40.200567" lon="-5.060750">
        <ele>1474.0</ele>
        <time>2015-03-14T15:45:13Z</time>
      </trkpt>
      <trkpt lat="40.200583" lon="-5.061033">
        <ele>1472.0</ele>
        <time>2015-03-14T15:45:15Z</time>
      </trkpt>
      <trkpt lat="40.200583" lon="-5.061233">
        <ele>1475.0</ele>
        <time>2015-03-14T15:45:17Z</time>
      </trkpt>
      <trkpt lat="40.200533" lon="-5.061400">
        <ele>1476.0</ele>
        <time>2015-03-14T15:45:19Z</time>
      </trkpt>
      <trkpt lat="40.200433" lon="-5.061600">
        <ele>1473.0</ele>
        <time>2015-03-14T15:45:21Z</time>
      </trkpt>
      <trkpt lat="40.200300" lon="-5.061800">
        <ele>1472.0</ele>
        <time>2015-03-14T15:45:23Z</time>
      </trkpt>
      <trkpt lat="40.200217" lon="-5.061983">
        <ele>1474.0</ele>
        <time>2015-03-14T15:45:25Z</time>
      </trkpt>
      <trkpt lat="40.200150" lon="-5.062217">
        <ele>1474.0</ele>
        <time>2015-03-14T15:45:27Z</time>
      </trkpt>
      <trkpt lat="40.200083" lon="-5.062500">
        <ele>1472.0</ele>
        <time>2015-03-14T15:45:29Z</time>
      </trkpt>
      <trkpt lat="40.200067" lon="-5.062750">
        <ele>1474.0</ele>
        <time>2015-03-14T15:45:31Z</time>
      </trkpt>
      <trkpt lat="40.200100" lon="-5.062967">
        <ele>1474.0</ele>
        <time>2015-03-14T15:45:33Z</time>
      </trkpt>
      <trkpt lat="40.200167" lon="-5.063217">
        <ele>1473.0</ele>
        <time>2015-03-14T15:45:35Z</time>
      </trkpt>
      <trkpt lat="40.200250" lon="-5.063450">
        <ele>1473.0</ele>
        <time>2015-03-14T15:45:37Z</time>
      </trkpt>
      <trkpt lat="40.200350" lon="-5.063650">
        <ele>1476.0</ele>
        <time>2015-03-14T15:45:39Z</time>
      </trkpt>
      <trkpt lat="40.200483" lon="-5.063800">
        <ele>1476.0</ele>
        <time>2015-03-14T15:45:41Z</time>
      </trkpt>
      <trkpt lat="40.200667" lon="-5.063933">
        <ele>1474.0</ele>
        <time>2015-03-14T15:45:43Z</time>
      </trkpt>
      <trkpt lat="40.200833" lon="-5.064017">
        <ele>1473.0</ele>
        <time>2015-03-14T15:45:45Z</time>
      </trkpt>
      <trkpt lat="40.201017" lon="-5.064067">
        <ele>1471.0</ele>
        <time>2015-03-14T15:45:47Z</time>
      </trkpt>
      <trkpt lat="40.201200" lon="-5.064133">
        <ele>1469.0</ele>
        <time>2015-03-14T15:45:49Z</time>
      </trkpt>
      <trkpt lat="40.201367" lon="-5.064283">
        <ele>1466.0</ele>
        <time>2015-03-14T15:45:51Z</time>
      </trkpt>
      <trkpt lat="40.201500" lon="-5.064500">
        <ele>1462.0</ele>
        <time>2015-03-14T15:45:53Z</time>
      </trkpt>
      <trkpt lat="40.201583" lon="-5.064717">
        <ele>1460.0</ele>
        <time>2015-03-14T15:45:55Z</time>
      </trkpt>
      <trkpt lat="40.201583" lon="-5.064950">
        <ele>1457.0</ele>
        <time>2015-03-14T15:45:57Z</time>
      </trkpt>
      <trkpt lat="40.201567" lon="-5.065150">
        <ele>1453.0</ele>
        <time>2015-03-14T15:45:59Z</time>
      </trkpt>
      <trkpt lat="40.201500" lon="-5.065350">
        <ele>1449.0</ele>
        <time>2015-03-14T15:46:01Z</time>
      </trkpt>
      <trkpt lat="40.201433" lon="-5.065533">
        <ele>1445.0</ele>
        <time>2015-03-14T15:46:03Z</time>
      </trkpt>
      <trkpt lat="40.201383" lon="-5.065767">
        <ele>1440.0</ele>
        <time>2015-03-14T15:46:05Z</time>
      </trkpt>
      <trkpt lat="40.201283" lon="-5.065933">
        <ele>1435.0</ele>
        <time>2015-03-14T15:46:07Z</time>
      </trkpt>
      <trkpt lat="40.201183" lon="-5.066100">
        <ele>1429.0</ele>
        <time>2015-03-14T15:46:09Z</time>
      </trkpt>
      <trkpt lat="40.201100" lon="-5.066267">
        <ele>1424.0</ele>
        <time>2015-03-14T15:46:11Z</time>
      </trkpt>
      <trkpt lat="40.200983" lon="-5.066417">
        <ele>1419.0</ele>
        <time>2015-03-14T15:46:13Z</time>
      </trkpt>
      <trkpt lat="40.200867" lon="-5.066550">
        <ele>1416.0</ele>
        <time>2015-03-14T15:46:15Z</time>
      </trkpt>
      <trkpt lat="40.200717" lon="-5.066667">
        <ele>1415.0</ele>
        <time>2015-03-14T15:46:17Z</time>
      </trkpt>
      <trkpt lat="40.200567" lon="-5.066717">
        <ele>1415.0</ele>
        <time>2015-03-14T15:46:19Z</time>
      </trkpt>
      <trkpt lat="40.200400" lon="-5.066767">
        <ele>1414.0</ele>
        <time>2015-03-14T15:46:21Z</time>
      </trkpt>
      <trkpt lat="40.200217" lon="-5.066800">
        <ele>1412.0</ele>
        <time>2015-03-14T15:46:23Z</time>
      </trkpt>
      <trkpt lat="40.200033" lon="-5.066817">
        <ele>1410.0</ele>
        <time>2015-03-14T15:46:25Z</time>
      </trkpt>
      <trkpt lat="40.199867" lon="-5.066833">
        <ele>1411.0</ele>
        <time>2015-03-14T15:46:27Z</time>
      </trkpt>
      <trkpt lat="40.199717" lon="-5.066817">
        <ele>1408.0</ele>
        <time>2015-03-14T15:46:29Z</time>
      </trkpt>
      <trkpt lat="40.199533" lon="-5.066817">
        <ele>1404.0</ele>
        <time>2015-03-14T15:46:31Z</time>
      </trkpt>
      <trkpt lat="40.199383" lon="-5.066817">
        <ele>1401.0</ele>
        <time>2015-03-14T15:46:33Z</time>
      </trkpt>
      <trkpt lat="40.199217" lon="-5.066850">
        <ele>1399.0</ele>
        <time>2015-03-14T15:46:35Z</time>
      </trkpt>
      <trkpt lat="40.199067" lon="-5.066900">
        <ele>1395.0</ele>
        <time>2015-03-14T15:46:37Z</time>
      </trkpt>
      <trkpt lat="40.198933" lon="-5.067017">
        <ele>1391.0</ele>
        <time>2015-03-14T15:46:39Z</time>
      </trkpt>
      <trkpt lat="40.198783" lon="-5.067117">
        <ele>1388.0</ele>
        <time>2015-03-14T15:46:41Z</time>
      </trkpt>
      <trkpt lat="40.198633" lon="-5.067233">
        <ele>1385.0</ele>
        <time>2015-03-14T15:46:43Z</time>
      </trkpt>
      <trkpt lat="40.198483" lon="-5.067333">
        <ele>1382.0</ele>
        <time>2015-03-14T15:46:45Z</time>
      </trkpt>
      <trkpt lat="40.198350" lon="-5.067450">
        <ele>1380.0</ele>
        <time>2015-03-14T15:46:47Z</time>
      </trkpt>
      <trkpt lat="40.198200" lon="-5.067583">
        <ele>1377.0</ele>
        <time>2015-03-14T15:46:49Z</time>
      </trkpt>
      <trkpt lat="40.198067" lon="-5.067717">
        <ele>1373.0</ele>
        <time>2015-03-14T15:46:51Z</time>
      </trkpt>
      <trkpt lat="40.197933" lon="-5.067867">
        <ele>1368.0</ele>
        <time>2015-03-14T15:46:53Z</time>
      </trkpt>
      <trkpt lat="40.197800" lon="-5.068033">
        <ele>1365.0</ele>
        <time>2015-03-14T15:46:55Z</time>
      </trkpt>
      <trkpt lat="40.197650" lon="-5.068083">
        <ele>1362.0</ele>
        <time>2015-03-14T15:46:57Z</time>
      </trkpt>
      <trkpt lat="40.197500" lon="-5.068133">
        <ele>1363.0</ele>
        <time>2015-03-14T15:46:59Z</time>
      </trkpt>
      <trkpt lat="40.197333" lon="-5.068217">
        <ele>1361.0</ele>
        <time>2015-03-14T15:47:01Z</time>
      </trkpt>
      <trkpt lat="40.197183" lon="-5.068283">
        <ele>1358.0</ele>
        <time>2015-03-14T15:47:03Z</time>
      </trkpt>
      <trkpt lat="40.197033" lon="-5.068350">
        <ele>1354.0</ele>
        <time>2015-03-14T15:47:05Z</time>
      </trkpt>
      <trkpt lat="40.196883" lon="-5.068450">
        <ele>1350.0</ele>
        <time>2015-03-14T15:47:07Z</time>
      </trkpt>
      <trkpt lat="40.196750" lon="-5.068583">
        <ele>1346.0</ele>
        <time>2015-03-14T15:47:09Z</time>
      </trkpt>
      <trkpt lat="40.196600" lon="-5.068700">
        <ele>1342.0</ele>
        <time>2015-03-14T15:47:11Z</time>
      </trkpt>
      <trkpt lat="40.196450" lon="-5.068817">
        <ele>1337.0</ele>
        <time>2015-03-14T15:47:13Z</time>
      </trkpt>
      <trkpt lat="40.196300" lon="-5.068950">
        <ele>1333.0</ele>
        <time>2015-03-14T15:47:15Z</time>
      </trkpt>
      <trkpt lat="40.196167" lon="-5.069067">
        <ele>1331.0</ele>
        <time>2015-03-14T15:47:17Z</time>
      </trkpt>
      <trkpt lat="40.196050" lon="-5.069200">
        <ele>1327.0</ele>
        <time>2015-03-14T15:47:19Z</time>
      </trkpt>
      <trkpt lat="40.195917" lon="-5.069333">
        <ele>1322.0</ele>
        <time>2015-03-14T15:47:21Z</time>
      </trkpt>
      <trkpt lat="40.195783" lon="-5.069483">
        <ele>1318.0</ele>
        <time>2015-03-14T15:47:23Z</time>
      </trkpt>
      <trkpt lat="40.195650" lon="-5.069600">
        <ele>1315.0</ele>
        <time>2015-03-14T15:47:25Z</time>
      </trkpt>
      <trkpt lat="40.195517" lon="-5.069733">
        <ele>1311.0</ele>
        <time>2015-03-14T15:47:27Z</time>
      </trkpt>
      <trkpt lat="40.195383" lon="-5.069850">
        <ele>1308.0</ele>
        <time>2015-03-14T15:47:29Z</time>
      </trkpt>
      <trkpt lat="40.195233" lon="-5.069967">
        <ele>1305.0</ele>
        <time>2015-03-14T15:47:31Z</time>
      </trkpt>
      <trkpt lat="40.195083" lon="-5.070067">
        <ele>1301.0</ele>
        <time>2015-03-14T15:47:33Z</time>
      </trkpt>
      <trkpt lat="40.194950" lon="-5.070183">
        <ele>1298.0</ele>
        <time>2015-03-14T15:47:35Z</time>
      </trkpt>
      <trkpt lat="40.194817" lon="-5.070350">
        <ele>1293.0</ele>
        <time>2015-03-14T15:47:37Z</time>
      </trkpt>
      <trkpt lat="40.194667" lon="-5.070467">
        <ele>1290.0</ele>
        <time>2015-03-14T15:47:39Z</time>
      </trkpt>
      <trkpt lat="40.194533" lon="-5.070600">
        <ele>1288.0</ele>
        <time>2015-03-14T15:47:41Z</time>
      </trkpt>
      <trkpt lat="40.194400" lon="-5.070717">
        <ele>1287.0</ele>
        <time>2015-03-14T15:47:43Z</time>
      </trkpt>
      <trkpt lat="40.194250" lon="-5.070850">
        <ele>1285.0</ele>
        <time>2015-03-14T15:47:45Z</time>
      </trkpt>
      <trkpt lat="40.194117" lon="-5.070967">
        <ele>1284.0</ele>
        <time>2015-03-14T15:47:47Z</time>
      </trkpt>
      <trkpt lat="40.193983" lon="-5.071083">
        <ele>1283.0</ele>
        <time>2015-03-14T15:47:49Z</time>
      </trkpt>
      <trkpt lat="40.193833" lon="-5.071217">
        <ele>1280.0</ele>
        <time>2015-03-14T15:47:51Z</time>
      </trkpt>
      <trkpt lat="40.193667" lon="-5.071300">
        <ele>1280.0</ele>
        <time>2015-03-14T15:47:53Z</time>
      </trkpt>
      <trkpt lat="40.193500" lon="-5.071417">
        <ele>1279.0</ele>
        <time>2015-03-14T15:47:55Z</time>
      </trkpt>
      <trkpt lat="40.193333" lon="-5.071533">
        <ele>1277.0</ele>
        <time>2015-03-14T15:47:57Z</time>
      </trkpt>
      <trkpt lat="40.193150" lon="-5.071617">
        <ele>1275.0</ele>
        <time>2015-03-14T15:47:59Z</time>
      </trkpt>
      <trkpt lat="40.193000" lon="-5.071683">
        <ele>1274.0</ele>
        <time>2015-03-14T15:48:01Z</time>
      </trkpt>
      <trkpt lat="40.192867" lon="-5.071767">
        <ele>1271.0</ele>
        <time>2015-03-14T15:48:03Z</time>
      </trkpt>
      <trkpt lat="40.192733" lon="-5.071900">
        <ele>1267.0</ele>
        <time>2015-03-14T15:48:05Z</time>
      </trkpt>
      <trkpt lat="40.192583" lon="-5.072033">
        <ele>1264.0</ele>
        <time>2015-03-14T15:48:07Z</time>
      </trkpt>
      <trkpt lat="40.192467" lon="-5.072083">
        <ele>1265.0</ele>
        <time>2015-03-14T15:48:09Z</time>
      </trkpt>
      <trkpt lat="40.192317" lon="-5.072150">
        <ele>1261.0</ele>
        <time>2015-03-14T15:48:11Z</time>
      </trkpt>
      <trkpt lat="40.192133" lon="-5.072250">
        <ele>1256.0</ele>
        <time>2015-03-14T15:48:13Z</time>
      </trkpt>
      <trkpt lat="40.192000" lon="-5.072350">
        <ele>1256.0</ele>
        <time>2015-03-14T15:48:15Z</time>
      </trkpt>
      <trkpt lat="40.191917" lon="-5.072467">
        <ele>1255.0</ele>
        <time>2015-03-14T15:48:17Z</time>
      </trkpt>
      <trkpt lat="40.191833" lon="-5.072617">
        <ele>1251.0</ele>
        <time>2015-03-14T15:48:19Z</time>
      </trkpt>
      <trkpt lat="40.191717" lon="-5.072783">
        <ele>1250.0</ele>
        <time>2015-03-14T15:48:21Z</time>
      </trkpt>
      <trkpt lat="40.191683" lon="-5.072950">
        <ele>1248.0</ele>
        <time>2015-03-14T15:48:23Z</time>
      </trkpt>
      <trkpt lat="40.191633" lon="-5.073150">
        <ele>1244.0</ele>
        <time>2015-03-14T15:48:25Z</time>
      </trkpt>
      <trkpt lat="40.191550" lon="-5.073367">
        <ele>1241.0</ele>
        <time>2015-03-14T15:48:27Z</time>
      </trkpt>
      <trkpt lat="40.191517" lon="-5.073533">
        <ele>1241.0</ele>
        <time>2015-03-14T15:48:29Z</time>
      </trkpt>
      <trkpt lat="40.191467" lon="-5.073717">
        <ele>1238.0</ele>
        <time>2015-03-14T15:48:31Z</time>
      </trkpt>
      <trkpt lat="40.191400" lon="-5.073933">
        <ele>1235.0</ele>
        <time>2015-03-14T15:48:33Z</time>
      </trkpt>
      <trkpt lat="40.191350" lon="-5.074117">
        <ele>1232.0</ele>
        <time>2015-03-14T15:48:35Z</time>
      </trkpt>
      <trkpt lat="40.191283" lon="-5.074300">
        <ele>1230.0</ele>
        <time>2015-03-14T15:48:37Z</time>
      </trkpt>
      <trkpt lat="40.191200" lon="-5.074500">
        <ele>1227.0</ele>
        <time>2015-03-14T15:48:39Z</time>
      </trkpt>
      <trkpt lat="40.191117" lon="-5.074700">
        <ele>1225.0</ele>
        <time>2015-03-14T15:48:41Z</time>
      </trkpt>
      <trkpt lat="40.191033" lon="-5.074883">
        <ele>1224.0</ele>
        <time>2015-03-14T15:48:43Z</time>
      </trkpt>
      <trkpt lat="40.190950" lon="-5.075083">
        <ele>1222.0</ele>
        <time>2015-03-14T15:48:45Z</time>
      </trkpt>
      <trkpt lat="40.190850" lon="-5.075267">
        <ele>1219.0</ele>
        <time>2015-03-14T15:48:47Z</time>
      </trkpt>
      <trkpt lat="40.190750" lon="-5.075450">
        <ele>1215.0</ele>
        <time>2015-03-14T15:48:49Z</time>
      </trkpt>
      <trkpt lat="40.190633" lon="-5.075650">
        <ele>1210.0</ele>
        <time>2015-03-14T15:48:51Z</time>
      </trkpt>
      <trkpt lat="40.190533" lon="-5.075817">
        <ele>1208.0</ele>
        <time>2015-03-14T15:48:53Z</time>
      </trkpt>
      <trkpt lat="40.190450" lon="-5.075967">
        <ele>1206.0</ele>
        <time>2015-03-14T15:48:55Z</time>
      </trkpt>
      <trkpt lat="40.190350" lon="-5.076133">
        <ele>1202.0</ele>
        <time>2015-03-14T15:48:57Z</time>
      </trkpt>
      <trkpt lat="40.190250" lon="-5.076267">
        <ele>1198.0</ele>
        <time>2015-03-14T15:48:59Z</time>
      </trkpt>
      <trkpt lat="40.190150" lon="-5.076433">
        <ele>1192.0</ele>
        <time>2015-03-14T15:49:01Z</time>
      </trkpt>
      <trkpt lat="40.190017" lon="-5.076617">
        <ele>1186.0</ele>
        <time>2015-03-14T15:49:03Z</time>
      </trkpt>
      <trkpt lat="40.189900" lon="-5.076800">
        <ele>1183.0</ele>
        <time>2015-03-14T15:49:05Z</time>
      </trkpt>
      <trkpt lat="40.189800" lon="-5.076967">
        <ele>1180.0</ele>
        <time>2015-03-14T15:49:07Z</time>
      </trkpt>
      <trkpt lat="40.189667" lon="-5.077133">
        <ele>1175.0</ele>
        <time>2015-03-14T15:49:09Z</time>
      </trkpt>
      <trkpt lat="40.189550" lon="-5.077333">
        <ele>1172.0</ele>
        <time>2015-03-14T15:49:11Z</time>
      </trkpt>
      <trkpt lat="40.189467" lon="-5.077517">
        <ele>1170.0</ele>
        <time>2015-03-14T15:49:13Z</time>
      </trkpt>
      <trkpt lat="40.189367" lon="-5.077700">
        <ele>1167.0</ele>
        <time>2015-03-14T15:49:15Z</time>
      </trkpt>
      <trkpt lat="40.189267" lon="-5.077883">
        <ele>1164.0</ele>
        <time>2015-03-14T15:49:17Z</time>
      </trkpt>
      <trkpt lat="40.189167" lon="-5.078067">
        <ele>1161.0</ele>
        <time>2015-03-14T15:49:19Z</time>
      </trkpt>
      <trkpt lat="40.189117" lon="-5.078200">
        <ele>1156.0</ele>
        <time>2015-03-14T15:49:21Z</time>
      </trkpt>
      <trkpt lat="40.189033" lon="-5.078367">
        <ele>1158.0</ele>
        <time>2015-03-14T15:49:23Z</time>
      </trkpt>
      <trkpt lat="40.188900" lon="-5.078533">
        <ele>1161.0</ele>
        <time>2015-03-14T15:49:25Z</time>
      </trkpt>
      <trkpt lat="40.188800" lon="-5.078717">
        <ele>1158.0</ele>
        <time>2015-03-14T15:49:27Z</time>
      </trkpt>
      <trkpt lat="40.188733" lon="-5.078917">
        <ele>1156.0</ele>
        <time>2015-03-14T15:49:29Z</time>
      </trkpt>
      <trkpt lat="40.188683" lon="-5.079100">
        <ele>1153.0</ele>
        <time>2015-03-14T15:49:31Z</time>
      </trkpt>
      <trkpt lat="40.188617" lon="-5.079300">
        <ele>1148.0</ele>
        <time>2015-03-14T15:49:33Z</time>
      </trkpt>
      <trkpt lat="40.188533" lon="-5.079500">
        <ele>1145.0</ele>
        <time>2015-03-14T15:49:35Z</time>
      </trkpt>
      <trkpt lat="40.188450" lon="-5.079683">
        <ele>1145.0</ele>
        <time>2015-03-14T15:49:37Z</time>
      </trkpt>
      <trkpt lat="40.188367" lon="-5.079867">
        <ele>1142.0</ele>
        <time>2015-03-14T15:49:39Z</time>
      </trkpt>
      <trkpt lat="40.188283" lon="-5.080067">
        <ele>1140.0</ele>
        <time>2015-03-14T15:49:41Z</time>
      </trkpt>
      <trkpt lat="40.188217" lon="-5.080233">
        <ele>1139.0</ele>
        <time>2015-03-14T15:49:43Z</time>
      </trkpt>
      <trkpt lat="40.188133" lon="-5.080417">
        <ele>1137.0</ele>
        <time>2015-03-14T15:49:45Z</time>
      </trkpt>
      <trkpt lat="40.188083" lon="-5.080600">
        <ele>1137.0</ele>
        <time>2015-03-14T15:49:47Z</time>
      </trkpt>
      <trkpt lat="40.188033" lon="-5.080767">
        <ele>1137.0</ele>
        <time>2015-03-14T15:49:49Z</time>
      </trkpt>
      <trkpt lat="40.188000" lon="-5.080933">
        <ele>1136.0</ele>
        <time>2015-03-14T15:49:51Z</time>
      </trkpt>
      <trkpt lat="40.187983" lon="-5.081117">
        <ele>1136.0</ele>
        <time>2015-03-14T15:49:53Z</time>
      </trkpt>
      <trkpt lat="40.187933" lon="-5.081283">
        <ele>1137.0</ele>
        <time>2015-03-14T15:49:55Z</time>
      </trkpt>
      <trkpt lat="40.187867" lon="-5.081417">
        <ele>1136.0</ele>
        <time>2015-03-14T15:49:57Z</time>
      </trkpt>
      <trkpt lat="40.187783" lon="-5.081550">
        <ele>1135.0</ele>
        <time>2015-03-14T15:49:59Z</time>
      </trkpt>
      <trkpt lat="40.187683" lon="-5.081650">
        <ele>1133.0</ele>
        <time>2015-03-14T15:50:01Z</time>
      </trkpt>
      <trkpt lat="40.187550" lon="-5.081783">
        <ele>1129.0</ele>
        <time>2015-03-14T15:50:03Z</time>
      </trkpt>
      <trkpt lat="40.187450" lon="-5.081933">
        <ele>1125.0</ele>
        <time>2015-03-14T15:50:05Z</time>
      </trkpt>
      <trkpt lat="40.187350" lon="-5.082100">
        <ele>1121.0</ele>
        <time>2015-03-14T15:50:07Z</time>
      </trkpt>
      <trkpt lat="40.187267" lon="-5.082267">
        <ele>1117.0</ele>
        <time>2015-03-14T15:50:09Z</time>
      </trkpt>
      <trkpt lat="40.187167" lon="-5.082450">
        <ele>1115.0</ele>
        <time>2015-03-14T15:50:11Z</time>
      </trkpt>
      <trkpt lat="40.187050" lon="-5.082567">
        <ele>1113.0</ele>
        <time>2015-03-14T15:50:13Z</time>
      </trkpt>
      <trkpt lat="40.186917" lon="-5.082667">
        <ele>1110.0</ele>
        <time>2015-03-14T15:50:15Z</time>
      </trkpt>
      <trkpt lat="40.186783" lon="-5.082750">
        <ele>1107.0</ele>
        <time>2015-03-14T15:50:17Z</time>
      </trkpt>
      <trkpt lat="40.186667" lon="-5.082833">
        <ele>1105.0</ele>
        <time>2015-03-14T15:50:19Z</time>
      </trkpt>
      <trkpt lat="40.186533" lon="-5.082917">
        <ele>1101.0</ele>
        <time>2015-03-14T15:50:21Z</time>
      </trkpt>
      <trkpt lat="40.186417" lon="-5.083033">
        <ele>1098.0</ele>
        <time>2015-03-14T15:50:23Z</time>
      </trkpt>
      <trkpt lat="40.186317" lon="-5.083117">
        <ele>1098.0</ele>
        <time>2015-03-14T15:50:25Z</time>
      </trkpt>
      <trkpt lat="40.186217" lon="-5.083167">
        <ele>1095.0</ele>
        <time>2015-03-14T15:50:27Z</time>
      </trkpt>
      <trkpt lat="40.186083" lon="-5.083217">
        <ele>1090.0</ele>
        <time>2015-03-14T15:50:29Z</time>
      </trkpt>
      <trkpt lat="40.185917" lon="-5.083250">
        <ele>1088.0</ele>
        <time>2015-03-14T15:50:31Z</time>
      </trkpt>
      <trkpt lat="40.185800" lon="-5.083300">
        <ele>1086.0</ele>
        <time>2015-03-14T15:50:33Z</time>
      </trkpt>
      <trkpt lat="40.185667" lon="-5.083383">
        <ele>1081.0</ele>
        <time>2015-03-14T15:50:35Z</time>
      </trkpt>
      <trkpt lat="40.185500" lon="-5.083500">
        <ele>1079.0</ele>
        <time>2015-03-14T15:50:37Z</time>
      </trkpt>
      <trkpt lat="40.185383" lon="-5.083583">
        <ele>1080.0</ele>
        <time>2015-03-14T15:50:39Z</time>
      </trkpt>
      <trkpt lat="40.185250" lon="-5.083650">
        <ele>1080.0</ele>
        <time>2015-03-14T15:50:41Z</time>
      </trkpt>
      <trkpt lat="40.185117" lon="-5.083733">
        <ele>1078.0</ele>
        <time>2015-03-14T15:50:43Z</time>
      </trkpt>
      <trkpt lat="40.185000" lon="-5.083850">
        <ele>1077.0</ele>
        <time>2015-03-14T15:50:45Z</time>
      </trkpt>
      <trkpt lat="40.184900" lon="-5.084033">
        <ele>1075.0</ele>
        <time>2015-03-14T15:50:47Z</time>
      </trkpt>
      <trkpt lat="40.184800" lon="-5.084217">
        <ele>1074.0</ele>
        <time>2015-03-14T15:50:49Z</time>
      </trkpt>
      <trkpt lat="40.184733" lon="-5.084400">
        <ele>1073.0</ele>
        <time>2015-03-14T15:50:51Z</time>
      </trkpt>
      <trkpt lat="40.184667" lon="-5.084617">
        <ele>1071.0</ele>
        <time>2015-03-14T15:50:53Z</time>
      </trkpt>
      <trkpt lat="40.184583" lon="-5.084783">
        <ele>1074.0</ele>
        <time>2015-03-14T15:50:55Z</time>
      </trkpt>
      <trkpt lat="40.184500" lon="-5.084917">
        <ele>1074.0</ele>
        <time>2015-03-14T15:50:57Z</time>
      </trkpt>
      <trkpt lat="40.184400" lon="-5.085050">
        <ele>1072.0</ele>
        <time>2015-03-14T15:50:59Z</time>
      </trkpt>
      <trkpt lat="40.184250" lon="-5.085150">
        <ele>1070.0</ele>
        <time>2015-03-14T15:51:01Z</time>
      </trkpt>
      <trkpt lat="40.184150" lon="-5.085267">
        <ele>1068.0</ele>
        <time>2015-03-14T15:51:03Z</time>
      </trkpt>
      <trkpt lat="40.184083" lon="-5.085417">
        <ele>1065.0</ele>
        <time>2015-03-14T15:51:05Z</time>
      </trkpt>
      <trkpt lat="40.184000" lon="-5.085583">
        <ele>1061.0</ele>
        <time>2015-03-14T15:51:07Z</time>
      </trkpt>
      <trkpt lat="40.183900" lon="-5.085733">
        <ele>1059.0</ele>
        <time>2015-03-14T15:51:09Z</time>
      </trkpt>
      <trkpt lat="40.183817" lon="-5.085900">
        <ele>1059.0</ele>
        <time>2015-03-14T15:51:11Z</time>
      </trkpt>
      <trkpt lat="40.183783" lon="-5.086050">
        <ele>1060.0</ele>
        <time>2015-03-14T15:51:13Z</time>
      </trkpt>
      <trkpt lat="40.183767" lon="-5.086217">
        <ele>1057.0</ele>
        <time>2015-03-14T15:51:15Z</time>
      </trkpt>
      <trkpt lat="40.183800" lon="-5.086417">
        <ele>1055.0</ele>
        <time>2015-03-14T15:51:17Z</time>
      </trkpt>
      <trkpt lat="40.183817" lon="-5.086600">
        <ele>1054.0</ele>
        <time>2015-03-14T15:51:19Z</time>
      </trkpt>
      <trkpt lat="40.183800" lon="-5.086783">
        <ele>1053.0</ele>
        <time>2015-03-14T15:51:21Z</time>
      </trkpt>
      <trkpt lat="40.183783" lon="-5.086983">
        <ele>1052.0</ele>
        <time>2015-03-14T15:51:23Z</time>
      </trkpt>
      <trkpt lat="40.183750" lon="-5.087150">
        <ele>1052.0</ele>
        <time>2015-03-14T15:51:25Z</time>
      </trkpt>
      <trkpt lat="40.183700" lon="-5.087300">
        <ele>1051.0</ele>
        <time>2015-03-14T15:51:27Z</time>
      </trkpt>
      <trkpt lat="40.183633" lon="-5.087433">
        <ele>1047.0</ele>
        <time>2015-03-14T15:51:29Z</time>
      </trkpt>
      <trkpt lat="40.183550" lon="-5.087583">
        <ele>1044.0</ele>
        <time>2015-03-14T15:51:31Z</time>
      </trkpt>
      <trkpt lat="40.183483" lon="-5.087733">
        <ele>1041.0</ele>
        <time>2015-03-14T15:51:33Z</time>
      </trkpt>
      <trkpt lat="40.183417" lon="-5.087883">
        <ele>1037.0</ele>
        <time>2015-03-14T15:51:35Z</time>
      </trkpt>
      <trkpt lat="40.183367" lon="-5.088067">
        <ele>1035.0</ele>
        <time>2015-03-14T15:51:37Z</time>
      </trkpt>
      <trkpt lat="40.183350" lon="-5.088217">
        <ele>1036.0</ele>
        <time>2015-03-14T15:51:39Z</time>
      </trkpt>
      <trkpt lat="40.183400" lon="-5.088367">
        <ele>1033.0</ele>
        <time>2015-03-14T15:51:41Z</time>
      </trkpt>
      <trkpt lat="40.183433" lon="-5.088550">
        <ele>1029.0</ele>
        <time>2015-03-14T15:51:43Z</time>
      </trkpt>
      <trkpt lat="40.183417" lon="-5.088717">
        <ele>1028.0</ele>
        <time>2015-03-14T15:51:45Z</time>
      </trkpt>
      <trkpt lat="40.183383" lon="-5.088833">
        <ele>1029.0</ele>
        <time>2015-03-14T15:51:47Z</time>
      </trkpt>
      <trkpt lat="40.183317" lon="-5.088917">
        <ele>1029.0</ele>
        <time>2015-03-14T15:51:49Z</time>
      </trkpt>
      <trkpt lat="40.183217" lon="-5.089000">
        <ele>1029.0</ele>
        <time>2015-03-14T15:51:51Z</time>
      </trkpt>
      <trkpt lat="40.183117" lon="-5.089033">
        <ele>1029.0</ele>
        <time>2015-03-14T15:51:53Z</time>
      </trkpt>
      <trkpt lat="40.183000" lon="-5.089033">
        <ele>1028.0</ele>
        <time>2015-03-14T15:51:55Z</time>
      </trkpt>
      <trkpt lat="40.182867" lon="-5.089000">
        <ele>1029.0</ele>
        <time>2015-03-14T15:51:57Z</time>
      </trkpt>
      <trkpt lat="40.182733" lon="-5.088917">
        <ele>1028.0</ele>
        <time>2015-03-14T15:51:59Z</time>
      </trkpt>
      <trkpt lat="40.182600" lon="-5.088817">
        <ele>1028.0</ele>
        <time>2015-03-14T15:52:01Z</time>
      </trkpt>
      <trkpt lat="40.182500" lon="-5.088717">
        <ele>1026.0</ele>
        <time>2015-03-14T15:52:03Z</time>
      </trkpt>
      <trkpt lat="40.182400" lon="-5.088583">
        <ele>1022.0</ele>
        <time>2015-03-14T15:52:05Z</time>
      </trkpt>
      <trkpt lat="40.182300" lon="-5.088400">
        <ele>1019.0</ele>
        <time>2015-03-14T15:52:07Z</time>
      </trkpt>
      <trkpt lat="40.182217" lon="-5.088217">
        <ele>1019.0</ele>
        <time>2015-03-14T15:52:09Z</time>
      </trkpt>
      <trkpt lat="40.182167" lon="-5.088017">
        <ele>1016.0</ele>
        <time>2015-03-14T15:52:11Z</time>
      </trkpt>
      <trkpt lat="40.182117" lon="-5.087800">
        <ele>1012.0</ele>
        <time>2015-03-14T15:52:13Z</time>
      </trkpt>
      <trkpt lat="40.182017" lon="-5.087583">
        <ele>1009.0</ele>
        <time>2015-03-14T15:52:15Z</time>
      </trkpt>
      <trkpt lat="40.181900" lon="-5.087450">
        <ele>1009.0</ele>
        <time>2015-03-14T15:52:17Z</time>
      </trkpt>
      <trkpt lat="40.181800" lon="-5.087367">
        <ele>1008.0</ele>
        <time>2015-03-14T15:52:19Z</time>
      </trkpt>
      <trkpt lat="40.181650" lon="-5.087333">
        <ele>1004.0</ele>
        <time>2015-03-14T15:52:21Z</time>
      </trkpt>
      <trkpt lat="40.181500" lon="-5.087350">
        <ele>1001.0</ele>
        <time>2015-03-14T15:52:23Z</time>
      </trkpt>
      <trkpt lat="40.181383" lon="-5.087417">
        <ele>1000.0</ele>
        <time>2015-03-14T15:52:25Z</time>
      </trkpt>
      <trkpt lat="40.181283" lon="-5.087483">
        <ele>997.0</ele>
        <time>2015-03-14T15:52:27Z</time>
      </trkpt>
      <trkpt lat="40.181183" lon="-5.087617">
        <ele>991.0</ele>
        <time>2015-03-14T15:52:29Z</time>
      </trkpt>
      <trkpt lat="40.181067" lon="-5.087750">
        <ele>988.0</ele>
        <time>2015-03-14T15:52:31Z</time>
      </trkpt>
      <trkpt lat="40.180983" lon="-5.087883">
        <ele>987.0</ele>
        <time>2015-03-14T15:52:33Z</time>
      </trkpt>
      <trkpt lat="40.180900" lon="-5.088000">
        <ele>984.0</ele>
        <time>2015-03-14T15:52:35Z</time>
      </trkpt>
      <trkpt lat="40.180800" lon="-5.088133">
        <ele>979.0</ele>
        <time>2015-03-14T15:52:37Z</time>
      </trkpt>
      <trkpt lat="40.180700" lon="-5.088283">
        <ele>975.0</ele>
        <time>2015-03-14T15:52:39Z</time>
      </trkpt>
      <trkpt lat="40.180600" lon="-5.088400">
        <ele>972.0</ele>
        <time>2015-03-14T15:52:41Z</time>
      </trkpt>
      <trkpt lat="40.180500" lon="-5.088517">
        <ele>968.0</ele>
        <time>2015-03-14T15:52:43Z</time>
      </trkpt>
      <trkpt lat="40.180400" lon="-5.088650">
        <ele>964.0</ele>
        <time>2015-03-14T15:52:45Z</time>
      </trkpt>
      <trkpt lat="40.180300" lon="-5.088800">
        <ele>963.0</ele>
        <time>2015-03-14T15:52:47Z</time>
      </trkpt>
      <trkpt lat="40.180233" lon="-5.088917">
        <ele>961.0</ele>
        <time>2015-03-14T15:52:49Z</time>
      </trkpt>
      <trkpt lat="40.180167" lon="-5.089033">
        <ele>959.0</ele>
        <time>2015-03-14T15:52:51Z</time>
      </trkpt>
      <trkpt lat="40.180100" lon="-5.089167">
        <ele>958.0</ele>
        <time>2015-03-14T15:52:53Z</time>
      </trkpt>
      <trkpt lat="40.180067" lon="-5.089300">
        <ele>958.0</ele>
        <time>2015-03-14T15:52:55Z</time>
      </trkpt>
      <trkpt lat="40.180017" lon="-5.089433">
        <ele>956.0</ele>
        <time>2015-03-14T15:52:57Z</time>
      </trkpt>
      <trkpt lat="40.179933" lon="-5.089583">
        <ele>955.0</ele>
        <time>2015-03-14T15:52:59Z</time>
      </trkpt>
      <trkpt lat="40.179867" lon="-5.089717">
        <ele>955.0</ele>
        <time>2015-03-14T15:53:01Z</time>
      </trkpt>
      <trkpt lat="40.179800" lon="-5.089850">
        <ele>954.0</ele>
        <time>2015-03-14T15:53:03Z</time>
      </trkpt>
      <trkpt lat="40.179700" lon="-5.089983">
        <ele>954.0</ele>
        <time>2015-03-14T15:53:05Z</time>
      </trkpt>
      <trkpt lat="40.179617" lon="-5.090067">
        <ele>952.0</ele>
        <time>2015-03-14T15:53:07Z</time>
      </trkpt>
      <trkpt lat="40.179517" lon="-5.090150">
        <ele>948.0</ele>
        <time>2015-03-14T15:53:09Z</time>
      </trkpt>
      <trkpt lat="40.179417" lon="-5.090250">
        <ele>945.0</ele>
        <time>2015-03-14T15:53:11Z</time>
      </trkpt>
      <trkpt lat="40.179317" lon="-5.090333">
        <ele>943.0</ele>
        <time>2015-03-14T15:53:13Z</time>
      </trkpt>
      <trkpt lat="40.179217" lon="-5.090383">
        <ele>939.0</ele>
        <time>2015-03-14T15:53:15Z</time>
      </trkpt>
      <trkpt lat="40.179117" lon="-5.090450">
        <ele>935.0</ele>
        <time>2015-03-14T15:53:17Z</time>
      </trkpt>
      <trkpt lat="40.179033" lon="-5.090517">
        <ele>931.0</ele>
        <time>2015-03-14T15:53:19Z</time>
      </trkpt>
      <trkpt lat="40.178950" lon="-5.090633">
        <ele>926.0</ele>
        <time>2015-03-14T15:53:21Z</time>
      </trkpt>
      <trkpt lat="40.178850" lon="-5.090767">
        <ele>922.0</ele>
        <time>2015-03-14T15:53:23Z</time>
      </trkpt>
      <trkpt lat="40.178783" lon="-5.090883">
        <ele>919.0</ele>
        <time>2015-03-14T15:53:25Z</time>
      </trkpt>
      <trkpt lat="40.178683" lon="-5.091017">
        <ele>915.0</ele>
        <time>2015-03-14T15:53:27Z</time>
      </trkpt>
      <trkpt lat="40.178567" lon="-5.091133">
        <ele>911.0</ele>
        <time>2015-03-14T15:53:29Z</time>
      </trkpt>
      <trkpt lat="40.178483" lon="-5.091250">
        <ele>909.0</ele>
        <time>2015-03-14T15:53:31Z</time>
      </trkpt>
      <trkpt lat="40.178400" lon="-5.091367">
        <ele>905.0</ele>
        <time>2015-03-14T15:53:33Z</time>
      </trkpt>
      <trkpt lat="40.178283" lon="-5.091500">
        <ele>898.0</ele>
        <time>2015-03-14T15:53:35Z</time>
      </trkpt>
      <trkpt lat="40.178167" lon="-5.091633">
        <ele>894.0</ele>
        <time>2015-03-14T15:53:37Z</time>
      </trkpt>
      <trkpt lat="40.178067" lon="-5.091750">
        <ele>890.0</ele>
        <time>2015-03-14T15:53:39Z</time>
      </trkpt>
      <trkpt lat="40.177967" lon="-5.091900">
        <ele>885.0</ele>
        <time>2015-03-14T15:53:41Z</time>
      </trkpt>
      <trkpt lat="40.177867" lon="-5.092033">
        <ele>882.0</ele>
        <time>2015-03-14T15:53:43Z</time>
      </trkpt>
      <trkpt lat="40.177750" lon="-5.092133">
        <ele>878.0</ele>
        <time>2015-03-14T15:53:45Z</time>
      </trkpt>
      <trkpt lat="40.177633" lon="-5.092250">
        <ele>872.0</ele>
        <time>2015-03-14T15:53:47Z</time>
      </trkpt>
      <trkpt lat="40.177500" lon="-5.092367">
        <ele>868.0</ele>
        <time>2015-03-14T15:53:49Z</time>
      </trkpt>
      <trkpt lat="40.177383" lon="-5.092483">
        <ele>864.0</ele>
        <time>2015-03-14T15:53:51Z</time>
      </trkpt>
      <trkpt lat="40.177283" lon="-5.092617">
        <ele>858.0</ele>
        <time>2015-03-14T15:53:53Z</time>
      </trkpt>
      <trkpt lat="40.177200" lon="-5.092750">
        <ele>854.0</ele>
        <time>2015-03-14T15:53:55Z</time>
      </trkpt>
      <trkpt lat="40.177100" lon="-5.092883">
        <ele>849.0</ele>
        <time>2015-03-14T15:53:57Z</time>
      </trkpt>
      <trkpt lat="40.177000" lon="-5.093017">
        <ele>844.0</ele>
        <time>2015-03-14T15:53:59Z</time>
      </trkpt>
      <trkpt lat="40.176917" lon="-5.093167">
        <ele>840.0</ele>
        <time>2015-03-14T15:54:01Z</time>
      </trkpt>
      <trkpt lat="40.176850" lon="-5.093300">
        <ele>834.0</ele>
        <time>2015-03-14T15:54:03Z</time>
      </trkpt>
      <trkpt lat="40.176767" lon="-5.093467">
        <ele>828.0</ele>
        <time>2015-03-14T15:54:05Z</time>
      </trkpt>
      <trkpt lat="40.176667" lon="-5.093633">
        <ele>825.0</ele>
        <time>2015-03-14T15:54:07Z</time>
      </trkpt>
      <trkpt lat="40.176617" lon="-5.093800">
        <ele>822.0</ele>
        <time>2015-03-14T15:54:09Z</time>
      </trkpt>
      <trkpt lat="40.176600" lon="-5.093950">
        <ele>817.0</ele>
        <time>2015-03-14T15:54:11Z</time>
      </trkpt>
      <trkpt lat="40.176550" lon="-5.094133">
        <ele>811.0</ele>
        <time>2015-03-14T15:54:13Z</time>
      </trkpt>
      <trkpt lat="40.176483" lon="-5.094300">
        <ele>809.0</ele>
        <time>2015-03-14T15:54:15Z</time>
      </trkpt>
      <trkpt lat="40.176433" lon="-5.094417">
        <ele>805.0</ele>
        <time>2015-03-14T15:54:17Z</time>
      </trkpt>
      <trkpt lat="40.176350" lon="-5.094533">
        <ele>800.0</ele>
        <time>2015-03-14T15:54:19Z</time>
      </trkpt>
      <trkpt lat="40.176267" lon="-5.094683">
        <ele>798.0</ele>
        <time>2015-03-14T15:54:21Z</time>
      </trkpt>
      <trkpt lat="40.176183" lon="-5.094817">
        <ele>796.0</ele>
        <time>2015-03-14T15:54:23Z</time>
      </trkpt>
      <trkpt lat="40.176117" lon="-5.094967">
        <ele>794.0</ele>
        <time>2015-03-14T15:54:25Z</time>
      </trkpt>
      <trkpt lat="40.175983" lon="-5.095067">
        <ele>792.0</ele>
        <time>2015-03-14T15:54:27Z</time>
      </trkpt>
      <trkpt lat="40.175867" lon="-5.095233">
        <ele>794.0</ele>
        <time>2015-03-14T15:54:29Z</time>
      </trkpt>
      <trkpt lat="40.175783" lon="-5.095383">
        <ele>794.0</ele>
        <time>2015-03-14T15:54:31Z</time>
      </trkpt>
      <trkpt lat="40.175750" lon="-5.095567">
        <ele>793.0</ele>
        <time>2015-03-14T15:54:33Z</time>
      </trkpt>
      <trkpt lat="40.175767" lon="-5.095783">
        <ele>791.0</ele>
        <time>2015-03-14T15:54:35Z</time>
      </trkpt>
      <trkpt lat="40.175800" lon="-5.096017">
        <ele>791.0</ele>
        <time>2015-03-14T15:54:37Z</time>
      </trkpt>
      <trkpt lat="40.175883" lon="-5.096183">
        <ele>791.0</ele>
        <time>2015-03-14T15:54:39Z</time>
      </trkpt>
      <trkpt lat="40.176017" lon="-5.096317">
        <ele>788.0</ele>
        <time>2015-03-14T15:54:41Z</time>
      </trkpt>
      <trkpt lat="40.176217" lon="-5.096383">
        <ele>787.0</ele>
        <time>2015-03-14T15:54:43Z</time>
      </trkpt>
      <trkpt lat="40.176400" lon="-5.096383">
        <ele>787.0</ele>
        <time>2015-03-14T15:54:45Z</time>
      </trkpt>
      <trkpt lat="40.176583" lon="-5.096283">
        <ele>787.0</ele>
        <time>2015-03-14T15:54:47Z</time>
      </trkpt>
      <trkpt lat="40.176733" lon="-5.096150">
        <ele>788.0</ele>
        <time>2015-03-14T15:54:49Z</time>
      </trkpt>
      <trkpt lat="40.176833" lon="-5.095950">
        <ele>790.0</ele>
        <time>2015-03-14T15:54:51Z</time>
      </trkpt>
      <trkpt lat="40.176867" lon="-5.095733">
        <ele>790.0</ele>
        <time>2015-03-14T15:54:53Z</time>
      </trkpt>
      <trkpt lat="40.176833" lon="-5.095533">
        <ele>790.0</ele>
        <time>2015-03-14T15:54:55Z</time>
      </trkpt>
      <trkpt lat="40.176750" lon="-5.095383">
        <ele>788.0</ele>
        <time>2015-03-14T15:54:57Z</time>
      </trkpt>
      <trkpt lat="40.176617" lon="-5.095300">
        <ele>785.0</ele>
        <time>2015-03-14T15:54:59Z</time>
      </trkpt>
      <trkpt lat="40.176450" lon="-5.095317">
        <ele>786.0</ele>
        <time>2015-03-14T15:55:01Z</time>
      </trkpt>
      <trkpt lat="40.176333" lon="-5.095383">
        <ele>787.0</ele>
        <time>2015-03-14T15:55:03Z</time>
      </trkpt>
      <trkpt lat="40.176233" lon="-5.095483">
        <ele>786.0</ele>
        <time>2015-03-14T15:55:05Z</time>
      </trkpt>
      <trkpt lat="40.176133" lon="-5.095650">
        <ele>784.0</ele>
        <time>2015-03-14T15:55:07Z</time>
      </trkpt>
      <trkpt lat="40.176067" lon="-5.095800">
        <ele>785.0</ele>
        <time>2015-03-14T15:55:09Z</time>
      </trkpt>
      <trkpt lat="40.176050" lon="-5.095967">
        <ele>785.0</ele>
        <time>2015-03-14T15:55:11Z</time>
      </trkpt>
      <trkpt lat="40.176050" lon="-5.096183">
        <ele>783.0</ele>
        <time>2015-03-14T15:55:13Z</time>
      </trkpt>
      <trkpt lat="40.176117" lon="-5.096383">
        <ele>782.0</ele>
        <time>2015-03-14T15:55:15Z</time>
      </trkpt>
      <trkpt lat="40.176233" lon="-5.096533">
        <ele>781.0</ele>
        <time>2015-03-14T15:55:17Z</time>
      </trkpt>
      <trkpt lat="40.176383" lon="-5.096650">
        <ele>780.0</ele>
        <time>2015-03-14T15:55:19Z</time>
      </trkpt>
      <trkpt lat="40.176567" lon="-5.096683">
        <ele>780.0</ele>
        <time>2015-03-14T15:55:21Z</time>
      </trkpt>
      <trkpt lat="40.176750" lon="-5.096600">
        <ele>777.0</ele>
        <time>2015-03-14T15:55:23Z</time>
      </trkpt>
      <trkpt lat="40.176917" lon="-5.096450">
        <ele>776.0</ele>
        <time>2015-03-14T15:55:25Z</time>
      </trkpt>
      <trkpt lat="40.177017" lon="-5.096250">
        <ele>775.0</ele>
        <time>2015-03-14T15:55:27Z</time>
      </trkpt>
      <trkpt lat="40.177050" lon="-5.096000">
        <ele>773.0</ele>
        <time>2015-03-14T15:55:29Z</time>
      </trkpt>
      <trkpt lat="40.177017" lon="-5.095800">
        <ele>773.0</ele>
        <time>2015-03-14T15:55:31Z</time>
      </trkpt>
      <trkpt lat="40.176917" lon="-5.095650">
        <ele>773.0</ele>
        <time>2015-03-14T15:55:33Z</time>
      </trkpt>
      <trkpt lat="40.176800" lon="-5.095583">
        <ele>773.0</ele>
        <time>2015-03-14T15:55:35Z</time>
      </trkpt>
      <trkpt lat="40.176683" lon="-5.095583">
        <ele>772.0</ele>
        <time>2015-03-14T15:55:37Z</time>
      </trkpt>
      <trkpt lat="40.176567" lon="-5.095650">
        <ele>772.0</ele>
        <time>2015-03-14T15:55:39Z</time>
      </trkpt>
      <trkpt lat="40.176467" lon="-5.095750">
        <ele>773.0</ele>
        <time>2015-03-14T15:55:41Z</time>
      </trkpt>
      <trkpt lat="40.176417" lon="-5.095867">
        <ele>771.0</ele>
        <time>2015-03-14T15:55:43Z</time>
      </trkpt>
      <trkpt lat="40.176333" lon="-5.096017">
        <ele>766.0</ele>
        <time>2015-03-14T15:55:45Z</time>
      </trkpt>
      <trkpt lat="40.176250" lon="-5.096150">
        <ele>765.0</ele>
        <time>2015-03-14T15:55:47Z</time>
      </trkpt>
      <trkpt lat="40.176217" lon="-5.096283">
        <ele>765.0</ele>
        <time>2015-03-14T15:55:49Z</time>
      </trkpt>
      <trkpt lat="40.176200" lon="-5.096433">
        <ele>760.0</ele>
        <time>2015-03-14T15:55:51Z</time>
      </trkpt>
      <trkpt lat="40.176150" lon="-5.096600">
        <ele>757.0</ele>
        <time>2015-03-14T15:55:53Z</time>
      </trkpt>
      <trkpt lat="40.176083" lon="-5.096733">
        <ele>756.0</ele>
        <time>2015-03-14T15:55:55Z</time>
      </trkpt>
      <trkpt lat="40.176033" lon="-5.096850">
        <ele>752.0</ele>
        <time>2015-03-14T15:55:57Z</time>
      </trkpt>
      <trkpt lat="40.175933" lon="-5.096967">
        <ele>747.0</ele>
        <time>2015-03-14T15:55:59Z</time>
      </trkpt>
      <trkpt lat="40.175850" lon="-5.097083">
        <ele>745.0</ele>
        <time>2015-03-14T15:56:01Z</time>
      </trkpt>
      <trkpt lat="40.175767" lon="-5.097200">
        <ele>742.0</ele>
        <time>2015-03-14T15:56:03Z</time>
      </trkpt>
      <trkpt lat="40.175667" lon="-5.097333">
        <ele>738.0</ele>
        <time>2015-03-14T15:56:05Z</time>
      </trkpt>
      <trkpt lat="40.175583" lon="-5.097467">
        <ele>736.0</ele>
        <time>2015-03-14T15:56:07Z</time>
      </trkpt>
      <trkpt lat="40.175517" lon="-5.097617">
        <ele>735.0</ele>
        <time>2015-03-14T15:56:09Z</time>
      </trkpt>
      <trkpt lat="40.175467" lon="-5.097750">
        <ele>736.0</ele>
        <time>2015-03-14T15:56:11Z</time>
      </trkpt>
      <trkpt lat="40.175450" lon="-5.097900">
        <ele>734.0</ele>
        <time>2015-03-14T15:56:13Z</time>
      </trkpt>
      <trkpt lat="40.175417" lon="-5.098100">
        <ele>731.0</ele>
        <time>2015-03-14T15:56:15Z</time>
      </trkpt>
      <trkpt lat="40.175367" lon="-5.098267">
        <ele>730.0</ele>
        <time>2015-03-14T15:56:17Z</time>
      </trkpt>
      <trkpt lat="40.175300" lon="-5.098417">
        <ele>730.0</ele>
        <time>2015-03-14T15:56:19Z</time>
      </trkpt>
      <trkpt lat="40.175250" lon="-5.098533">
        <ele>728.0</ele>
        <time>2015-03-14T15:56:21Z</time>
      </trkpt>
      <trkpt lat="40.175150" lon="-5.098650">
        <ele>727.0</ele>
        <time>2015-03-14T15:56:23Z</time>
      </trkpt>
      <trkpt lat="40.175083" lon="-5.098717">
        <ele>730.0</ele>
        <time>2015-03-14T15:56:25Z</time>
      </trkpt>
      <trkpt lat="40.175017" lon="-5.098767">
        <ele>729.0</ele>
        <time>2015-03-14T15:56:27Z</time>
      </trkpt>
      <trkpt lat="40.174900" lon="-5.098783">
        <ele>726.0</ele>
        <time>2015-03-14T15:56:29Z</time>
      </trkpt>
      <trkpt lat="40.174800" lon="-5.098833">
        <ele>726.0</ele>
        <time>2015-03-14T15:56:31Z</time>
      </trkpt>
      <trkpt lat="40.174733" lon="-5.098900">
        <ele>726.0</ele>
        <time>2015-03-14T15:56:33Z</time>
      </trkpt>
      <trkpt lat="40.174667" lon="-5.099033">
        <ele>723.0</ele>
        <time>2015-03-14T15:56:35Z</time>
      </trkpt>
      <trkpt lat="40.174600" lon="-5.099200">
        <ele>722.0</ele>
        <time>2015-03-14T15:56:37Z</time>
      </trkpt>
      <trkpt lat="40.174567" lon="-5.099350">
        <ele>722.0</ele>
        <time>2015-03-14T15:56:39Z</time>
      </trkpt>
      <trkpt lat="40.174567" lon="-5.099500">
        <ele>719.0</ele>
        <time>2015-03-14T15:56:41Z</time>
      </trkpt>
      <trkpt lat="40.174517" lon="-5.099700">
        <ele>715.0</ele>
        <time>2015-03-14T15:56:43Z</time>
      </trkpt>
      <trkpt lat="40.174433" lon="-5.099833">
        <ele>715.0</ele>
        <time>2015-03-14T15:56:45Z</time>
      </trkpt>
      <trkpt lat="40.174350" lon="-5.099933">
        <ele>715.0</ele>
        <time>2015-03-14T15:56:47Z</time>
      </trkpt>
      <trkpt lat="40.174283" lon="-5.100033">
        <ele>711.0</ele>
        <time>2015-03-14T15:56:49Z</time>
      </trkpt>
      <trkpt lat="40.174183" lon="-5.100150">
        <ele>710.0</ele>
        <time>2015-03-14T15:56:51Z</time>
      </trkpt>
      <trkpt lat="40.174100" lon="-5.100283">
        <ele>710.0</ele>
        <time>2015-03-14T15:56:53Z</time>
      </trkpt>
      <trkpt lat="40.174033" lon="-5.100383">
        <ele>711.0</ele>
        <time>2015-03-14T15:56:55Z</time>
      </trkpt>
      <trkpt lat="40.173983" lon="-5.100533">
        <ele>708.0</ele>
        <time>2015-03-14T15:56:57Z</time>
      </trkpt>
      <trkpt lat="40.173900" lon="-5.100700">
        <ele>708.0</ele>
        <time>2015-03-14T15:56:59Z</time>
      </trkpt>
      <trkpt lat="40.173817" lon="-5.100800">
        <ele>709.0</ele>
        <time>2015-03-14T15:57:01Z</time>
      </trkpt>
      <trkpt lat="40.173750" lon="-5.100883">
        <ele>706.0</ele>
        <time>2015-03-14T15:57:03Z</time>
      </trkpt>
      <trkpt lat="40.173633" lon="-5.100967">
        <ele>702.0</ele>
        <time>2015-03-14T15:57:05Z</time>
      </trkpt>
      <trkpt lat="40.173533" lon="-5.101067">
        <ele>701.0</ele>
        <time>2015-03-14T15:57:07Z</time>
      </trkpt>
      <trkpt lat="40.173483" lon="-5.101167">
        <ele>700.0</ele>
        <time>2015-03-14T15:57:09Z</time>
      </trkpt>
      <trkpt lat="40.173433" lon="-5.101283">
        <ele>697.0</ele>
        <time>2015-03-14T15:57:11Z</time>
      </trkpt>
      <trkpt lat="40.173383" lon="-5.101400">
        <ele>696.0</ele>
        <time>2015-03-14T15:57:13Z</time>
      </trkpt>
      <trkpt lat="40.173350" lon="-5.101450">
        <ele>696.0</ele>
        <time>2015-03-14T15:57:15Z</time>
      </trkpt>
      <trkpt lat="40.173300" lon="-5.101517">
        <ele>692.0</ele>
        <time>2015-03-14T15:57:17Z</time>
      </trkpt>
      <trkpt lat="40.173217" lon="-5.101583">
        <ele>688.0</ele>
        <time>2015-03-14T15:57:19Z</time>
      </trkpt>
      <trkpt lat="40.173150" lon="-5.101667">
        <ele>688.0</ele>
        <time>2015-03-14T15:57:21Z</time>
      </trkpt>
      <trkpt lat="40.173083" lon="-5.101700">
        <ele>688.0</ele>
        <time>2015-03-14T15:57:23Z</time>
      </trkpt>
      <trkpt lat="40.173000" lon="-5.101700">
        <ele>688.0</ele>
        <time>2015-03-14T15:57:25Z</time>
      </trkpt>
      <trkpt lat="40.172933" lon="-5.101700">
        <ele>687.0</ele>
        <time>2015-03-14T15:57:27Z</time>
      </trkpt>
      <trkpt lat="40.172850" lon="-5.101633">
        <ele>686.0</ele>
        <time>2015-03-14T15:57:29Z</time>
      </trkpt>
      <trkpt lat="40.172783" lon="-5.101517">
        <ele>686.0</ele>
        <time>2015-03-14T15:57:31Z</time>
      </trkpt>
      <trkpt lat="40.172717" lon="-5.101367">
        <ele>687.0</ele>
        <time>2015-03-14T15:57:33Z</time>
      </trkpt>
      <trkpt lat="40.172650" lon="-5.101200">
        <ele>685.0</ele>
        <time>2015-03-14T15:57:35Z</time>
      </trkpt>
      <trkpt lat="40.172567" lon="-5.101067">
        <ele>684.0</ele>
        <time>2015-03-14T15:57:37Z</time>
      </trkpt>
      <trkpt lat="40.172450" lon="-5.100983">
        <ele>682.0</ele>
        <time>2015-03-14T15:57:39Z</time>
      </trkpt>
      <trkpt lat="40.172350" lon="-5.100933">
        <ele>680.0</ele>
        <time>2015-03-14T15:57:41Z</time>
      </trkpt>
      <trkpt lat="40.172233" lon="-5.100950">
        <ele>679.0</ele>
        <time>2015-03-14T15:57:43Z</time>
      </trkpt>
      <trkpt lat="40.172117" lon="-5.100933">
        <ele>681.0</ele>
        <time>2015-03-14T15:57:45Z</time>
      </trkpt>
      <trkpt lat="40.172067" lon="-5.100883">
        <ele>683.0</ele>
        <time>2015-03-14T15:57:47Z</time>
      </trkpt>
      <trkpt lat="40.171967" lon="-5.100767">
        <ele>681.0</ele>
        <time>2015-03-14T15:57:49Z</time>
      </trkpt>
      <trkpt lat="40.171867" lon="-5.100600">
        <ele>682.0</ele>
        <time>2015-03-14T15:57:51Z</time>
      </trkpt>
      <trkpt lat="40.171817" lon="-5.100433">
        <ele>685.0</ele>
        <time>2015-03-14T15:57:53Z</time>
      </trkpt>
      <trkpt lat="40.171833" lon="-5.100217">
        <ele>682.0</ele>
        <time>2015-03-14T15:57:55Z</time>
      </trkpt>
      <trkpt lat="40.171950" lon="-5.099950">
        <ele>679.0</ele>
        <time>2015-03-14T15:57:57Z</time>
      </trkpt>
      <trkpt lat="40.172183" lon="-5.099783">
        <ele>678.0</ele>
        <time>2015-03-14T15:57:59Z</time>
      </trkpt>
      <trkpt lat="40.172400" lon="-5.099850">
        <ele>681.0</ele>
        <time>2015-03-14T15:58:01Z</time>
      </trkpt>
      <trkpt lat="40.172567" lon="-5.099967">
        <ele>686.0</ele>
        <time>2015-03-14T15:58:03Z</time>
      </trkpt>
      <trkpt lat="40.172667" lon="-5.100133">
        <ele>686.0</ele>
        <time>2015-03-14T15:58:05Z</time>
      </trkpt>
      <trkpt lat="40.172733" lon="-5.100333">
        <ele>685.0</ele>
        <time>2015-03-14T15:58:07Z</time>
      </trkpt>
      <trkpt lat="40.172733" lon="-5.100517">
        <ele>685.0</ele>
        <time>2015-03-14T15:58:09Z</time>
      </trkpt>
      <trkpt lat="40.172700" lon="-5.100633">
        <ele>684.0</ele>
        <time>2015-03-14T15:58:11Z</time>
      </trkpt>
      <trkpt lat="40.172650" lon="-5.100750">
        <ele>683.0</ele>
        <time>2015-03-14T15:58:13Z</time>
      </trkpt>
      <trkpt lat="40.172600" lon="-5.100817">
        <ele>684.0</ele>
        <time>2015-03-14T15:58:15Z</time>
      </trkpt>
      <trkpt lat="40.172550" lon="-5.100850">
        <ele>683.0</ele>
        <time>2015-03-14T15:58:17Z</time>
      </trkpt>
      <trkpt lat="40.172483" lon="-5.100883">
        <ele>680.0</ele>
        <time>2015-03-14T15:58:19Z</time>
      </trkpt>
      <trkpt lat="40.172367" lon="-5.100917">
        <ele>678.0</ele>
        <time>2015-03-14T15:58:21Z</time>
      </trkpt>
      <trkpt lat="40.172283" lon="-5.100917">
        <ele>678.0</ele>
        <time>2015-03-14T15:58:23Z</time>
      </trkpt>
      <trkpt lat="40.172217" lon="-5.100917">
        <ele>676.0</ele>
        <time>2015-03-14T15:58:25Z</time>
      </trkpt>
      <trkpt lat="40.172133" lon="-5.100867">
        <ele>672.0</ele>
        <time>2015-03-14T15:58:27Z</time>
      </trkpt>
      <trkpt lat="40.172033" lon="-5.100800">
        <ele>670.0</ele>
        <time>2015-03-14T15:58:29Z</time>
      </trkpt>
      <trkpt lat="40.171933" lon="-5.100750">
        <ele>669.0</ele>
        <time>2015-03-14T15:58:31Z</time>
      </trkpt>
      <trkpt lat="40.171850" lon="-5.100650">
        <ele>668.0</ele>
        <time>2015-03-14T15:58:33Z</time>
      </trkpt>
      <trkpt lat="40.171750" lon="-5.100567">
        <ele>665.0</ele>
        <time>2015-03-14T15:58:35Z</time>
      </trkpt>
      <trkpt lat="40.171650" lon="-5.100483">
        <ele>662.0</ele>
        <time>2015-03-14T15:58:37Z</time>
      </trkpt>
      <trkpt lat="40.171550" lon="-5.100400">
        <ele>662.0</ele>
        <time>2015-03-14T15:58:39Z</time>
      </trkpt>
      <trkpt lat="40.171483" lon="-5.100400">
        <ele>663.0</ele>
        <time>2015-03-14T15:58:41Z</time>
      </trkpt>
      <trkpt lat="40.171417" lon="-5.100433">
        <ele>661.0</ele>
        <time>2015-03-14T15:58:43Z</time>
      </trkpt>
      <trkpt lat="40.171333" lon="-5.100467">
        <ele>660.0</ele>
        <time>2015-03-14T15:58:45Z</time>
      </trkpt>
      <trkpt lat="40.171283" lon="-5.100567">
        <ele>660.0</ele>
        <time>2015-03-14T15:58:47Z</time>
      </trkpt>
      <trkpt lat="40.171233" lon="-5.100683">
        <ele>659.0</ele>
        <time>2015-03-14T15:58:49Z</time>
      </trkpt>
      <trkpt lat="40.171167" lon="-5.100767">
        <ele>659.0</ele>
        <time>2015-03-14T15:58:51Z</time>
      </trkpt>
      <trkpt lat="40.171117" lon="-5.100850">
        <ele>660.0</ele>
        <time>2015-03-14T15:58:53Z</time>
      </trkpt>
      <trkpt lat="40.171067" lon="-5.100917">
        <ele>660.0</ele>
        <time>2015-03-14T15:58:55Z</time>
      </trkpt>
      <trkpt lat="40.171017" lon="-5.101017">
        <ele>657.0</ele>
        <time>2015-03-14T15:58:57Z</time>
      </trkpt>
      <trkpt lat="40.170967" lon="-5.101100">
        <ele>656.0</ele>
        <time>2015-03-14T15:58:59Z</time>
      </trkpt>
      <trkpt lat="40.170933" lon="-5.101267">
        <ele>657.0</ele>
        <time>2015-03-14T15:59:01Z</time>
      </trkpt>
      <trkpt lat="40.170833" lon="-5.101317">
        <ele>659.0</ele>
        <time>2015-03-14T15:59:03Z</time>
      </trkpt>
      <trkpt lat="40.170750" lon="-5.101333">
        <ele>661.0</ele>
        <time>2015-03-14T15:59:05Z</time>
      </trkpt>
      <trkpt lat="40.170683" lon="-5.101333">
        <ele>658.0</ele>
        <time>2015-03-14T15:59:07Z</time>
      </trkpt>
      <trkpt lat="40.170567" lon="-5.101350">
        <ele>653.0</ele>
        <time>2015-03-14T15:59:09Z</time>
      </trkpt>
      <trkpt lat="40.170467" lon="-5.101333">
        <ele>651.0</ele>
        <time>2015-03-14T15:59:11Z</time>
      </trkpt>
      <trkpt lat="40.170383" lon="-5.101350">
        <ele>649.0</ele>
        <time>2015-03-14T15:59:13Z</time>
      </trkpt>
      <trkpt lat="40.170300" lon="-5.101350">
        <ele>645.0</ele>
        <time>2015-03-14T15:59:15Z</time>
      </trkpt>
      <trkpt lat="40.170200" lon="-5.101383">
        <ele>642.0</ele>
        <time>2015-03-14T15:59:17Z</time>
      </trkpt>
      <trkpt lat="40.170117" lon="-5.101400">
        <ele>639.0</ele>
        <time>2015-03-14T15:59:19Z</time>
      </trkpt>
      <trkpt lat="40.170033" lon="-5.101417">
        <ele>636.0</ele>
        <time>2015-03-14T15:59:21Z</time>
      </trkpt>
      <trkpt lat="40.169933" lon="-5.101417">
        <ele>634.0</ele>
        <time>2015-03-14T15:59:23Z</time>
      </trkpt>
      <trkpt lat="40.169867" lon="-5.101400">
        <ele>631.0</ele>
        <time>2015-03-14T15:59:25Z</time>
      </trkpt>
      <trkpt lat="40.169767" lon="-5.101383">
        <ele>626.0</ele>
        <time>2015-03-14T15:59:27Z</time>
      </trkpt>
      <trkpt lat="40.169650" lon="-5.101333">
        <ele>625.0</ele>
        <time>2015-03-14T15:59:29Z</time>
      </trkpt>
      <trkpt lat="40.169567" lon="-5.101300">
        <ele>623.0</ele>
        <time>2015-03-14T15:59:31Z</time>
      </trkpt>
      <trkpt lat="40.169483" lon="-5.101283">
        <ele>619.0</ele>
        <time>2015-03-14T15:59:33Z</time>
      </trkpt>
      <trkpt lat="40.169367" lon="-5.101300">
        <ele>618.0</ele>
        <time>2015-03-14T15:59:35Z</time>
      </trkpt>
      <trkpt lat="40.169283" lon="-5.101300">
        <ele>619.0</ele>
        <time>2015-03-14T15:59:37Z</time>
      </trkpt>
      <trkpt lat="40.169200" lon="-5.101317">
        <ele>618.0</ele>
        <time>2015-03-14T15:59:39Z</time>
      </trkpt>
      <trkpt lat="40.169133" lon="-5.101367">
        <ele>616.0</ele>
        <time>2015-03-14T15:59:41Z</time>
      </trkpt>
      <trkpt lat="40.169050" lon="-5.101417">
        <ele>615.0</ele>
        <time>2015-03-14T15:59:43Z</time>
      </trkpt>
      <trkpt lat="40.168967" lon="-5.101433">
        <ele>615.0</ele>
        <time>2015-03-14T15:59:45Z</time>
      </trkpt>
      <trkpt lat="40.168883" lon="-5.101433">
        <ele>615.0</ele>
        <time>2015-03-14T15:59:47Z</time>
      </trkpt>
      <trkpt lat="40.168783" lon="-5.101383">
        <ele>615.0</ele>
        <time>2015-03-14T15:59:49Z</time>
      </trkpt>
      <trkpt lat="40.168700" lon="-5.101317">
        <ele>615.0</ele>
        <time>2015-03-14T15:59:51Z</time>
      </trkpt>
      <trkpt lat="40.168633" lon="-5.101233">
        <ele>614.0</ele>
        <time>2015-03-14T15:59:53Z</time>
      </trkpt>
      <trkpt lat="40.168533" lon="-5.101100">
        <ele>612.0</ele>
        <time>2015-03-14T15:59:55Z</time>
      </trkpt>
      <trkpt lat="40.168417" lon="-5.101033">
        <ele>611.0</ele>
        <time>2015-03-14T15:59:57Z</time>
      </trkpt>
      <trkpt lat="40.168333" lon="-5.101017">
        <ele>611.0</ele>
        <time>2015-03-14T15:59:59Z</time>
      </trkpt>
      <trkpt lat="40.168250" lon="-5.101017">
        <ele>609.0</ele>
        <time>2015-03-14T16:00:01Z</time>
      </trkpt>
      <trkpt lat="40.168150" lon="-5.101100">
        <ele>605.0</ele>
        <time>2015-03-14T16:00:03Z</time>
      </trkpt>
      <trkpt lat="40.168067" lon="-5.101167">
        <ele>605.0</ele>
        <time>2015-03-14T16:00:05Z</time>
      </trkpt>
      <trkpt lat="40.168000" lon="-5.101200">
        <ele>604.0</ele>
        <time>2015-03-14T16:00:07Z</time>
      </trkpt>
      <trkpt lat="40.167900" lon="-5.101217">
        <ele>601.0</ele>
        <time>2015-03-14T16:00:09Z</time>
      </trkpt>
      <trkpt lat="40.167800" lon="-5.101217">
        <ele>597.0</ele>
        <time>2015-03-14T16:00:11Z</time>
      </trkpt>
      <trkpt lat="40.167683" lon="-5.101233">
        <ele>593.0</ele>
        <time>2015-03-14T16:00:13Z</time>
      </trkpt>
      <trkpt lat="40.167583" lon="-5.101267">
        <ele>590.0</ele>
        <time>2015-03-14T16:00:15Z</time>
      </trkpt>
      <trkpt lat="40.167517" lon="-5.101383">
        <ele>588.0</ele>
        <time>2015-03-14T16:00:17Z</time>
      </trkpt>
      <trkpt lat="40.167483" lon="-5.101533">
        <ele>585.0</ele>
        <time>2015-03-14T16:00:19Z</time>
      </trkpt>
      <trkpt lat="40.167450" lon="-5.101700">
        <ele>582.0</ele>
        <time>2015-03-14T16:00:21Z</time>
      </trkpt>
      <trkpt lat="40.167383" lon="-5.101867">
        <ele>580.0</ele>
        <time>2015-03-14T16:00:23Z</time>
      </trkpt>
      <trkpt lat="40.167300" lon="-5.101967">
        <ele>578.0</ele>
        <time>2015-03-14T16:00:25Z</time>
      </trkpt>
      <trkpt lat="40.167217" lon="-5.102050">
        <ele>577.0</ele>
        <time>2015-03-14T16:00:27Z</time>
      </trkpt>
      <trkpt lat="40.167117" lon="-5.102133">
        <ele>576.0</ele>
        <time>2015-03-14T16:00:29Z</time>
      </trkpt>
      <trkpt lat="40.167017" lon="-5.102217">
        <ele>577.0</ele>
        <time>2015-03-14T16:00:31Z</time>
      </trkpt>
      <trkpt lat="40.166950" lon="-5.102283">
        <ele>578.0</ele>
        <time>2015-03-14T16:00:33Z</time>
      </trkpt>
      <trkpt lat="40.166867" lon="-5.102400">
        <ele>577.0</ele>
        <time>2015-03-14T16:00:35Z</time>
      </trkpt>
      <trkpt lat="40.166783" lon="-5.102533">
        <ele>577.0</ele>
        <time>2015-03-14T16:00:37Z</time>
      </trkpt>
      <trkpt lat="40.166733" lon="-5.102633">
        <ele>578.0</ele>
        <time>2015-03-14T16:00:39Z</time>
      </trkpt>
      <trkpt lat="40.166667" lon="-5.102800">
        <ele>579.0</ele>
        <time>2015-03-14T16:00:41Z</time>
      </trkpt>
      <trkpt lat="40.166633" lon="-5.102967">
        <ele>580.0</ele>
        <time>2015-03-14T16:00:43Z</time>
      </trkpt>
      <trkpt lat="40.166583" lon="-5.103117">
        <ele>580.0</ele>
        <time>2015-03-14T16:00:45Z</time>
      </trkpt>
      <trkpt lat="40.166500" lon="-5.103283">
        <ele>580.0</ele>
        <time>2015-03-14T16:00:47Z</time>
      </trkpt>
      <trkpt lat="40.166400" lon="-5.103433">
        <ele>581.0</ele>
        <time>2015-03-14T16:00:49Z</time>
      </trkpt>
      <trkpt lat="40.166333" lon="-5.103533">
        <ele>582.0</ele>
        <time>2015-03-14T16:00:51Z</time>
      </trkpt>
      <trkpt lat="40.166300" lon="-5.103683">
        <ele>581.0</ele>
        <time>2015-03-14T16:00:53Z</time>
      </trkpt>
      <trkpt lat="40.166317" lon="-5.103850">
        <ele>582.0</ele>
        <time>2015-03-14T16:00:55Z</time>
      </trkpt>
      <trkpt lat="40.166400" lon="-5.104000">
        <ele>583.0</ele>
        <time>2015-03-14T16:00:57Z</time>
      </trkpt>
      <trkpt lat="40.166500" lon="-5.104133">
        <ele>580.0</ele>
        <time>2015-03-14T16:00:59Z</time>
      </trkpt>
      <trkpt lat="40.166583" lon="-5.104300">
        <ele>575.0</ele>
        <time>2015-03-14T16:01:01Z</time>
      </trkpt>
      <trkpt lat="40.166567" lon="-5.104483">
        <ele>573.0</ele>
        <time>2015-03-14T16:01:03Z</time>
      </trkpt>
      <trkpt lat="40.166517" lon="-5.104617">
        <ele>574.0</ele>
        <time>2015-03-14T16:01:05Z</time>
      </trkpt>
      <trkpt lat="40.166467" lon="-5.104700">
        <ele>573.0</ele>
        <time>2015-03-14T16:01:07Z</time>
      </trkpt>
      <trkpt lat="40.166367" lon="-5.104750">
        <ele>569.0</ele>
        <time>2015-03-14T16:01:09Z</time>
      </trkpt>
      <trkpt lat="40.166283" lon="-5.104833">
        <ele>567.0</ele>
        <time>2015-03-14T16:01:11Z</time>
      </trkpt>
      <trkpt lat="40.166217" lon="-5.104900">
        <ele>564.0</ele>
        <time>2015-03-14T16:01:13Z</time>
      </trkpt>
      <trkpt lat="40.166167" lon="-5.104967">
        <ele>560.0</ele>
        <time>2015-03-14T16:01:15Z</time>
      </trkpt>
      <trkpt lat="40.166100" lon="-5.105050">
        <ele>557.0</ele>
        <time>2015-03-14T16:01:17Z</time>
      </trkpt>
      <trkpt lat="40.166033" lon="-5.105117">
        <ele>554.0</ele>
        <time>2015-03-14T16:01:19Z</time>
      </trkpt>
      <trkpt lat="40.165967" lon="-5.105167">
        <ele>550.0</ele>
        <time>2015-03-14T16:01:21Z</time>
      </trkpt>
      <trkpt lat="40.165867" lon="-5.105200">
        <ele>547.0</ele>
        <time>2015-03-14T16:01:23Z</time>
      </trkpt>
      <trkpt lat="40.165783" lon="-5.105200">
        <ele>545.0</ele>
        <time>2015-03-14T16:01:25Z</time>
      </trkpt>
      <trkpt lat="40.165717" lon="-5.105200">
        <ele>543.0</ele>
        <time>2015-03-14T16:01:27Z</time>
      </trkpt>
      <trkpt lat="40.165633" lon="-5.105150">
        <ele>538.0</ele>
        <time>2015-03-14T16:01:29Z</time>
      </trkpt>
      <trkpt lat="40.165517" lon="-5.105117">
        <ele>534.0</ele>
        <time>2015-03-14T16:01:31Z</time>
      </trkpt>
      <trkpt lat="40.165433" lon="-5.105083">
        <ele>532.0</ele>
        <time>2015-03-14T16:01:33Z</time>
      </trkpt>
      <trkpt lat="40.165350" lon="-5.105017">
        <ele>527.0</ele>
        <time>2015-03-14T16:01:35Z</time>
      </trkpt>
      <trkpt lat="40.165233" lon="-5.104950">
        <ele>524.0</ele>
        <time>2015-03-14T16:01:37Z</time>
      </trkpt>
      <trkpt lat="40.165133" lon="-5.104867">
        <ele>522.0</ele>
        <time>2015-03-14T16:01:39Z</time>
      </trkpt>
      <trkpt lat="40.165033" lon="-5.104800">
        <ele>520.0</ele>
        <time>2015-03-14T16:01:41Z</time>
      </trkpt>
      <trkpt lat="40.164933" lon="-5.104733">
        <ele>516.0</ele>
        <time>2015-03-14T16:01:43Z</time>
      </trkpt>
      <trkpt lat="40.164817" lon="-5.104667">
        <ele>513.0</ele>
        <time>2015-03-14T16:01:45Z</time>
      </trkpt>
      <trkpt lat="40.164717" lon="-5.104583">
        <ele>512.0</ele>
        <time>2015-03-14T16:01:47Z</time>
      </trkpt>
      <trkpt lat="40.164633" lon="-5.104483">
        <ele>508.0</ele>
        <time>2015-03-14T16:01:49Z</time>
      </trkpt>
      <trkpt lat="40.164567" lon="-5.104317">
        <ele>506.0</ele>
        <time>2015-03-14T16:01:51Z</time>
      </trkpt>
      <trkpt lat="40.164517" lon="-5.104117">
        <ele>504.0</ele>
        <time>2015-03-14T16:01:53Z</time>
      </trkpt>
      <trkpt lat="40.164450" lon="-5.103900">
        <ele>501.0</ele>
        <time>2015-03-14T16:01:55Z</time>
      </trkpt>
      <trkpt lat="40.164367" lon="-5.103750">
        <ele>499.0</ele>
        <time>2015-03-14T16:01:57Z</time>
      </trkpt>
      <trkpt lat="40.164267" lon="-5.103667">
        <ele>496.0</ele>
        <time>2015-03-14T16:01:59Z</time>
      </trkpt>
      <trkpt lat="40.164183" lon="-5.103450">
        <ele>492.0</ele>
        <time>2015-03-14T16:02:01Z</time>
      </trkpt>
      <trkpt lat="40.164050" lon="-5.103283">
        <ele>502.0</ele>
        <time>2015-03-14T16:02:03Z</time>
      </trkpt>
      <trkpt lat="40.163933" lon="-5.103233">
        <ele>498.0</ele>
        <time>2015-03-14T16:02:05Z</time>
      </trkpt>
      <trkpt lat="40.163817" lon="-5.103300">
        <ele>488.0</ele>
        <time>2015-03-14T16:02:07Z</time>
      </trkpt>
      <trkpt lat="40.163683" lon="-5.103400">
        <ele>484.0</ele>
        <time>2015-03-14T16:02:09Z</time>
      </trkpt>
      <trkpt lat="40.163567" lon="-5.103517">
        <ele>483.0</ele>
        <time>2015-03-14T16:02:11Z</time>
      </trkpt>
      <trkpt lat="40.163467" lon="-5.103600">
        <ele>482.0</ele>
        <time>2015-03-14T16:02:13Z</time>
      </trkpt>
      <trkpt lat="40.163350" lon="-5.103550">
        <ele>480.0</ele>
        <time>2015-03-14T16:02:15Z</time>
      </trkpt>
      <trkpt lat="40.163250" lon="-5.103367">
        <ele>476.0</ele>
        <time>2015-03-14T16:02:17Z</time>
      </trkpt>
      <trkpt lat="40.163233" lon="-5.103117">
        <ele>474.0</ele>
        <time>2015-03-14T16:02:19Z</time>
      </trkpt>
      <trkpt lat="40.163200" lon="-5.102900">
        <ele>469.0</ele>
        <time>2015-03-14T16:02:21Z</time>
      </trkpt>
      <trkpt lat="40.163100" lon="-5.102767">
        <ele>463.0</ele>
        <time>2015-03-14T16:02:23Z</time>
      </trkpt>
      <trkpt lat="40.162983" lon="-5.102767">
        <ele>458.0</ele>
        <time>2015-03-14T16:02:25Z</time>
      </trkpt>
      <trkpt lat="40.162900" lon="-5.102883">
        <ele>452.0</ele>
        <time>2015-03-14T16:02:27Z</time>
      </trkpt>
      <trkpt lat="40.162900" lon="-5.103067">
        <ele>449.0</ele>
        <time>2015-03-14T16:02:29Z</time>
      </trkpt>
      <trkpt lat="40.162967" lon="-5.103233">
        <ele>445.0</ele>
        <time>2015-03-14T16:02:31Z</time>
      </trkpt>
      <trkpt lat="40.163033" lon="-5.103367">
        <ele>443.0</ele>
        <time>2015-03-14T16:02:33Z</time>
      </trkpt>
      <trkpt lat="40.163050" lon="-5.103467">
        <ele>441.0</ele>
        <time>2015-03-14T16:02:35Z</time>
      </trkpt>
      <trkpt lat="40.163033" lon="-5.103533">
        <ele>438.0</ele>
        <time>2015-03-14T16:02:37Z</time>
      </trkpt>
      <trkpt lat="40.163000" lon="-5.103633">
        <ele>434.0</ele>
        <time>2015-03-14T16:02:39Z</time>
      </trkpt>
      <trkpt lat="40.162983" lon="-5.103733">
        <ele>431.0</ele>
        <time>2015-03-14T16:02:41Z</time>
      </trkpt>
      <trkpt lat="40.162967" lon="-5.103833">
        <ele>428.0</ele>
        <time>2015-03-14T16:02:43Z</time>
      </trkpt>
      <trkpt lat="40.162967" lon="-5.103917">
        <ele>425.0</ele>
        <time>2015-03-14T16:02:45Z</time>
      </trkpt>
      <trkpt lat="40.162983" lon="-5.103933">
        <ele>425.0</ele>
        <time>2015-03-14T16:02:47Z</time>
      </trkpt>
      <trkpt lat="40.163000" lon="-5.103917">
        <ele>425.0</ele>
        <time>2015-03-14T16:02:49Z</time>
      </trkpt>
      <trkpt lat="40.163000" lon="-5.103900">
        <ele>425.0</ele>
        <time>2015-03-14T16:02:51Z</time>
      </trkpt>
      <trkpt lat="40.163000" lon="-5.103883">
        <ele>425.0</ele>
        <time>2015-03-14T16:02:53Z</time>
      </trkpt>
      <trkpt lat="40.163000" lon="-5.103867">
        <ele>425.0</ele>
        <time>2015-03-14T16:02:55Z</time>
      </trkpt>
      <trkpt lat="40.163033" lon="-5.103883">
        <ele>424.0</ele>
        <time>2015-03-14T16:02:57Z</time>
      </trkpt>
      <trkpt lat="40.163033" lon="-5.103883">
        <ele>424.0</ele>
        <time>2015-03-14T16:02:59Z</time>
      </trkpt>
      <trkpt lat="40.163033" lon="-5.103883">
        <ele>424.0</ele>
        <time>2015-03-14T16:03:01Z</time>
      </trkpt>
      <trkpt lat="40.163033" lon="-5.103883">
        <ele>425.0</ele>
        <time>2015-03-14T16:03:03Z</time>
      </trkpt>
      <trkpt lat="40.163033" lon="-5.103883">
        <ele>424.0</ele>
        <time>2015-03-14T16:03:05Z</time>
      </trkpt>
      <trkpt lat="40.163033" lon="-5.103900">
        <ele>425.0</ele>
        <time>2015-03-14T16:03:07Z</time>
      </trkpt>
      <trkpt lat="40.163017" lon="-5.103900">
        <ele>425.0</ele>
        <time>2015-03-14T16:03:09Z</time>
      </trkpt>
      <trkpt lat="40.163017" lon="-5.103900">
        <ele>425.0</ele>
        <time>2015-03-14T16:03:11Z</time>
      </trkpt>
      <trkpt lat="40.163017" lon="-5.103900">
        <ele>425.0</ele>
        <time>2015-03-14T16:03:13Z</time>
      </trkpt>
      <trkpt lat="40.163017" lon="-5.103900">
        <ele>425.0</ele>
        <time>2015-03-14T16:03:15Z</time>
      </trkpt>
      <trkpt lat="40.163017" lon="-5.103900">
        <ele>424.0</ele>
        <time>2015-03-14T16:03:17Z</time>
      </trkpt>
      <trkpt lat="40.163017" lon="-5.103900">
        <ele>424.0</ele>
        <time>2015-03-14T16:03:19Z</time>
      </trkpt>
    </trkseg>
  </trk>
</gpx>
